# Wetter Temperatur Luftdruck Luftfeuchtigkeit Sichtweite Windgeschwindigkeit Windrichtung Zeit
1 Clouds 15 1019 93 10000 2.6 310 05:19 11.07.2020
2 Rain 16 1019 87 10000 2.1 320 04:39 11.07.2020
3 Rain 16 1019 87 10000 2.1 320 04:19 11.07.2020
4 Rain 16 1019 82 10000 2.6 350 02:53 11.07.2020
5 Rain 18 1019 63 10000 1.5 320 01:57 11.07.2020
6 Rain 18 1018 63 10000 0.5 0 01:22 11.07.2020
7 Rain 18 1018 68 10000 2.1 360 00:57 11.07.2020
8 Rain 18 1018 68 10000 2.1 360 00:37 11.07.2020
9 Clouds 19 1018 63 10000 2.1 20 00:18 11.07.2020
10 Clouds 19 1018 63 10000 2.1 60 23:44 10.07.2020
11 Clouds 19 1017 59 10000 2.6 330 23:26 10.07.2020
12 Clouds 19 1017 59 10000 2.1 320 22:56 10.07.2020
13 Clouds 20 1017 59 10000 2.1 320 22:38 10.07.2020
14 Clouds 20 1017 56 10000 3.6 300 22:18 10.07.2020
15 Clouds 21 1017 56 10000 5.1 300 21:39 10.07.2020
16 Clouds 21 1017 52 10000 4.6 300 21:20 10.07.2020
17 Clouds 21 1016 52 10000 6.2 310 20:57 10.07.2020
18 Clouds 22 1016 49 10000 5.7 300 20:38 10.07.2020
19 Clouds 22 1016 49 10000 5.7 300 20:38 10.07.2020
20 Clouds 22 1016 49 10000 5.7 300 20:19 10.07.2020
21 Clouds 23 1016 46 10000 7.7 320 19:57 10.07.2020
22 Clouds 23 1015 49 10000 9.3 300 19:38 10.07.2020
23 Clouds 23 1015 49 10000 9.3 300 19:19 10.07.2020
24 Clouds 24 1015 49 10000 9.3 310 18:41 10.07.2020
25 Clouds 24 1015 47 10000 8.2 320 18:19 10.07.2020
26 Clouds 24 1015 44 10000 8.2 300 17:57 10.07.2020
27 Clouds 25 1015 44 10000 8.2 300 17:38 10.07.2020
28 Clouds 25 1014 47 10000 9.3 310 17:20 10.07.2020
29 Clouds 25 1014 47 10000 9.3 300 16:42 10.07.2020
30 Clouds 25 1014 47 10000 10.3 310 16:20 10.07.2020
31 Clouds 26 1014 42 10000 9.8 300 15:47 10.07.2020
32 Clouds 27 1013 44 10000 9.3 320 15:25 10.07.2020
33 Clouds 27 1013 44 0 8.2 320 14:56 10.07.2020
34 Clouds 27 1013 42 10000 8.2 270 14:38 10.07.2020
35 Clouds 27 1013 42 10000 8.2 270 14:20 10.07.2020
36 Clouds 27 1013 39 10000 10.3 280 13:57 10.07.2020
37 Clouds 27 1013 39 10000 10.3 280 13:38 10.07.2020
38 Clouds 28 1013 39 10000 6.7 260 13:20 10.07.2020
39 Clouds 28 1012 39 10000 6.2 250 12:56 10.07.2020
40 Clouds 28 1012 39 10000 6.2 250 12:37 10.07.2020
41 Clouds 28 1013 42 10000 6.7 250 12:19 10.07.2020
42 Clouds 28 1012 44 10000 7.2 250 11:41 10.07.2020
43 Clouds 27 1012 44 10000 7.2 250 11:20 10.07.2020
44 Clouds 27 1013 44 10000 4.1 250 10:57 10.07.2020
45 Clouds 27 1013 47 10000 2.6 0 10:38 10.07.2020
46 Clouds 26 1013 47 10000 2.6 0 10:19 10.07.2020
47 Clouds 25 1013 50 10000 2.6 220 09:40 10.07.2020
48 Clouds 24 1012 50 10000 3.1 220 09:22 10.07.2020
49 Clouds 23 1012 47 10000 1 0 08:58 10.07.2020
50 Clouds 23 1012 47 10000 1 0 08:40 10.07.2020
51 Clear 22 1012 53 10000 1 0 08:22 10.07.2020
52 Clear 19 1012 68 10000 1 0 07:45 10.07.2020
53 Clear 18 1012 77 10000 1 0 07:23 10.07.2020
54 Clear 17 1012 68 10000 1 0 06:57 10.07.2020
55 Clear 16 1013 72 10000 0.5 0 06:39 10.07.2020
56 Clear 16 1013 87 10000 0.5 40 05:28 10.07.2020
57 Rain 17 1013 82 10000 0.5 90 03:54 10.07.2020
58 Rain 18 1014 72 10000 1 350 02:54 10.07.2020
59 Clear 18 1014 72 10000 1.5 340 02:21 10.07.2020
60 Clear 19 1014 63 10000 1.5 260 00:55 10.07.2020
61 Clear 19 1014 68 10000 1 0 00:23 10.07.2020
62 Clear 20 1014 60 10000 1 0 23:56 09.07.2020
63 Clear 20 1014 60 10000 1 0 23:37 09.07.2020
64 Clear 21 1014 56 10000 1 270 23:19 09.07.2020
65 Clear 22 1014 49 10000 1 0 22:56 09.07.2020
66 Clear 22 1014 49 10000 1 0 22:38 09.07.2020
67 Clear 23 1014 49 10000 1.5 250 22:20 09.07.2020
68 Clear 23 1014 47 10000 2.6 260 21:55 09.07.2020
69 Clear 25 1014 47 10000 2.6 260 21:36 09.07.2020
70 Clear 25 1014 47 10000 2.6 260 21:36 09.07.2020
71 Clear 26 1014 44 10000 1.5 260 21:18 09.07.2020
72 Clear 27 1014 42 10000 3.1 250 20:41 09.07.2020
73 Clouds 28 1014 37 10000 3.6 280 20:23 09.07.2020
74 Clouds 29 1014 37 10000 3.6 250 19:55 09.07.2020
75 Clouds 29 1014 37 10000 3.6 250 19:37 09.07.2020
76 Clouds 29 1014 32 10000 5.1 260 19:18 09.07.2020
77 Clouds 30 1014 32 10000 4.6 250 18:41 09.07.2020
78 Clouds 30 1014 33 10000 3.1 230 18:19 09.07.2020
79 Clouds 30 1015 30 10000 3.1 260 17:43 09.07.2020
80 Clouds 29 1015 32 10000 4.1 260 17:25 09.07.2020
81 Clouds 30 1015 30 10000 4.6 270 16:59 09.07.2020
82 Clouds 30 1015 30 10000 4.6 270 16:41 09.07.2020
83 Clouds 30 1015 32 10000 2.6 0 16:20 09.07.2020
84 Clouds 30 1015 32 10000 4.1 250 15:59 09.07.2020
85 Clouds 28 1015 32 10000 4.1 250 15:41 09.07.2020
86 Clouds 28 1016 37 10000 2.6 0 15:23 09.07.2020
87 Clouds 29 1016 37 10000 4.1 260 14:59 09.07.2020
88 Clouds 28 1016 37 10000 4.1 260 14:40 09.07.2020
89 Clouds 27 1016 39 10000 4.6 230 14:22 09.07.2020
90 Clouds 28 1016 37 10000 2.6 0 13:57 09.07.2020
91 Clouds 28 1016 37 10000 2.6 0 13:57 09.07.2020
92 Clouds 28 1016 37 10000 2.6 0 13:38 09.07.2020
93 Clouds 27 1017 42 10000 3.1 0 13:20 09.07.2020
94 Clouds 26 1017 44 10000 4.6 270 12:43 09.07.2020
95 Clouds 25 1017 44 10000 3.6 250 12:24 09.07.2020
96 Clouds 25 1017 47 10000 1.5 0 11:59 09.07.2020
97 Clouds 24 1017 47 10000 1.5 0 11:41 09.07.2020
98 Clouds 24 1018 53 10000 1 0 11:23 09.07.2020
99 Clouds 23 1018 53 10000 2.1 80 10:58 09.07.2020
100 Clouds 22 1018 53 10000 2.1 80 10:40 09.07.2020
101 Clouds 22 1018 53 10000 2.1 80 10:40 09.07.2020
102 Clouds 22 1018 60 10000 0.5 0 10:22 09.07.2020
103 Clouds 21 1018 63 10000 0.5 150 09:55 09.07.2020
104 Clouds 20 1018 63 10000 0.5 150 09:37 09.07.2020
105 Clouds 19 1018 63 10000 1 0 09:18 09.07.2020
106 Clouds 18 1018 68 10000 1 0 08:43 09.07.2020
107 Clouds 18 1018 72 10000 0.5 0 08:24 09.07.2020
108 Clouds 16 1018 82 10000 1 0 07:45 09.07.2020
109 Rain 15 1018 87 10000 0.5 0 07:22 09.07.2020
110 Clouds 15 1018 87 10000 1 140 06:50 09.07.2020
111 Clouds 14 1018 82 10000 1 0 06:19 09.07.2020
112 Clouds 14 1018 87 10000 1.81 203 04:29 09.07.2020
113 Clouds 15 1018 72 10000 0.5 0 03:32 09.07.2020
114 Clouds 17 1018 72 10000 2.1 320 02:20 09.07.2020
115 Clouds 17 1019 72 10000 2.1 340 01:32 09.07.2020
116 Clouds 17 1018 72 10000 1.5 10 00:49 09.07.2020
117 Clouds 17 1019 72 10000 1 0 00:24 09.07.2020
118 Clouds 18 1019 68 10000 2.1 360 23:46 08.07.2020
119 Clouds 19 1018 63 10000 2.1 350 23:28 08.07.2020
120 Clouds 19 1018 63 10000 2.1 360 22:58 08.07.2020
121 Clouds 19 1018 63 10000 2.1 360 22:40 08.07.2020
122 Clouds 20 1018 60 10000 2.1 20 22:22 08.07.2020
123 Clouds 20 1018 49 10000 2.6 340 21:58 08.07.2020
124 Clouds 21 1018 49 10000 2.6 340 21:39 08.07.2020
125 Clouds 21 1017 46 10000 3.1 340 21:20 08.07.2020
126 Clouds 22 1017 49 10000 2.1 250 20:55 08.07.2020
127 Clouds 22 1017 49 10000 2.1 250 20:37 08.07.2020
128 Clouds 23 1017 53 10000 3.1 250 20:19 08.07.2020
129 Clouds 23 1017 46 10000 2.6 250 19:43 08.07.2020
130 Clouds 24 1017 46 10000 3.1 240 19:23 08.07.2020
131 Clouds 24 1017 46 10000 4.1 250 18:57 08.07.2020
132 Clouds 24 1017 46 10000 4.1 250 18:39 08.07.2020
133 Clouds 24 1017 44 10000 5.7 250 18:20 08.07.2020
134 Clouds 24 1017 41 10000 4.6 270 17:56 08.07.2020
135 Clouds 24 1017 41 10000 4.6 270 17:37 08.07.2020
136 Clouds 25 1017 38 10000 4.1 270 17:19 08.07.2020
137 Clouds 24 1017 41 10000 4.6 310 16:54 08.07.2020
138 Clouds 24 1017 41 10000 4.6 310 16:36 08.07.2020
139 Clouds 24 1017 44 10000 5.1 300 16:18 08.07.2020
140 Clouds 24 1017 38 10000 4.1 300 15:56 08.07.2020
141 Clouds 24 1017 38 10000 4.1 300 15:37 08.07.2020
142 Clouds 24 1017 38 10000 5.1 290 15:18 08.07.2020
143 Clouds 25 1017 36 10000 2.6 0 14:42 08.07.2020
144 Clouds 25 1017 33 10000 3.1 260 14:20 08.07.2020
145 Clouds 24 1017 36 10000 3.1 0 13:45 08.07.2020
146 Clouds 24 1017 38 10000 2.1 0 13:27 08.07.2020
147 Clouds 24 1017 40 10000 3.6 250 12:58 08.07.2020
148 Clouds 24 1017 40 10000 3.6 250 12:38 08.07.2020
149 Clouds 23 1018 40 10000 2.6 200 12:19 08.07.2020
150 Clouds 22 1018 40 10000 2.6 0 11:39 08.07.2020
151 Clouds 22 1018 43 10000 4.1 250 11:20 08.07.2020
152 Clouds 21 1018 43 0 2.1 0 10:56 08.07.2020
153 Clouds 21 1018 45 10000 2.6 230 10:38 08.07.2020
154 Clouds 20 1018 45 10000 2.6 230 10:19 08.07.2020
155 Clouds 19 1018 48 10000 3.1 230 09:43 08.07.2020
156 Clouds 18 1018 52 10000 2.1 240 09:24 08.07.2020
157 Clouds 16 1018 55 10000 1 0 08:44 08.07.2020
158 Clouds 15 1018 62 10000 0.5 0 08:25 08.07.2020
159 Clouds 14 1018 71 10000 0.5 0 07:48 08.07.2020
160 Clouds 13 1018 87 10000 0.5 0 07:24 08.07.2020
161 Clouds 12 1018 81 10000 1 0 06:58 08.07.2020
162 Clear 12 1018 81 10000 0.5 120 06:39 08.07.2020
163 Clear 12 1018 81 10000 0.5 120 06:20 08.07.2020
164 Clear 11 1018 76 10000 0.5 0 05:38 08.07.2020
165 Clear 11 1018 76 10000 0.5 0 04:39 08.07.2020
166 Clear 12 1018 71 10000 0.5 0 03:25 08.07.2020
167 Clear 12 1019 66 10000 2.1 280 01:57 08.07.2020
168 Clear 13 1019 66 10000 2.1 280 01:37 08.07.2020
169 Clear 13 1019 71 10000 1 0 00:46 08.07.2020
170 Clear 14 1019 62 10000 1.5 240 00:19 08.07.2020
171 Clear 15 1019 63 10000 1.5 230 23:43 07.07.2020
172 Clear 16 1019 55 10000 0.5 0 23:21 07.07.2020
173 Clear 16 1019 51 10000 2.6 310 22:55 07.07.2020
174 Clear 16 1019 51 10000 2.6 310 22:37 07.07.2020
175 Clear 17 1019 48 10000 2.1 310 22:18 07.07.2020
176 Clear 18 1018 48 10000 2.1 340 21:41 07.07.2020
177 Clear 19 1018 48 10000 2.1 20 21:22 07.07.2020
178 Clear 20 1018 49 10000 2.6 40 20:59 07.07.2020
179 Clear 20 1018 49 10000 2.6 40 20:41 07.07.2020
180 Clear 21 1018 45 10000 2.1 10 20:23 07.07.2020
181 Clear 21 1018 43 10000 1.5 0 19:55 07.07.2020
182 Clear 21 1018 43 10000 1.5 0 19:37 07.07.2020
183 Clear 22 1018 37 10000 2.1 0 19:19 07.07.2020
184 Clear 22 1018 40 10000 1 0 18:55 07.07.2020
185 Clear 22 1018 40 10000 1 0 18:37 07.07.2020
186 Clear 22 1019 40 10000 4.1 360 18:18 07.07.2020
187 Clear 22 1019 37 10000 2.1 0 17:44 07.07.2020
188 Clear 23 1019 37 10000 3.6 10 17:23 07.07.2020
189 Clear 22 1020 37 10000 3.1 350 16:59 07.07.2020
190 Clear 22 1020 37 10000 3.1 350 16:40 07.07.2020
191 Clear 22 1019 35 10000 2.1 340 16:22 07.07.2020
192 Clear 22 1020 37 10000 3.1 350 15:55 07.07.2020
193 Clear 22 1020 37 10000 3.1 350 15:37 07.07.2020
194 Clouds 21 1020 35 10000 1.5 0 15:18 07.07.2020
195 Clouds 21 1020 35 10000 2.1 230 14:42 07.07.2020
196 Clouds 21 1020 35 10000 2.1 230 14:42 07.07.2020
197 Clear 21 1020 35 10000 1.5 0 14:24 07.07.2020
198 Clear 21 1020 37 10000 2.1 0 13:43 07.07.2020
199 Clear 20 1021 42 10000 1 0 13:21 07.07.2020
200 Clear 20 1021 42 10000 1.5 0 12:57 07.07.2020
201 Clear 20 1021 42 10000 1.5 0 12:37 07.07.2020
202 Clear 20 1021 45 10000 2.1 0 12:18 07.07.2020
203 Clouds 19 1021 48 10000 1 0 11:43 07.07.2020
204 Clouds 19 1021 45 10000 1 0 11:22 07.07.2020
205 Clouds 18 1021 48 10000 1.5 0 10:58 07.07.2020
206 Clouds 18 1021 48 10000 1.5 0 10:40 07.07.2020
207 Clouds 18 1022 51 10000 1.5 0 10:21 07.07.2020
208 Clouds 16 1022 51 10000 1 0 09:43 07.07.2020
209 Clouds 16 1022 59 10000 1 0 09:22 07.07.2020
210 Clear 14 1022 71 10000 1 0 08:58 07.07.2020
211 Clear 13 1022 67 10000 1 0 08:39 07.07.2020
212 Clear 13 1022 67 10000 1 0 08:19 07.07.2020
213 Clouds 11 1022 71 10000 0.5 0 07:38 07.07.2020
214 Clouds 10 1022 76 10000 1 0 07:19 07.07.2020
215 Clouds 9 1022 81 10000 0.5 170 06:46 07.07.2020
216 Clouds 9 1022 81 10000 0.5 170 06:26 07.07.2020
217 Clouds 9 1022 81 10000 1 0 05:43 07.07.2020
218 Clouds 10 1022 76 10000 0.5 0 04:58 07.07.2020
219 Clouds 10 1022 76 10000 1.5 330 03:54 07.07.2020
220 Clear 11 1022 76 10000 1.5 250 03:32 07.07.2020
221 Clear 12 1022 62 10000 2.6 290 01:58 07.07.2020
222 Clear 13 1022 62 10000 2.1 290 01:20 07.07.2020
223 Clear 13 1022 62 10000 1.5 300 00:41 07.07.2020
224 Clear 13 1022 62 10000 2.6 300 00:22 07.07.2020
225 Clear 15 1022 58 10000 4.1 300 23:44 06.07.2020
226 Clear 15 1021 54 10000 4.6 290 23:26 06.07.2020
227 Clear 16 1021 51 10000 5.1 270 22:59 06.07.2020
228 Clear 16 1021 51 10000 5.1 270 22:40 06.07.2020
229 Clear 17 1021 51 10000 4.6 280 22:19 06.07.2020
230 Clear 17 1021 45 10000 3.6 280 21:57 06.07.2020
231 Clear 17 1021 45 10000 3.6 280 21:37 06.07.2020
232 Clear 17 1020 45 10000 5.7 280 21:19 06.07.2020
233 Clear 17 1020 45 10000 5.7 280 21:19 06.07.2020
234 Clear 18 1020 45 10000 5.7 280 20:55 06.07.2020
235 Clear 18 1020 45 10000 5.7 280 20:36 06.07.2020
236 Clear 18 1020 42 10000 7.2 280 20:18 06.07.2020
237 Clear 19 1020 37 10000 8.7 280 19:54 06.07.2020
238 Clear 19 1019 39 10000 8.2 270 19:36 06.07.2020
239 Clear 19 1019 39 10000 8.2 270 19:18 06.07.2020
240 Clear 20 1019 37 10000 9.3 280 18:41 06.07.2020
241 Clear 20 1019 37 10000 9.3 280 18:23 06.07.2020
242 Clear 20 1019 37 10000 9.3 280 17:58 06.07.2020
243 Clear 20 1019 37 10000 9.3 280 17:40 06.07.2020
244 Clear 20 1018 42 10000 8.2 280 17:20 06.07.2020
245 Clear 20 1018 37 10000 9.3 290 16:43 06.07.2020
246 Clear 21 1018 40 10000 7.2 280 16:25 06.07.2020
247 Clear 20 1018 40 10000 8.7 290 15:59 06.07.2020
248 Clear 21 1018 40 10000 8.7 290 15:41 06.07.2020
249 Clear 20 1018 40 10000 8.7 290 15:23 06.07.2020
250 Clear 20 1017 42 10000 7.7 290 14:55 06.07.2020
251 Clear 20 1017 42 10000 7.7 290 14:37 06.07.2020
252 Clouds 20 1017 42 10000 7.7 300 14:18 06.07.2020
253 Clouds 20 1017 37 10000 7.2 300 13:44 06.07.2020
254 Clouds 19 1017 37 10000 6.7 300 13:26 06.07.2020
255 Clouds 20 1017 37 10000 6.7 300 12:56 06.07.2020
256 Clouds 19 1017 34 10000 6.7 280 12:38 06.07.2020
257 Clouds 19 1017 34 10000 6.7 280 12:18 06.07.2020
258 Clouds 19 1017 34 10000 6.7 290 11:57 06.07.2020
259 Clouds 18 1017 34 10000 6.7 290 11:37 06.07.2020
260 Clouds 18 1017 34 10000 7.2 280 11:18 06.07.2020
261 Clouds 17 1017 45 10000 5.1 260 10:42 06.07.2020
262 Clouds 18 1017 45 10000 5.1 260 10:42 06.07.2020
263 Clouds 17 1017 51 10000 4.6 260 10:21 06.07.2020
264 Clouds 17 1017 48 10000 4.6 260 09:57 06.07.2020
265 Clouds 17 1016 55 10000 6.2 270 09:39 06.07.2020
266 Clouds 16 1016 55 10000 6.2 270 09:21 06.07.2020
267 Clouds 17 1016 63 10000 3.1 250 08:55 06.07.2020
268 Clouds 17 1016 63 10000 3.1 250 08:36 06.07.2020
269 Clouds 17 1016 67 10000 4.6 270 08:18 06.07.2020
270 Clouds 17 1016 67 10000 4.6 270 08:18 06.07.2020
271 Rain 17 1015 72 10000 9.8 280 07:40 06.07.2020
272 Rain 17 1015 72 10000 9.8 280 07:22 06.07.2020
273 Rain 18 1015 82 10000 7.2 280 06:39 06.07.2020
274 Rain 18 1015 93 6000 3.6 270 06:21 06.07.2020
275 Rain 19 1014 82 10000 3.1 320 05:38 06.07.2020
276 Clouds 19 1014 77 10000 2.1 220 04:54 06.07.2020
277 Clouds 20 1015 72 10000 2.1 220 03:40 06.07.2020
278 Clouds 20 1015 72 10000 2.1 0 02:23 06.07.2020
279 Clouds 20 1015 72 10000 1 0 01:34 06.07.2020
280 Clouds 21 1016 68 10000 1.5 220 00:38 06.07.2020
281 Clouds 21 1016 68 10000 1.5 220 00:19 06.07.2020
282 Clouds 22 1016 68 10000 3.6 250 23:42 05.07.2020
283 Clouds 23 1016 60 10000 3.1 290 23:23 05.07.2020
284 Clear 23 1016 60 10000 1.5 210 22:59 05.07.2020
285 Clear 24 1016 60 10000 1.5 210 22:40 05.07.2020
286 Clear 24 1015 56 10000 2.1 210 22:20 05.07.2020
287 Clear 24 1015 56 10000 2.1 210 22:20 05.07.2020
288 Clear 24 1015 57 10000 2.1 240 21:57 05.07.2020
289 Clear 24 1015 57 10000 2.1 240 21:39 05.07.2020
290 Clear 25 1015 53 10000 2.6 240 21:18 05.07.2020
291 Clear 26 1015 50 10000 3.6 230 20:58 05.07.2020
292 Clear 26 1015 50 10000 3.6 230 20:39 05.07.2020
293 Clouds 27 1015 44 10000 4.1 240 20:20 05.07.2020
294 Clouds 26 1015 44 10000 5.1 250 19:43 05.07.2020
295 Clouds 27 1015 47 10000 4.6 250 19:21 05.07.2020
296 Clouds 27 1016 47 10000 6.7 260 18:58 05.07.2020
297 Clouds 27 1016 51 10000 3.1 220 18:40 05.07.2020
298 Clouds 27 1016 51 10000 3.1 220 18:21 05.07.2020
299 Clouds 27 1016 51 10000 4.6 240 17:56 05.07.2020
300 Clouds 27 1016 51 10000 4.6 240 17:37 05.07.2020
301 Clouds 27 1016 51 10000 5.7 250 17:18 05.07.2020
302 Clouds 27 1017 54 10000 4.1 230 16:43 05.07.2020
303 Clouds 27 1017 50 10000 4.1 230 16:24 05.07.2020
304 Clouds 27 1017 54 10000 5.7 260 15:56 05.07.2020
305 Clouds 26 1017 53 10000 6.2 250 15:37 05.07.2020
306 Clouds 26 1017 53 10000 6.2 250 15:18 05.07.2020
307 Clouds 26 1017 53 10000 5.7 250 14:41 05.07.2020
308 Clouds 25 1018 53 10000 5.7 250 14:23 05.07.2020
309 Clouds 25 1018 53 10000 6.7 270 13:54 05.07.2020
310 Clouds 25 1018 53 10000 6.7 270 13:36 05.07.2020
311 Clouds 25 1018 53 10000 8.2 260 13:18 05.07.2020
312 Clouds 25 1018 53 10000 6.7 260 12:38 05.07.2020
313 Clouds 24 1018 57 10000 6.2 250 12:20 05.07.2020
314 Clouds 24 1018 57 10000 7.2 260 11:55 05.07.2020
315 Clouds 23 1018 57 10000 4.6 240 11:36 05.07.2020
316 Clouds 23 1018 57 10000 4.6 240 11:18 05.07.2020
317 Clouds 23 1018 57 10000 4.1 240 10:42 05.07.2020
318 Clouds 23 1018 56 10000 3.1 230 10:20 05.07.2020
319 Clouds 22 1018 56 10000 4.1 230 09:59 05.07.2020
320 Clouds 22 1018 56 10000 4.1 230 09:40 05.07.2020
321 Clouds 22 1018 56 10000 4.1 230 09:20 05.07.2020
322 Clouds 21 1018 60 10000 3.1 230 08:51 05.07.2020
323 Clouds 21 1018 60 10000 3.1 230 08:33 05.07.2020
324 Clouds 19 1018 59 10000 1.5 220 07:49 05.07.2020
325 Clouds 19 1018 59 10000 2.1 200 07:30 05.07.2020
326 Clouds 19 1018 63 10000 2.1 200 06:53 05.07.2020
327 Clouds 19 1018 59 10000 1.5 220 05:58 05.07.2020
328 Clouds 19 1019 63 10000 1.5 0 03:37 05.07.2020
329 Clouds 20 1019 59 10000 1.5 200 02:47 05.07.2020
330 Clouds 21 1019 56 10000 2.1 0 02:29 05.07.2020
331 Clouds 21 1019 56 10000 2.1 220 01:42 05.07.2020
332 Clouds 21 1019 52 10000 2.1 220 01:20 05.07.2020
333 Clouds 21 1019 52 10000 2.6 240 00:42 05.07.2020
334 Clouds 21 1019 52 10000 2.6 240 00:24 05.07.2020
335 Clouds 21 1019 52 10000 2.6 240 23:53 04.07.2020
336 Clouds 22 1019 52 10000 2.6 240 23:31 04.07.2020
337 Clouds 22 1019 56 10000 3.1 250 22:59 04.07.2020
338 Clouds 22 1019 56 10000 3.1 250 22:40 04.07.2020
339 Clouds 22 1019 49 10000 2.1 250 22:22 04.07.2020
340 Clouds 22 1019 49 10000 2.1 240 21:56 04.07.2020
341 Clouds 23 1019 46 10000 3.1 250 21:38 04.07.2020
342 Clear 23 1019 46 10000 3.1 250 21:20 04.07.2020
343 Clear 24 1018 46 10000 3.1 250 20:41 04.07.2020
344 Clouds 24 1018 44 10000 2.1 230 20:20 04.07.2020
345 Clouds 25 1018 38 10000 3.1 240 19:56 04.07.2020
346 Clouds 25 1018 36 10000 3.1 240 19:37 04.07.2020
347 Clouds 26 1018 36 10000 2.6 250 19:19 04.07.2020
348 Clouds 26 1018 36 10000 2.6 250 18:43 04.07.2020
349 Clouds 26 1018 38 10000 3.6 220 18:22 04.07.2020
350 Clouds 26 1018 38 10000 3.6 220 18:22 04.07.2020
351 Clouds 26 1018 34 10000 3.6 250 17:45 04.07.2020
352 Clouds 26 1019 36 10000 3.6 210 17:26 04.07.2020
353 Clouds 26 1019 38 10000 4.1 230 16:59 04.07.2020
354 Clouds 26 1019 38 10000 4.1 230 16:39 04.07.2020
355 Clouds 26 1019 38 10000 4.1 230 16:39 04.07.2020
356 Clouds 26 1019 36 10000 3.6 250 16:21 04.07.2020
357 Clouds 26 1019 41 10000 4.6 230 15:58 04.07.2020
358 Clouds 26 1019 41 10000 4.6 230 15:40 04.07.2020
359 Clouds 25 1019 41 10000 3.6 0 15:21 04.07.2020
360 Clouds 25 1019 41 10000 5.1 250 14:56 04.07.2020
361 Clouds 25 1019 41 10000 5.1 250 14:37 04.07.2020
362 Clouds 24 1020 41 10000 3.1 230 14:18 04.07.2020
363 Clouds 24 1020 49 10000 2.6 190 13:41 04.07.2020
364 Clouds 24 1020 49 10000 3.1 0 13:19 04.07.2020
365 Clouds 24 1020 46 10000 3.6 210 12:56 04.07.2020
366 Clouds 23 1020 46 10000 3.6 210 12:38 04.07.2020
367 Clouds 22 1021 49 10000 2.6 0 12:19 04.07.2020
368 Clouds 22 1021 49 10000 2.1 190 11:44 04.07.2020
369 Clouds 22 1021 46 10000 2.1 0 11:23 04.07.2020
370 Clouds 21 1021 52 10000 2.1 150 10:56 04.07.2020
371 Clouds 21 1021 52 10000 2.1 150 10:38 04.07.2020
372 Clouds 21 1021 52 10000 1 210 10:19 04.07.2020
373 Clouds 20 1021 55 10000 1 0 09:54 04.07.2020
374 Clouds 19 1021 55 10000 1 0 09:36 04.07.2020
375 Clouds 18 1021 59 10000 0.5 0 09:18 04.07.2020
376 Clouds 16 1021 63 10000 0.5 0 08:43 04.07.2020
377 Clouds 15 1021 67 10000 0.5 0 08:24 04.07.2020
378 Clouds 14 1021 76 10000 1 0 07:42 04.07.2020
379 Clouds 13 1021 82 10000 0.5 0 07:20 04.07.2020
380 Clouds 13 1021 82 10000 0.5 0 06:48 04.07.2020
381 Clouds 12 1021 87 10000 0.5 0 06:20 04.07.2020
382 Clouds 12 1021 87 10000 0.5 0 05:32 04.07.2020
383 Clouds 12 1020 87 10000 0.5 0 04:23 04.07.2020
384 Clouds 13 1021 76 10000 1 0 02:48 04.07.2020
385 Clear 14 1021 72 10000 0.5 0 01:54 04.07.2020
386 Clear 14 1021 72 10000 0.5 0 01:24 04.07.2020
387 Clear 15 1020 72 10000 0.5 0 00:40 04.07.2020
388 Clear 15 1020 77 10000 1 0 00:21 04.07.2020
389 Clear 16 1020 67 10000 1 0 23:39 03.07.2020
390 Clear 17 1020 63 10000 2.6 290 23:19 03.07.2020
391 Clear 17 1020 63 10000 2.6 290 23:19 03.07.2020
392 Clear 17 1020 55 10000 2.6 290 22:55 03.07.2020
393 Clear 18 1020 52 10000 2.1 290 22:36 03.07.2020
394 Clear 18 1020 52 10000 2.1 290 22:18 03.07.2020
395 Clear 19 1019 49 10000 2.6 300 21:40 03.07.2020
396 Clear 20 1019 46 10000 2.6 320 21:20 03.07.2020
397 Clear 21 1019 40 10000 3.1 320 20:55 03.07.2020
398 Clear 22 1019 40 10000 3.1 320 20:37 03.07.2020
399 Clouds 22 1019 40 10000 4.1 300 20:18 03.07.2020
400 Clouds 23 1019 38 10000 4.6 290 19:41 03.07.2020
401 Clouds 23 1019 38 10000 1.5 340 19:19 03.07.2020
402 Clouds 23 1019 38 10000 3.6 280 18:56 03.07.2020
403 Clouds 23 1019 38 10000 3.6 280 18:38 03.07.2020
404 Clouds 23 1019 38 10000 3.1 260 18:19 03.07.2020
405 Clouds 23 1019 40 10000 3.1 280 17:42 03.07.2020
406 Clouds 23 1019 40 10000 3.1 290 17:22 03.07.2020
407 Clouds 23 1019 40 10000 3.1 0 16:46 03.07.2020
408 Clouds 23 1019 40 10000 3.1 300 16:27 03.07.2020
409 Clouds 23 1019 40 10000 3.6 260 15:48 03.07.2020
410 Clouds 23 1019 40 10000 3.1 290 15:26 03.07.2020
411 Clouds 23 1019 43 10000 3.1 0 14:59 03.07.2020
412 Clouds 23 1019 43 10000 3.1 0 14:41 03.07.2020
413 Clear 22 1020 46 10000 2.6 220 14:22 03.07.2020
414 Clear 22 1020 46 10000 3.1 240 13:56 03.07.2020
415 Clear 22 1020 46 10000 3.1 240 13:37 03.07.2020
416 Clear 21 1020 49 10000 3.1 0 13:19 03.07.2020
417 Clouds 21 1020 46 10000 3.6 280 12:40 03.07.2020
418 Clouds 21 1020 46 10000 3.6 280 12:21 03.07.2020
419 Clouds 21 1020 46 10000 4.6 320 11:44 03.07.2020
420 Clouds 20 1020 45 10000 3.6 0 11:25 03.07.2020
421 Clouds 20 1019 49 10000 3.1 320 10:59 03.07.2020
422 Clouds 20 1019 49 10000 3.1 320 10:41 03.07.2020
423 Clouds 19 1019 55 10000 3.6 330 10:21 03.07.2020
424 Clouds 19 1019 52 10000 3.6 330 09:58 03.07.2020
425 Clouds 19 1019 52 10000 3.6 330 09:38 03.07.2020
426 Clouds 19 1019 52 10000 3.6 330 09:38 03.07.2020
427 Clouds 18 1019 59 10000 4.6 310 09:19 03.07.2020
428 Clouds 17 1019 59 10000 3.1 290 08:55 03.07.2020
429 Clouds 18 1019 59 10000 3.1 290 08:37 03.07.2020
430 Clouds 16 1019 63 10000 3.1 300 08:18 03.07.2020
431 Clouds 16 1019 67 10000 2.6 310 07:43 03.07.2020
432 Clouds 16 1019 67 10000 0.5 0 07:21 03.07.2020
433 Clouds 15 1018 82 10000 1 0 06:30 03.07.2020
434 Clouds 15 1017 72 10000 2.6 280 05:34 03.07.2020
435 Clouds 16 1017 77 10000 1 250 03:59 03.07.2020
436 Clouds 16 1017 82 10000 0.5 0 02:55 03.07.2020
437 Clouds 16 1017 82 10000 0.5 0 02:31 03.07.2020
438 Clouds 16 1017 77 10000 1 0 01:41 03.07.2020
439 Clouds 16 1017 72 10000 1.5 200 01:20 03.07.2020
440 Clouds 16 1016 67 10000 1.5 300 00:41 03.07.2020
441 Clouds 17 1016 63 10000 2.6 270 23:58 02.07.2020
442 Clouds 17 1016 63 10000 2.6 270 23:39 02.07.2020
443 Clouds 17 1016 63 10000 2.1 250 23:19 02.07.2020
444 Clouds 17 1016 63 10000 2.1 250 22:55 02.07.2020
445 Clouds 18 1016 63 10000 2.1 250 22:37 02.07.2020
446 Clouds 19 1015 52 10000 4.6 280 22:19 02.07.2020
447 Clouds 20 1015 52 10000 4.6 270 21:42 02.07.2020
448 Clouds 20 1015 52 10000 4.6 270 21:20 02.07.2020
449 Clouds 20 1015 64 10000 2.6 250 20:59 02.07.2020
450 Clouds 21 1015 64 10000 2.6 250 20:41 02.07.2020
451 Clouds 21 1014 56 10000 4.1 280 20:20 02.07.2020
452 Clouds 22 1014 53 10000 3.1 270 19:56 02.07.2020
453 Clouds 22 1014 53 10000 3.1 270 19:38 02.07.2020
454 Clouds 22 1014 53 10000 3.1 270 19:38 02.07.2020
455 Clouds 22 1014 60 10000 4.1 260 19:19 02.07.2020
456 Clouds 22 1014 60 10000 3.6 240 18:55 02.07.2020
457 Clouds 22 1014 60 10000 3.6 240 18:37 02.07.2020
458 Clouds 22 1013 60 10000 3.6 250 18:18 02.07.2020
459 Clouds 21 1014 68 10000 3.1 240 17:39 02.07.2020
460 Rain 20 1014 68 10000 4.1 260 17:20 02.07.2020
461 Rain 20 1014 72 10000 4.1 250 16:56 02.07.2020
462 Rain 20 1014 72 10000 4.1 250 16:37 02.07.2020
463 Rain 20 1014 77 10000 0.5 0 16:19 02.07.2020
464 Clouds 21 1014 68 10000 1.5 80 15:39 02.07.2020
465 Clouds 21 1014 68 10000 1.5 10 15:21 02.07.2020
466 Clouds 21 1014 68 10000 1.5 10 15:21 02.07.2020
467 Clouds 21 1014 73 10000 1 0 14:54 02.07.2020
468 Clouds 21 1014 73 10000 1 0 14:36 02.07.2020
469 Clouds 20 1014 88 10000 2.6 320 14:18 02.07.2020
470 Rain 19 1014 88 8000 1.5 340 13:40 02.07.2020
471 Rain 19 1014 82 8000 1 0 13:21 02.07.2020
472 Rain 20 1014 77 10000 1 0 12:59 02.07.2020
473 Rain 20 1012 83 0 0.45 228 12:39 02.07.2020
474 Clouds 20 1014 88 10000 1.5 160 12:21 02.07.2020
475 Clouds 19 1014 88 10000 1.5 170 11:44 02.07.2020
476 Clouds 19 1014 88 10000 2.1 170 11:26 02.07.2020
477 Rain 18 1014 88 10000 0.5 0 10:56 02.07.2020
478 Rain 18 1014 88 10000 0.5 0 10:37 02.07.2020
479 Clouds 18 1014 88 10000 1.5 320 10:19 02.07.2020
480 Clouds 18 1014 93 10000 3.6 310 09:42 02.07.2020
481 Rain 18 1013 93 10000 4.6 280 09:21 02.07.2020
482 Rain 19 1013 88 10000 2.1 280 08:57 02.07.2020
483 Rain 19 1013 88 10000 1.5 280 08:38 02.07.2020
484 Rain 19 1013 88 10000 1.5 280 08:19 02.07.2020
485 Rain 19 1013 88 10000 0.5 0 07:41 02.07.2020
486 Clouds 19 1013 88 10000 0.5 0 07:20 02.07.2020
487 Rain 19 1012 82 10000 1 80 06:41 02.07.2020
488 Clouds 19 1012 82 10000 0.5 0 06:20 02.07.2020
489 Clouds 19 1012 88 10000 0.5 0 05:47 02.07.2020
490 Clouds 19 1012 88 10000 1 0 04:49 02.07.2020
491 Clouds 19 1012 82 10000 1 0 03:33 02.07.2020
492 Clouds 19 1012 88 10000 2.1 170 01:49 02.07.2020
493 Clouds 21 1012 77 10000 1 0 00:28 02.07.2020
494 Clouds 21 1012 82 10000 1.5 0 23:57 01.07.2020
495 Clouds 22 1012 82 10000 1.5 0 23:38 01.07.2020
496 Rain 22 1011 88 10000 3.6 200 23:20 01.07.2020
497 Thunderstorm 23 1011 69 10000 2.6 190 22:54 01.07.2020
498 Thunderstorm 24 1011 69 10000 2.6 190 22:36 01.07.2020
499 Rain 24 1010 69 10000 1 120 22:18 01.07.2020
500 Rain 25 1009 64 10000 1.5 190 21:55 01.07.2020
501 Rain 23 1009 64 10000 1.5 190 21:37 01.07.2020
502 Rain 26 1009 57 10000 4.1 290 21:19 01.07.2020
503 Thunderstorm 26 1009 54 10000 3.1 320 20:45 01.07.2020
504 Thunderstorm 27 1009 47 10000 2.6 250 20:26 01.07.2020
505 Clouds 28 1009 42 10000 3.1 250 19:57 01.07.2020
506 Rain 28 1009 39 10000 2.6 270 19:39 01.07.2020
507 Rain 29 1009 39 10000 2.6 270 19:20 01.07.2020
508 Rain 29 1009 39 10000 3.1 260 18:54 01.07.2020
509 Rain 29 1009 39 10000 3.1 260 18:36 01.07.2020
510 Rain 29 1009 37 10000 3.6 240 18:18 01.07.2020
511 Rain 28 1009 42 10000 5.1 270 17:41 01.07.2020
512 Rain 29 1009 39 10000 2.6 0 17:20 01.07.2020
513 Rain 29 1009 39 10000 2.6 300 16:48 01.07.2020
514 Rain 30 1009 40 10000 5.1 330 16:29 01.07.2020
515 Rain 29 1010 39 10000 4.6 250 15:59 01.07.2020
516 Rain 29 1010 39 10000 4.6 250 15:41 01.07.2020
517 Clouds 28 1010 39 10000 4.6 290 15:22 01.07.2020
518 Clouds 29 1010 39 10000 3.1 0 14:55 01.07.2020
519 Clouds 28 1010 39 10000 3.1 0 14:37 01.07.2020
520 Clouds 28 1010 44 10000 2.6 230 14:19 01.07.2020
521 Clear 27 1011 44 10000 3.1 0 13:40 01.07.2020
522 Clouds 27 1011 47 10000 2.6 220 13:21 01.07.2020
523 Clouds 27 1011 50 10000 2.6 230 12:59 01.07.2020
524 Clouds 26 1011 47 10000 2.1 220 12:40 01.07.2020
525 Clouds 26 1011 47 10000 2.1 220 12:22 01.07.2020
526 Clouds 25 1011 57 10000 2.6 230 11:57 01.07.2020
527 Clouds 25 1011 57 10000 2.6 230 11:38 01.07.2020
528 Clouds 24 1012 53 10000 3.1 220 11:19 01.07.2020
529 Clouds 24 1012 53 10000 3.1 230 10:43 01.07.2020
530 Clouds 23 1012 60 10000 1.5 0 10:23 01.07.2020
531 Clouds 23 1012 60 10000 1.5 0 09:59 01.07.2020
532 Clear 22 1012 60 10000 1.5 140 09:38 01.07.2020
533 Clear 20 1012 68 10000 1 0 09:20 01.07.2020
534 Clear 20 1012 68 10000 1 0 09:20 01.07.2020
535 Clear 20 1012 72 10000 1 0 08:57 01.07.2020
536 Clear 19 1012 72 10000 1 0 08:38 01.07.2020
537 Clear 18 1012 72 10000 0.5 0 08:19 01.07.2020
538 Clear 16 1012 72 10000 1 0 07:40 01.07.2020
539 Clear 15 1012 82 10000 0.5 0 07:21 01.07.2020
540 Clear 14 1012 82 10000 1.5 70 06:51 01.07.2020
541 Clear 14 1012 93 10000 0.5 0 06:30 01.07.2020
542 Clear 14 1012 100 10000 0.5 90 05:30 01.07.2020
543 Clear 14 1012 87 10000 0.5 0 03:55 01.07.2020
544 Clear 14 1012 87 10000 0.5 0 03:36 01.07.2020
545 Clear 14 1013 87 10000 0.5 0 03:18 01.07.2020
546 Clouds 15 1013 82 10000 1 0 01:55 01.07.2020
547 Clouds 15 1013 82 10000 1 290 00:48 01.07.2020
548 Clouds 16 1013 82 10000 0.5 0 00:26 01.07.2020
549 Clouds 16 1013 77 10000 0.5 150 23:57 30.06.2020
550 Clouds 17 1013 77 10000 0.5 150 23:39 30.06.2020
551 Clouds 17 1013 77 10000 0.5 50 23:19 30.06.2020
552 Clouds 18 1013 63 10000 1 90 22:42 30.06.2020
553 Clouds 19 1013 63 10000 2.6 320 22:19 30.06.2020
554 Clouds 20 1013 64 10000 2.1 350 21:43 30.06.2020
555 Clouds 21 1012 60 10000 2.6 360 21:19 30.06.2020
556 Clouds 21 1012 56 10000 3.1 20 20:59 30.06.2020
557 Clouds 22 1012 56 10000 3.1 20 20:40 30.06.2020
558 Clouds 23 1012 53 10000 3.1 40 20:20 30.06.2020
559 Clouds 23 1012 56 10000 3.1 30 19:43 30.06.2020
560 Clouds 23 1012 49 10000 3.6 280 19:20 30.06.2020
561 Clouds 23 1012 46 10000 4.1 270 18:57 30.06.2020
562 Clouds 23 1012 46 10000 4.1 270 18:38 30.06.2020
563 Clouds 23 1013 46 10000 4.6 280 18:20 30.06.2020
564 Clouds 24 1013 47 10000 4.6 240 17:39 30.06.2020
565 Clouds 24 1013 38 10000 2.1 210 17:20 30.06.2020
566 Clouds 24 1013 46 10000 2.1 0 16:57 30.06.2020
567 Clouds 24 1013 46 10000 2.1 0 16:39 30.06.2020
568 Clouds 24 1013 46 10000 3.1 230 16:19 30.06.2020
569 Clouds 23 1013 43 10000 4.1 250 15:56 30.06.2020
570 Clouds 23 1013 43 10000 4.1 250 15:37 30.06.2020
571 Clouds 22 1014 43 10000 4.6 260 15:19 30.06.2020
572 Clouds 22 1014 46 10000 3.6 0 14:43 30.06.2020
573 Clouds 22 1014 49 10000 3.1 0 14:21 30.06.2020
574 Clouds 21 1014 52 10000 2.6 240 13:54 30.06.2020
575 Clouds 21 1014 52 10000 2.6 240 13:36 30.06.2020
576 Clouds 20 1015 52 10000 3.1 220 13:18 30.06.2020
577 Clouds 21 1015 52 10000 3.1 220 12:54 30.06.2020
578 Clouds 20 1015 59 10000 3.1 190 12:36 30.06.2020
579 Clouds 20 1015 59 10000 3.1 190 12:18 30.06.2020
580 Clouds 19 1015 59 10000 3.1 220 11:56 30.06.2020
581 Clouds 19 1015 59 10000 3.1 220 11:37 30.06.2020
582 Clouds 19 1015 63 10000 3.6 0 11:18 30.06.2020
583 Clouds 25 1015 44 10000 5.1 280 16:46 28.06.2020
584 Clouds 25 1015 41 10000 7.2 250 16:28 28.06.2020
585 Clouds 24 1016 41 10000 6.7 240 15:59 28.06.2020
586 Clouds 24 1016 41 10000 6.7 240 15:39 28.06.2020
587 Clouds 25 1016 44 10000 7.2 260 15:20 28.06.2020
588 Clouds 24 1016 47 10000 5.7 230 14:57 28.06.2020
589 Clouds 24 1016 47 10000 5.7 230 14:38 28.06.2020
590 Clouds 23 1016 57 10000 3.1 0 14:20 28.06.2020
591 Clouds 22 1016 60 10000 4.6 210 13:40 28.06.2020
592 Clouds 23 1016 60 10000 4.1 200 13:21 28.06.2020
593 Clouds 23 1017 73 10000 2.6 190 12:58 28.06.2020
594 Clouds 23 1017 73 10000 2.6 190 12:38 28.06.2020
595 Clouds 22 1017 73 10000 2.6 210 12:19 28.06.2020
596 Clouds 22 1017 77 10000 2.1 220 11:58 28.06.2020
597 Clouds 21 1017 77 10000 2.1 220 11:40 28.06.2020
598 Clouds 21 1017 77 10000 2.6 230 11:20 28.06.2020
599 Rain 20 1017 88 10000 2.1 230 10:58 28.06.2020
600 Rain 20 1017 88 10000 2.1 230 10:39 28.06.2020
601 Rain 20 1017 88 10000 1.5 210 10:21 28.06.2020
602 Rain 19 1017 88 10000 1.5 170 09:41 28.06.2020
603 Clouds 19 1017 82 10000 1 0 09:23 28.06.2020
604 Clouds 19 1016 88 10000 2.6 250 08:56 28.06.2020
605 Clouds 18 1016 88 10000 2.6 250 08:36 28.06.2020
606 Rain 18 1016 93 10000 2.6 250 08:18 28.06.2020
607 Rain 18 1016 93 10000 2.1 210 07:33 28.06.2020
608 Rain 18 1015 88 6000 2.1 0 06:56 28.06.2020
609 Rain 17 1015 88 10000 0.5 0 06:32 28.06.2020
610 Rain 17 1015 93 10000 1 0 05:45 28.06.2020
611 Clouds 17 1015 93 10000 1 50 04:27 28.06.2020
612 Clouds 17 1015 88 10000 1 0 02:57 28.06.2020
613 Clouds 18 1015 82 10000 1 0 02:20 28.06.2020
614 Clouds 18 1015 72 10000 1 0 01:30 28.06.2020
615 Clouds 19 1015 72 10000 2.6 280 00:56 28.06.2020
616 Clouds 19 1015 72 10000 2.1 260 00:30 28.06.2020
617 Clouds 19 1015 72 10000 1 0 23:58 27.06.2020
618 Clouds 19 1015 72 10000 1 0 23:39 27.06.2020
619 Rain 20 1015 82 10000 1.5 130 23:21 27.06.2020
620 Rain 21 1015 77 10000 0.5 0 22:42 27.06.2020
621 Clouds 21 1014 73 10000 1.5 40 22:23 27.06.2020
622 Clouds 21 1014 73 10000 1.5 40 22:23 27.06.2020
623 Clouds 22 1014 69 10000 0.5 0 21:59 27.06.2020
624 Rain 22 1014 69 10000 0.5 0 21:40 27.06.2020
625 Rain 23 1014 73 10000 1.5 70 21:20 27.06.2020
626 Rain 24 1014 65 10000 1.5 0 20:55 27.06.2020
627 Rain 24 1014 65 10000 1.5 0 20:37 27.06.2020
628 Clouds 25 1014 65 0 1.5 80 20:18 27.06.2020
629 Clouds 24 1014 69 10000 1.5 130 19:38 27.06.2020
630 Clouds 24 1014 69 10000 1.5 130 19:19 27.06.2020
631 Clouds 25 1014 61 10000 3.6 120 18:57 27.06.2020
632 Clouds 25 1014 61 10000 3.6 120 18:37 27.06.2020
633 Clouds 25 1014 57 10000 2.6 100 18:19 27.06.2020
634 Thunderstorm 25 1014 54 10000 1.5 0 17:41 27.06.2020
635 Thunderstorm 25 1014 54 10000 1.5 0 17:41 27.06.2020
636 Thunderstorm 23 1014 64 10000 6.2 320 17:21 27.06.2020
637 Thunderstorm 23 1013 57 10000 2.6 70 16:57 27.06.2020
638 Thunderstorm 26 1013 57 10000 2.6 70 16:39 27.06.2020
639 Clouds 26 1014 54 10000 2.6 20 16:20 27.06.2020
640 Rain 26 1014 54 10000 4.6 10 15:45 27.06.2020
641 Clouds 27 1014 51 10000 3.6 360 15:24 27.06.2020
642 Clouds 26 1014 47 10000 5.7 250 14:59 27.06.2020
643 Clouds 26 1014 47 10000 5.7 250 14:39 27.06.2020
644 Clouds 26 1014 48 10000 4.1 260 14:20 27.06.2020
645 Rain 27 1014 51 10000 4.1 230 13:54 27.06.2020
646 Rain 27 1014 51 10000 3.6 200 13:36 27.06.2020
647 Rain 27 1014 51 10000 3.6 200 13:18 27.06.2020
648 Clouds 28 1014 51 10000 3.1 190 12:41 27.06.2020
649 Clouds 26 1014 57 10000 3.1 0 12:22 27.06.2020
650 Clouds 25 1014 61 10000 2.1 210 11:59 27.06.2020
651 Clouds 25 1014 61 10000 2.1 210 11:59 27.06.2020
652 Clouds 25 1014 61 10000 2.1 210 11:59 27.06.2020
653 Clouds 25 1014 61 10000 2.1 210 11:40 27.06.2020
654 Clouds 25 1014 61 10000 2.1 210 11:40 27.06.2020
655 Clouds 25 1014 57 10000 4.6 230 11:22 27.06.2020
656 Clouds 25 1014 57 10000 4.6 230 11:22 27.06.2020
657 Clouds 25 1014 57 10000 1.5 0 10:42 27.06.2020
658 Clouds 24 1014 64 10000 2.1 0 10:20 27.06.2020
659 Clouds 23 1015 64 10000 1 0 09:59 27.06.2020
660 Clouds 23 1015 64 10000 1 0 09:39 27.06.2020
661 Clouds 22 1015 68 10000 1 0 09:21 27.06.2020
662 Clouds 21 1015 73 10000 1.5 70 08:44 27.06.2020
663 Fog 19 1014 77 10000 1.5 70 08:23 27.06.2020
664 Fog 18 1014 88 10000 1 0 07:48 27.06.2020
665 Fog 16 1014 88 10000 1.5 70 07:27 27.06.2020
666 Fog 16 1014 88 8000 0.5 0 06:55 27.06.2020
667 Fog 16 1014 100 7000 0.5 0 06:34 27.06.2020
668 Fog 16 1014 93 2500 1 0 05:31 27.06.2020
669 Fog 17 1014 93 6000 0.5 0 04:19 27.06.2020
670 Fog 17 1014 93 6000 0.5 0 03:51 27.06.2020
671 Fog 17 1014 100 6000 0.5 280 02:45 27.06.2020
672 Fog 17 1014 93 6000 0.5 0 02:26 27.06.2020
673 Fog 17 1014 93 8000 0.5 0 01:37 27.06.2020
674 Fog 17 1014 100 7000 1 0 00:49 27.06.2020
675 Clouds 18 1014 93 10000 0.5 0 23:57 26.06.2020
676 Clouds 18 1014 93 10000 0.5 0 23:38 26.06.2020
677 Clouds 18 1014 93 10000 0.5 0 23:20 26.06.2020
678 Clouds 18 1014 93 10000 1 0 22:43 26.06.2020
679 Clouds 18 1015 88 10000 1 0 22:24 26.06.2020
680 Fog 18 1014 93 10000 1 0 21:58 26.06.2020
681 Fog 19 1014 93 10000 1 0 21:40 26.06.2020
682 Fog 19 1014 93 10000 1 0 21:21 26.06.2020
683 Fog 19 1014 93 10000 1 0 20:59 26.06.2020
684 Clouds 19 1014 93 10000 1.5 30 20:40 26.06.2020
685 Clouds 19 1014 93 10000 1 0 20:18 26.06.2020
686 Rain 19 1014 93 10000 1.5 90 19:41 26.06.2020
687 Rain 20 1014 88 10000 1.5 130 19:23 26.06.2020
688 Thunderstorm 21 1014 82 9000 5.1 320 18:44 26.06.2020
689 Thunderstorm 25 1013 77 2000 6.2 180 18:25 26.06.2020
690 Thunderstorm 28 1012 51 10000 1 0 17:58 26.06.2020
691 Thunderstorm 28 1012 51 10000 1 0 17:40 26.06.2020
692 Rain 29 1013 51 10000 1.5 0 17:21 26.06.2020
693 Clouds 29 1012 42 10000 1 0 16:43 26.06.2020
694 Clouds 29 1013 48 10000 2.1 260 16:23 26.06.2020
695 Clouds 29 1013 45 10000 1.5 0 15:54 26.06.2020
696 Clouds 28 1013 48 10000 2.6 220 15:36 26.06.2020
697 Clouds 28 1013 48 10000 2.6 220 15:18 26.06.2020
698 Clouds 28 1014 47 10000 1 0 14:40 26.06.2020
699 Clear 28 1014 44 10000 1 0 14:22 26.06.2020
700 Clear 28 1014 45 10000 1 0 13:57 26.06.2020
701 Clear 27 1014 45 10000 1 0 13:38 26.06.2020
702 Clear 27 1014 47 10000 1.5 0 13:18 26.06.2020
703 Clear 26 1014 44 10000 2.1 0 12:41 26.06.2020
704 Clear 26 1014 47 10000 1 0 12:23 26.06.2020
705 Clear 25 1014 53 10000 2.1 0 11:59 26.06.2020
706 Clear 25 1014 53 10000 2.1 0 11:39 26.06.2020
707 Clear 24 1014 53 10000 1.5 0 11:21 26.06.2020
708 Clear 24 1014 53 10000 1 0 10:58 26.06.2020
709 Clear 24 1014 53 10000 1 0 10:39 26.06.2020
710 Clear 23 1014 53 10000 1 0 10:19 26.06.2020
711 Clear 22 1015 56 10000 1.5 0 09:44 26.06.2020
712 Clear 20 1015 64 10000 1.5 70 09:26 26.06.2020
713 Clear 20 1015 68 10000 1 0 08:59 26.06.2020
714 Clear 19 1015 68 10000 1 0 08:41 26.06.2020
715 Clear 18 1015 72 10000 1.5 90 08:23 26.06.2020
716 Clear 17 1015 77 10000 1.5 70 07:44 26.06.2020
717 Clear 16 1015 63 10000 0.5 100 07:22 26.06.2020
718 Clear 15 1015 77 10000 0.5 0 06:47 26.06.2020
719 Clouds 14 1015 82 10000 1 80 06:28 26.06.2020
720 Clouds 14 1015 82 10000 0.5 0 05:49 26.06.2020
721 Clear 15 1015 82 10000 0.5 0 04:42 26.06.2020
722 Clear 16 1016 82 10000 1 0 02:27 26.06.2020
723 Clear 17 1017 72 10000 2.1 80 01:25 26.06.2020
724 Clear 17 1017 72 10000 1.5 80 00:42 26.06.2020
725 Clear 18 1017 72 10000 1.5 80 00:20 26.06.2020
726 Clear 18 1017 72 10000 1 80 23:46 25.06.2020
727 Clear 19 1017 68 10000 1 0 23:21 25.06.2020
728 Clear 19 1017 72 10000 2.1 90 22:57 25.06.2020
729 Clear 19 1017 72 10000 2.1 90 22:38 25.06.2020
730 Clear 20 1017 68 10000 2.1 90 22:20 25.06.2020
731 Clear 21 1017 60 10000 1.5 110 21:57 25.06.2020
732 Clear 23 1017 56 10000 2.6 100 21:39 25.06.2020
733 Clear 23 1017 56 10000 2.6 100 21:20 25.06.2020
734 Clear 23 1017 53 10000 3.6 90 20:56 25.06.2020
735 Clear 24 1017 53 10000 3.6 90 20:37 25.06.2020
736 Clouds 24 1017 47 10000 2.6 90 20:19 25.06.2020
737 Clouds 25 1017 50 10000 4.1 90 19:41 25.06.2020
738 Clouds 25 1017 50 10000 4.1 90 19:20 25.06.2020
739 Clouds 25 1017 50 10000 3.6 70 18:59 25.06.2020
740 Clouds 25 1017 47 10000 4.6 60 18:39 25.06.2020
741 Clouds 25 1017 47 10000 4.6 60 18:20 25.06.2020
742 Clouds 25 1017 47 10000 4.1 80 17:44 25.06.2020
743 Clouds 25 1017 50 10000 4.6 70 17:20 25.06.2020
744 Clouds 25 1017 50 10000 4.6 70 17:20 25.06.2020
745 Clouds 25 1017 47 10000 3.6 40 16:58 25.06.2020
746 Clouds 25 1017 47 10000 3.6 40 16:37 25.06.2020
747 Clouds 25 1018 44 10000 2.6 50 16:19 25.06.2020
748 Clouds 25 1018 47 10000 4.1 50 15:43 25.06.2020
749 Clear 26 1018 41 10000 2.6 30 15:25 25.06.2020
750 Clouds 25 1018 44 10000 2.1 0 14:55 25.06.2020
751 Clouds 25 1018 44 10000 2.1 0 14:37 25.06.2020
752 Clouds 25 1018 41 10000 3.1 20 14:18 25.06.2020
753 Clear 25 1018 44 10000 2.6 40 13:42 25.06.2020
754 Clear 25 1019 41 10000 1.5 0 13:20 25.06.2020
755 Clouds 24 1019 47 10000 2.1 0 12:59 25.06.2020
756 Clouds 24 1019 47 10000 2.1 0 12:59 25.06.2020
757 Clouds 24 1019 47 10000 1.5 0 12:40 25.06.2020
758 Clouds 24 1019 47 10000 1.5 0 12:20 25.06.2020
759 Clouds 23 1019 49 10000 1.5 0 11:43 25.06.2020
760 Clouds 22 1019 53 10000 1.5 0 11:22 25.06.2020
761 Clouds 22 1019 52 10000 2.6 80 10:45 25.06.2020
762 Clouds 21 1019 52 10000 2.6 80 10:26 25.06.2020
763 -273 0 0 0 0 0 09:59 25.06.2020
764 Clouds 20 1019 56 10000 2.1 80 09:40 25.06.2020
765 Clear 19 1019 59 10000 2.6 70 09:20 25.06.2020
766 Clear 19 1020 59 10000 2.6 60 08:43 25.06.2020
767 Clear 18 1020 55 10000 1.5 50 08:19 25.06.2020
768 Clear 16 1020 55 10000 1 0 07:45 25.06.2020
769 Clear 15 1020 59 10000 0.5 0 07:26 25.06.2020
770 Clear 14 1020 63 10000 1 0 06:48 25.06.2020
771 Clear 14 1020 71 10000 2.1 330 06:26 25.06.2020
772 Clear 14 1020 71 10000 0.5 0 05:51 25.06.2020
773 Clear 15 1020 71 10000 2.1 80 03:57 25.06.2020
774 Clear 16 1020 67 10000 2.1 90 03:29 25.06.2020
775 Clear 16 1020 67 10000 0.5 0 02:42 25.06.2020
776 Clear 16 1020 55 10000 1 50 01:55 25.06.2020
777 Clear 17 1021 59 10000 0.5 0 01:20 25.06.2020
778 Clear 17 1021 55 10000 0.5 90 00:43 25.06.2020
779 Clear 18 1021 59 10000 0.5 0 00:20 25.06.2020
780 Clear 18 1020 59 10000 1 350 23:44 24.06.2020
781 Clear 18 1020 59 10000 0.5 0 23:25 24.06.2020
782 Clear 19 1020 48 10000 1.5 80 22:58 24.06.2020
783 Clear 20 1020 48 10000 1.5 80 22:40 24.06.2020
784 Clear 20 1020 55 10000 2.1 80 22:20 24.06.2020
785 Clear 22 1020 46 10000 2.6 70 21:56 24.06.2020
786 Clear 22 1020 46 10000 2.6 70 21:37 24.06.2020
787 Clear 23 1020 43 10000 2.6 80 21:18 24.06.2020
788 Clear 24 1020 41 10000 3.6 70 20:58 24.06.2020
789 Clear 25 1020 38 10000 4.1 80 20:39 24.06.2020
790 Clear 25 1020 38 10000 4.1 80 20:20 24.06.2020
791 Clear 25 1020 38 10000 3.6 70 19:57 24.06.2020
792 Clear 26 1020 38 10000 3.6 70 19:37 24.06.2020
793 Clear 26 1020 36 10000 3.6 70 19:18 24.06.2020
794 Clear 26 1020 34 10000 3.6 60 18:57 24.06.2020
795 Clear 26 1020 34 10000 3.6 60 18:38 24.06.2020
796 Clear 26 1020 36 10000 3.1 70 18:20 24.06.2020
797 Clear 26 1020 34 10000 3.1 80 17:44 24.06.2020
798 Clear 27 1021 28 10000 2.6 80 17:21 24.06.2020
799 Clear 27 1021 30 10000 3.6 70 16:59 24.06.2020
800 Clear 27 1021 30 10000 3.6 70 16:41 24.06.2020
801 Clear 26 1021 34 0 2.6 110 16:23 24.06.2020
802 Clear 26 1021 29 10000 3.6 40 15:59 24.06.2020
803 Clear 26 1021 29 10000 3.6 40 15:39 24.06.2020
804 Clear 27 1021 22 10000 3.1 60 15:20 24.06.2020
805 Clear 26 1021 24 10000 2.6 60 14:58 24.06.2020
806 Clear 26 1021 24 10000 2.6 60 14:40 24.06.2020
807 Clear 26 1021 24 10000 2.6 60 14:40 24.06.2020
808 Clear 26 1021 27 10000 4.6 70 14:21 24.06.2020
809 Clear 25 1022 25 10000 2.6 30 13:42 24.06.2020
810 Clear 25 1022 27 10000 4.1 50 13:21 24.06.2020
811 Clear 25 1022 33 10000 3.1 50 12:44 24.06.2020
812 Clear 24 1022 31 10000 3.1 40 12:21 24.06.2020
813 Clear 24 1022 38 10000 3.6 70 11:58 24.06.2020
814 Clear 24 1022 38 10000 3.6 70 11:40 24.06.2020
815 Clear 23 1022 40 10000 4.1 60 11:21 24.06.2020
816 Clear 23 1022 43 10000 3.6 70 10:47 24.06.2020
817 Clear 22 1023 46 10000 3.6 70 10:20 24.06.2020
818 Clear 22 1023 46 10000 3.1 70 09:57 24.06.2020
819 Clear 21 1023 46 10000 3.1 70 09:39 24.06.2020
820 Clear 19 1023 52 10000 3.6 70 09:20 24.06.2020
821 Clear 19 1023 56 10000 1.5 80 08:40 24.06.2020
822 Clear 18 1023 52 10000 0.5 0 08:19 24.06.2020
823 Clear 17 1022 52 10000 0.5 0 07:50 24.06.2020
824 Clear 16 1022 55 10000 1.21 77 07:26 24.06.2020
825 Clear 14 1023 77 10000 0.5 0 06:46 24.06.2020
826 Clear 13 1022 82 10000 1.5 290 06:24 24.06.2020
827 Clear 13 1022 82 10000 0.5 300 05:46 24.06.2020
828 Clear 13 1022 76 10000 1 0 04:40 24.06.2020
829 Clear 14 1023 77 10000 1 360 03:40 24.06.2020
830 Clear 14 1023 77 10000 1.5 340 03:18 24.06.2020
831 Clear 15 1023 72 10000 1.5 340 02:41 24.06.2020
832 Clear 17 1024 67 10000 0.5 0 00:58 24.06.2020
833 Clear 17 1024 67 10000 0.5 0 00:39 24.06.2020
834 Clear 17 1024 67 10000 0.5 160 00:21 24.06.2020
835 Clear 19 1024 63 10000 1 70 23:40 23.06.2020
836 Clear 19 1024 59 10000 1 0 23:18 23.06.2020
837 Clear 20 1024 56 10000 2.1 30 22:41 23.06.2020
838 Clear 21 1023 56 10000 2.6 20 22:19 23.06.2020
839 Clear 21 1023 46 10000 3.1 20 21:59 23.06.2020
840 Clear 22 1023 46 10000 3.1 20 21:38 23.06.2020
841 Clear 23 1023 43 10000 3.6 20 21:19 23.06.2020
842 Clear 24 1023 41 10000 3.6 10 20:55 23.06.2020
843 Clear 24 1023 41 10000 3.6 10 20:55 23.06.2020
844 Clear 24 1023 41 10000 4.1 360 20:37 23.06.2020
845 Clear 24 1023 41 10000 4.1 360 20:18 23.06.2020
846 Clear 25 1023 41 10000 4.1 360 19:44 23.06.2020
847 Clear 25 1023 41 10000 4.1 360 19:25 23.06.2020
848 Clear 26 1023 41 10000 4.6 20 18:42 23.06.2020
849 Clear 26 1023 39 10000 3.6 350 18:19 23.06.2020
850 Clear 26 1023 41 10000 3.6 360 17:57 23.06.2020
851 Clear 26 1023 41 10000 3.6 360 17:38 23.06.2020
852 Clear 26 1023 41 10000 3.1 20 17:20 23.06.2020
853 Clear 26 1023 39 0 3.6 360 16:55 23.06.2020
854 Clear 26 1023 41 10000 3.6 350 16:36 23.06.2020
855 Clear 26 1023 41 10000 3.6 350 16:18 23.06.2020
856 Clear 26 1024 41 10000 3.1 340 15:43 23.06.2020
857 Clear 26 1024 41 10000 3.1 0 15:24 23.06.2020
858 Clear 26 1024 41 10000 3.1 0 14:56 23.06.2020
859 Clear 25 1024 41 10000 3.1 0 14:38 23.06.2020
860 Clear 26 1024 41 10000 3.1 50 14:18 23.06.2020
861 Clouds 25 1024 44 10000 3.1 10 13:54 23.06.2020
862 Clouds 25 1024 47 10000 2.6 10 13:36 23.06.2020
863 Clouds 25 1024 47 10000 2.6 10 13:18 23.06.2020
864 Clouds 24 1025 50 10000 2.1 50 12:40 23.06.2020
865 Clouds 24 1025 50 10000 2.1 50 12:21 23.06.2020
866 Clouds 23 1025 56 10000 1.5 0 11:44 23.06.2020
867 Clouds 23 1025 56 10000 1.5 0 11:44 23.06.2020
868 Clouds 23 1025 60 10000 1.5 0 11:23 23.06.2020
869 Clouds 22 1025 60 10000 1 0 10:59 23.06.2020
870 Clouds 22 1025 60 10000 1 0 10:41 23.06.2020
871 Clouds 21 1025 60 10000 0.5 0 10:22 23.06.2020
872 Clouds 21 1025 64 10000 0.5 0 09:58 23.06.2020
873 Clouds 20 1025 68 10000 1.5 80 09:39 23.06.2020
874 Clouds 19 1025 68 10000 1.5 80 09:20 23.06.2020
875 Clouds 19 1025 68 10000 1.5 80 09:20 23.06.2020
876 Clouds 17 1025 72 10000 1 0 08:47 23.06.2020
877 Clear 17 1025 72 10000 1 0 08:27 23.06.2020
878 Clear 16 1025 72 0 0.5 0 07:56 23.06.2020
879 Clear 15 1025 72 0 0.5 0 07:38 23.06.2020
880 Clear 15 1025 77 10000 0.61 81 07:19 23.06.2020
881 Clear 14 1025 82 10000 0.5 0 07:19 23.06.2020
882 Clear 14 1025 82 10000 0.5 0 06:43 23.06.2020
883 Clear 13 1024 87 10000 0.5 0 06:25 23.06.2020
884 Clear 13 1024 87 10000 0.5 30 05:29 23.06.2020
885 Clear 14 1025 77 10000 1.5 330 03:29 23.06.2020
886 Clear 14 1025 77 10000 2.1 320 02:54 23.06.2020
887 Clear 15 1025 77 10000 2.1 320 02:35 23.06.2020
888 Clear 16 1025 72 10000 0.5 0 01:46 23.06.2020
889 Clear 16 1025 67 10000 1 310 01:28 23.06.2020
890 Clear 16 1025 67 10000 1 0 00:53 23.06.2020
891 Clear 17 1024 67 10000 2.6 310 00:22 23.06.2020
892 Clear 17 1024 68 10000 2.6 320 23:55 22.06.2020
893 Clear 17 1024 68 10000 2.6 320 23:55 22.06.2020
894 Clear 17 1024 68 10000 2.6 320 23:55 22.06.2020
895 Clear 17 1024 68 10000 2.6 320 23:55 22.06.2020
896 Clear 18 1024 68 10000 2.6 320 23:37 22.06.2020
897 Clear 18 1024 63 10000 2.6 320 23:19 22.06.2020
898 Clear 19 1024 60 10000 2.6 330 22:55 22.06.2020
899 Clear 19 1024 60 10000 2.6 330 22:37 22.06.2020
900 Clear 20 1024 60 10000 2.6 340 22:19 22.06.2020
901 Clear 21 1024 56 10000 2.6 350 21:57 22.06.2020
902 Clear 21 1024 56 10000 2.6 350 21:38 22.06.2020
903 Clear 22 1024 49 10000 2.1 340 21:20 22.06.2020
904 Clear 23 1024 38 10000 3.1 330 20:41 22.06.2020
905 Clear 24 1024 38 10000 3.1 330 20:22 22.06.2020
906 Clear 24 1024 38 10000 3.6 320 19:56 22.06.2020
907 Clear 24 1024 38 10000 4.1 310 19:37 22.06.2020
908 Clear 25 1024 38 10000 4.1 310 19:18 22.06.2020
909 Clear 25 1024 38 10000 5.1 320 18:40 22.06.2020
910 Clear 25 1024 38 10000 5.1 320 18:22 22.06.2020
911 Clear 25 1024 33 10000 4.1 340 17:57 22.06.2020
912 Clear 25 1024 31 10000 5.7 320 17:38 22.06.2020
913 Clear 25 1024 31 10000 5.7 320 17:20 22.06.2020
914 Clear 25 1024 27 10000 4.6 340 16:57 22.06.2020
915 Clear 25 1024 31 10000 5.1 340 16:38 22.06.2020
916 Clear 25 1024 31 10000 5.1 340 16:18 22.06.2020
917 Clear 24 1025 33 10000 4.1 330 15:44 22.06.2020
918 Clear 25 1025 33 10000 4.1 330 15:26 22.06.2020
919 Clear 24 1025 36 10000 4.6 320 14:58 22.06.2020
920 Clear 24 1025 41 10000 3.6 350 14:39 22.06.2020
921 Rain 24 1025 41 10000 3.6 350 14:20 22.06.2020
922 Clouds 24 1025 41 10000 3.6 310 13:54 22.06.2020
923 Clouds 24 1025 46 10000 3.1 310 13:36 22.06.2020
924 Rain 23 1025 53 0 1 0 13:18 22.06.2020
925 Clouds 23 1024 53 10000 2.1 260 12:41 22.06.2020
926 Clouds 22 1024 53 10000 2.1 260 12:22 22.06.2020
927 Clouds 22 1024 53 10000 2.1 260 12:22 22.06.2020
928 Clouds 21 1024 60 10000 3.1 310 11:39 22.06.2020
929 Clouds 21 1024 60 10000 3.1 310 11:20 22.06.2020
930 Clouds 21 1024 60 10000 3.6 320 10:57 22.06.2020
931 Rain 21 1024 60 0 3.1 250 10:39 22.06.2020
932 Clouds 20 1024 68 10000 4.1 260 10:19 22.06.2020
933 Clouds 20 1024 68 10000 4.1 260 09:59 22.06.2020
934 Clouds 19 1024 68 10000 3.1 260 09:41 22.06.2020
935 Clouds 19 1024 72 10000 1.5 240 09:20 22.06.2020
936 Clouds 20 1024 68 10000 3.1 260 09:20 22.06.2020
937 Clouds 19 1024 72 10000 1.5 240 08:58 22.06.2020
938 Clouds 18 1024 77 10000 2.1 240 08:38 22.06.2020
939 Clouds 18 1024 77 10000 2.1 240 08:20 22.06.2020
940 Clouds 17 1024 72 10000 2.1 250 07:52 22.06.2020
941 Clouds 17 1024 77 10000 3.1 270 07:33 22.06.2020
942 Clouds 16 1023 72 10000 4.1 260 06:45 22.06.2020
943 Clouds 16 1023 72 10000 4.1 260 06:26 22.06.2020
944 Clouds 16 1023 72 10000 4.1 260 05:58 22.06.2020
945 Clouds 15 1023 82 10000 0.5 0 04:59 22.06.2020
946 Rain 16 1023 77 10000 0.5 0 02:54 22.06.2020
947 Rain 16 1023 72 10000 1.5 260 01:25 22.06.2020
948 Rain 17 1023 72 10000 2.1 270 00:41 22.06.2020
949 Clear 17 1022 67 10000 2.6 260 23:59 21.06.2020
950 Clear 17 1022 72 10000 2.6 270 23:40 21.06.2020
951 Clear 17 1022 72 10000 2.6 270 23:21 21.06.2020
952 Clear 18 1022 68 10000 1 260 22:57 21.06.2020
953 Clear 19 1021 52 10000 1.5 290 22:38 21.06.2020
954 Clear 19 1021 52 10000 2.6 290 22:19 21.06.2020
955 Clear 19 1021 52 10000 2.6 290 22:19 21.06.2020
956 Clear 20 1021 52 10000 2.6 290 21:58 21.06.2020
957 Clear 21 1021 46 10000 1.5 300 21:40 21.06.2020
958 Clear 21 1021 46 10000 1.5 300 21:21 21.06.2020
959 Clear 22 1021 43 10000 1.5 310 20:59 21.06.2020
960 Clear 23 1021 46 10000 2.6 310 20:38 21.06.2020
961 Clouds 23 1021 46 10000 2.6 310 20:19 21.06.2020
962 Clouds 24 1021 36 10000 1 330 19:57 21.06.2020
963 Clouds 24 1021 36 10000 1 330 19:57 21.06.2020
964 Clouds 24 1021 41 10000 1 0 19:38 21.06.2020
965 Clouds 24 1021 46 10000 0.5 0 19:19 21.06.2020
966 Clouds 24 1021 46 10000 0.5 0 18:55 21.06.2020
967 Clouds 25 1021 44 10000 1 0 18:37 21.06.2020
968 Clouds 24 1021 44 10000 3.6 290 18:18 21.06.2020
969 Clouds 24 1021 44 10000 3.6 310 17:40 21.06.2020
970 Clouds 24 1021 46 10000 1.5 0 17:21 21.06.2020
971 Clouds 24 1021 46 10000 1.5 0 16:57 21.06.2020
972 Clouds 24 1021 44 10000 1.5 10 16:38 21.06.2020
973 Clouds 24 1021 43 10000 1 0 16:20 21.06.2020
974 Clouds 24 1021 44 10000 2.1 170 15:39 21.06.2020
975 Clouds 24 1021 44 10000 2.1 170 15:21 21.06.2020
976 Clouds 23 1021 46 10000 3.1 330 14:55 21.06.2020
977 Clouds 23 1021 46 10000 3.1 330 14:36 21.06.2020
978 Clouds 23 1021 46 10000 3.1 330 14:18 21.06.2020
979 Clouds 23 1021 53 10000 2.1 80 13:42 21.06.2020
980 Clouds 23 1021 53 10000 2.1 80 13:42 21.06.2020
981 Clouds 23 1021 53 10000 2.1 80 13:23 21.06.2020
982 Clouds 23 1021 46 10000 1 0 12:58 21.06.2020
983 Clouds 23 1021 46 10000 1 0 12:58 21.06.2020
984 Clouds 23 1021 46 10000 1 0 12:58 21.06.2020
985 Clouds 22 1021 49 10000 1.5 0 12:39 21.06.2020
986 Clouds 22 1021 49 10000 1.5 0 12:21 21.06.2020
987 Clouds 21 1022 56 10000 2.1 270 11:42 21.06.2020
988 Clouds 21 1022 56 10000 2.1 270 11:24 21.06.2020
989 Clouds 20 1022 64 10000 1 0 10:59 21.06.2020
990 Clouds 20 1022 72 10000 1.5 100 10:40 21.06.2020
991 Clouds 19 1022 72 10000 1.5 100 10:22 21.06.2020
992 Fog 18 1022 68 10000 1 0 09:44 21.06.2020
993 Fog 18 1022 68 10000 1 0 09:25 21.06.2020
994 Fog 16 1022 77 10000 0.5 0 08:59 21.06.2020
995 Fog 15 1022 82 10000 1 0 08:41 21.06.2020
996 Fog 14 1022 82 10000 1 0 08:20 21.06.2020
997 Fog 13 1021 82 10000 1 0 07:59 21.06.2020
998 Fog 13 1021 87 10000 0.77 208 07:39 21.06.2020
999 Fog 12 1021 93 10000 1 270 07:19 21.06.2020
1000 Fog 11 1021 93 10000 1.5 280 06:46 21.06.2020
1001 Fog 11 1021 100 10000 0.5 0 05:57 21.06.2020
1002 Fog 12 1021 100 10000 1 250 04:48 21.06.2020
1003 Fog 12 1021 100 10000 0.5 0 03:20 21.06.2020
1004 Fog 12 1022 100 10000 0.5 130 02:49 21.06.2020
1005 Clear 13 1022 93 10000 0.5 0 01:48 21.06.2020
1006 Clouds 13 1022 93 10000 0.5 0 01:21 21.06.2020
1007 Clouds 13 1022 93 10000 1 290 00:55 21.06.2020
1008 Clouds 14 1022 87 10000 2.1 260 00:36 21.06.2020
1009 Clouds 14 1022 87 10000 2.1 260 00:18 21.06.2020
1010 Clouds 15 1022 93 10000 2.6 250 23:41 20.06.2020
1011 Clouds 15 1022 93 10000 2.6 250 23:21 20.06.2020
1012 Clouds 16 1021 87 10000 1 0 22:55 20.06.2020
1013 Clouds 16 1021 87 10000 1 0 22:37 20.06.2020
1014 Rain 17 1021 82 10000 1 0 22:18 20.06.2020
1015 Rain 17 1021 82 10000 1 0 21:56 20.06.2020
1016 Rain 17 1021 82 10000 1.5 180 21:37 20.06.2020
1017 Rain 18 1021 82 10000 1.5 180 21:19 20.06.2020
1018 Rain 18 1021 87 7000 4.1 260 20:55 20.06.2020
1019 Thunderstorm 19 1021 82 4000 5.1 260 20:37 20.06.2020
1020 Thunderstorm 20 1020 60 10000 2.1 190 20:19 20.06.2020
1021 Rain 21 1020 60 10000 3.1 140 19:43 20.06.2020
1022 Rain 22 1020 60 10000 3.1 140 19:22 20.06.2020
1023 Clouds 22 1020 60 10000 2.1 160 18:54 20.06.2020
1024 Clouds 22 1020 56 10000 1.5 150 18:36 20.06.2020
1025 Clouds 22 1020 56 10000 2.1 70 18:18 20.06.2020
1026 Clouds 22 1020 56 10000 2.1 70 17:54 20.06.2020
1027 Clouds 22 1020 56 10000 1.5 0 17:36 20.06.2020
1028 Clouds 22 1020 60 10000 3.1 140 17:18 20.06.2020
1029 Clouds 22 1020 56 10000 2.1 140 16:39 20.06.2020
1030 Clouds 22 1021 60 10000 2.1 180 16:18 20.06.2020
1031 Clouds 22 1021 60 10000 2.1 180 16:18 20.06.2020
1032 Clouds 21 1021 60 10000 2.1 170 15:42 20.06.2020
1033 Rain 20 1021 77 10000 3.1 150 15:19 20.06.2020
1034 Rain 19 1021 77 10000 3.1 150 14:57 20.06.2020
1035 Rain 20 1021 77 10000 2.6 180 14:39 20.06.2020
1036 Rain 20 1021 77 10000 2.6 180 14:19 20.06.2020
1037 Rain 21 1021 64 10000 2.1 180 13:41 20.06.2020
1038 Rain 21 1021 64 10000 2.1 180 13:20 20.06.2020
1039 Rain 20 1021 72 10000 2.1 200 12:55 20.06.2020
1040 Rain 20 1021 59 10000 1 0 12:37 20.06.2020
1041 Rain 19 1021 59 10000 1 0 12:18 20.06.2020
1042 Rain 20 1021 64 10000 1.5 0 11:39 20.06.2020
1043 Clouds 20 1021 60 10000 2.1 0 11:20 20.06.2020
1044 Clouds 19 1021 60 10000 2.1 0 10:57 20.06.2020
1045 Clouds 19 1021 64 10000 1.5 0 10:39 20.06.2020
1046 Clouds 18 1021 63 10000 1.5 0 10:18 20.06.2020
1047 Clouds 17 1021 63 10000 0.5 0 09:42 20.06.2020
1048 Clouds 17 1021 63 10000 0.5 0 09:24 20.06.2020
1049 Clouds 16 1021 72 10000 1 0 08:58 20.06.2020
1050 Clouds 15 1021 72 10000 1 0 08:39 20.06.2020
1051 Clouds 15 1021 72 10000 1 0 08:21 20.06.2020
1052 Clouds 14 1021 77 10000 1 0 07:50 20.06.2020
1053 Clouds 13 1021 93 10000 0.5 0 07:25 20.06.2020
1054 Clouds 13 1021 93 10000 1.5 260 06:44 20.06.2020
1055 Clouds 13 1021 93 10000 1.5 260 06:20 20.06.2020
1056 Clouds 12 1021 93 10000 1 0 05:47 20.06.2020
1057 Clouds 13 1020 87 10000 1.5 230 03:53 20.06.2020
1058 Clouds 14 1020 82 10000 1 0 01:55 20.06.2020
1059 Clouds 14 1020 82 10000 1 0 01:37 20.06.2020
1060 Clouds 14 1020 77 10000 1 0 00:47 20.06.2020
1061 Clouds 14 1020 82 10000 1 0 00:20 20.06.2020
1062 Rain 14 1020 82 10000 1.5 210 23:44 19.06.2020
1063 Clouds 14 1020 82 10000 1 0 23:20 19.06.2020
1064 Clouds 14 1020 82 10000 1 0 22:56 19.06.2020
1065 Rain 14 1020 72 10000 1.5 0 22:38 19.06.2020
1066 Rain 14 1020 72 10000 1.5 0 22:20 19.06.2020
1067 Clouds 14 1020 67 10000 3.1 260 21:55 19.06.2020
1068 Thunderstorm 15 1019 63 10000 2.6 0 21:37 19.06.2020
1069 Thunderstorm 15 1019 63 10000 2.6 0 21:18 19.06.2020
1070 Rain 16 1019 72 10000 2.6 230 20:56 19.06.2020
1071 Rain 17 1019 63 10000 2.6 210 20:38 19.06.2020
1072 Rain 18 1019 63 10000 2.6 210 20:20 19.06.2020
1073 Clouds 17 1018 63 10000 2.6 200 19:54 19.06.2020
1074 Clouds 18 1018 63 10000 2.6 250 19:36 19.06.2020
1075 Clouds 18 1018 68 10000 1.5 120 19:18 19.06.2020
1076 Rain 18 1018 77 10000 2.1 150 18:40 19.06.2020
1077 Thunderstorm 17 1018 77 10000 1.5 0 18:21 19.06.2020
1078 Rain 17 1018 77 10000 1.5 0 17:54 19.06.2020
1079 Rain 17 1018 72 10000 3.6 200 17:36 19.06.2020
1080 Rain 18 1018 67 10000 4.6 210 17:18 19.06.2020
1081 Rain 20 1018 52 10000 2.1 140 16:41 19.06.2020
1082 Rain 20 1018 52 10000 2.1 140 16:23 19.06.2020
1083 Rain 20 1018 52 10000 2.1 140 15:58 19.06.2020
1084 Clouds 20 1018 56 10000 1.5 0 15:40 19.06.2020
1085 Clouds 19 1018 63 10000 2.6 90 15:19 19.06.2020
1086 Clouds 19 1018 63 10000 2.6 90 14:55 19.06.2020
1087 Rain 18 1018 72 10000 2.1 180 14:37 19.06.2020
1088 Rain 18 1018 72 10000 2.1 180 14:18 19.06.2020
1089 Rain 18 1018 72 10000 2.6 180 13:41 19.06.2020
1090 Rain 18 1018 77 10000 2.6 170 13:23 19.06.2020
1091 Rain 18 1018 77 10000 2.6 180 12:46 19.06.2020
1092 Rain 18 1018 77 10000 1.5 0 12:22 19.06.2020
1093 Rain 18 1018 77 10000 1.5 0 11:57 19.06.2020
1094 Rain 18 1017 77 10000 2.1 190 11:38 19.06.2020
1095 Rain 17 1017 77 10000 2.1 190 11:18 19.06.2020
1096 Rain 17 1017 77 10000 1.5 210 10:45 19.06.2020
1097 Rain 16 1017 77 10000 1.5 210 10:26 19.06.2020
1098 Rain 16 1017 77 10000 1.5 190 09:59 19.06.2020
1099 Rain 16 1017 82 10000 1.5 190 09:41 19.06.2020
1100 Rain 16 1017 82 10000 1.5 0 09:20 19.06.2020
1101 Rain 15 1017 82 10000 1.5 190 08:44 19.06.2020
1102 Rain 15 1017 82 10000 1.5 190 08:26 19.06.2020
1103 Rain 15 1017 82 10000 2.1 190 07:56 19.06.2020
1104 Rain 14 1016 87 10000 2.1 190 07:38 19.06.2020
1105 Clouds 14 1016 87 10000 2.6 190 07:19 19.06.2020
1106 Clouds 14 1016 82 10000 1.5 230 06:25 19.06.2020
1107 Clouds 14 1016 77 10000 0.5 0 05:44 19.06.2020
1108 Rain 14 1016 82 10000 1 0 04:27 19.06.2020
1109 Clouds 15 1016 82 10000 0.5 0 02:51 19.06.2020
1110 Clouds 15 1015 77 10000 1 0 00:59 19.06.2020
1111 Rain 16 1015 72 10000 1 0 00:40 19.06.2020
1112 Rain 15 1015 72 10000 1.5 210 00:21 19.06.2020
1113 Rain 16 1015 67 10000 1 0 23:41 18.06.2020
1114 Rain 16 1015 67 10000 1 0 23:23 18.06.2020
1115 Clouds 17 1014 63 10000 2.1 280 22:59 18.06.2020
1116 Clouds 17 1014 68 10000 2.6 280 22:39 18.06.2020
1117 Clouds 18 1014 60 10000 1 0 22:19 18.06.2020
1118 Clouds 18 1014 60 10000 1 0 22:19 18.06.2020
1119 Rain 18 1014 56 10000 0.5 0 21:40 18.06.2020
1120 Rain 19 1014 56 10000 0.5 0 21:21 18.06.2020
1121 Clouds 19 1013 60 10000 2.1 310 20:59 18.06.2020
1122 Clouds 19 1013 56 10000 4.6 330 20:40 18.06.2020
1123 Clouds 19 1013 56 10000 4.6 330 20:19 18.06.2020
1124 Rain 19 1013 59 10000 4.6 310 19:56 18.06.2020
1125 Rain 20 1013 56 10000 6.7 310 19:37 18.06.2020
1126 Rain 20 1013 56 10000 6.7 310 19:18 18.06.2020
1127 Rain 22 1013 46 10000 1.5 0 18:38 18.06.2020
1128 Rain 22 1013 46 10000 1.5 0 18:19 18.06.2020
1129 Clouds 22 1013 52 10000 2.1 360 17:45 18.06.2020
1130 Clouds 22 1013 52 10000 2.1 360 17:26 18.06.2020
1131 Clouds 22 1013 49 10000 3.6 360 16:57 18.06.2020
1132 Clouds 23 1013 46 10000 1.5 0 16:39 18.06.2020
1133 Clouds 22 1013 49 10000 1.5 0 16:20 18.06.2020
1134 Clouds 22 1013 49 10000 1.5 0 15:57 18.06.2020
1135 Clouds 22 1013 49 10000 2.6 0 15:39 18.06.2020
1136 Clouds 22 1013 49 10000 2.6 0 15:19 18.06.2020
1137 Clouds 22 1014 52 10000 3.1 310 14:56 18.06.2020
1138 Clouds 22 1014 52 10000 3.1 310 14:37 18.06.2020
1139 Clouds 21 1014 52 10000 3.1 310 14:19 18.06.2020
1140 Clouds 22 1014 46 10000 1 0 13:47 18.06.2020
1141 Clouds 21 1014 46 10000 1 0 13:27 18.06.2020
1142 Clouds 21 1014 52 10000 2.1 330 12:57 18.06.2020
1143 Clouds 20 1014 56 10000 1 0 12:39 18.06.2020
1144 Clouds 19 1014 59 10000 2.6 240 12:19 18.06.2020
1145 Clouds 19 1014 59 10000 2.6 240 11:57 18.06.2020
1146 Clouds 19 1014 68 10000 2.1 0 11:37 18.06.2020
1147 Clouds 19 1014 68 10000 2.1 0 11:18 18.06.2020
1148 Clouds 18 1014 68 10000 2.1 0 10:39 18.06.2020
1149 Clouds 18 1014 72 10000 2.6 250 10:18 18.06.2020
1150 Clouds 16 1014 77 10000 2.1 180 09:45 18.06.2020
1151 Clouds 16 1014 77 10000 2.1 180 09:27 18.06.2020
1152 Clouds 16 1014 72 10000 1 0 08:57 18.06.2020
1153 Clouds 15 1014 72 10000 0.5 0 08:37 18.06.2020
1154 Clouds 15 1014 72 10000 0.5 0 08:37 18.06.2020
1155 Clouds 14 1014 72 10000 0.5 0 08:19 18.06.2020
1156 Clouds 11 1014 87 10000 0.5 0 07:44 18.06.2020
1157 Clouds 11 1014 87 10000 0.5 0 07:25 18.06.2020
1158 Clouds 10 1014 93 10000 0.5 0 06:37 18.06.2020
1159 Clouds 11 1013 93 10000 1 0 05:31 18.06.2020
1160 Clouds 11 1013 93 10000 1 0 04:20 18.06.2020
1161 Clouds 12 1014 93 10000 1.5 240 01:48 18.06.2020
1162 Clouds 13 1014 87 10000 1.5 220 01:27 18.06.2020
1163 Clouds 13 1014 93 10000 1.5 200 00:54 18.06.2020
1164 Clouds 13 1014 93 10000 1.5 200 00:32 18.06.2020
1165 Clouds 14 1014 87 10000 1 0 23:56 17.06.2020
1166 Rain 14 1013 87 10000 2.1 240 23:38 17.06.2020
1167 Rain 14 1013 87 10000 2.1 240 23:19 17.06.2020
1168 Rain 14 1013 87 10000 2.1 240 22:57 17.06.2020
1169 Rain 14 1013 87 10000 3.1 250 22:37 17.06.2020
1170 Rain 14 1012 93 10000 3.6 250 22:19 17.06.2020
1171 Rain 15 1012 87 10000 5.7 270 21:40 17.06.2020
1172 Rain 15 1012 87 10000 5.7 270 21:22 17.06.2020
1173 Rain 15 1012 87 10000 4.6 260 20:57 17.06.2020
1174 Rain 15 1012 87 10000 2.1 220 20:38 17.06.2020
1175 Rain 16 1011 87 10000 1.5 0 20:19 17.06.2020
1176 Rain 16 1011 87 10000 2.6 220 19:44 17.06.2020
1177 Rain 16 1011 87 10000 2.6 220 19:23 17.06.2020
1178 Rain 17 1011 88 10000 3.1 210 18:58 17.06.2020
1179 Rain 17 1010 93 10000 3.6 220 18:40 17.06.2020
1180 Rain 17 1010 93 10000 3.6 220 18:40 17.06.2020
1181 Rain 16 1010 93 10000 5.1 250 18:21 17.06.2020
1182 Thunderstorm 17 1010 93 3000 5.1 230 17:43 17.06.2020
1183 Thunderstorm 18 1010 93 3000 5.1 230 17:22 17.06.2020
1184 Thunderstorm 18 1010 93 3000 5.1 230 17:22 17.06.2020
1185 Thunderstorm 21 1009 68 10000 2.1 350 16:57 17.06.2020
1186 Rain 22 1009 64 10000 2.1 0 16:38 17.06.2020
1187 Rain 22 1009 64 10000 2.1 0 16:20 17.06.2020
1188 Clouds 21 1009 73 10000 3.1 360 15:56 17.06.2020
1189 Rain 21 1010 82 10000 4.1 30 15:38 17.06.2020
1190 Rain 21 1010 82 10000 4.1 30 15:18 17.06.2020
1191 Rain 20 1010 72 10000 2.1 350 14:56 17.06.2020
1192 Clouds 21 1010 60 10000 2.1 30 14:38 17.06.2020
1193 Clouds 21 1010 60 10000 2.1 30 14:19 17.06.2020
1194 Clouds 21 1011 68 10000 2.6 30 13:42 17.06.2020
1195 Clouds 21 1011 68 10000 2.6 60 13:22 17.06.2020
1196 Clouds 21 1011 68 10000 2.6 60 12:59 17.06.2020
1197 Clouds 21 1011 68 10000 2.6 50 12:40 17.06.2020
1198 Clouds 20 1011 68 10000 2.6 50 12:20 17.06.2020
1199 Clouds 19 1012 77 10000 1.5 50 11:44 17.06.2020
1200 Clouds 19 1012 77 10000 1.5 50 11:26 17.06.2020
1201 Clouds 19 1012 82 10000 1.5 100 10:58 17.06.2020
1202 Clouds 18 1012 88 9000 1 0 10:38 17.06.2020
1203 Clouds 17 1012 93 6000 1.5 80 10:19 17.06.2020
1204 Clouds 17 1012 93 6000 1.5 80 09:55 17.06.2020
1205 Fog 17 1012 93 4800 1 0 09:36 17.06.2020
1206 Fog 16 1012 100 2500 0.5 0 09:18 17.06.2020
1207 Fog 16 1012 100 2500 0.5 0 09:18 17.06.2020
1208 Fog 15 1012 93 450 0.5 0 08:44 17.06.2020
1209 Fog 15 1012 93 250 0.31 236 08:19 17.06.2020
1210 Fog 15 1012 100 150 0.5 0 07:44 17.06.2020
1211 Fog 14 1012 100 150 0.5 0 07:24 17.06.2020
1212 Fog 14 1012 100 150 0.5 0 06:59 17.06.2020
1213 Fog 14 1012 100 1100 1 0 06:41 17.06.2020
1214 Fog 14 1012 93 6000 0.5 350 06:22 17.06.2020
1215 Fog 14 1012 93 6000 0.5 350 05:56 17.06.2020
1216 Clouds 14 1013 93 10000 0.5 0 04:39 17.06.2020
1217 Clouds 15 1014 93 10000 0.5 290 02:41 17.06.2020
1218 Clouds 15 1014 93 10000 0.5 0 01:20 17.06.2020
1219 Clouds 15 1015 93 10000 0.5 240 00:37 17.06.2020
1220 Clouds 16 1015 93 10000 0.5 240 00:18 17.06.2020
1221 Clouds 16 1014 87 10000 0.5 300 23:41 16.06.2020
1222 Clouds 16 1014 93 10000 1 0 23:23 16.06.2020
1223 Clouds 16 1014 93 10000 1 0 22:58 16.06.2020
1224 Clouds 16 1014 87 10000 0.5 0 22:39 16.06.2020
1225 Clouds 16 1014 87 10000 0.5 0 22:19 16.06.2020
1226 Clouds 17 1014 82 10000 1 0 21:58 16.06.2020
1227 Clouds 17 1014 77 10000 1 0 21:40 16.06.2020
1228 Clouds 17 1014 77 10000 1 0 21:21 16.06.2020
1229 Clouds 18 1014 68 10000 0.5 0 20:55 16.06.2020
1230 Clouds 19 1014 64 10000 1 0 20:36 16.06.2020
1231 Clouds 19 1015 68 10000 1 0 20:18 16.06.2020
1232 Clouds 19 1015 68 10000 1 0 19:56 16.06.2020
1233 Clouds 18 1015 77 10000 1.5 70 19:37 16.06.2020
1234 Clouds 18 1015 77 10000 2.1 60 19:18 16.06.2020
1235 Rain 18 1015 77 10000 2.6 40 18:41 16.06.2020
1236 Rain 18 1015 77 10000 2.6 40 18:41 16.06.2020
1237 Rain 18 1015 77 10000 2.1 30 18:21 16.06.2020
1238 Rain 18 1015 77 10000 2.1 30 17:58 16.06.2020
1239 Rain 18 1016 77 10000 3.1 50 17:38 16.06.2020
1240 Rain 18 1016 77 10000 3.1 50 17:20 16.06.2020
1241 Rain 18 1016 82 10000 4.1 30 16:58 16.06.2020
1242 Rain 18 1016 72 10000 1.5 50 16:39 16.06.2020
1243 Rain 18 1016 72 10000 1.5 0 16:19 16.06.2020
1244 Rain 18 1016 72 10000 1.5 0 16:19 16.06.2020
1245 Rain 18 1016 72 10000 1.5 0 15:56 16.06.2020
1246 Rain 18 1016 72 10000 1.5 0 15:56 16.06.2020
1247 Rain 18 1016 82 10000 0.5 240 15:38 16.06.2020
1248 Rain 18 1016 88 10000 1 0 15:20 16.06.2020
1249 Rain 18 1016 88 10000 1 0 14:55 16.06.2020
1250 Rain 18 1016 82 10000 1 0 14:36 16.06.2020
1251 Rain 18 1016 82 10000 1 0 14:18 16.06.2020
1252 Rain 18 1016 72 10000 1.5 0 13:44 16.06.2020
1253 Rain 18 1016 72 10000 1.5 0 13:24 16.06.2020
1254 Rain 18 1016 72 10000 1.5 0 13:24 16.06.2020
1255 Rain 17 1017 82 10000 1 0 12:42 16.06.2020
1256 Rain 17 1017 82 10000 1 0 12:22 16.06.2020
1257 Rain 17 1017 82 10000 0.73 285 11:58 16.06.2020
1258 Rain 17 1017 82 10000 0.5 0 11:40 16.06.2020
1259 Rain 17 1017 82 10000 0.5 0 11:22 16.06.2020
1260 Drizzle 16 1017 87 10000 1 0 10:58 16.06.2020
1261 Drizzle 16 1017 87 10000 1 0 10:38 16.06.2020
1262 Drizzle 16 1017 87 10000 1 0 10:20 16.06.2020
1263 Drizzle 15 1017 93 9000 0.5 0 09:45 16.06.2020
1264 Drizzle 15 1017 93 9000 0.5 0 09:23 16.06.2020
1265 Drizzle 15 1017 93 9000 0.5 0 08:53 16.06.2020
1266 Drizzle 15 1017 87 9000 0.5 0 08:33 16.06.2020
1267 Rain 14 1017 93 10000 0.5 0 07:55 16.06.2020
1268 Rain 14 1017 93 10000 0.5 0 07:37 16.06.2020
1269 Fog 14 1017 93 10000 0.5 0 07:19 16.06.2020
1270 Rain 14 1017 93 10000 0.5 0 06:34 16.06.2020
1271 Rain 14 1017 93 10000 0.5 0 05:52 16.06.2020
1272 Rain 14 1018 93 10000 1 0 05:19 16.06.2020
1273 Rain 14 1018 93 10000 0.5 0 04:26 16.06.2020
1274 Rain 14 1018 93 10000 1.5 260 02:47 16.06.2020
1275 Rain 15 1018 87 10000 1.5 240 01:34 16.06.2020
1276 Rain 15 1019 87 10000 0.5 0 00:58 16.06.2020
1277 Rain 15 1019 93 10000 1 0 00:37 16.06.2020
1278 Rain 15 1019 93 8000 0.5 0 00:18 16.06.2020
1279 Rain 15 1019 93 8000 0.83 193 23:41 15.06.2020
1280 Rain 15 1019 93 8000 0.83 180 23:21 15.06.2020
1281 Rain 15 1019 93 9000 0.83 180 22:55 15.06.2020
1282 Rain 15 1019 93 7000 0.83 180 22:36 15.06.2020
1283 Rain 15 1018 93 10000 1 90 22:18 15.06.2020
1284 Rain 15 1018 93 10000 1 90 21:55 15.06.2020
1285 Rain 15 1018 93 10000 0.5 100 21:36 15.06.2020
1286 Rain 16 1018 87 10000 0.5 0 21:18 15.06.2020
1287 Rain 16 1018 87 10000 0.5 0 20:54 15.06.2020
1288 Rain 16 1018 87 10000 1 0 20:36 15.06.2020
1289 Rain 16 1018 82 10000 1 0 20:18 15.06.2020
1290 Rain 16 1018 77 10000 1.5 100 19:41 15.06.2020
1291 Rain 16 1018 77 10000 1.5 100 19:22 15.06.2020
1292 Clouds 16 1018 72 10000 1 0 18:58 15.06.2020
1293 Clouds 17 1018 77 10000 3.1 20 18:40 15.06.2020
1294 Clouds 17 1018 77 10000 3.1 20 18:21 15.06.2020
1295 Clouds 17 1017 86 0 0.45 332 17:58 15.06.2020
1296 Rain 17 1018 87 0 0.45 48 17:40 15.06.2020
1297 Clouds 17 1018 68 10000 2.1 290 17:19 15.06.2020
1298 Clouds 17 1018 68 10000 2.1 290 16:57 15.06.2020
1299 Clouds 18 1018 72 10000 2.6 300 16:38 15.06.2020
1300 Rain 18 1018 68 10000 3.1 320 16:18 15.06.2020
1301 Clouds 18 1018 63 10000 2.6 340 15:41 15.06.2020
1302 Clouds 18 1018 63 10000 2.6 340 15:21 15.06.2020
1303 Clouds 18 1018 68 10000 4.1 310 14:58 15.06.2020
1304 Clouds 18 1018 68 10000 4.1 310 14:40 15.06.2020
1305 Clouds 18 1018 68 10000 4.1 310 14:20 15.06.2020
1306 Clouds 18 1018 72 10000 4.6 290 13:57 15.06.2020
1307 Clouds 18 1018 68 10000 5.1 270 13:38 15.06.2020
1308 Clouds 17 1018 72 10000 5.1 280 13:18 15.06.2020
1309 Clouds 17 1018 77 10000 5.7 270 12:43 15.06.2020
1310 Clouds 17 1018 77 10000 5.7 270 12:22 15.06.2020
1311 Clouds 17 1018 77 10000 6.2 270 11:59 15.06.2020
1312 Clouds 17 1018 77 10000 4.1 260 11:41 15.06.2020
1313 Clouds 17 1018 77 10000 4.1 260 11:23 15.06.2020
1314 Clouds 16 1018 82 10000 3.6 250 10:43 15.06.2020
1315 Clouds 16 1018 82 10000 3.6 250 10:22 15.06.2020
1316 Clouds 15 1018 87 10000 2.6 250 09:45 15.06.2020
1317 Clouds 15 1018 87 10000 2.6 0 09:23 15.06.2020
1318 Clouds 15 1018 87 10000 2.6 0 08:56 15.06.2020
1319 Clouds 15 1017 87 10000 2.1 0 08:37 15.06.2020
1320 Clouds 14 1017 93 10000 2.1 0 08:18 15.06.2020
1321 Clouds 14 1017 93 10000 3.1 250 07:41 15.06.2020
1322 Clouds 14 1017 93 10000 3.1 250 07:20 15.06.2020
1323 Clouds 14 1017 87 10000 3.1 250 06:38 15.06.2020
1324 Clouds 14 1017 87 10000 2.6 250 06:19 15.06.2020
1325 Drizzle 14 1017 93 10000 2.6 260 05:39 15.06.2020
1326 Drizzle 14 1017 93 10000 2.6 260 05:20 15.06.2020
1327 Clouds 14 1017 87 10000 2.6 250 04:18 15.06.2020
1328 Drizzle 14 1017 87 10000 2.6 240 03:37 15.06.2020
1329 Drizzle 14 1017 93 10000 1.5 230 02:34 15.06.2020
1330 Drizzle 14 1017 93 7000 2.1 270 01:53 15.06.2020
1331 Drizzle 14 1017 93 7000 2.1 270 01:31 15.06.2020
1332 Rain 14 1017 93 10000 2.6 230 00:58 15.06.2020
1333 Rain 14 1017 93 8000 2.1 230 00:39 15.06.2020
1334 Rain 14 1017 93 5000 2.6 240 00:19 15.06.2020
1335 Rain 14 1018 93 10000 3.6 250 23:46 14.06.2020
1336 Rain 14 1018 93 10000 3.6 250 23:24 14.06.2020
1337 Clouds 14 1017 93 10000 2.6 240 22:58 14.06.2020
1338 Clouds 14 1017 93 10000 2.1 230 22:39 14.06.2020
1339 Rain 14 1017 93 10000 2.6 0 22:19 14.06.2020
1340 Rain 14 1017 93 10000 2.6 0 21:57 14.06.2020
1341 Rain 14 1017 93 8000 2.6 0 21:38 14.06.2020
1342 Rain 15 1017 87 10000 3.6 260 21:19 14.06.2020
1343 Rain 14 1017 93 8000 2.6 0 21:19 14.06.2020
1344 Rain 15 1017 87 10000 3.6 260 20:58 14.06.2020
1345 Rain 15 1017 87 10000 2.1 0 20:38 14.06.2020
1346 Rain 15 1016 93 10000 1.5 250 20:20 14.06.2020
1347 Rain 15 1016 93 10000 1.5 250 19:59 14.06.2020
1348 Rain 15 1016 87 10000 2.1 250 19:38 14.06.2020
1349 Rain 15 1016 87 10000 2.6 240 19:19 14.06.2020
1350 Rain 15 1016 87 10000 2.1 250 19:19 14.06.2020
1351 Rain 15 1016 87 10000 2.6 240 18:57 14.06.2020
1352 Rain 15 1016 87 10000 2.6 230 18:38 14.06.2020
1353 Rain 15 1016 87 10000 2.1 0 18:20 14.06.2020
1354 Rain 15 1016 87 10000 2.1 0 17:57 14.06.2020
1355 Rain 15 1016 87 10000 2.6 240 17:38 14.06.2020
1356 Rain 15 1016 87 10000 2.6 240 17:19 14.06.2020
1357 Rain 15 1016 87 10000 2.1 230 16:41 14.06.2020
1358 Rain 15 1016 87 10000 2.1 230 16:21 14.06.2020
1359 Rain 15 1016 87 10000 2.6 220 15:59 14.06.2020
1360 Rain 15 1016 87 10000 2.1 230 15:40 14.06.2020
1361 Rain 15 1016 87 10000 3.1 250 15:19 14.06.2020
1362 Rain 15 1016 87 10000 3.1 250 14:59 14.06.2020
1363 Rain 15 1016 93 10000 3.6 250 14:40 14.06.2020
1364 Rain 15 1016 93 10000 3.6 250 14:21 14.06.2020
1365 Rain 15 1016 87 10000 1.5 240 13:57 14.06.2020
1366 Rain 15 1016 87 10000 2.6 250 13:39 14.06.2020
1367 Rain 15 1016 87 10000 2.6 250 13:21 14.06.2020
1368 Rain 15 1016 87 10000 3.1 250 12:55 14.06.2020
1369 Rain 15 1016 87 10000 3.1 250 12:37 14.06.2020
1370 Rain 15 1015 87 10000 2.6 260 12:18 14.06.2020
1371 Rain 15 1015 87 10000 2.6 260 11:56 14.06.2020
1372 Rain 15 1015 87 10000 3.6 260 11:37 14.06.2020
1373 Rain 15 1015 93 10000 2.6 240 11:18 14.06.2020
1374 Rain 16 1015 87 10000 2.1 220 10:42 14.06.2020
1375 Rain 16 1015 87 10000 2.1 220 10:19 14.06.2020
1376 Rain 16 1014 87 10000 1.5 200 09:48 14.06.2020
1377 Rain 16 1014 87 10000 1.5 200 09:25 14.06.2020
1378 Rain 16 1014 87 10000 1 0 08:57 14.06.2020
1379 Rain 16 1014 87 10000 1 0 08:39 14.06.2020
1380 Rain 16 1014 87 10000 1.5 190 08:18 14.06.2020
1381 Rain 16 1014 87 10000 1.5 190 07:50 14.06.2020
1382 Rain 16 1013 87 10000 1.5 0 07:32 14.06.2020
1383 Rain 16 1013 87 10000 1.5 210 06:31 14.06.2020
1384 Clouds 16 1013 82 10000 2.6 250 05:43 14.06.2020
1385 Rain 17 1013 82 10000 2.1 240 04:58 14.06.2020
1386 Clouds 17 1013 77 0 1 0 04:31 14.06.2020
1387 Clouds 18 1013 67 10000 1.5 210 03:23 14.06.2020
1388 Rain 18 1013 63 10000 1.5 0 02:30 14.06.2020
1389 Rain 18 1012 68 10000 1.5 220 01:42 14.06.2020
1390 Rain 18 1012 68 10000 1.5 220 01:23 14.06.2020
1391 Clouds 19 1012 63 10000 2.1 250 00:39 14.06.2020
1392 Clouds 19 1012 63 10000 2.1 250 00:19 14.06.2020
1393 Clouds 20 1011 60 10000 6.2 280 23:43 13.06.2020
1394 Clouds 20 1011 60 10000 6.2 280 23:24 13.06.2020
1395 Clouds 20 1012 56 10000 5.7 270 22:57 13.06.2020
1396 Clouds 20 1011 56 10000 6.2 280 22:37 13.06.2020
1397 Clouds 21 1011 56 10000 6.2 280 22:18 13.06.2020
1398 Clouds 21 1011 56 10000 6.2 280 21:56 13.06.2020
1399 Clouds 21 1011 56 10000 5.7 280 21:37 13.06.2020
1400 Clouds 21 1010 56 10000 5.7 290 21:19 13.06.2020
1401 Clouds 22 1010 53 10000 5.1 280 20:43 13.06.2020
1402 Clouds 23 1009 49 10000 5.7 310 20:19 13.06.2020
1403 Clouds 23 1009 49 10000 5.7 310 19:57 13.06.2020
1404 Clouds 24 1010 46 10000 5.7 300 19:36 13.06.2020
1405 Clouds 24 1010 47 10000 5.7 290 19:18 13.06.2020
1406 Clouds 24 1010 47 10000 5.7 290 18:55 13.06.2020
1407 Clouds 24 1010 44 10000 5.1 300 18:37 13.06.2020
1408 Clouds 23 1010 44 10000 5.1 300 18:18 13.06.2020
1409 Clouds 23 1010 44 10000 5.1 300 17:55 13.06.2020
1410 Clouds 25 1010 49 10000 5.7 290 17:36 13.06.2020
1411 Clouds 24 1010 49 10000 3.6 300 17:18 13.06.2020
1412 Clouds 24 1010 46 10000 4.1 320 16:41 13.06.2020
1413 Clouds 24 1011 46 10000 4.1 360 16:20 13.06.2020
1414 Clouds 24 1011 46 10000 4.1 360 15:59 13.06.2020
1415 Clouds 25 1011 44 10000 3.6 330 15:39 13.06.2020
1416 Clouds 24 1011 44 10000 3.6 330 15:20 13.06.2020
1417 Clouds 24 1011 49 10000 3.6 290 14:43 13.06.2020
1418 Clouds 23 1012 53 10000 2.6 300 14:23 13.06.2020
1419 Clouds 23 1012 53 10000 2.6 300 13:56 13.06.2020
1420 Clouds 22 1012 49 10000 3.6 310 13:37 13.06.2020
1421 Clouds 23 1012 49 10000 4.1 310 13:18 13.06.2020
1422 Clouds 22 1012 53 10000 3.6 300 12:43 13.06.2020
1423 Clouds 22 1012 53 10000 3.6 300 12:25 13.06.2020
1424 Clouds 22 1012 52 10000 3.6 330 11:57 13.06.2020
1425 Clouds 22 1012 56 10000 2.1 0 11:37 13.06.2020
1426 Clouds 21 1012 64 10000 1.5 0 11:19 13.06.2020
1427 Clouds 21 1012 64 10000 1.5 0 10:54 13.06.2020
1428 Clouds 21 1012 60 10000 2.6 270 10:36 13.06.2020
1429 Clouds 20 1012 60 10000 2.6 260 10:18 13.06.2020
1430 Clouds 19 1012 63 10000 2.1 260 09:42 13.06.2020
1431 Clouds 18 1012 63 10000 2.1 260 09:20 13.06.2020
1432 Rain 18 1012 63 10000 1.5 260 08:46 13.06.2020
1433 Rain 17 1012 63 10000 1.5 260 08:28 13.06.2020
1434 Clouds 16 1012 72 10000 1 0 07:50 13.06.2020
1435 Clouds 15 1011 82 10000 0.5 0 07:27 13.06.2020
1436 Clouds 14 1011 82 10000 0.5 310 06:47 13.06.2020
1437 Clouds 14 1011 82 10000 0.5 310 06:27 13.06.2020
1438 Clouds 14 1010 76 10000 1.24 274 05:42 13.06.2020
1439 Clouds 14 1010 76 10000 1.79 311 05:23 13.06.2020
1440 Clouds 17 1009 67 10000 5.1 300 03:47 13.06.2020
1441 Clouds 17 1009 72 10000 5.1 300 02:53 13.06.2020
1442 Clear 17 1008 82 10000 2.6 260 02:29 13.06.2020
1443 Clear 16 1007 72 10000 2.1 310 01:41 13.06.2020
1444 Clear 17 1007 72 10000 2.1 310 01:18 13.06.2020
1445 Clear 17 1007 72 10000 1 0 00:42 13.06.2020
1446 Clear 17 1007 72 10000 1 0 00:23 13.06.2020
1447 Clear 19 1006 63 10000 0.5 80 23:41 12.06.2020
1448 Clear 19 1006 63 10000 1.5 60 23:19 12.06.2020
1449 Clear 19 1006 63 10000 1.5 60 23:19 12.06.2020
1450 Clear 19 1006 63 10000 1.5 60 22:56 12.06.2020
1451 Clear 20 1006 60 10000 2.1 80 22:38 12.06.2020
1452 Clear 20 1006 60 10000 2.1 80 22:19 12.06.2020
1453 Clear 22 1006 50 10000 3.1 80 21:47 12.06.2020
1454 Clear 24 1005 50 10000 3.6 90 21:24 12.06.2020
1455 Clear 24 1005 50 10000 3.6 90 20:58 12.06.2020
1456 Clear 25 1005 47 10000 3.6 90 20:40 12.06.2020
1457 Clear 26 1005 47 10000 3.6 90 20:22 12.06.2020
1458 Clear 26 1005 41 10000 4.1 80 19:56 12.06.2020
1459 Clear 27 1005 39 10000 4.6 70 19:38 12.06.2020
1460 Clear 27 1005 39 10000 4.6 70 19:18 12.06.2020
1461 Clear 26 1005 39 10000 4.6 80 18:39 12.06.2020
1462 Clear 27 1005 39 10000 4.1 80 18:19 12.06.2020
1463 Clear 27 1005 39 10000 4.1 80 17:54 12.06.2020
1464 Clear 27 1005 36 10000 4.1 90 17:36 12.06.2020
1465 Clear 27 1005 36 10000 5.1 100 17:18 12.06.2020
1466 Clear 27 1005 39 10000 3.6 110 16:40 12.06.2020
1467 Clear 26 1005 39 10000 3.1 0 16:19 12.06.2020
1468 Clear 26 1006 36 10000 3.6 70 15:47 12.06.2020
1469 Clear 26 1006 36 10000 3.6 70 15:25 12.06.2020
1470 Clear 26 1006 41 10000 5.1 90 14:56 12.06.2020
1471 Clear 26 1006 39 10000 5.1 100 14:38 12.06.2020
1472 Clear 25 1006 39 10000 5.1 100 14:20 12.06.2020
1473 Clear 25 1006 44 10000 4.6 100 13:42 12.06.2020
1474 Clear 25 1006 44 10000 4.6 100 13:21 12.06.2020
1475 Clouds 24 1006 49 10000 5.7 80 12:41 12.06.2020
1476 Clouds 24 1006 49 10000 5.7 80 12:41 12.06.2020
1477 Clouds 24 1006 49 10000 5.7 80 12:41 12.06.2020
1478 Clouds 22 1006 49 10000 5.7 80 12:20 12.06.2020
1479 Clouds 22 1007 53 10000 5.7 70 11:58 12.06.2020
1480 Clouds 22 1007 60 10000 3.6 80 11:40 12.06.2020
1481 Clouds 22 1007 60 10000 3.6 80 11:21 12.06.2020
1482 Clouds 20 1007 72 10000 1 0 10:46 12.06.2020
1483 Clouds 20 1007 72 10000 1 0 10:25 12.06.2020
1484 Clear 17 1008 77 10000 1.5 90 09:47 12.06.2020
1485 Fog 16 1008 77 10000 1 0 09:22 12.06.2020
1486 Fog 14 1008 77 10000 0.5 0 08:46 12.06.2020
1487 Fog 13 1008 77 10000 0.5 0 08:25 12.06.2020
1488 Fog 11 1008 93 200 0.5 0 07:57 12.06.2020
1489 Fog 10 1008 100 250 0.5 0 07:39 12.06.2020
1490 Fog 10 1008 100 250 0.5 0 07:21 12.06.2020
1491 Fog 9 1008 100 2000 0.5 0 06:38 12.06.2020
1492 Fog 9 1008 100 250 0.5 360 06:19 12.06.2020
1493 Fog 10 1008 100 2400 0.5 0 05:47 12.06.2020
1494 Fog 10 1009 93 10000 1 0 05:20 12.06.2020
1495 Clouds 10 1009 100 10000 1 290 03:47 12.06.2020
1496 Clouds 10 1009 93 10000 0.5 0 02:24 12.06.2020
1497 Clear 11 1009 100 10000 0.5 0 01:34 12.06.2020
1498 Clear 11 1009 93 10000 1.5 270 00:58 12.06.2020
1499 Clear 12 1009 93 10000 1 10 00:38 12.06.2020
1500 Clear 12 1010 87 10000 2.1 320 00:20 12.06.2020
1501 Clear 12 1010 93 10000 2.6 310 23:56 11.06.2020
1502 Clear 12 1010 93 10000 2.6 310 23:38 11.06.2020
1503 Clear 13 1009 87 10000 2.1 300 23:19 11.06.2020
1504 Clear 13 1009 87 10000 2.1 300 22:54 11.06.2020
1505 Clouds 14 1009 82 10000 0.5 340 22:36 11.06.2020
1506 Clear 14 1009 72 10000 1 60 22:18 11.06.2020
1507 Clear 16 1009 72 10000 1.5 70 21:42 11.06.2020
1508 Clear 16 1009 72 10000 1.5 70 21:20 11.06.2020
1509 Clear 17 1009 72 10000 2.1 60 20:57 11.06.2020
1510 Clouds 17 1009 68 10000 2.1 80 20:39 11.06.2020
1511 Clouds 18 1009 72 10000 2.1 70 20:20 11.06.2020
1512 Clouds 18 1009 72 10000 2.6 80 19:43 11.06.2020
1513 Clouds 18 1009 72 10000 2.6 80 19:22 11.06.2020
1514 Clouds 18 1009 72 10000 2.1 50 18:57 11.06.2020
1515 Clouds 18 1009 72 10000 2.1 50 18:39 11.06.2020
1516 Clouds 18 1009 72 10000 2.6 70 18:19 11.06.2020
1517 Clouds 18 1009 68 10000 2.6 0 17:55 11.06.2020
1518 Clouds 17 1009 68 10000 2.6 0 17:37 11.06.2020
1519 Clouds 17 1009 72 10000 2.1 60 17:18 11.06.2020
1520 Clouds 17 1009 67 10000 2.6 40 16:43 11.06.2020
1521 Clouds 17 1009 68 10000 2.6 20 16:24 11.06.2020
1522 Clouds 17 1010 67 10000 1.5 30 15:58 11.06.2020
1523 Clouds 16 1010 72 10000 1.5 60 15:39 11.06.2020
1524 Clouds 16 1010 72 10000 1.5 60 15:21 11.06.2020
1525 Clouds 16 1010 67 10000 1.5 40 14:46 11.06.2020
1526 Clouds 15 1010 72 10000 1 0 14:21 11.06.2020
1527 Clouds 15 1010 72 10000 1 0 14:21 11.06.2020
1528 Clouds 15 1010 77 10000 1 0 13:57 11.06.2020
1529 Clouds 15 1010 77 10000 1 0 13:39 11.06.2020
1530 Clouds 15 1010 77 10000 0.5 0 13:21 11.06.2020
1531 Clouds 15 1010 82 10000 1 0 12:58 11.06.2020
1532 Clouds 14 1010 82 10000 1 0 12:39 11.06.2020
1533 Clouds 14 1010 82 10000 1 0 12:19 11.06.2020
1534 Clouds 14 1010 87 10000 1 0 11:57 11.06.2020
1535 Clouds 13 1010 87 10000 1 0 11:39 11.06.2020
1536 Clouds 13 1010 87 10000 1 0 11:20 11.06.2020
1537 Clouds 13 1010 87 10000 1.5 10 10:57 11.06.2020
1538 Clouds 13 1010 87 10000 1.5 10 10:38 11.06.2020
1539 Drizzle 13 1010 87 6000 1.5 350 10:18 11.06.2020
1540 Drizzle 13 1010 87 6000 1.5 350 10:18 11.06.2020
1541 Drizzle 12 1010 93 6000 1 0 09:42 11.06.2020
1542 Drizzle 12 1010 93 1700 1 0 09:23 11.06.2020
1543 Drizzle 12 1010 93 5000 2.1 330 08:44 11.06.2020
1544 Drizzle 12 1010 93 5000 2.1 330 08:44 11.06.2020
1545 Drizzle 12 1010 100 5000 1.5 290 08:20 11.06.2020
1546 Mist 12 1010 93 5000 2.6 270 07:59 11.06.2020
1547 Drizzle 11 1010 93 5000 1.5 280 07:41 11.06.2020
1548 Drizzle 11 1010 93 5000 1.5 280 07:20 11.06.2020
1549 Drizzle 11 1010 93 6000 2.1 300 06:29 11.06.2020
1550 Rain 11 1010 93 10000 2.1 320 05:46 11.06.2020
1551 Clouds 12 1011 87 10000 2.1 330 03:59 11.06.2020
1552 Drizzle 12 1011 87 10000 1.5 360 03:24 11.06.2020
1553 Drizzle 12 1011 87 10000 1 10 02:40 11.06.2020
1554 Clouds 12 1011 93 10000 0.5 0 01:55 11.06.2020
1555 Clouds 12 1012 93 10000 1 270 01:31 11.06.2020
1556 Rain 12 1012 93 10000 0.5 350 00:51 11.06.2020
1557 Rain 12 1012 87 10000 1 0 00:30 11.06.2020
1558 Rain 13 1012 93 10000 1.5 360 23:50 10.06.2020
1559 Rain 13 1012 87 10000 1 330 23:27 10.06.2020
1560 Rain 13 1012 87 10000 1 0 22:59 10.06.2020
1561 Rain 13 1012 87 10000 1 0 22:40 10.06.2020
1562 Clouds 13 1012 88 0 0.45 303 22:22 10.06.2020
1563 Rain 13 1012 87 10000 1.5 330 21:58 10.06.2020
1564 Clouds 13 1012 90 0 0.83 22 21:40 10.06.2020
1565 Drizzle 13 1012 93 10000 2.1 330 21:19 10.06.2020
1566 Drizzle 14 1012 93 10000 2.1 40 20:58 10.06.2020
1567 Drizzle 14 1012 93 10000 2.1 40 20:40 10.06.2020
1568 Drizzle 14 1012 93 7000 1.5 40 20:21 10.06.2020
1569 Drizzle 14 1012 87 8000 4.1 40 19:58 10.06.2020
1570 Clouds 14 1012 87 10000 1 0 19:38 10.06.2020
1571 Clouds 14 1012 87 10000 1 0 19:18 10.06.2020
1572 Rain 14 1012 87 10000 2.6 10 18:42 10.06.2020
1573 Rain 15 1012 82 10000 3.6 10 18:22 10.06.2020
1574 Clouds 15 1012 87 10000 2.6 340 17:59 10.06.2020
1575 Clouds 15 1012 87 10000 2.6 340 17:41 10.06.2020
1576 Clouds 15 1012 87 10000 3.1 320 17:20 10.06.2020
1577 Clouds 15 1012 87 9000 4.1 330 16:59 10.06.2020
1578 Clouds 15 1012 87 9000 4.1 330 16:41 10.06.2020
1579 Clouds 15 1012 82 8000 4.1 320 16:22 10.06.2020
1580 Mist 14 1012 93 5000 3.1 310 15:57 10.06.2020
1581 Drizzle 14 1012 93 4200 3.1 320 15:37 10.06.2020
1582 Drizzle 14 1012 93 4200 3.1 320 15:19 10.06.2020
1583 Drizzle 14 1013 93 4500 3.1 320 14:41 10.06.2020
1584 Rain 14 1013 93 6000 2.6 320 14:22 10.06.2020
1585 Clouds 14 1013 93 8000 2.6 330 13:58 10.06.2020
1586 Rain 14 1013 93 7000 2.1 330 13:39 10.06.2020
1587 Rain 14 1013 93 7000 2.1 330 13:21 10.06.2020
1588 Rain 14 1013 93 6000 2.6 340 12:42 10.06.2020
1589 Rain 13 1013 100 4500 3.1 350 12:20 10.06.2020
1590 Rain 13 1013 93 4500 2.6 350 11:56 10.06.2020
1591 Rain 13 1013 93 4500 2.6 350 11:38 10.06.2020
1592 Rain 13 1013 100 6000 3.1 350 11:19 10.06.2020
1593 Rain 13 1013 93 6000 3.1 350 10:44 10.06.2020
1594 Rain 13 1013 100 4000 3.6 340 10:25 10.06.2020
1595 Rain 13 1013 93 5000 3.1 340 09:59 10.06.2020
1596 Rain 12 1013 93 4000 3.6 340 09:39 10.06.2020
1597 Rain 12 1013 93 4000 3.6 340 09:21 10.06.2020
1598 Clouds 12 1013 93 6000 3.6 340 08:44 10.06.2020
1599 Rain 12 1013 93 6000 3.6 340 08:23 10.06.2020
1600 Rain 12 1013 93 5000 3.6 340 07:54 10.06.2020
1601 Rain 12 1013 93 5000 3.6 340 07:36 10.06.2020
1602 Clouds 12 1013 93 10000 3.6 330 07:18 10.06.2020
1603 Clouds 13 1013 93 10000 3.6 340 06:44 10.06.2020
1604 Clouds 13 1013 93 10000 2.6 340 06:19 10.06.2020
1605 Clouds 13 1013 93 10000 3.1 330 05:55 10.06.2020
1606 Clouds 13 1013 93 10000 2.6 340 05:23 10.06.2020
1607 Clouds 13 1013 87 10000 3.6 340 04:32 10.06.2020
1608 Clouds 13 1014 87 10000 3.6 340 02:50 10.06.2020
1609 Clouds 13 1014 87 10000 3.1 350 01:54 10.06.2020
1610 Clouds 13 1014 87 10000 3.1 350 01:35 10.06.2020
1611 Clouds 13 1015 87 10000 3.6 350 00:39 10.06.2020
1612 Clouds 13 1015 87 10000 3.1 350 00:21 10.06.2020
1613 Clouds 13 1014 87 10000 3.1 340 23:55 09.06.2020
1614 Clouds 13 1014 87 10000 2.6 350 23:37 09.06.2020
1615 Clouds 13 1014 87 10000 2.6 350 23:18 09.06.2020
1616 Clouds 14 1014 87 10000 2.1 360 22:55 09.06.2020
1617 Clouds 14 1014 87 10000 2.1 360 22:36 09.06.2020
1618 Clouds 14 1014 82 10000 2.1 360 22:18 09.06.2020
1619 Clouds 14 1014 82 10000 3.6 10 21:55 09.06.2020
1620 Clouds 14 1014 82 10000 3.6 10 21:36 09.06.2020
1621 Clouds 14 1014 82 10000 3.1 30 21:18 09.06.2020
1622 Rain 14 1014 87 10000 3.1 40 20:56 09.06.2020
1623 Rain 15 1014 82 10000 2.6 10 20:37 09.06.2020
1624 Rain 15 1014 82 10000 2.6 10 20:18 09.06.2020
1625 Rain 15 1014 72 10000 3.6 10 19:55 09.06.2020
1626 Clouds 15 1014 77 10000 4.6 10 19:36 09.06.2020
1627 Clouds 15 1014 77 10000 4.6 10 19:18 09.06.2020
1628 Clouds 15 1013 82 10000 3.1 340 18:45 09.06.2020
1629 Clouds 15 1014 82 10000 3.6 350 18:26 09.06.2020
1630 Clouds 16 1014 77 10000 3.6 350 17:57 09.06.2020
1631 Clouds 16 1014 77 10000 3.6 350 17:39 09.06.2020
1632 Clouds 14 1014 87 10000 3.1 340 17:21 09.06.2020
1633 Clouds 15 1014 87 10000 4.1 340 16:57 09.06.2020
1634 Clouds 15 1014 87 10000 4.1 340 16:39 09.06.2020
1635 Clouds 14 1014 87 10000 2.6 340 16:20 09.06.2020
1636 Rain 14 1014 87 10000 2.6 340 15:40 09.06.2020
1637 Rain 14 1014 87 10000 3.6 340 15:22 09.06.2020
1638 Rain 13 1014 87 10000 5.1 330 14:57 09.06.2020
1639 Rain 13 1014 87 10000 4.6 340 14:39 09.06.2020
1640 Rain 13 1014 87 10000 5.1 330 14:39 09.06.2020
1641 Rain 13 1014 87 10000 4.6 340 14:19 09.06.2020
1642 Rain 13 1014 87 9000 4.6 340 13:55 09.06.2020
1643 Rain 13 1014 87 9000 4.1 340 13:37 09.06.2020
1644 Rain 13 1014 87 9000 4.1 340 13:19 09.06.2020
1645 Rain 13 1014 93 10000 3.6 360 12:42 09.06.2020
1646 Rain 12 1014 93 10000 2.1 350 12:20 09.06.2020
1647 Rain 12 1014 87 10000 2.6 360 11:58 09.06.2020
1648 Rain 12 1014 87 10000 2.6 360 11:40 09.06.2020
1649 Rain 12 1014 87 7000 2.6 350 11:20 09.06.2020
1650 Rain 12 1014 87 10000 2.6 330 10:55 09.06.2020
1651 Rain 12 1014 87 10000 2.6 330 10:55 09.06.2020
1652 Rain 12 1014 87 9000 2.1 340 10:36 09.06.2020
1653 Rain 12 1014 87 9000 2.1 340 10:18 09.06.2020
1654 Rain 12 1014 87 9000 2.6 330 09:41 09.06.2020
1655 Rain 12 1014 87 10000 2.1 310 09:22 09.06.2020
1656 Rain 12 1014 87 10000 3.1 280 08:55 09.06.2020
1657 Rain 12 1014 87 10000 3.1 280 08:37 09.06.2020
1658 Rain 12 1014 93 10000 1.5 300 08:19 09.06.2020
1659 Rain 11 1014 87 10000 1 0 07:37 09.06.2020
1660 Rain 11 1014 93 10000 1 0 07:19 09.06.2020
1661 Rain 11 1014 87 10000 1 0 06:52 09.06.2020
1662 Rain 11 1014 93 10000 1.5 340 06:33 09.06.2020
1663 Rain 12 1013 81 10000 1 0 04:57 09.06.2020
1664 Clouds 12 1013 71 10000 1 0 02:56 09.06.2020
1665 Clouds 13 1014 66 10000 2.1 20 01:41 09.06.2020
1666 Clouds 12 1014 71 10000 1.5 50 01:19 09.06.2020
1667 Clouds 13 1014 66 10000 2.6 40 00:45 09.06.2020
1668 Clouds 14 1014 66 10000 1.5 40 00:20 09.06.2020
1669 Clouds 14 1014 58 10000 2.1 30 23:58 08.06.2020
1670 Clouds 14 1014 58 10000 2.1 30 23:37 08.06.2020
1671 Clouds 14 1014 58 10000 0.5 0 23:19 08.06.2020
1672 Clouds 14 1014 62 10000 1 0 22:42 08.06.2020
1673 Clouds 14 1013 62 10000 2.6 50 22:22 08.06.2020
1674 Clouds 14 1013 62 10000 3.1 50 21:58 08.06.2020
1675 Clouds 14 1013 62 10000 3.1 50 21:58 08.06.2020
1676 Clouds 15 1013 58 10000 3.1 40 21:40 08.06.2020
1677 Clouds 15 1013 58 10000 3.1 40 21:22 08.06.2020
1678 Clouds 16 1013 62 10000 2.6 40 20:57 08.06.2020
1679 Clouds 16 1013 62 10000 2.6 40 20:39 08.06.2020
1680 Clouds 16 1013 62 10000 2.6 40 20:39 08.06.2020
1681 Clouds 17 1012 59 10000 2.1 70 20:20 08.06.2020
1682 Clouds 17 1012 59 10000 3.6 80 19:59 08.06.2020
1683 Clouds 17 1012 59 10000 3.6 80 19:41 08.06.2020
1684 Clouds 18 1012 55 10000 5.1 80 19:20 08.06.2020
1685 Clouds 18 1012 51 10000 3.1 60 18:41 08.06.2020
1686 Clouds 18 1012 51 10000 3.1 60 18:19 08.06.2020
1687 Clouds 19 1012 48 10000 4.6 70 17:57 08.06.2020
1688 Clouds 19 1012 48 10000 4.6 70 17:39 08.06.2020
1689 Clouds 19 1012 48 10000 4.1 70 17:19 08.06.2020
1690 Clouds 19 1012 48 10000 3.1 10 16:46 08.06.2020
1691 Clouds 19 1013 45 10000 3.1 0 16:25 08.06.2020
1692 Clouds 18 1013 55 10000 3.1 20 15:59 08.06.2020
1693 Clouds 18 1013 55 10000 3.1 20 15:41 08.06.2020
1694 Clouds 17 1013 63 10000 4.1 360 15:20 08.06.2020
1695 Rain 17 1013 63 10000 5.7 10 14:56 08.06.2020
1696 Rain 17 1013 51 10000 5.1 50 14:38 08.06.2020
1697 Rain 18 1013 51 10000 5.1 50 14:18 08.06.2020
1698 Rain 16 1013 63 10000 4.1 70 13:42 08.06.2020
1699 Rain 16 1013 51 10000 2.6 70 13:21 08.06.2020
1700 Clouds 17 1013 55 10000 1.5 0 12:42 08.06.2020
1701 Clouds 17 1013 55 10000 1.5 0 12:20 08.06.2020
1702 Clouds 17 1013 55 10000 1.5 0 12:20 08.06.2020
1703 Clouds 17 1013 59 10000 2.6 0 11:58 08.06.2020
1704 Clouds 16 1013 59 10000 2.6 0 11:39 08.06.2020
1705 Clouds 16 1013 67 10000 1.5 0 11:21 08.06.2020
1706 Clouds 16 1013 72 10000 1.5 50 10:56 08.06.2020
1707 Clouds 15 1013 72 10000 1.5 50 10:37 08.06.2020
1708 Clouds 15 1013 76 10000 2.1 90 10:19 08.06.2020
1709 Clouds 14 1013 71 10000 1 0 09:47 08.06.2020
1710 Clouds 13 1013 82 10000 0.5 0 09:23 08.06.2020
1711 Clouds 13 1013 82 10000 0.5 0 08:50 08.06.2020
1712 Clouds 12 1013 87 10000 0.5 0 08:25 08.06.2020
1713 Clouds 12 1013 87 10000 0.5 0 07:59 08.06.2020
1714 Clouds 12 1013 93 10000 0.5 0 07:39 08.06.2020
1715 Clear 11 1013 93 10000 0.5 0 07:20 08.06.2020
1716 Clear 11 1012 93 10000 0.71 206 06:41 08.06.2020
1717 Clear 10 1012 93 10000 0.78 201 06:21 08.06.2020
1718 Clear 11 1012 93 10000 0.5 0 05:42 08.06.2020
1719 Clear 11 1012 93 10000 0.5 0 03:29 08.06.2020
1720 Clouds 11 1013 93 10000 1 0 02:26 08.06.2020
1721 Clouds 11 1013 93 10000 1.5 130 01:44 08.06.2020
1722 Clouds 12 1013 87 10000 0.5 0 01:20 08.06.2020
1723 Clouds 12 1012 81 10000 0.5 0 00:28 08.06.2020
1724 Clouds 13 1012 87 10000 1.5 230 23:40 07.06.2020
1725 Clouds 13 1012 87 10000 1.5 230 23:19 07.06.2020
1726 Rain 13 1012 87 10000 2.6 180 22:58 07.06.2020
1727 Rain 13 1012 87 10000 2.6 180 22:38 07.06.2020
1728 Rain 13 1012 76 10000 2.1 220 22:19 07.06.2020
1729 Clouds 14 1011 71 10000 1 0 21:58 07.06.2020
1730 Clouds 14 1011 71 10000 1 0 21:37 07.06.2020
1731 Clouds 14 1011 82 10000 1 0 21:19 07.06.2020
1732 Clouds 14 1011 76 10000 1 90 20:54 07.06.2020
1733 Clouds 14 1011 76 10000 1 90 20:36 07.06.2020
1734 Clouds 15 1011 72 10000 1 0 20:18 07.06.2020
1735 Clouds 15 1011 62 10000 1.5 140 19:54 07.06.2020
1736 Clouds 15 1011 62 10000 1 0 19:36 07.06.2020
1737 Clouds 15 1011 62 10000 1 0 19:18 07.06.2020
1738 Clouds 16 1010 63 10000 1.5 160 18:40 07.06.2020
1739 Clouds 16 1010 63 10000 1.5 160 18:21 07.06.2020
1740 Clouds 16 1010 67 10000 1 0 17:58 07.06.2020
1741 Clouds 15 1010 62 10000 1 0 17:40 07.06.2020
1742 Clouds 16 1010 62 10000 1 0 17:21 07.06.2020
1743 Clouds 15 1010 62 10000 1 0 16:44 07.06.2020
1744 Clouds 15 1010 71 10000 1.5 230 16:22 07.06.2020
1745 Clouds 15 1010 71 10000 2.1 250 15:44 07.06.2020
1746 Clouds 15 1010 71 10000 2.1 0 15:22 07.06.2020
1747 Clouds 15 1010 72 10000 2.1 190 14:59 07.06.2020
1748 Clouds 15 1010 72 10000 2.1 190 14:59 07.06.2020
1749 Clouds 15 1010 72 10000 2.1 190 14:59 07.06.2020
1750 Clouds 15 1010 72 10000 2.1 190 14:36 07.06.2020
1751 Clouds 15 1010 72 10000 1.5 0 14:18 07.06.2020
1752 Clouds 15 1010 72 10000 1.5 0 14:18 07.06.2020
1753 Clouds 15 1009 72 10000 1.5 210 13:44 07.06.2020
1754 Clouds 15 1009 72 10000 1.5 210 13:44 07.06.2020
1755 Clouds 15 1009 72 10000 1.5 210 13:44 07.06.2020
1756 Clouds 15 1009 72 10000 2.1 180 13:19 07.06.2020
1757 Clouds 15 1009 71 10000 1.5 220 12:44 07.06.2020
1758 Clouds 14 1009 71 10000 1.5 220 12:25 07.06.2020
1759 Clouds 14 1009 76 10000 2.1 250 11:56 07.06.2020
1760 Clouds 14 1009 71 10000 2.1 210 11:38 07.06.2020
1761 Clouds 14 1009 71 10000 2.1 210 11:20 07.06.2020
1762 Clouds 13 1008 76 10000 2.1 220 10:57 07.06.2020
1763 Clouds 13 1008 76 10000 2.1 220 10:39 07.06.2020
1764 Clouds 13 1009 87 10000 1.5 0 10:19 07.06.2020
1765 Clouds 12 1008 87 10000 1.5 200 09:56 07.06.2020
1766 Clouds 12 1008 87 10000 1.5 200 09:37 07.06.2020
1767 Clouds 12 1008 81 10000 0.5 0 09:19 07.06.2020
1768 Clouds 11 1007 87 10000 1 0 08:44 07.06.2020
1769 Clouds 11 1008 87 10000 1 0 08:23 07.06.2020
1770 Clouds 11 1008 87 10000 1 0 08:23 07.06.2020
1771 Rain 11 1007 93 10000 1 0 07:46 07.06.2020
1772 Rain 11 1007 93 10000 0.5 0 07:28 07.06.2020
1773 Rain 11 1007 87 10000 2.1 290 06:25 07.06.2020
1774 Rain 12 1007 100 10000 1 0 05:34 07.06.2020
1775 Rain 12 1007 93 10000 2.6 250 04:19 07.06.2020
1776 Clouds 12 1006 93 10000 1.5 280 02:31 07.06.2020
1777 Clouds 12 1006 93 10000 1.5 240 01:44 07.06.2020
1778 Clouds 12 1006 93 10000 1 0 01:24 07.06.2020
1779 Rain 13 1006 82 10000 2.1 200 00:41 07.06.2020
1780 Clouds 13 1006 82 10000 1.5 0 00:18 07.06.2020
1781 Clouds 13 1006 87 10000 1 0 23:56 06.06.2020
1782 Clouds 13 1006 87 10000 1.5 190 23:36 06.06.2020
1783 Clouds 13 1006 87 10000 1.5 190 23:18 06.06.2020
1784 Clouds 13 1006 87 10000 1 0 22:55 06.06.2020
1785 Clouds 13 1006 87 10000 1 0 22:37 06.06.2020
1786 Clouds 13 1006 87 10000 1.5 180 22:18 06.06.2020
1787 Rain 13 1006 93 10000 1 0 21:43 06.06.2020
1788 Rain 13 1006 93 10000 1.5 180 21:22 06.06.2020
1789 Rain 14 1006 87 10000 1.5 180 20:56 06.06.2020
1790 Rain 14 1006 87 10000 1.5 180 20:37 06.06.2020
1791 Clouds 14 1006 87 10000 2.1 170 20:18 06.06.2020
1792 Rain 14 1006 87 10000 1.5 160 19:56 06.06.2020
1793 Clouds 14 1006 87 10000 2.1 150 19:37 06.06.2020
1794 Clouds 14 1006 87 10000 2.1 150 19:19 06.06.2020
1795 Rain 14 1006 82 10000 2.1 160 18:43 06.06.2020
1796 Rain 14 1006 93 10000 2.6 140 18:24 06.06.2020
1797 Rain 14 1006 82 10000 2.1 170 17:58 06.06.2020
1798 Rain 14 1006 82 10000 2.1 170 17:39 06.06.2020
1799 Rain 14 1006 77 10000 2.1 0 17:18 06.06.2020
1800 Rain 13 1006 87 10000 1.5 170 16:44 06.06.2020
1801 Rain 13 1006 87 10000 1 0 16:22 06.06.2020
1802 Drizzle 13 1006 87 10000 1.5 220 15:56 06.06.2020
1803 Drizzle 13 1006 87 10000 1.5 220 15:37 06.06.2020
1804 Drizzle 12 1006 93 7000 2.6 270 15:19 06.06.2020
1805 Clouds 12 1006 87 0 2.6 250 14:43 06.06.2020
1806 Rain 12 1006 87 10000 1 0 14:25 06.06.2020
1807 Clouds 12 1006 87 10000 0.5 0 13:59 06.06.2020
1808 Clouds 12 1006 87 10000 0.5 0 13:40 06.06.2020
1809 Rain 12 1006 87 6000 1 0 13:18 06.06.2020
1810 Rain 11 1006 87 6000 1 0 12:43 06.06.2020
1811 Rain 11 1006 87 7000 1.5 100 12:24 06.06.2020
1812 Rain 11 1005 87 10000 1 0 11:59 06.06.2020
1813 Rain 11 1005 87 10000 1 0 11:39 06.06.2020
1814 Rain 11 1005 87 10000 1 0 11:20 06.06.2020
1815 Rain 10 1005 87 8000 1.5 360 10:59 06.06.2020
1816 Rain 10 1005 87 8000 2.1 350 10:39 06.06.2020
1817 Rain 10 1005 87 8000 2.1 350 10:21 06.06.2020
1818 Rain 10 1004 93 6000 3.6 340 09:58 06.06.2020
1819 Rain 10 1004 93 6000 3.6 340 09:40 06.06.2020
1820 Rain 10 1004 93 4500 4.6 320 09:21 06.06.2020
1821 Rain 11 1004 87 4000 1 0 08:43 06.06.2020
1822 Rain 10 1004 93 6000 2.1 320 08:23 06.06.2020
1823 Rain 10 1003 100 5000 2.6 290 07:46 06.06.2020
1824 Rain 11 1003 93 10000 1.27 290 07:23 06.06.2020
1825 Rain 11 1003 93 10000 1.27 290 07:23 06.06.2020
1826 Rain 11 1003 93 10000 1.27 290 06:50 06.06.2020
1827 Clouds 11 1003 93 10000 0.5 0 06:31 06.06.2020
1828 Clouds 11 1002 87 10000 2.6 300 05:59 06.06.2020
1829 Rain 11 1002 87 7000 4.6 280 05:31 06.06.2020
1830 Rain 11 1002 100 7000 3.1 0 04:47 06.06.2020
1831 Rain 11 1002 93 10000 1 0 03:21 06.06.2020
1832 Rain 12 1003 87 10000 1.5 230 01:58 06.06.2020
1833 Rain 12 1003 87 10000 2.1 240 01:21 06.06.2020
1834 Rain 12 1003 87 10000 2.1 0 00:47 06.06.2020
1835 Rain 12 1003 87 10000 2.1 240 00:28 06.06.2020
1836 Rain 12 1003 93 10000 4.6 260 23:59 05.06.2020
1837 Rain 12 1003 93 10000 4.6 260 23:39 05.06.2020
1838 Rain 12 1002 87 10000 4.6 230 23:19 05.06.2020
1839 Clouds 13 1002 76 10000 3.6 230 22:56 05.06.2020
1840 Clouds 13 1002 76 10000 3.6 230 22:37 05.06.2020
1841 Rain 13 1002 76 10000 4.1 230 22:19 05.06.2020
1842 Clouds 14 1001 67 10000 4.6 220 21:43 05.06.2020
1843 Clouds 14 1001 58 10000 5.7 0 21:23 05.06.2020
1844 Clouds 15 1000 58 10000 6.7 220 20:58 05.06.2020
1845 Clouds 15 1000 58 10000 6.7 220 20:39 05.06.2020
1846 Clouds 15 1000 58 10000 5.7 220 20:21 05.06.2020
1847 Clouds 15 1000 58 10000 6.7 220 19:44 05.06.2020
1848 Clouds 14 1000 58 10000 7.2 230 19:24 05.06.2020
1849 Clouds 14 1000 58 10000 5.7 0 18:58 05.06.2020
1850 Clouds 14 1000 58 10000 5.7 0 18:58 05.06.2020
1851 Clouds 15 1000 58 10000 5.7 0 18:39 05.06.2020
1852 Clouds 15 1000 62 10000 6.2 220 18:20 05.06.2020
1853 Clouds 15 1000 62 10000 5.1 220 17:58 05.06.2020
1854 Clouds 15 1000 62 10000 5.1 220 17:40 05.06.2020
1855 Rain 15 1000 58 10000 6.7 220 17:19 05.06.2020
1856 Clouds 15 1000 58 10000 6.7 220 16:40 05.06.2020
1857 Clouds 15 1000 62 10000 5.7 210 16:22 05.06.2020
1858 Clouds 15 1000 62 10000 6.7 240 15:57 05.06.2020
1859 Clouds 15 1000 62 10000 6.7 240 15:37 05.06.2020
1860 Clouds 15 1000 71 10000 4.6 210 15:19 05.06.2020
1861 Clouds 14 1000 76 10000 3.1 230 14:56 05.06.2020
1862 Clouds 13 1000 76 10000 3.1 230 14:38 05.06.2020
1863 Rain 12 1000 76 10000 3.1 220 14:19 05.06.2020
1864 Rain 12 1000 71 10000 3.1 230 13:43 05.06.2020
1865 Rain 12 1000 76 10000 2.1 210 13:24 05.06.2020
1866 Rain 12 1000 81 10000 2.6 210 12:55 05.06.2020
1867 Rain 12 1000 66 10000 4.1 240 12:37 05.06.2020
1868 Rain 12 1000 66 10000 4.1 240 12:18 05.06.2020
1869 Rain 12 1000 71 10000 2.1 230 11:42 05.06.2020
1870 Clouds 12 1000 71 10000 2.6 220 11:23 05.06.2020
1871 Rain 12 1000 76 10000 1.5 250 10:57 05.06.2020
1872 Rain 12 1000 76 10000 2.1 230 10:38 05.06.2020
1873 Rain 12 1000 76 10000 2.1 230 10:19 05.06.2020
1874 Clouds 12 1001 76 10000 2.1 0 09:56 05.06.2020
1875 Clouds 12 1001 76 10000 2.1 0 09:37 05.06.2020
1876 Clouds 12 1001 76 10000 2.1 0 09:37 05.06.2020
1877 Clouds 12 1000 81 10000 2.1 240 09:18 05.06.2020
1878 Clouds 11 1000 76 10000 2.1 260 08:56 05.06.2020
1879 Clouds 11 1000 76 10000 2.1 260 08:38 05.06.2020
1880 Clouds 11 1000 87 10000 1.5 240 08:18 05.06.2020
1881 Clouds 11 1000 87 10000 1.5 260 07:44 05.06.2020
1882 Clouds 11 1000 87 10000 1.5 260 07:25 05.06.2020
1883 Clouds 11 999 87 10000 2.1 260 06:37 05.06.2020
1884 Clouds 11 999 87 10000 3.1 280 05:22 05.06.2020
1885 Clouds 11 999 87 10000 1.5 250 04:27 05.06.2020
1886 Clouds 11 999 87 10000 1.5 260 03:29 05.06.2020
1887 Rain 11 999 87 10000 3.6 290 02:28 05.06.2020
1888 Rain 11 999 93 10000 6.2 300 01:57 05.06.2020
1889 Rain 12 998 87 10000 4.1 260 01:30 05.06.2020
1890 Clouds 14 998 71 10000 5.7 290 00:43 05.06.2020
1891 Clouds 14 998 76 10000 4.1 250 00:21 05.06.2020
1892 Rain 14 997 76 10000 3.1 240 23:47 04.06.2020
1893 Rain 14 997 76 10000 2.6 250 23:29 04.06.2020
1894 Rain 14 997 76 10000 2.1 230 22:57 04.06.2020
1895 Rain 14 997 76 10000 2.1 230 22:37 04.06.2020
1896 Clouds 14 997 76 10000 2.1 200 22:18 04.06.2020
1897 Clouds 14 997 72 10000 1.5 0 21:57 04.06.2020
1898 Rain 14 997 72 10000 1.5 200 21:38 04.06.2020
1899 Rain 14 997 72 10000 1.5 200 21:19 04.06.2020
1900 Clouds 14 997 72 10000 2.1 0 20:55 04.06.2020
1901 Clouds 14 997 72 10000 2.1 0 20:37 04.06.2020
1902 Rain 14 997 72 10000 3.1 260 20:19 04.06.2020
1903 Rain 15 996 59 10000 4.6 270 19:41 04.06.2020
1904 Rain 15 996 59 10000 4.6 270 19:21 04.06.2020
1905 Clouds 17 996 63 10000 2.6 240 18:57 04.06.2020
1906 Clouds 18 996 63 10000 2.6 0 18:38 04.06.2020
1907 Clouds 18 996 63 10000 2.6 0 18:20 04.06.2020
1908 Clouds 17 996 63 10000 4.1 250 17:43 04.06.2020
1909 Clouds 18 996 63 10000 4.6 250 17:22 04.06.2020
1910 Clouds 18 996 59 10000 4.6 250 16:58 04.06.2020
1911 Clouds 18 996 59 10000 4.6 250 16:40 04.06.2020
1912 Rain 18 996 59 10000 4.1 220 16:20 04.06.2020
1913 Clouds 19 996 59 10000 4.6 240 15:44 04.06.2020
1914 Rain 18 996 63 10000 5.1 240 15:26 04.06.2020
1915 Clouds 19 996 56 10000 5.1 0 14:42 04.06.2020
1916 Clouds 19 996 56 10000 5.1 230 14:22 04.06.2020
1917 Clouds 18 997 68 10000 3.6 240 13:58 04.06.2020
1918 Clouds 17 997 77 10000 3.6 230 13:40 04.06.2020
1919 Clouds 17 997 77 10000 3.6 230 13:20 04.06.2020
1920 Clouds 17 997 77 10000 3.1 210 12:59 04.06.2020
1921 Rain 17 997 82 10000 3.6 210 12:40 04.06.2020
1922 Rain 17 997 82 10000 3.6 210 12:22 04.06.2020
1923 Rain 17 997 77 10000 3.1 0 11:55 04.06.2020
1924 Rain 17 997 77 10000 3.1 0 11:37 04.06.2020
1925 Rain 17 997 77 10000 3.1 220 11:19 04.06.2020
1926 Rain 16 997 82 10000 3.1 190 10:41 04.06.2020
1927 Clouds 16 997 82 10000 1 0 10:23 04.06.2020
1928 Rain 15 998 82 10000 1 0 09:58 04.06.2020
1929 Rain 15 998 82 10000 1 0 09:40 04.06.2020
1930 Rain 15 998 93 10000 1 0 09:21 04.06.2020
1931 Rain 15 998 87 10000 1 0 08:44 04.06.2020
1932 Clouds 15 998 87 10000 1.5 190 08:25 04.06.2020
1933 Clouds 14 998 87 10000 1 0 07:47 04.06.2020
1934 Rain 14 999 87 10000 1.5 170 07:26 04.06.2020
1935 Rain 14 999 87 10000 1 0 06:43 04.06.2020
1936 Rain 15 999 87 10000 1 0 06:24 04.06.2020
1937 Rain 15 999 77 10000 1.5 220 05:34 04.06.2020
1938 Rain 15 999 77 10000 2.1 210 04:31 04.06.2020
1939 Clouds 15 1000 82 10000 1.5 210 03:24 04.06.2020
1940 Clouds 16 1001 72 10000 1 0 01:56 04.06.2020
1941 Clouds 16 1001 72 10000 1 0 01:19 04.06.2020
1942 Clouds 17 1001 67 10000 2.1 250 00:40 04.06.2020
1943 Rain 18 1002 59 10000 3.6 190 23:44 03.06.2020
1944 Rain 18 1003 59 10000 3.1 0 23:21 03.06.2020
1945 Rain 18 1003 55 10000 2.6 270 22:59 03.06.2020
1946 Rain 19 1003 55 10000 2.6 270 22:39 03.06.2020
1947 Clouds 19 1002 59 10000 5.7 280 22:19 03.06.2020
1948 Rain 19 1002 52 10000 4.1 250 21:57 03.06.2020
1949 Rain 19 1002 52 10000 4.1 250 21:39 03.06.2020
1950 Clouds 19 1002 56 10000 1 90 21:21 03.06.2020
1951 Rain 20 1002 46 10000 1 0 20:56 03.06.2020
1952 Rain 21 1002 40 10000 1 0 20:37 03.06.2020
1953 Rain 22 1002 40 10000 1 0 20:19 03.06.2020
1954 Rain 22 1002 43 10000 1 0 19:56 03.06.2020
1955 Clouds 23 1002 38 10000 1.5 140 19:37 03.06.2020
1956 Clouds 22 1002 38 10000 1.5 140 19:19 03.06.2020
1957 Clouds 23 1002 40 10000 2.6 160 18:54 03.06.2020
1958 Clouds 22 1002 40 10000 2.6 160 18:36 03.06.2020
1959 Clouds 22 1003 49 10000 2.6 150 18:18 03.06.2020
1960 Clouds 20 1004 52 10000 3.6 160 17:41 03.06.2020
1961 Rain 19 1004 68 10000 2.1 190 17:21 03.06.2020
1962 Rain 18 1005 67 10000 2.1 0 16:55 03.06.2020
1963 Thunderstorm 20 1005 52 10000 5.1 230 16:37 03.06.2020
1964 Thunderstorm 22 1005 52 10000 5.1 230 16:18 03.06.2020
1965 Thunderstorm 24 1005 40 10000 2.6 160 15:41 03.06.2020
1966 Clouds 25 1005 31 10000 2.1 130 15:21 03.06.2020
1967 Clouds 25 1005 36 10000 2.6 140 14:57 03.06.2020
1968 Clouds 25 1005 36 10000 2.6 140 14:37 03.06.2020
1969 Thunderstorm 24 1006 46 10000 2.6 0 14:19 03.06.2020
1970 Thunderstorm 24 1006 33 10000 1.5 0 13:38 03.06.2020
1971 Clouds 25 1006 31 10000 2.6 0 13:19 03.06.2020
1972 Thunderstorm 25 1006 31 10000 2.6 0 12:43 03.06.2020
1973 Thunderstorm 25 1006 34 10000 1.5 0 12:22 03.06.2020
1974 Clouds 25 1007 36 10000 1.5 60 11:57 03.06.2020
1975 Clouds 24 1007 36 10000 1.5 60 11:38 03.06.2020
1976 Rain 24 1007 38 10000 1 0 11:20 03.06.2020
1977 Rain 23 1008 38 10000 1.5 90 10:41 03.06.2020
1978 Rain 22 1008 43 10000 1 0 10:22 03.06.2020
1979 Rain 20 1008 56 10000 1 0 09:45 03.06.2020
1980 Rain 19 1008 63 10000 1 0 09:21 03.06.2020
1981 Rain 17 1008 67 10000 1 80 08:59 03.06.2020
1982 Clouds 16 1008 67 10000 1 0 08:40 03.06.2020
1983 Clouds 15 1008 67 10000 1 0 08:19 03.06.2020
1984 Clouds 13 1009 76 10000 0.5 70 07:43 03.06.2020
1985 Clouds 13 1009 76 10000 0.5 70 07:20 03.06.2020
1986 Clouds 12 1009 81 10000 1.5 70 06:54 03.06.2020
1987 Clouds 12 1009 81 10000 1.5 70 06:32 03.06.2020
1988 Clouds 12 1009 81 10000 0.5 60 05:47 03.06.2020
1989 Clouds 12 1010 76 10000 0.5 40 04:58 03.06.2020
1990 Clouds 13 1010 76 10000 0.5 0 03:51 03.06.2020
1991 Clouds 14 1011 71 10000 0.5 0 03:21 03.06.2020
1992 Clouds 14 1011 67 10000 1.39 189 02:23 03.06.2020
1993 Clouds 16 1012 62 10000 1.5 270 00:47 03.06.2020
1994 Clouds 16 1012 59 10000 2.1 230 00:25 03.06.2020
1995 Clouds 17 1012 51 10000 0.5 0 23:52 02.06.2020
1996 Clouds 17 1012 51 10000 0.5 0 23:52 02.06.2020
1997 Clouds 18 1012 45 10000 0.5 0 23:28 02.06.2020
1998 Clouds 19 1013 42 10000 1.5 360 22:58 02.06.2020
1999 Clouds 20 1012 40 10000 2.1 360 22:39 02.06.2020
2000 Clouds 20 1012 40 10000 2.1 360 22:39 02.06.2020
2001 Clouds 20 1012 40 10000 2.1 360 22:19 02.06.2020
2002 Clouds 21 1013 37 10000 2.1 350 21:57 02.06.2020
2003 Clouds 21 1013 37 10000 2.1 350 21:38 02.06.2020
2004 Clouds 23 1012 35 10000 3.1 330 21:20 02.06.2020
2005 Clouds 24 1013 31 10000 2.6 330 20:58 02.06.2020
2006 Clouds 24 1013 31 10000 2.6 330 20:40 02.06.2020
2007 Clouds 25 1013 26 10000 1.5 80 20:21 02.06.2020
2008 Clouds 26 1013 27 10000 1 0 19:44 02.06.2020
2009 Clouds 26 1013 27 10000 1 0 19:26 02.06.2020
2010 Clouds 26 1013 27 10000 1 0 19:26 02.06.2020
2011 Clouds 26 1013 27 10000 1.5 80 18:58 02.06.2020
2012 Clouds 26 1013 27 10000 1.5 80 18:58 02.06.2020
2013 Clouds 26 1014 26 10000 2.1 100 18:40 02.06.2020
2014 Clouds 26 1014 26 10000 2.1 100 18:20 02.06.2020
2015 Clouds 26 1014 28 10000 1.5 110 17:57 02.06.2020
2016 Clouds 26 1014 28 10000 1.5 110 17:39 02.06.2020
2017 Clouds 25 1014 27 10000 0.5 0 17:20 02.06.2020
2018 Clouds 26 1015 26 10000 1.5 0 16:55 02.06.2020
2019 Clouds 26 1015 27 10000 1.5 360 16:37 02.06.2020
2020 Clouds 26 1015 27 10000 1.5 360 16:19 02.06.2020
2021 Clouds 26 1015 27 10000 3.6 0 15:40 02.06.2020
2022 Clouds 26 1016 29 10000 1.5 0 15:21 02.06.2020
2023 Clouds 26 1016 29 10000 1.5 0 14:48 02.06.2020
2024 Clear 26 1016 29 10000 3.1 0 14:28 02.06.2020
2025 Clear 25 1017 33 10000 2.6 100 13:57 02.06.2020
2026 Clear 25 1017 33 10000 2.6 0 13:37 02.06.2020
2027 Clear 25 1017 33 10000 2.6 0 13:19 02.06.2020
2028 Clear 24 1017 33 10000 3.1 90 12:57 02.06.2020
2029 Clear 24 1018 31 10000 2.6 80 12:38 02.06.2020
2030 Clear 23 1018 31 10000 2.6 80 12:20 02.06.2020
2031 Clear 23 1018 40 10000 2.1 0 11:54 02.06.2020
2032 Clear 23 1018 40 10000 2.1 0 11:36 02.06.2020
2033 Clear 22 1018 43 10000 2.1 0 11:18 02.06.2020
2034 Clouds 21 1018 43 10000 2.1 80 10:44 02.06.2020
2035 Clear 21 1019 45 10000 1.5 80 10:25 02.06.2020
2036 Clear 19 1019 52 10000 1.5 80 09:44 02.06.2020
2037 Clouds 18 1019 55 10000 1.5 70 09:22 02.06.2020
2038 Clouds 17 1018 59 10000 1 0 08:57 02.06.2020
2039 Clouds 16 1018 59 10000 1 0 08:36 02.06.2020
2040 Clear 15 1018 62 10000 1 90 08:18 02.06.2020
2041 Clear 13 1018 62 10000 1 0 07:39 02.06.2020
2042 Clear 12 1018 62 10000 1 0 07:20 02.06.2020
2043 Clear 11 1018 76 10000 0.75 130 06:43 02.06.2020
2044 Clear 10 1018 76 10000 0.5 0 05:54 02.06.2020
2045 Clear 11 1018 76 10000 0.5 0 04:57 02.06.2020
2046 Clear 13 1018 62 10000 1 0 03:20 02.06.2020
2047 Clear 13 1018 62 10000 1.5 290 02:20 02.06.2020
2048 Clear 15 1019 62 10000 1 0 00:58 02.06.2020
2049 Clear 15 1019 58 10000 1.5 340 00:24 02.06.2020
2050 Clear 16 1019 59 10000 0.5 260 23:54 01.06.2020
2051 Clear 16 1019 59 10000 0.5 260 23:36 01.06.2020
2052 Clear 17 1019 51 10000 1.5 340 23:36 01.06.2020
2053 Clear 17 1019 51 10000 1.5 340 23:18 01.06.2020
2054 Clear 18 1019 51 10000 3.6 340 22:41 01.06.2020
2055 Clear 18 1018 48 10000 0.5 0 22:20 01.06.2020
2056 Clear 19 1018 45 10000 1 0 21:57 01.06.2020
2057 Clear 20 1018 45 10000 1 0 21:37 01.06.2020
2058 Clouds 21 1018 37 10000 1.5 120 21:18 01.06.2020
2059 Clouds 22 1018 33 10000 3.1 70 20:55 01.06.2020
2060 Clouds 22 1018 33 10000 3.1 70 20:55 01.06.2020
2061 Clouds 23 1018 33 10000 3.1 70 20:37 01.06.2020
2062 Clouds 24 1018 29 10000 3.1 80 20:18 01.06.2020
2063 Clouds 25 1018 29 10000 3.1 80 19:43 01.06.2020
2064 Clouds 25 1018 31 10000 3.1 80 19:21 01.06.2020
2065 Clouds 25 1018 29 10000 3.1 90 18:59 01.06.2020
2066 Clouds 25 1018 29 10000 3.1 120 18:39 01.06.2020
2067 Clear 25 1018 29 10000 3.1 120 18:20 01.06.2020
2068 -273 0 0 0 0 0 17:58 01.06.2020
2069 Clear 25 1018 29 10000 3.1 90 17:40 01.06.2020
2070 Clear 25 1018 29 10000 3.1 90 17:19 01.06.2020
2071 Clear 25 1019 29 10000 2.6 100 16:42 01.06.2020
2072 Clear 24 1019 29 10000 4.1 110 16:22 01.06.2020
2073 Clear 24 1019 29 10000 3.6 0 15:56 01.06.2020
2074 Clear 24 1019 29 10000 5.1 100 15:38 01.06.2020
2075 Clear 24 1019 29 10000 5.1 100 15:19 01.06.2020
2076 Clear 24 1019 29 10000 4.1 70 14:57 01.06.2020
2077 Clouds 23 1019 29 10000 4.1 70 14:38 01.06.2020
2078 Clear 22 1019 31 10000 4.6 110 14:20 01.06.2020
2079 Clear 23 1020 35 10000 6.2 80 13:44 01.06.2020
2080 Clear 23 1020 33 10000 5.7 80 13:22 01.06.2020
2081 Clear 23 1020 33 10000 5.7 80 12:59 01.06.2020
2082 Clear 22 1020 37 10000 5.1 100 12:40 01.06.2020
2083 Clear 22 1020 40 10000 5.1 80 12:22 01.06.2020
2084 Clear 22 1020 40 10000 5.1 80 11:59 01.06.2020
2085 Clouds 21 1020 45 10000 5.7 80 11:38 01.06.2020
2086 Clouds 21 1020 45 10000 5.7 80 11:19 01.06.2020
2087 Clear 20 1020 49 10000 4.6 70 10:57 01.06.2020
2088 Clear 20 1020 52 10000 5.1 80 10:37 01.06.2020
2089 Clear 19 1020 52 10000 4.6 60 10:18 01.06.2020
2090 Clear 18 1020 55 10000 3.1 60 09:46 01.06.2020
2091 Clear 17 1020 55 10000 3.1 60 09:27 01.06.2020
2092 Clear 15 1020 59 0 3.6 50 08:57 01.06.2020
2093 Clear 14 1020 58 10000 3.6 70 08:37 01.06.2020
2094 Clear 14 1020 58 10000 3.6 70 08:19 01.06.2020
2095 Clear 12 1020 71 10000 2.1 70 07:41 01.06.2020
2096 Clear 12 1020 71 10000 2.1 70 07:41 01.06.2020
2097 Clear 12 1020 71 10000 2.1 70 07:22 01.06.2020
2098 Clear 10 1020 71 10000 1.5 60 06:49 01.06.2020
2099 Clear 9 1020 81 10000 2.1 60 05:57 01.06.2020
2100 Clear 10 1020 76 10000 2.6 90 05:18 01.06.2020
2101 Clear 11 1021 66 10000 1.5 100 04:18 01.06.2020
2102 Clear 12 1021 62 10000 1.5 120 03:42 01.06.2020
2103 Clear 13 1021 62 10000 1 0 02:57 01.06.2020
2104 Clear 12 1021 62 10000 2.1 90 01:40 01.06.2020
2105 Clear 13 1021 62 10000 2.1 90 01:18 01.06.2020
2106 Clear 13 1021 62 10000 2.1 90 00:56 01.06.2020
2107 Clear 14 1021 58 10000 2.6 80 00:38 01.06.2020
2108 Clear 14 1021 54 10000 2.6 60 00:19 01.06.2020
2109 Clear 15 1021 50 10000 2.6 70 23:42 31.05.2020
2110 Clear 15 1021 50 10000 2.6 70 23:23 31.05.2020
2111 Clear 15 1020 50 10000 3.6 70 22:59 31.05.2020
2112 Clear 16 1020 47 10000 4.6 60 22:41 31.05.2020
2113 Clear 16 1020 44 10000 3.6 70 22:22 31.05.2020
2114 Clear 17 1020 44 10000 3.6 70 21:57 31.05.2020
2115 Clear 17 1019 42 10000 3.6 70 21:39 31.05.2020
2116 Clouds 18 1019 42 10000 3.6 70 21:21 31.05.2020
2117 Clouds 19 1019 34 10000 3.6 90 20:47 31.05.2020
2118 Clouds 19 1019 34 10000 3.6 90 20:25 31.05.2020
2119 Clouds 19 1019 34 10000 4.6 80 19:56 31.05.2020
2120 Clouds 20 1019 32 10000 3.6 80 19:38 31.05.2020
2121 Clouds 20 1019 32 10000 3.6 80 19:20 31.05.2020
2122 Clouds 20 1019 32 10000 4.6 70 18:58 31.05.2020
2123 Clouds 21 1019 30 10000 3.1 0 18:39 31.05.2020
2124 Clouds 20 1019 28 10000 2.6 80 18:21 31.05.2020
2125 Clouds 19 1019 30 10000 2.6 0 17:42 31.05.2020
2126 Clouds 19 1019 30 10000 2.6 0 17:24 31.05.2020
2127 Clouds 19 1019 32 10000 3.1 0 16:42 31.05.2020
2128 Clouds 20 1019 32 10000 3.1 90 16:22 31.05.2020
2129 Clouds 19 1019 32 10000 3.1 90 15:57 31.05.2020
2130 Clouds 19 1019 32 10000 3.1 90 15:57 31.05.2020
2131 Clouds 19 1019 34 10000 3.1 70 15:37 31.05.2020
2132 Clouds 19 1019 34 10000 3.1 70 15:19 31.05.2020
2133 Clouds 19 1020 32 10000 2.1 0 14:44 31.05.2020
2134 Clouds 19 1020 32 10000 2.1 0 14:20 31.05.2020
2135 Clouds 19 1020 34 10000 3.6 40 13:56 31.05.2020
2136 Clouds 18 1020 34 10000 3.6 50 13:37 31.05.2020
2137 Clouds 18 1020 36 10000 2.1 0 13:19 31.05.2020
2138 Clouds 18 1020 36 10000 2.1 0 12:55 31.05.2020
2139 Clouds 17 1020 41 10000 3.6 60 12:37 31.05.2020
2140 Clouds 17 1020 41 10000 4.6 40 12:18 31.05.2020
2141 Clouds 17 1020 41 10000 4.6 40 12:18 31.05.2020
2142 Clouds 16 1020 44 10000 2.6 70 11:44 31.05.2020
2143 Clouds 16 1020 44 10000 2.6 70 11:21 31.05.2020
2144 Clouds 16 1020 47 10000 2.6 80 10:55 31.05.2020
2145 Clouds 16 1020 47 10000 2.6 70 10:37 31.05.2020
2146 Clouds 15 1020 47 10000 2.6 70 10:18 31.05.2020
2147 Clouds 14 1020 54 10000 3.1 80 09:42 31.05.2020
2148 Clouds 13 1020 58 10000 2.6 50 09:22 31.05.2020
2149 Clouds 13 1020 58 10000 2.6 50 08:57 31.05.2020
2150 Clouds 12 1020 58 10000 2.1 30 08:37 31.05.2020
2151 Clear 11 1020 62 10000 2.1 360 08:19 31.05.2020
2152 Clear 10 1019 66 10000 2.1 330 07:42 31.05.2020
2153 Clear 10 1019 66 10000 2.1 330 07:20 31.05.2020
2154 Clear 9 1019 66 10000 2.1 310 06:53 31.05.2020
2155 Clear 9 1019 66 10000 2.1 330 06:31 31.05.2020
2156 Clear 8 1019 65 10000 2.1 10 05:43 31.05.2020
2157 Clear 9 1020 61 10000 1.5 20 04:27 31.05.2020
2158 Clear 10 1020 61 10000 3.1 40 03:48 31.05.2020
2159 Clouds 11 1020 57 10000 2.1 50 02:59 31.05.2020
2160 Clouds 12 1020 53 10000 2.6 50 01:49 31.05.2020
2161 Clouds 12 1020 53 10000 2.6 50 01:27 31.05.2020
2162 Clouds 13 1020 44 10000 4.1 40 00:30 31.05.2020
2163 Clouds 14 1020 44 10000 3.1 30 23:57 30.05.2020
2164 Clouds 14 1020 41 10000 4.1 40 23:38 30.05.2020
2165 Clouds 15 1020 41 10000 4.6 50 23:19 30.05.2020
2166 Clouds 15 1020 41 10000 4.6 50 22:41 30.05.2020
2167 Clouds 15 1020 41 10000 4.6 50 22:23 30.05.2020
2168 Clouds 16 1020 38 10000 4.6 50 21:56 30.05.2020
2169 Clouds 16 1020 38 10000 4.1 50 21:37 30.05.2020
2170 Clouds 16 1020 38 10000 4.1 50 21:19 30.05.2020
2171 Clouds 16 1020 41 10000 6.2 50 20:56 30.05.2020
2172 Clouds 17 1019 39 10000 5.1 50 20:38 30.05.2020
2173 Clouds 17 1019 39 10000 5.1 50 20:20 30.05.2020
2174 Clouds 17 1019 39 10000 4.6 60 19:42 30.05.2020
2175 Clouds 18 1019 39 10000 4.6 60 19:22 30.05.2020
2176 Clouds 18 1019 36 10000 6.2 40 18:46 30.05.2020
2177 Clouds 18 1019 36 10000 6.2 40 18:24 30.05.2020
2178 Clouds 19 1019 34 10000 4.6 70 17:55 30.05.2020
2179 Clouds 18 1019 34 10000 3.6 50 17:37 30.05.2020
2180 Clouds 19 1019 34 10000 3.6 50 17:18 30.05.2020
2181 Clouds 19 1020 36 10000 4.6 50 16:43 30.05.2020
2182 Clouds 19 1020 36 10000 4.6 50 16:22 30.05.2020
2183 Clouds 18 1020 39 10000 3.6 10 15:56 30.05.2020
2184 Clouds 19 1020 39 10000 3.1 20 15:37 30.05.2020
2185 Clouds 19 1020 39 10000 3.1 20 15:19 30.05.2020
2186 Clouds 18 1020 39 10000 4.6 50 14:42 30.05.2020
2187 Clouds 18 1020 39 10000 4.6 50 14:20 30.05.2020
2188 Clouds 18 1021 39 10000 4.6 20 13:41 30.05.2020
2189 Clouds 18 1021 39 10000 4.6 20 13:18 30.05.2020
2190 Clouds 18 1021 36 10000 4.1 50 12:40 30.05.2020
2191 Clouds 18 1021 36 10000 4.1 50 12:20 30.05.2020
2192 Clouds 18 1021 36 10000 4.6 60 11:55 30.05.2020
2193 Clouds 18 1021 36 10000 5.1 80 11:37 30.05.2020
2194 Clouds 18 1021 36 10000 5.1 80 11:19 30.05.2020
2195 Clouds 17 1022 44 10000 4.1 60 10:39 30.05.2020
2196 Clouds 16 1022 47 10000 3.1 60 10:20 30.05.2020
2197 Clouds 15 1022 50 10000 2.6 90 09:46 30.05.2020
2198 Clouds 14 1022 50 10000 2.6 90 09:28 30.05.2020
2199 Clouds 13 1022 54 10000 3.6 60 08:46 30.05.2020
2200 Clouds 12 1022 54 10000 3.6 60 08:28 30.05.2020
2201 Clouds 11 1022 62 10000 2.6 40 07:44 30.05.2020
2202 Clouds 11 1022 71 10000 2.1 30 07:44 30.05.2020
2203 Clouds 9 1021 70 10000 2.01 61 07:21 30.05.2020
2204 Clouds 8 1021 81 10000 0.5 0 06:39 30.05.2020
2205 Clouds 7 1021 81 10000 0.5 0 06:20 30.05.2020
2206 Clouds 7 1021 75 10000 2.1 350 05:49 30.05.2020
2207 Clouds 8 1022 75 10000 1 280 03:39 30.05.2020
2208 Clear 9 1022 70 10000 0.5 0 02:30 30.05.2020
2209 Clear 9 1022 70 10000 0.5 300 01:48 30.05.2020
2210 Clear 10 1022 66 10000 1 0 00:38 30.05.2020
2211 Clear 11 1022 66 10000 1 0 00:19 30.05.2020
2212 Clear 11 1022 66 10000 1 0 23:57 29.05.2020
2213 Clear 12 1022 62 10000 0.5 60 23:37 29.05.2020
2214 Clear 12 1022 62 10000 1 0 23:18 29.05.2020
2215 Clear 13 1022 62 10000 1.5 80 22:41 29.05.2020
2216 Clear 14 1022 62 10000 1.5 80 22:19 29.05.2020
2217 -273 0 0 0 0 0 21:58 29.05.2020
2218 Clear 16 1022 48 10000 3.1 90 21:38 29.05.2020
2219 Clear 16 1022 48 10000 3.1 90 21:20 29.05.2020
2220 Clear 18 1022 42 10000 3.6 80 20:45 29.05.2020
2221 Clouds 18 1022 42 10000 3.6 80 20:21 29.05.2020
2222 Clouds 19 1022 39 10000 3.6 90 19:59 29.05.2020
2223 Clouds 19 1022 37 10000 4.6 60 19:41 29.05.2020
2224 Clouds 19 1022 37 10000 4.6 60 19:23 29.05.2020
2225 Clouds 20 1023 39 10000 5.7 80 18:47 29.05.2020
2226 Clouds 20 1023 39 10000 5.7 80 18:47 29.05.2020
2227 Clouds 20 1023 39 10000 5.7 80 18:21 29.05.2020
2228 Clouds 20 1023 39 10000 5.1 70 17:57 29.05.2020
2229 Clouds 20 1023 34 10000 5.1 50 17:38 29.05.2020
2230 Clouds 20 1023 34 10000 5.1 50 17:38 29.05.2020
2231 Clouds 20 1023 34 10000 5.1 50 17:19 29.05.2020
2232 Clouds 20 1023 37 10000 5.7 80 16:45 29.05.2020
2233 Clouds 20 1023 37 10000 5.7 80 16:27 29.05.2020
2234 Clouds 19 1024 34 10000 4.6 60 15:57 29.05.2020
2235 Clouds 20 1024 34 10000 5.7 40 15:39 29.05.2020
2236 Clouds 20 1024 34 10000 5.7 40 15:20 29.05.2020
2237 Clouds 19 1024 34 10000 4.6 60 14:51 29.05.2020
2238 Clouds 19 1025 34 10000 5.7 50 14:25 29.05.2020
2239 Clouds 19 1025 36 10000 4.6 70 13:59 29.05.2020
2240 Clouds 19 1025 34 10000 6.7 60 13:41 29.05.2020
2241 Clouds 19 1025 34 10000 6.7 60 13:21 29.05.2020
2242 Clouds 18 1026 39 10000 5.7 60 12:45 29.05.2020
2243 Clear 18 1026 39 10000 5.7 60 12:26 29.05.2020
2244 Clear 17 1026 42 10000 5.1 60 11:59 29.05.2020
2245 Clouds 18 1026 42 10000 3.1 0 11:41 29.05.2020
2246 Clouds 17 1026 42 10000 3.1 0 11:22 29.05.2020
2247 Clouds 16 1026 44 10000 3.6 60 10:43 29.05.2020
2248 Clouds 16 1027 47 10000 3.1 60 10:23 29.05.2020
2249 Clouds 15 1027 47 10000 3.1 60 09:56 29.05.2020
2250 Clouds 14 1027 50 10000 2.1 70 09:38 29.05.2020
2251 Clear 12 1027 54 10000 1.5 20 09:19 29.05.2020
2252 Clear 12 1027 54 10000 1.5 20 08:46 29.05.2020
2253 Clear 12 1027 50 10000 0.5 0 08:22 29.05.2020
2254 Clear 11 1027 50 10000 0.5 0 07:47 29.05.2020
2255 Clear 9 1027 61 10000 0.5 0 07:29 29.05.2020
2256 Clear 7 1027 75 10000 0.5 0 06:55 29.05.2020
2257 Clear 7 1027 75 10000 0.5 0 06:37 29.05.2020
2258 Clear 7 1027 75 10000 0.5 0 06:18 29.05.2020
2259 Clear 7 1027 70 10000 0.5 0 05:36 29.05.2020
2260 Clear 11 1027 66 10000 2.6 90 01:48 29.05.2020
2261 Clear 12 1028 61 10000 2.6 90 01:27 29.05.2020
2262 Clear 12 1028 61 10000 2.6 90 01:27 29.05.2020
2263 Clear 12 1028 53 10000 3.1 90 00:50 29.05.2020
2264 Clouds 13 1027 50 10000 1.5 70 00:28 29.05.2020
2265 Clouds 13 1027 47 10000 3.6 40 23:56 28.05.2020
2266 Clouds 13 1027 47 10000 3.6 40 23:38 28.05.2020
2267 Clouds 14 1027 44 10000 3.6 40 23:18 28.05.2020
2268 Clouds 14 1027 44 10000 3.1 40 22:41 28.05.2020
2269 Clouds 14 1027 44 10000 3.1 40 22:21 28.05.2020
2270 Clouds 15 1027 41 10000 3.1 40 21:55 28.05.2020
2271 Clouds 16 1027 36 10000 4.1 40 21:37 28.05.2020
2272 Clear 17 1027 34 10000 4.6 30 21:18 28.05.2020
2273 Clear 18 1027 34 10000 4.6 30 20:55 28.05.2020
2274 Clear 18 1027 34 10000 5.1 30 20:36 28.05.2020
2275 Clouds 19 1027 32 10000 5.7 20 20:18 28.05.2020
2276 Clouds 19 1027 32 10000 5.7 20 20:18 28.05.2020
2277 Clouds 19 1026 34 10000 5.7 30 19:43 28.05.2020
2278 Clouds 19 1026 34 10000 5.7 30 19:20 28.05.2020
2279 Clouds 20 1026 32 10000 5.7 30 18:57 28.05.2020
2280 Clouds 19 1027 32 10000 4.6 10 18:39 28.05.2020
2281 Clouds 20 1027 32 10000 4.6 10 18:21 28.05.2020
2282 Clouds 20 1027 32 10000 5.1 360 17:41 28.05.2020
2283 Clear 20 1027 32 10000 5.7 10 17:22 28.05.2020
2284 Clear 21 1027 32 10000 5.7 10 16:56 28.05.2020
2285 Clouds 20 1027 32 10000 6.2 340 16:37 28.05.2020
2286 Clouds 21 1028 42 10000 5.7 360 16:18 28.05.2020
2287 Clouds 20 1028 45 10000 5.7 10 15:42 28.05.2020
2288 Clouds 20 1028 52 10000 5.1 10 15:23 28.05.2020
2289 Clouds 20 1028 52 10000 5.7 20 14:44 28.05.2020
2290 Clouds 19 1028 52 10000 5.7 20 14:25 28.05.2020
2291 Clouds 20 1028 52 10000 4.6 20 13:58 28.05.2020
2292 Clouds 19 1028 52 10000 5.1 350 13:39 28.05.2020
2293 Clouds 19 1029 49 10000 3.6 20 13:20 28.05.2020
2294 Clouds 18 1029 52 10000 4.1 0 12:42 28.05.2020
2295 Clouds 18 1029 55 10000 3.1 40 12:19 28.05.2020
2296 Clouds 17 1029 59 10000 3.6 340 11:43 28.05.2020
2297 Clouds 17 1029 59 10000 3.6 340 11:43 28.05.2020
2298 Clouds 17 1029 59 10000 3.6 340 11:24 28.05.2020
2299 Clouds 17 1029 55 10000 3.6 360 10:57 28.05.2020
2300 Clouds 18 1029 55 10000 3.6 360 10:57 28.05.2020
2301 Rain 18 1029 51 10000 3.1 350 10:39 28.05.2020
2302 Rain 17 1029 51 10000 3.1 350 10:19 28.05.2020
2303 Rain 16 1029 59 10000 1 0 09:39 28.05.2020
2304 Rain 16 1029 59 10000 1 0 09:39 28.05.2020
2305 Clouds 16 1029 62 10000 1 0 09:20 28.05.2020
2306 Clouds 15 1029 62 10000 1 0 08:50 28.05.2020
2307 Clouds 14 1029 71 10000 1 90 08:26 28.05.2020
2308 Clouds 12 1028 81 10000 1 0 07:45 28.05.2020
2309 Clouds 12 1028 81 10000 1 0 07:26 28.05.2020
2310 Clouds 11 1029 81 10000 1 90 06:59 28.05.2020
2311 Clouds 11 1029 81 10000 0.5 320 06:38 28.05.2020
2312 Clouds 11 1029 81 10000 0.5 320 06:20 28.05.2020
2313 Clouds 11 1029 81 10000 1 0 05:36 28.05.2020
2314 Clouds 10 1029 81 10000 0.5 150 04:33 28.05.2020
2315 Clouds 10 1029 76 10000 0.5 0 03:48 28.05.2020
2316 Clouds 10 1029 81 10000 0.5 0 02:47 28.05.2020
2317 Clouds 11 1030 66 10000 2.6 290 01:54 28.05.2020
2318 Clouds 11 1030 66 10000 2.6 300 01:27 28.05.2020
2319 Clouds 12 1030 62 10000 1.5 300 00:46 28.05.2020
2320 Clouds 13 1030 62 10000 1.5 300 00:19 28.05.2020
2321 Clouds 14 1030 58 10000 1 300 23:54 27.05.2020
2322 Clouds 14 1030 54 10000 1.5 300 23:36 27.05.2020
2323 Clouds 15 1030 54 10000 1.5 300 23:18 27.05.2020
2324 Clouds 16 1030 48 10000 2.6 350 22:41 27.05.2020
2325 Clouds 16 1030 48 10000 2.6 350 22:22 27.05.2020
2326 Clouds 17 1030 42 10000 3.1 350 21:56 27.05.2020
2327 Clouds 18 1030 39 10000 3.1 360 21:37 27.05.2020
2328 Clouds 19 1030 37 10000 3.1 360 21:19 27.05.2020
2329 Clouds 20 1030 37 10000 3.1 360 20:56 27.05.2020
2330 Clouds 20 1030 35 10000 3.1 350 20:36 27.05.2020
2331 Clouds 21 1030 35 10000 2.6 350 20:18 27.05.2020
2332 Clouds 22 1030 30 10000 1.5 0 19:42 27.05.2020
2333 Clouds 22 1030 30 10000 1.5 0 19:20 27.05.2020
2334 Clouds 22 1030 30 10000 1.5 0 18:44 27.05.2020
2335 Clouds 22 1030 30 10000 1.5 0 18:20 27.05.2020
2336 Clouds 22 1030 30 10000 2.1 0 17:58 27.05.2020
2337 Clouds 22 1030 33 10000 2.1 0 17:39 27.05.2020
2338 Clear 22 1030 33 10000 2.1 0 17:20 27.05.2020
2339 Clear 22 1031 33 10000 3.1 10 16:56 27.05.2020
2340 Clear 22 1031 33 10000 2.6 120 16:38 27.05.2020
2341 Clear 21 1031 35 10000 2.6 60 16:19 27.05.2020
2342 Clear 22 1031 35 10000 2.1 0 15:47 27.05.2020
2343 Clear 21 1031 35 10000 2.1 0 15:22 27.05.2020
2344 Clear 21 1032 37 10000 2.1 0 14:46 27.05.2020
2345 Clear 21 1032 37 10000 2.1 0 14:22 27.05.2020
2346 Clear 20 1032 40 10000 3.6 50 13:58 27.05.2020
2347 Clear 19 1032 39 10000 2.1 0 13:39 27.05.2020
2348 Clear 19 1032 39 10000 2.1 0 13:21 27.05.2020
2349 Clear 19 1033 39 10000 4.6 70 12:42 27.05.2020
2350 Clear 20 1033 39 10000 4.6 70 12:23 27.05.2020
2351 Clouds 18 1033 45 10000 4.1 70 11:56 27.05.2020
2352 Clouds 17 1033 45 10000 4.1 70 11:37 27.05.2020
2353 Clouds 17 1033 51 10000 3.6 70 11:18 27.05.2020
2354 Clear 17 1033 51 10000 2.6 70 10:43 27.05.2020
2355 Clear 16 1033 51 10000 2.6 70 10:24 27.05.2020
2356 Clear 16 1033 58 10000 2.1 60 09:57 27.05.2020
2357 Clear 16 1033 58 10000 2.1 60 09:57 27.05.2020
2358 Clear 15 1033 62 10000 1.5 60 09:39 27.05.2020
2359 Clear 14 1033 62 10000 1.5 60 09:20 27.05.2020
2360 Clear 13 1033 66 10000 1 0 08:42 27.05.2020
2361 Clear 12 1033 66 10000 1 0 08:24 27.05.2020
2362 Clear 11 1033 66 10000 0.5 0 07:53 27.05.2020
2363 Clear 10 1033 71 10000 0.5 0 07:34 27.05.2020
2364 Clear 7 1033 81 10000 1.5 290 06:56 27.05.2020
2365 Clear 7 1033 81 10000 0.62 99 06:30 27.05.2020
2366 Clear 7 1033 81 10000 1.5 320 05:50 27.05.2020
2367 Clear 7 1033 81 10000 1.5 320 05:30 27.05.2020
2368 Clear 7 1033 81 10000 1.5 320 04:18 27.05.2020
2369 Clouds 8 1033 81 10000 1 50 02:30 27.05.2020
2370 Clouds 10 1034 71 10000 0.5 0 01:45 27.05.2020
2371 Clouds 10 1034 66 10000 1 360 00:59 27.05.2020
2372 Clouds 10 1034 66 10000 1 10 00:41 27.05.2020
2373 Clouds 11 1034 66 10000 1 10 00:19 27.05.2020
2374 Clouds 12 1034 62 10000 0.5 0 23:42 26.05.2020
2375 Clouds 12 1034 62 10000 1 0 23:24 26.05.2020
2376 Clouds 13 1034 62 10000 1 0 22:59 26.05.2020
2377 Clouds 13 1034 62 10000 1 0 22:58 26.05.2020
2378 Clouds 13 1033 58 10000 2.6 30 22:38 26.05.2020
2379 Clouds 14 1033 58 10000 2.6 30 22:20 26.05.2020
2380 Clouds 14 1033 54 10000 3.1 40 21:56 26.05.2020
2381 Clouds 14 1033 54 10000 3.1 40 21:56 26.05.2020
2382 Clear 15 1033 48 10000 4.1 60 21:38 26.05.2020
2383 Clear 15 1033 48 10000 4.1 60 21:19 26.05.2020
2384 Clear 17 1033 45 10000 3.6 20 20:42 26.05.2020
2385 Clouds 18 1033 45 10000 4.1 20 20:21 26.05.2020
2386 Clouds 18 1033 45 10000 4.1 20 19:56 26.05.2020
2387 Clouds 19 1033 42 10000 5.1 40 19:37 26.05.2020
2388 Clouds 19 1033 42 10000 4.1 30 19:18 26.05.2020
2389 Clouds 19 1033 42 10000 3.6 30 18:42 26.05.2020
2390 Clouds 19 1033 42 10000 3.6 30 18:22 26.05.2020
2391 Clouds 20 1033 42 10000 4.6 50 17:57 26.05.2020
2392 Clouds 19 1033 42 10000 3.1 30 17:38 26.05.2020
2393 Clouds 19 1033 45 10000 4.1 60 17:20 26.05.2020
2394 Clouds 19 1033 42 10000 3.6 10 16:42 26.05.2020
2395 Clouds 19 1033 45 10000 4.6 30 16:20 26.05.2020
2396 Clouds 19 1033 45 10000 4.6 30 15:55 26.05.2020
2397 Clouds 19 1033 45 10000 4.6 10 15:37 26.05.2020
2398 Clouds 19 1033 42 10000 4.1 50 15:18 26.05.2020
2399 Clouds 18 1033 45 10000 3.6 10 14:43 26.05.2020
2400 Clouds 18 1033 45 10000 3.6 10 14:23 26.05.2020
2401 Clouds 18 1033 48 10000 2.6 30 13:56 26.05.2020
2402 Clouds 18 1033 48 10000 3.6 60 13:37 26.05.2020
2403 Clouds 18 1033 45 10000 2.6 0 13:18 26.05.2020
2404 Clouds 18 1033 48 10000 2.6 0 12:42 26.05.2020
2405 Clouds 18 1033 48 10000 2.6 0 12:22 26.05.2020
2406 Clouds 17 1033 51 10000 2.1 0 11:58 26.05.2020
2407 Clouds 17 1033 51 10000 1.5 0 11:40 26.05.2020
2408 Clouds 17 1033 51 10000 1.5 0 11:18 26.05.2020
2409 Clouds 16 1033 62 10000 1.5 0 10:43 26.05.2020
2410 Clouds 16 1033 62 10000 1 0 10:19 26.05.2020
2411 Clouds 15 1033 67 10000 1.5 90 09:40 26.05.2020
2412 Clouds 14 1033 67 10000 1.5 90 09:20 26.05.2020
2413 Clear 12 1033 81 10000 1 0 08:44 26.05.2020
2414 Clouds 12 1033 81 10000 1 0 08:23 26.05.2020
2415 Clouds 10 1033 81 10000 0.5 80 07:59 26.05.2020
2416 Clouds 10 1033 81 10000 0.5 190 07:40 26.05.2020
2417 Clouds 10 1033 81 10000 0.5 190 07:40 26.05.2020
2418 Clouds 8 1033 87 10000 0.5 0 07:22 26.05.2020
2419 Clouds 8 1033 87 10000 0.5 0 06:47 26.05.2020
2420 Clouds 7 1032 93 10000 1.5 330 06:23 26.05.2020
2421 Clouds 8 1032 87 10000 1 0 05:35 26.05.2020
2422 Clouds 7 1032 87 10000 2.1 290 04:58 26.05.2020
2423 Clouds 8 1032 87 10000 0.5 0 04:40 26.05.2020
2424 Clouds 8 1032 87 10000 0.5 0 04:21 26.05.2020
2425 Clear 9 1032 76 10000 0.5 0 02:52 26.05.2020
2426 Clear 10 1032 76 10000 0.5 0 02:32 26.05.2020
2427 Clouds 11 1033 66 10000 2.6 300 01:41 26.05.2020
2428 Clouds 12 1032 66 10000 3.1 290 00:39 26.05.2020
2429 Clouds 13 1032 66 10000 3.1 290 00:20 26.05.2020
2430 Clouds 13 1032 66 10000 3.1 290 23:58 25.05.2020
2431 Clouds 13 1032 62 10000 2.6 280 23:38 25.05.2020
2432 Clouds 14 1032 62 10000 2.6 280 23:19 25.05.2020
2433 Clouds 14 1032 62 10000 2.1 280 22:55 25.05.2020
2434 Clouds 14 1032 62 10000 2.6 320 22:37 25.05.2020
2435 Clear 15 1032 58 10000 3.1 300 22:19 25.05.2020
2436 Clear 15 1032 58 10000 3.1 300 21:58 25.05.2020
2437 Clouds 16 1032 55 10000 2.6 310 21:37 25.05.2020
2438 Clouds 17 1031 51 10000 5.1 330 21:18 25.05.2020
2439 Clouds 17 1031 51 10000 5.1 330 20:57 25.05.2020
2440 Clouds 18 1031 48 10000 6.2 310 20:38 25.05.2020
2441 Clouds 18 1031 48 10000 6.2 310 20:19 25.05.2020
2442 Clouds 19 1031 45 10000 6.2 320 19:42 25.05.2020
2443 Clouds 19 1031 45 10000 6.2 320 19:20 25.05.2020
2444 Clouds 19 1031 48 10000 7.2 330 18:58 25.05.2020
2445 Clouds 19 1031 48 10000 6.2 300 18:40 25.05.2020
2446 Clouds 19 1031 48 10000 6.2 300 18:21 25.05.2020
2447 Clouds 19 1031 55 10000 6.7 300 17:44 25.05.2020
2448 Clouds 19 1031 55 10000 6.7 300 17:26 25.05.2020
2449 Clouds 19 1031 55 10000 5.1 310 16:59 25.05.2020
2450 Clouds 19 1032 55 10000 6.7 310 16:40 25.05.2020
2451 Clouds 19 1032 55 10000 6.7 310 16:40 25.05.2020
2452 Clouds 19 1032 55 10000 6.7 310 16:22 25.05.2020
2453 Clouds 19 1032 55 10000 6.7 310 16:22 25.05.2020
2454 Clouds 18 1032 55 10000 6.2 320 15:58 25.05.2020
2455 Clouds 18 1032 55 10000 6.2 320 15:58 25.05.2020
2456 Clouds 18 1032 55 10000 6.7 330 15:39 25.05.2020
2457 Clouds 18 1032 52 10000 6.2 340 15:18 25.05.2020
2458 Clouds 18 1032 52 10000 5.1 290 14:43 25.05.2020
2459 Clouds 18 1032 52 10000 5.1 290 14:24 25.05.2020
2460 Clouds 18 1032 59 10000 4.1 310 13:57 25.05.2020
2461 Clouds 17 1032 63 10000 3.6 320 13:37 25.05.2020
2462 Clouds 17 1032 63 10000 3.6 320 13:19 25.05.2020
2463 Clouds 16 1032 67 10000 4.6 330 12:54 25.05.2020
2464 Clouds 16 1032 67 10000 4.6 340 12:36 25.05.2020
2465 Clouds 16 1032 67 10000 4.6 340 12:18 25.05.2020
2466 Clouds 16 1032 67 10000 3.6 320 11:38 25.05.2020
2467 Clouds 16 1032 67 10000 3.6 320 11:19 25.05.2020
2468 Clouds 15 1032 67 10000 4.1 340 10:43 25.05.2020
2469 Clouds 15 1032 67 10000 4.1 340 10:21 25.05.2020
2470 Clouds 15 1032 71 10000 4.1 300 09:57 25.05.2020
2471 Clouds 15 1032 71 10000 4.1 300 09:39 25.05.2020
2472 Clouds 14 1032 76 10000 3.6 300 09:19 25.05.2020
2473 Clouds 14 1032 71 10000 4.1 300 09:19 25.05.2020
2474 Clouds 14 1032 76 10000 3.6 300 08:58 25.05.2020
2475 Clouds 13 1032 76 10000 2.6 290 08:36 25.05.2020
2476 Clouds 13 1032 76 10000 2.6 290 08:18 25.05.2020
2477 Clouds 12 1032 76 10000 3.6 280 07:43 25.05.2020
2478 Clouds 12 1032 76 10000 3.6 280 07:21 25.05.2020
2479 Clouds 12 1032 76 10000 2.6 280 06:52 25.05.2020
2480 Clouds 11 1032 81 10000 3.1 280 06:31 25.05.2020
2481 Clouds 11 1031 81 10000 1.5 270 04:19 25.05.2020
2482 Clouds 12 1031 71 10000 3.1 280 03:23 25.05.2020
2483 Clouds 13 1031 76 10000 1 0 02:45 25.05.2020
2484 Rain 13 1032 76 10000 0.5 0 01:57 25.05.2020
2485 Clouds 13 1032 66 10000 2.1 250 01:29 25.05.2020
2486 Clouds 14 1032 66 10000 1.5 240 00:43 25.05.2020
2487 Clouds 14 1032 66 10000 1.5 240 00:23 25.05.2020
2488 Clouds 14 1032 71 10000 3.1 250 23:57 24.05.2020
2489 Clouds 14 1032 66 10000 2.6 260 23:38 24.05.2020
2490 Clouds 14 1032 66 10000 2.6 260 23:19 24.05.2020
2491 Clouds 14 1031 66 10000 3.6 260 22:41 24.05.2020
2492 Clouds 15 1031 66 10000 3.6 260 22:19 24.05.2020
2493 Clouds 15 1031 58 10000 3.1 250 21:58 24.05.2020
2494 Clouds 15 1031 58 10000 4.6 280 21:40 24.05.2020
2495 Clouds 15 1031 54 10000 5.1 280 21:21 24.05.2020
2496 Clouds 16 1031 54 10000 5.1 280 20:57 24.05.2020
2497 Clouds 16 1031 54 10000 5.1 280 20:57 24.05.2020
2498 Clouds 16 1031 48 10000 6.2 280 20:38 24.05.2020
2499 Clouds 17 1030 48 10000 6.2 290 20:18 24.05.2020
2500 Clouds 17 1030 48 10000 6.2 290 19:56 24.05.2020
2501 Clouds 17 1030 45 10000 6.2 310 19:36 24.05.2020
2502 Clouds 17 1030 45 10000 6.7 310 19:18 24.05.2020
2503 Clouds 18 1030 39 10000 6.2 290 18:42 24.05.2020
2504 Clouds 18 1030 39 10000 6.2 290 18:23 24.05.2020
2505 Clouds 18 1030 39 10000 6.2 300 17:57 24.05.2020
2506 Clouds 18 1030 36 10000 6.2 280 17:38 24.05.2020
2507 Clouds 18 1030 36 10000 6.2 280 17:19 24.05.2020
2508 Clouds 18 1030 42 10000 6.7 340 16:54 24.05.2020
2509 Clouds 18 1030 42 10000 6.7 340 16:36 24.05.2020
2510 Clouds 18 1030 34 10000 8.2 270 16:18 24.05.2020
2511 Clouds 18 1030 34 10000 8.2 270 15:55 24.05.2020
2512 Clear 18 1030 39 10000 7.7 290 15:36 24.05.2020
2513 Clear 18 1030 39 10000 7.7 290 15:18 24.05.2020
2514 Clear 18 1030 42 10000 6.7 280 14:41 24.05.2020
2515 Clear 18 1030 42 10000 6.7 280 14:41 24.05.2020
2516 Clouds 18 1030 42 10000 6.7 280 14:22 24.05.2020
2517 Clouds 17 1030 48 10000 8.2 270 13:56 24.05.2020
2518 Clouds 17 1030 45 10000 7.2 270 13:38 24.05.2020
2519 Clouds 17 1030 51 10000 4.6 250 13:19 24.05.2020
2520 Clouds 17 1030 51 10000 4.6 250 12:57 24.05.2020
2521 Clouds 16 1030 54 10000 7.2 270 12:38 24.05.2020
2522 Clouds 16 1030 54 10000 7.2 270 12:19 24.05.2020
2523 Clouds 16 1030 54 10000 4.6 250 11:55 24.05.2020
2524 Clouds 16 1030 54 10000 3.1 220 11:37 24.05.2020
2525 Clouds 15 1031 62 10000 4.6 250 11:19 24.05.2020
2526 Clouds 14 1031 62 10000 3.6 230 10:43 24.05.2020
2527 Clouds 14 1031 62 10000 3.6 230 10:23 24.05.2020
2528 Clouds 14 1031 71 10000 3.1 240 09:58 24.05.2020
2529 Clouds 13 1031 81 10000 3.1 230 09:40 24.05.2020
2530 Clouds 12 1031 81 10000 3.1 230 09:18 24.05.2020
2531 Clouds 11 1030 81 10000 2.6 240 08:43 24.05.2020
2532 Clouds 11 1030 81 10000 2.6 240 08:25 24.05.2020
2533 Clouds 10 1030 81 10000 2.1 240 07:59 24.05.2020
2534 Clouds 10 1030 87 10000 2.1 230 07:41 24.05.2020
2535 Clouds 9 1030 87 10000 2.6 230 07:21 24.05.2020
2536 Clouds 8 1030 87 10000 2.6 230 06:45 24.05.2020
2537 Clouds 8 1030 87 10000 1.5 0 05:50 24.05.2020
2538 Clouds 9 1030 87 10000 2.1 0 04:51 24.05.2020
2539 Rain 9 1030 87 10000 2.1 180 03:41 24.05.2020
2540 Rain 9 1030 87 10000 2.1 0 02:30 24.05.2020
2541 Clouds 9 1030 81 10000 1.5 0 01:46 24.05.2020
2542 Clouds 9 1030 81 10000 1.5 160 00:39 24.05.2020
2543 Clouds 9 1030 81 10000 1.5 160 00:21 24.05.2020
2544 Clouds 8 1029 87 10000 1 0 23:43 23.05.2020
2545 Clouds 8 1029 87 10000 1 0 23:23 23.05.2020
2546 Clouds 8 1029 87 10000 1 0 22:57 23.05.2020
2547 Clouds 9 1029 87 10000 2.6 270 22:38 23.05.2020
2548 Clouds 9 1029 87 10000 2.6 270 22:20 23.05.2020
2549 Clouds 10 1029 87 10000 2.1 250 21:57 23.05.2020
2550 Clouds 10 1029 81 10000 2.1 230 21:38 23.05.2020
2551 Clouds 10 1029 81 10000 2.1 230 21:19 23.05.2020
2552 Clouds 11 1029 81 10000 2.1 220 21:19 23.05.2020
2553 Clouds 11 1029 81 10000 2.1 230 21:19 23.05.2020
2554 Clouds 11 1029 81 10000 2.1 220 20:58 23.05.2020
2555 Clouds 11 1029 76 10000 4.6 250 20:38 23.05.2020
2556 Clouds 11 1029 76 10000 4.6 250 20:19 23.05.2020
2557 Clouds 11 1029 81 10000 4.1 250 19:42 23.05.2020
2558 Clouds 11 1029 81 10000 4.1 250 19:20 23.05.2020
2559 Clouds 11 1028 81 10000 4.6 250 18:59 23.05.2020
2560 Clouds 11 1028 81 10000 3.1 250 18:40 23.05.2020
2561 Clouds 11 1028 81 10000 3.1 250 18:22 23.05.2020
2562 Clouds 11 1028 87 10000 2.6 250 17:56 23.05.2020
2563 Clouds 11 1028 87 10000 2.6 250 17:56 23.05.2020
2564 Clouds 11 1027 81 10000 4.6 260 17:38 23.05.2020
2565 Clouds 11 1027 81 10000 4.6 260 17:19 23.05.2020
2566 Rain 11 1027 81 10000 4.6 290 16:57 23.05.2020
2567 Rain 11 1026 87 0 4.6 300 16:39 23.05.2020
2568 Rain 11 1026 93 10000 7.2 300 16:19 23.05.2020
2569 Rain 11 1025 87 10000 5.1 310 15:43 23.05.2020
2570 Rain 11 1025 87 10000 5.1 310 15:24 23.05.2020
2571 Rain 11 1025 87 8000 3.1 320 14:58 23.05.2020
2572 Rain 11 1026 87 9000 7.7 300 14:39 23.05.2020
2573 Rain 11 1026 87 9000 7.7 300 14:21 23.05.2020
2574 Rain 12 1024 76 10000 6.7 330 13:41 23.05.2020
2575 Rain 12 1024 76 10000 6.7 330 13:19 23.05.2020
2576 Rain 12 1023 87 10000 7.7 330 12:56 23.05.2020
2577 Rain 12 1023 93 7000 6.7 310 12:38 23.05.2020
2578 Rain 13 1023 93 7000 6.7 310 12:19 23.05.2020
2579 Rain 15 1022 72 10000 5.1 320 11:43 23.05.2020
2580 Rain 16 1022 77 10000 4.6 330 11:22 23.05.2020
2581 Rain 16 1022 77 10000 4.6 330 10:57 23.05.2020
2582 Rain 16 1022 82 10000 3.1 350 10:39 23.05.2020
2583 Rain 16 1022 82 10000 3.1 350 10:20 23.05.2020
2584 -273 0 0 0 0 0 09:59 23.05.2020
2585 Rain 16 1022 82 10000 3.6 360 09:59 23.05.2020
2586 Clouds 17 1022 82 10000 3.1 340 09:40 23.05.2020
2587 Clouds 17 1022 88 10000 5.1 330 09:21 23.05.2020
2588 Clouds 17 1022 82 10000 2.6 310 08:44 23.05.2020
2589 Clouds 18 1022 82 10000 2.6 310 08:20 23.05.2020
2590 Clouds 18 1022 88 10000 3.1 310 07:59 23.05.2020
2591 Clouds 18 1022 77 10000 3.6 340 07:39 23.05.2020
2592 Clouds 18 1021 72 10000 3.1 280 07:21 23.05.2020
2593 Rain 18 1021 77 10000 1.5 290 06:39 23.05.2020
2594 Rain 18 1021 77 10000 1 0 05:46 23.05.2020
2595 Rain 18 1021 68 10000 2.1 270 03:48 23.05.2020
2596 Rain 18 1021 68 10000 2.1 270 03:21 23.05.2020
2597 Rain 19 1021 68 10000 1.5 230 01:59 23.05.2020
2598 Rain 19 1021 68 10000 1.5 230 01:59 23.05.2020
2599 Rain 19 1021 64 10000 0.5 160 01:27 23.05.2020
2600 Rain 19 1021 60 10000 1.5 230 00:49 23.05.2020
2601 Rain 19 1021 60 10000 1.5 230 00:29 23.05.2020
2602 Rain 19 1021 63 10000 2.1 250 23:58 22.05.2020
2603 Rain 20 1021 60 10000 3.1 260 23:39 22.05.2020
2604 Rain 20 1021 60 10000 3.1 260 23:19 22.05.2020
2605 Rain 20 1021 56 10000 2.6 260 22:56 22.05.2020
2606 Rain 21 1021 52 10000 2.1 250 22:38 22.05.2020
2607 Rain 21 1021 52 10000 2.1 250 22:18 22.05.2020
2608 Clouds 22 1021 43 10000 1.5 230 21:45 22.05.2020
2609 Clouds 23 1021 43 10000 1.5 230 21:22 22.05.2020
2610 Clouds 23 1020 41 10000 1.5 230 20:55 22.05.2020
2611 Rain 24 1020 44 10000 4.1 250 20:37 22.05.2020
2612 Rain 24 1020 44 10000 4.1 250 20:18 22.05.2020
2613 Rain 25 1020 41 10000 2.6 230 19:44 22.05.2020
2614 Clouds 25 1020 41 10000 2.6 230 19:25 22.05.2020
2615 Clouds 26 1021 39 10000 1.5 0 18:40 22.05.2020
2616 Clouds 26 1021 39 10000 1.5 0 18:21 22.05.2020
2617 Clouds 26 1020 39 10000 2.6 160 17:59 22.05.2020
2618 Clouds 25 1021 39 10000 2.6 180 17:39 22.05.2020
2619 Clouds 26 1021 41 10000 1 0 17:19 22.05.2020
2620 Clouds 26 1021 41 10000 1 0 16:55 22.05.2020
2621 Clouds 26 1022 39 10000 2.1 200 16:37 22.05.2020
2622 Clouds 26 1022 39 10000 2.1 200 16:19 22.05.2020
2623 Clouds 26 1022 44 0 2.6 190 15:42 22.05.2020
2624 Clouds 26 1022 44 0 2.6 190 15:42 22.05.2020
2625 Clouds 26 1022 44 0 2.6 190 15:22 22.05.2020
2626 Clouds 26 1022 44 10000 3.1 0 14:45 22.05.2020
2627 Clouds 26 1022 44 10000 3.1 0 14:45 22.05.2020
2628 Clouds 26 1022 44 10000 3.1 0 14:26 22.05.2020
2629 Clouds 25 1022 41 10000 1.5 0 13:56 22.05.2020
2630 Clouds 26 1022 44 10000 2.1 0 13:37 22.05.2020
2631 Clouds 25 1022 47 10000 1.5 0 13:19 22.05.2020
2632 Clouds 24 1022 53 10000 1.5 130 12:40 22.05.2020
2633 Clouds 24 1022 53 10000 1.5 130 12:21 22.05.2020
2634 Clouds 22 1022 53 10000 1 0 11:45 22.05.2020
2635 Clouds 23 1022 53 10000 1 0 11:22 22.05.2020
2636 Clouds 22 1022 56 10000 1 0 10:58 22.05.2020
2637 Clouds 22 1022 60 10000 1 0 10:38 22.05.2020
2638 Clouds 21 1022 56 10000 1 0 10:20 22.05.2020
2639 Clouds 19 1022 68 10000 1 0 09:55 22.05.2020
2640 Clouds 19 1022 68 10000 1 0 09:36 22.05.2020
2641 Clouds 19 1022 68 10000 1 0 09:18 22.05.2020
2642 Clouds 16 1022 72 10000 0.5 0 08:41 22.05.2020
2643 Clouds 15 1022 76 10000 0.5 0 08:19 22.05.2020
2644 Clouds 14 1022 76 10000 0.5 0 07:52 22.05.2020
2645 Clouds 13 1021 87 10000 1 0 07:23 22.05.2020
2646 Clouds 12 1022 87 10000 0.5 0 06:53 22.05.2020
2647 Clouds 11 1022 93 10000 1 40 06:31 22.05.2020
2648 Clouds 12 1021 87 10000 1 0 05:37 22.05.2020
2649 Clouds 12 1022 87 10000 0.5 0 04:50 22.05.2020
2650 Clouds 12 1022 93 10000 0.5 0 03:57 22.05.2020
2651 Clouds 12 1022 81 10000 1 330 03:39 22.05.2020
2652 Clouds 13 1022 87 10000 0.5 210 02:55 22.05.2020
2653 Clouds 13 1022 82 10000 1 300 01:48 22.05.2020
2654 Clouds 14 1022 76 10000 1 290 01:22 22.05.2020
2655 Clouds 14 1022 77 10000 0.5 0 00:34 22.05.2020
2656 -273 0 0 0 0 0 23:59 21.05.2020
2657 Clouds 15 1022 72 10000 1.5 280 23:40 21.05.2020
2658 Clouds 15 1022 72 10000 1.5 280 23:22 21.05.2020
2659 Clouds 17 1022 59 10000 0.5 0 22:57 21.05.2020
2660 Clouds 17 1022 59 10000 1 0 22:37 21.05.2020
2661 Clouds 17 1022 59 10000 1 0 22:19 21.05.2020
2662 Clouds 20 1021 49 10000 2.6 360 21:48 21.05.2020
2663 Clouds 20 1021 49 10000 2.6 360 21:27 21.05.2020
2664 Clouds 21 1021 46 10000 2.6 360 20:59 21.05.2020
2665 Clouds 23 1021 43 10000 3.1 10 20:40 21.05.2020
2666 Clouds 23 1021 43 10000 3.1 10 20:21 21.05.2020
2667 Clouds 24 1021 41 10000 3.1 360 19:40 21.05.2020
2668 Clouds 24 1021 41 10000 3.1 360 19:20 21.05.2020
2669 Clouds 24 1021 41 10000 2.6 0 18:58 21.05.2020
2670 Clear 24 1021 41 10000 3.1 360 18:37 21.05.2020
2671 Clear 24 1021 41 10000 3.1 360 18:18 21.05.2020
2672 Clear 24 1021 41 10000 3.1 360 17:55 21.05.2020
2673 Clear 25 1021 41 10000 2.1 10 17:37 21.05.2020
2674 Clear 25 1021 36 10000 2.6 10 17:19 21.05.2020
2675 Clear 25 1021 36 10000 1.5 0 16:44 21.05.2020
2676 Clear 25 1021 36 10000 1.5 0 16:22 21.05.2020
2677 Clear 25 1021 38 10000 1.5 140 15:44 21.05.2020
2678 Clear 24 1021 43 10000 2.1 0 15:23 21.05.2020
2679 Clear 24 1021 40 10000 2.6 0 14:43 21.05.2020
2680 Clear 24 1021 40 10000 2.6 0 14:23 21.05.2020
2681 Clouds 24 1022 46 10000 1 0 13:58 21.05.2020
2682 Clouds 23 1022 49 10000 2.6 50 13:38 21.05.2020
2683 Clouds 22 1022 49 10000 2.1 60 13:19 21.05.2020
2684 Clouds 22 1022 49 10000 1.5 0 12:40 21.05.2020
2685 Clouds 21 1022 52 10000 2.1 70 12:22 21.05.2020
2686 Clouds 21 1022 52 10000 2.1 70 11:59 21.05.2020
2687 Clouds 22 1022 56 10000 1 0 11:39 21.05.2020
2688 Clouds 21 1022 56 10000 1 0 11:21 21.05.2020
2689 Clouds 20 1022 60 10000 1.5 0 10:54 21.05.2020
2690 Clouds 20 1022 68 10000 0.5 0 10:36 21.05.2020
2691 Clouds 18 1022 68 10000 1 0 10:18 21.05.2020
2692 Clouds 17 1022 67 10000 0.5 0 09:42 21.05.2020
2693 Clouds 17 1022 67 10000 0.5 0 09:24 21.05.2020
2694 Clear 16 1022 77 10000 0.5 0 08:58 21.05.2020
2695 Clear 14 1022 82 10000 1 0 08:39 21.05.2020
2696 Clear 14 1022 82 10000 1 0 08:21 21.05.2020
2697 Clear 12 1021 81 10000 0.74 147 07:43 21.05.2020
2698 Clear 11 1021 81 10000 0.6 152 07:22 21.05.2020
2699 Clear 11 1021 87 10000 1 0 06:44 21.05.2020
2700 Clear 10 1021 87 10000 1.5 290 05:50 21.05.2020
2701 Clear 11 1021 87 10000 0.5 0 04:29 21.05.2020
2702 Clear 12 1021 81 10000 1.5 300 03:21 21.05.2020
2703 Clear 12 1021 81 10000 1.5 300 03:21 21.05.2020
2704 Clear 12 1021 82 10000 0.5 0 02:33 21.05.2020
2705 Clear 13 1021 82 10000 1 340 01:58 21.05.2020
2706 Clear 13 1021 82 10000 1.5 340 01:39 21.05.2020
2707 Clear 13 1021 82 10000 1.5 340 01:18 21.05.2020
2708 Clear 14 1021 72 10000 2.1 330 00:41 21.05.2020
2709 Clear 14 1021 72 10000 2.1 330 00:21 21.05.2020
2710 Clear 15 1021 72 10000 1 0 23:40 20.05.2020
2711 Clear 15 1021 72 10000 1 0 23:19 20.05.2020
2712 Clear 16 1021 67 10000 1.5 330 22:55 20.05.2020
2713 Clear 17 1021 63 10000 2.1 50 22:37 20.05.2020
2714 Clear 17 1021 63 10000 2.1 50 22:19 20.05.2020
2715 Clouds 19 1020 52 10000 2.1 30 21:40 20.05.2020
2716 Clouds 20 1020 52 10000 2.1 30 21:20 20.05.2020
2717 Clouds 21 1020 52 10000 2.6 40 20:44 20.05.2020
2718 Clouds 21 1020 52 10000 2.6 40 20:24 20.05.2020
2719 Clouds 22 1020 46 10000 3.1 50 19:55 20.05.2020
2720 Clouds 22 1020 46 10000 2.1 40 19:37 20.05.2020
2721 Clouds 22 1020 46 10000 2.6 10 19:18 20.05.2020
2722 Clouds 23 1020 49 10000 3.6 60 18:42 20.05.2020
2723 Clouds 22 1020 49 10000 3.6 60 18:22 20.05.2020
2724 Clouds 22 1020 49 10000 2.1 50 17:42 20.05.2020
2725 Clouds 23 1020 49 10000 2.1 50 17:22 20.05.2020
2726 Clouds 22 1020 49 10000 3.1 30 16:58 20.05.2020
2727 Clouds 22 1020 46 10000 2.6 0 16:39 20.05.2020
2728 Clouds 23 1020 46 10000 2.6 0 16:21 20.05.2020
2729 Clouds 23 1020 46 10000 3.1 60 15:44 20.05.2020
2730 Clouds 22 1020 46 10000 3.1 60 15:25 20.05.2020
2731 Clouds 22 1020 43 10000 3.1 40 14:59 20.05.2020
2732 Clouds 22 1021 43 10000 2.6 50 14:37 20.05.2020
2733 Clouds 22 1021 46 10000 3.1 60 14:19 20.05.2020
2734 Clouds 22 1021 46 10000 2.1 0 13:39 20.05.2020
2735 Clouds 21 1021 46 10000 2.1 0 13:18 20.05.2020
2736 Clouds 22 1021 46 10000 1 0 12:42 20.05.2020
2737 Clouds 22 1021 46 10000 1 0 12:21 20.05.2020
2738 Clouds 20 1021 52 10000 1.5 0 11:39 20.05.2020
2739 Clouds 20 1021 52 10000 1.5 0 11:20 20.05.2020
2740 Clouds 19 1021 55 10000 1.5 90 10:58 20.05.2020
2741 Clouds 19 1021 59 10000 1 0 10:40 20.05.2020
2742 Clouds 19 1021 59 10000 1 0 10:19 20.05.2020
2743 Clouds 16 1021 77 10000 1 0 09:41 20.05.2020
2744 Clear 16 1021 77 10000 1 0 09:21 20.05.2020
2745 Clouds 14 1021 82 10000 0.5 0 08:42 20.05.2020
2746 Clouds 14 1021 82 10000 0.5 0 08:42 20.05.2020
2747 Clear 12 1020 87 10000 2.1 70 08:20 20.05.2020
2748 Clear 12 1020 87 10000 2.1 70 07:55 20.05.2020
2749 Clear 12 1020 76 10000 0.5 210 07:37 20.05.2020
2750 Clear 12 1020 76 10000 0.5 210 07:19 20.05.2020
2751 Clear 10 1020 87 10000 0.5 0 06:28 20.05.2020
2752 Clear 11 1020 76 10000 0.5 0 05:19 20.05.2020
2753 Clear 11 1020 76 10000 1 250 04:25 20.05.2020
2754 Clear 12 1020 76 10000 1 280 03:38 20.05.2020
2755 Clear 13 1020 71 10000 2.1 300 01:58 20.05.2020
2756 Clear 14 1020 62 10000 1.5 280 01:26 20.05.2020
2757 Clear 14 1020 62 10000 1 240 00:44 20.05.2020
2758 Clear 14 1020 62 10000 1 240 00:23 20.05.2020
2759 Clear 16 1020 51 10000 2.1 290 23:41 19.05.2020
2760 Clear 16 1020 51 10000 2.1 290 23:19 19.05.2020
2761 Clear 17 1020 48 10000 2.6 300 22:56 19.05.2020
2762 Clear 17 1020 45 10000 2.1 300 22:38 19.05.2020
2763 Clear 18 1020 45 10000 2.1 300 22:18 19.05.2020
2764 Clear 18 1020 42 10000 3.1 330 21:56 19.05.2020
2765 Clear 19 1020 37 10000 4.1 330 21:37 19.05.2020
2766 Clear 21 1019 35 10000 5.1 330 21:19 19.05.2020
2767 Clear 21 1020 37 10000 4.1 330 21:19 19.05.2020
2768 Clear 21 1019 35 10000 5.1 330 20:57 19.05.2020
2769 Clear 22 1019 35 10000 6.2 320 20:38 19.05.2020
2770 Clear 22 1019 35 10000 4.6 330 20:20 19.05.2020
2771 Clear 23 1019 35 10000 3.6 360 19:40 19.05.2020
2772 Clear 23 1019 35 10000 3.6 360 19:21 19.05.2020
2773 Clear 23 1019 35 10000 3.1 350 18:58 19.05.2020
2774 Clear 24 1019 33 10000 5.7 350 18:40 19.05.2020
2775 Clear 24 1019 33 10000 5.7 350 18:40 19.05.2020
2776 Clear 24 1019 33 10000 5.7 350 18:20 19.05.2020
2777 Clear 24 1019 36 10000 4.1 340 17:43 19.05.2020
2778 Clear 24 1019 36 10000 4.1 340 17:21 19.05.2020
2779 Clear 24 1019 36 10000 4.1 360 16:59 19.05.2020
2780 Clear 24 1019 36 10000 4.1 360 16:59 19.05.2020
2781 Clear 24 1019 35 10000 4.6 360 16:38 19.05.2020
2782 Clear 24 1019 35 10000 4.6 360 16:19 19.05.2020
2783 Clear 24 1020 29 10000 2.6 30 15:47 19.05.2020
2784 Clear 24 1020 29 10000 2.6 30 15:22 19.05.2020
2785 Clear 24 1020 35 10000 3.1 10 14:58 19.05.2020
2786 Clear 23 1020 38 10000 4.1 20 14:39 19.05.2020
2787 Clear 23 1020 38 10000 4.1 20 14:20 19.05.2020
2788 Clear 23 1021 40 10000 3.6 0 13:58 19.05.2020
2789 Clouds 21 1021 46 10000 3.6 350 13:39 19.05.2020
2790 Clouds 21 1021 46 10000 3.6 350 13:20 19.05.2020
2791 Clouds 21 1021 43 10000 3.1 20 12:57 19.05.2020
2792 Clouds 21 1021 46 10000 2.6 40 12:38 19.05.2020
2793 Clouds 21 1021 46 10000 2.6 40 12:20 19.05.2020
2794 Clouds 20 1022 49 10000 1.5 0 11:55 19.05.2020
2795 Clouds 20 1022 49 10000 1.5 0 11:37 19.05.2020
2796 Clouds 19 1022 55 10000 1 0 11:18 19.05.2020
2797 Clear 19 1022 55 10000 1 0 10:43 19.05.2020
2798 Clear 18 1022 55 10000 1 0 10:23 19.05.2020
2799 Clear 17 1022 55 10000 0.5 0 09:56 19.05.2020
2800 Clear 16 1022 67 10000 1 0 09:38 19.05.2020
2801 Clear 16 1022 67 10000 1 0 09:20 19.05.2020
2802 Clear 14 1022 71 10000 0.5 0 08:42 19.05.2020
2803 Clear 13 1022 71 10000 0.5 0 08:23 19.05.2020
2804 Clear 12 1022 81 10000 0.5 0 07:43 19.05.2020
2805 Clear 10 1022 81 10000 0.5 0 07:25 19.05.2020
2806 Clear 9 1021 87 10000 0.5 0 06:45 19.05.2020
2807 Clear 9 1021 87 10000 0.5 0 06:24 19.05.2020
2808 Clear 9 1022 87 10000 0.5 0 05:40 19.05.2020
2809 Clear 10 1022 81 10000 0.5 0 04:55 19.05.2020
2810 Clear 10 1022 81 10000 0.5 0 04:55 19.05.2020
2811 Clear 10 1022 81 10000 0.5 330 03:45 19.05.2020
2812 Clear 12 1022 76 10000 2.1 280 01:30 19.05.2020
2813 Clear 13 1022 66 10000 2.1 280 00:43 19.05.2020
2814 Clear 13 1022 66 10000 2.1 280 00:22 19.05.2020
2815 Clear 14 1022 67 10000 1.5 280 23:56 18.05.2020
2816 Clear 14 1022 67 10000 1 260 23:38 18.05.2020
2817 Clear 15 1022 55 10000 2.1 300 23:19 18.05.2020
2818 Clear 16 1022 48 10000 1.5 350 22:41 18.05.2020
2819 Clear 17 1022 48 10000 1.5 350 22:22 18.05.2020
2820 Clear 17 1022 42 10000 1 0 21:56 18.05.2020
2821 Clear 18 1022 45 10000 2.6 340 21:38 18.05.2020
2822 Clear 19 1022 42 10000 3.1 330 21:18 18.05.2020
2823 Clear 20 1022 42 10000 3.1 330 20:43 18.05.2020
2824 Clear 21 1022 40 10000 4.1 320 20:22 18.05.2020
2825 Clear 22 1022 37 10000 3.1 330 19:59 18.05.2020
2826 Clear 22 1022 37 10000 3.1 330 19:40 18.05.2020
2827 Clear 22 1022 37 10000 2.6 0 19:19 18.05.2020
2828 Clear 22 1022 37 10000 3.6 330 18:46 18.05.2020
2829 Clear 22 1022 37 10000 3.6 330 18:25 18.05.2020
2830 Clear 21 1022 37 10000 4.1 330 17:55 18.05.2020
2831 Clear 22 1022 37 10000 4.1 330 17:37 18.05.2020
2832 Clear 22 1022 37 10000 4.1 330 17:18 18.05.2020
2833 Clear 22 1023 35 10000 3.1 10 16:43 18.05.2020
2834 Clear 22 1023 37 10000 2.1 0 16:22 18.05.2020
2835 Clouds 22 1023 37 10000 2.1 0 15:59 18.05.2020
2836 Clear 21 1023 37 10000 3.6 320 15:41 18.05.2020
2837 Clear 22 1023 37 10000 3.6 320 15:22 18.05.2020
2838 Clear 21 1023 40 10000 2.1 90 14:58 18.05.2020
2839 Clear 21 1023 40 10000 1.5 0 14:39 18.05.2020
2840 Clear 21 1023 40 10000 1.5 0 14:20 18.05.2020
2841 Clear 21 1024 40 10000 1 0 13:42 18.05.2020
2842 -273 0 0 0 0 0 13:21 18.05.2020
2843 Clear 20 1024 40 10000 1.5 0 13:21 18.05.2020
2844 Clear 20 1024 40 10000 1.5 0 12:58 18.05.2020
2845 Clear 19 1024 42 10000 1.5 0 12:40 18.05.2020
2846 Clear 19 1024 42 10000 1.5 0 12:19 18.05.2020
2847 Clouds 20 1025 42 10000 1.5 0 11:58 18.05.2020
2848 Clear 18 1025 45 10000 1 0 11:40 18.05.2020
2849 Clear 18 1025 45 10000 1 0 11:21 18.05.2020
2850 Clear 18 1025 55 10000 1 0 10:46 18.05.2020
2851 Clear 17 1025 55 10000 1 0 10:23 18.05.2020
2852 Clear 14 1024 66 10000 1 0 09:45 18.05.2020
2853 Clear 13 1024 66 10000 1 0 09:26 18.05.2020
2854 Clear 12 1024 76 10000 1 0 08:57 18.05.2020
2855 Clear 11 1024 71 10000 0.5 0 08:39 18.05.2020
2856 Clear 10 1024 71 10000 0.5 0 08:20 18.05.2020
2857 Clear 8 1024 81 10000 1 90 07:42 18.05.2020
2858 Clear 7 1024 81 10000 1 90 07:21 18.05.2020
2859 Clear 6 1023 93 10000 1 90 06:47 18.05.2020
2860 Clear 6 1023 93 10000 1 90 06:23 18.05.2020
2861 Clear 6 1023 87 10000 0.5 0 05:43 18.05.2020
2862 Clear 7 1023 76 10000 0.5 0 03:39 18.05.2020
2863 Clear 8 1024 76 10000 1.5 290 02:57 18.05.2020
2864 Clear 8 1024 76 10000 1 0 01:45 18.05.2020
2865 Clear 9 1024 66 10000 0.27 144 00:45 18.05.2020
2866 Clear 9 1024 66 10000 0.37 113 00:19 18.05.2020
2867 Clear 10 1023 58 10000 0.5 250 23:55 17.05.2020
2868 Clear 10 1023 58 10000 1.5 290 23:37 17.05.2020
2869 Clear 11 1023 50 10000 2.1 300 23:18 17.05.2020
2870 Clear 11 1023 47 10000 1.5 340 22:40 17.05.2020
2871 Clear 11 1023 47 10000 1.5 340 22:40 17.05.2020
2872 Clear 12 1023 47 10000 1.5 340 22:22 17.05.2020
2873 Clear 12 1023 47 10000 1.5 10 21:59 17.05.2020
2874 Clear 12 1022 48 10000 2.1 360 21:41 17.05.2020
2875 Clear 15 1022 48 10000 2.1 360 21:19 17.05.2020
2876 Clear 17 1022 45 10000 3.1 350 20:56 17.05.2020
2877 Clear 17 1022 42 10000 3.1 350 20:38 17.05.2020
2878 Clouds 18 1022 39 10000 3.1 350 20:19 17.05.2020
2879 Clouds 19 1022 37 10000 2.6 330 19:47 17.05.2020
2880 Clouds 19 1022 37 10000 2.6 330 19:28 17.05.2020
2881 Clouds 19 1022 37 10000 3.1 20 18:58 17.05.2020
2882 Clouds 19 1022 37 10000 3.1 360 18:38 17.05.2020
2883 Clouds 19 1022 37 10000 3.1 360 18:20 17.05.2020
2884 Clouds 19 1022 32 10000 3.6 10 17:41 17.05.2020
2885 Clouds 19 1022 32 10000 3.6 10 17:23 17.05.2020
2886 Clouds 19 1022 30 10000 2.6 40 16:57 17.05.2020
2887 Clouds 20 1022 37 10000 3.6 360 16:39 17.05.2020
2888 Clear 20 1022 37 10000 3.6 360 16:20 17.05.2020
2889 Clear 20 1022 37 10000 3.6 360 16:20 17.05.2020
2890 Clear 19 1022 37 10000 3.6 320 15:47 17.05.2020
2891 Clear 19 1022 37 10000 3.6 320 15:25 17.05.2020
2892 Clear 19 1023 39 10000 3.1 0 14:58 17.05.2020
2893 Clear 19 1023 39 10000 3.1 0 14:58 17.05.2020
2894 Clear 19 1023 42 10000 2.1 0 14:40 17.05.2020
2895 Clear 19 1023 42 10000 2.1 0 14:22 17.05.2020
2896 Clear 18 1023 42 10000 2.6 50 13:43 17.05.2020
2897 Clear 18 1023 42 10000 2.6 50 13:21 17.05.2020
2898 Clear 15 1023 54 10000 2.1 40 10:50 17.05.2020
2899 Clear 6 1020 81 10000 0.5 290 03:55 17.05.2020
2900 Clouds 7 1020 75 10000 3.6 300 02:28 17.05.2020
2901 Clouds 8 1020 70 10000 3.1 300 01:55 17.05.2020
2902 Clouds 8 1020 70 10000 1.5 260 00:56 17.05.2020
2903 Clouds 9 1020 62 10000 1 0 00:38 17.05.2020
2904 Clouds 9 1020 62 10000 1.5 210 23:57 16.05.2020
2905 Clouds 10 1020 58 10000 1 0 23:39 16.05.2020
2906 Clouds 10 1020 58 10000 1 0 23:19 16.05.2020
2907 Clouds 10 1019 54 10000 1.5 290 22:57 16.05.2020
2908 Clouds 11 1019 50 10000 2.6 310 22:39 16.05.2020
2909 Clear 11 1019 50 10000 2.6 310 22:19 16.05.2020
2910 Clear 12 1019 44 10000 2.1 330 21:44 16.05.2020
2911 Clear 14 1019 44 10000 2.1 330 21:25 16.05.2020
2912 Clear 16 1019 45 10000 2.6 350 20:57 16.05.2020
2913 Clear 17 1019 39 10000 1 0 20:39 16.05.2020
2914 Clear 17 1019 39 10000 1 0 20:20 16.05.2020
2915 Clear 18 1019 39 10000 2.1 310 19:57 16.05.2020
2916 Clear 18 1019 39 10000 2.6 310 19:39 16.05.2020
2917 Clear 19 1019 39 10000 2.6 310 19:21 16.05.2020
2918 Clear 19 1020 37 10000 1.5 0 18:42 16.05.2020
2919 Clear 19 1020 37 10000 1.5 0 18:23 16.05.2020
2920 Clear 19 1020 34 10000 2.1 330 17:56 16.05.2020
2921 Clear 19 1020 37 10000 3.1 360 17:38 16.05.2020
2922 Clear 19 1020 37 10000 1.5 190 17:19 16.05.2020
2923 Clear 19 1020 39 10000 3.6 0 16:40 16.05.2020
2924 Clear 19 1020 39 10000 3.6 0 16:22 16.05.2020
2925 Clear 19 1020 37 10000 1.5 0 15:58 16.05.2020
2926 Clear 19 1020 39 10000 2.1 0 15:38 16.05.2020
2927 Clear 18 1020 39 10000 2.1 0 15:19 16.05.2020
2928 Clear 18 1021 45 10000 1.5 0 14:46 16.05.2020
2929 Clear 18 1021 45 10000 1.5 0 14:20 16.05.2020
2930 Clear 17 1021 45 10000 2.1 0 13:58 16.05.2020
2931 Clear 17 1022 39 10000 2.6 0 13:40 16.05.2020
2932 Clear 17 1022 39 10000 2.6 0 13:22 16.05.2020
2933 Clear 16 1022 36 10000 1.5 0 12:45 16.05.2020
2934 Clear 16 1022 36 10000 1.5 0 12:22 16.05.2020
2935 Clouds 16 1022 48 10000 1.5 0 11:59 16.05.2020
2936 Clouds 15 1022 54 10000 1.5 0 11:38 16.05.2020
2937 Clouds 15 1022 67 10000 1 0 11:20 16.05.2020
2938 Clouds 15 1022 67 10000 1 0 10:56 16.05.2020
2939 Clear 14 1022 71 10000 1 0 10:37 16.05.2020
2940 Clear 13 1022 71 10000 1 0 10:18 16.05.2020
2941 Clear 11 1022 76 10000 0.5 0 09:45 16.05.2020
2942 Clear 8 1022 76 10000 0.5 0 09:27 16.05.2020
2943 Clear 7 1022 81 10000 1 0 08:44 16.05.2020
2944 Clear 7 1022 81 10000 1 0 08:22 16.05.2020
2945 Clear 6 1022 81 10000 0.5 0 07:55 16.05.2020
2946 Clear 5 1022 87 10000 0.5 0 07:37 16.05.2020
2947 Clear 4 1021 93 10000 0.5 0 07:19 16.05.2020
2948 Clear 4 1021 93 10000 0.5 0 06:44 16.05.2020
2949 Clear 4 1021 93 10000 2.6 320 06:18 16.05.2020
2950 Clear 4 1021 93 10000 1 0 05:40 16.05.2020
2951 Clear 5 1021 86 10000 1 330 04:31 16.05.2020
2952 Clear 5 1021 87 10000 1 0 03:21 16.05.2020
2953 Clear 6 1021 87 10000 0.5 0 02:38 16.05.2020
2954 Clear 6 1021 81 10000 1 0 01:56 16.05.2020
2955 Clear 7 1021 87 10000 3.1 300 01:35 16.05.2020
2956 Clear 7 1021 87 10000 0.5 0 00:56 16.05.2020
2957 Clear 7 1021 81 10000 1 0 00:38 16.05.2020
2958 Clear 7 1021 75 10000 1.5 300 00:18 16.05.2020
2959 Clear 8 1021 76 10000 0.5 0 23:38 15.05.2020
2960 Clear 8 1021 70 10000 1.5 270 23:18 15.05.2020
2961 Clear 9 1020 62 10000 1 260 22:41 15.05.2020
2962 Clear 9 1020 62 10000 1 260 22:20 15.05.2020
2963 Clear 10 1020 66 10000 0.5 0 21:56 15.05.2020
2964 Clear 10 1020 66 10000 0.5 0 21:38 15.05.2020
2965 Clear 12 1020 66 10000 0.5 0 21:20 15.05.2020
2966 Clear 14 1019 50 10000 1.5 360 20:54 15.05.2020
2967 Clouds 14 1019 50 10000 1.5 360 20:36 15.05.2020
2968 Clouds 14 1019 47 10000 1.5 20 20:18 15.05.2020
2969 Clouds 15 1019 44 10000 1 0 19:42 15.05.2020
2970 Clouds 15 1019 44 10000 1 0 19:23 15.05.2020
2971 Clouds 16 1019 36 10000 2.1 100 18:48 15.05.2020
2972 Clouds 16 1019 36 10000 2.1 100 18:28 15.05.2020
2973 Clouds 16 1019 41 10000 1.5 150 17:59 15.05.2020
2974 Clouds 16 1018 41 10000 1.5 70 17:37 15.05.2020
2975 Clouds 15 1018 41 10000 1.5 70 17:19 15.05.2020
2976 Clouds 15 1018 44 10000 2.1 50 16:56 15.05.2020
2977 Clouds 15 1018 47 10000 3.1 0 16:37 15.05.2020
2978 Clouds 15 1018 47 10000 3.1 0 16:18 15.05.2020
2979 Clouds 15 1018 47 10000 2.6 80 15:41 15.05.2020
2980 Clouds 16 1018 47 10000 2.6 80 15:20 15.05.2020
2981 Clouds 15 1018 47 10000 2.1 40 14:57 15.05.2020
2982 Clouds 15 1017 50 10000 3.6 70 14:39 15.05.2020
2983 Clouds 14 1017 54 10000 4.1 70 14:21 15.05.2020
2984 Clouds 14 1017 50 10000 4.6 70 13:42 15.05.2020
2985 Clouds 14 1017 50 10000 4.6 70 13:22 15.05.2020
2986 Clouds 15 1016 50 10000 6.2 60 12:56 15.05.2020
2987 Clouds 14 1016 58 10000 2.6 20 12:37 15.05.2020
2988 Clouds 14 1016 58 10000 3.1 10 12:18 15.05.2020
2989 Clouds 14 1016 58 10000 3.1 10 11:56 15.05.2020
2990 Clouds 14 1016 62 10000 3.1 360 11:37 15.05.2020
2991 Clouds 13 1015 62 10000 4.6 20 11:19 15.05.2020
2992 Clouds 12 1015 62 10000 4.6 20 10:56 15.05.2020
2993 Clouds 13 1015 62 10000 2.6 20 10:38 15.05.2020
2994 Clouds 12 1014 66 10000 3.6 350 10:19 15.05.2020
2995 Clouds 11 1014 71 10000 2.6 10 09:40 15.05.2020
2996 Clouds 9 1014 71 10000 2.6 10 09:20 15.05.2020
2997 Clouds 9 1014 71 10000 3.1 20 08:59 15.05.2020
2998 Clouds 9 1014 66 10000 2.1 30 08:38 15.05.2020
2999 Clouds 9 1014 66 10000 2.1 30 08:38 15.05.2020
3000 Clouds 9 1014 66 10000 2.1 30 08:38 15.05.2020
3001 Clouds 8 1014 66 10000 2.1 30 08:19 15.05.2020
3002 Clouds 8 1013 70 10000 3.1 30 07:46 15.05.2020
3003 Clouds 8 1013 70 10000 3.1 30 07:28 15.05.2020
3004 Clouds 8 1013 70 10000 3.6 40 06:58 15.05.2020
3005 Clouds 9 1013 71 10000 4.1 40 05:56 15.05.2020
3006 Clouds 9 1012 66 10000 4.6 40 04:38 15.05.2020
3007 Clouds 9 1012 71 10000 3.1 30 03:49 15.05.2020
3008 Clouds 9 1012 71 10000 3.1 40 02:49 15.05.2020
3009 Clouds 9 1012 66 10000 3.6 10 01:37 15.05.2020
3010 Clouds 10 1012 66 10000 3.6 10 01:18 15.05.2020
3011 Clouds 9 1013 66 10000 2.1 10 00:40 15.05.2020
3012 Clouds 9 1013 71 10000 2.1 20 00:21 15.05.2020
3013 Clouds 10 1013 71 10000 1 350 23:41 14.05.2020
3014 Clouds 10 1013 71 10000 1 350 23:19 14.05.2020
3015 Clouds 10 1014 66 10000 2.6 20 22:42 14.05.2020
3016 Clouds 10 1014 66 10000 2.6 20 22:24 14.05.2020
3017 Clouds 9 1014 66 10000 2.6 20 22:24 14.05.2020
3018 Clouds 10 1014 66 10000 2.6 30 21:59 14.05.2020
3019 Clouds 10 1014 66 10000 2.1 30 21:41 14.05.2020
3020 Clouds 11 1014 66 10000 3.1 50 21:20 14.05.2020
3021 Clouds 11 1014 66 10000 3.1 50 20:57 14.05.2020
3022 Clouds 11 1013 66 10000 3.6 40 20:39 14.05.2020
3023 Clouds 12 1013 66 10000 3.6 40 20:20 14.05.2020
3024 Clouds 12 1013 62 10000 4.6 40 19:57 14.05.2020
3025 Clouds 12 1014 62 10000 4.6 50 19:39 14.05.2020
3026 Clouds 12 1014 66 10000 4.6 40 19:20 14.05.2020
3027 Clouds 12 1014 66 10000 4.6 40 18:57 14.05.2020
3028 Clouds 13 1014 62 10000 4.6 30 18:38 14.05.2020
3029 Clouds 13 1014 66 10000 4.1 40 18:19 14.05.2020
3030 Clouds 13 1014 66 10000 4.1 40 17:57 14.05.2020
3031 Clouds 12 1013 66 10000 4.6 20 17:37 14.05.2020
3032 Clouds 13 1013 62 10000 4.6 30 17:18 14.05.2020
3033 Clouds 12 1013 62 10000 4.6 30 16:56 14.05.2020
3034 Clouds 12 1014 66 10000 4.1 50 16:37 14.05.2020
3035 Clouds 12 1014 66 10000 3.6 100 16:18 14.05.2020
3036 Clouds 12 1014 66 10000 3.6 90 15:41 14.05.2020
3037 Clouds 12 1014 66 10000 4.6 70 15:21 14.05.2020
3038 Clouds 13 1014 66 10000 4.6 70 14:57 14.05.2020
3039 Clouds 13 1014 66 10000 4.1 50 14:39 14.05.2020
3040 Clouds 13 1014 66 10000 4.1 50 14:20 14.05.2020
3041 Clouds 13 1015 71 10000 3.1 30 13:57 14.05.2020
3042 Clouds 13 1015 71 10000 3.1 360 13:38 14.05.2020
3043 Clouds 12 1015 71 10000 3.1 40 13:20 14.05.2020
3044 Clouds 12 1015 71 10000 3.1 40 12:58 14.05.2020
3045 Clouds 11 1015 76 10000 2.6 20 12:38 14.05.2020
3046 Clouds 11 1015 76 10000 2.6 20 12:38 14.05.2020
3047 Clouds 10 1015 76 10000 2.1 60 12:19 14.05.2020
3048 Clouds 10 1015 76 10000 2.1 60 11:57 14.05.2020
3049 Clouds 10 1015 76 10000 3.1 10 11:38 14.05.2020
3050 Clouds 10 1015 76 10000 3.1 10 11:38 14.05.2020
3051 Clouds 9 1015 76 10000 3.1 10 11:19 14.05.2020
3052 Clouds 9 1014 87 10000 2.6 10 10:45 14.05.2020
3053 Clouds 8 1014 87 10000 2.6 10 10:26 14.05.2020
3054 Clouds 8 1014 87 10000 2.1 10 09:57 14.05.2020
3055 Clouds 7 1014 93 7000 2.1 30 09:39 14.05.2020
3056 Clouds 7 1014 93 7000 2.1 30 09:19 14.05.2020
3057 Mist 7 1014 93 5000 1 0 08:41 14.05.2020
3058 Mist 7 1014 93 5000 1 0 08:20 14.05.2020
3059 Drizzle 7 1013 100 3000 1 0 07:45 14.05.2020
3060 Mist 7 1013 100 3000 1 0 07:24 14.05.2020
3061 Drizzle 7 1013 100 2000 0.5 0 06:54 14.05.2020
3062 Rain 7 1013 100 2000 0.5 0 06:29 14.05.2020
3063 Rain 7 1013 100 4500 0.5 0 05:55 14.05.2020
3064 Rain 7 1012 100 5000 0.5 0 05:29 14.05.2020
3065 Rain 7 1012 100 6000 1 0 04:25 14.05.2020
3066 Clouds 7 1012 93 7000 1 0 03:23 14.05.2020
3067 Rain 7 1011 93 10000 0.5 0 02:41 14.05.2020
3068 Rain 7 1011 93 10000 0.5 0 01:56 14.05.2020
3069 Rain 6 1011 93 10000 1 0 01:23 14.05.2020
3070 Rain 6 1010 100 10000 0.5 0 00:44 14.05.2020
3071 Rain 6 1010 100 10000 0.5 0 00:23 14.05.2020
3072 Rain 7 1010 93 9000 1 0 23:42 13.05.2020
3073 Rain 7 1010 93 9000 1 0 23:21 13.05.2020
3074 Rain 7 1009 93 9000 2.6 40 22:54 13.05.2020
3075 Rain 7 1009 93 9000 2.6 10 22:36 13.05.2020
3076 Rain 7 1009 93 9000 2.6 10 22:18 13.05.2020
3077 Rain 7 1009 93 9000 2.1 30 21:55 13.05.2020
3078 Rain 7 1008 93 9000 2.6 80 21:36 13.05.2020
3079 Rain 7 1008 93 9000 2.6 80 21:18 13.05.2020
3080 Rain 7 1008 93 9000 3.1 60 20:40 13.05.2020
3081 Rain 7 1008 93 9000 3.1 60 20:22 13.05.2020
3082 Rain 7 1008 87 10000 2.1 50 19:43 13.05.2020
3083 Rain 7 1008 87 10000 2.1 50 19:24 13.05.2020
3084 Rain 8 1009 93 10000 2.1 50 18:55 13.05.2020
3085 Rain 8 1009 87 10000 1.5 0 18:37 13.05.2020
3086 Drizzle 8 1009 87 10000 2.6 60 18:18 13.05.2020
3087 Drizzle 8 1009 87 10000 2.6 80 17:39 13.05.2020
3088 Drizzle 8 1009 93 10000 3.6 60 17:19 13.05.2020
3089 Drizzle 8 1009 93 10000 3.6 60 16:55 13.05.2020
3090 Drizzle 8 1009 87 10000 3.6 30 16:37 13.05.2020
3091 Rain 8 1009 87 10000 4.1 20 16:18 13.05.2020
3092 Drizzle 8 1009 87 10000 3.6 30 16:18 13.05.2020
3093 Rain 8 1010 81 10000 2.6 50 15:42 13.05.2020
3094 Rain 9 1010 81 10000 2.6 50 15:19 13.05.2020
3095 Rain 10 1010 76 10000 3.6 50 14:57 13.05.2020
3096 Rain 10 1010 76 10000 2.6 70 14:39 13.05.2020
3097 Rain 11 1010 71 10000 2.6 80 14:21 13.05.2020
3098 Rain 12 1010 71 10000 2.6 80 13:57 13.05.2020
3099 Rain 12 1010 57 10000 3.1 80 13:38 13.05.2020
3100 Rain 13 1010 57 10000 3.1 80 13:19 13.05.2020
3101 Clouds 13 1010 54 10000 4.1 80 12:43 13.05.2020
3102 Clouds 13 1010 54 10000 4.1 80 12:23 13.05.2020
3103 Clouds 12 1010 62 10000 4.1 60 11:57 13.05.2020
3104 Clouds 12 1010 62 10000 4.1 60 11:39 13.05.2020
3105 Clouds 12 1010 62 10000 4.1 60 11:21 13.05.2020
3106 Clouds 11 1011 66 10000 2.1 80 10:59 13.05.2020
3107 Clouds 11 1012 70 10000 1.5 80 10:40 13.05.2020
3108 Clouds 11 1012 70 10000 1.5 80 10:20 13.05.2020
3109 Clouds 11 1012 70 10000 1.5 60 09:59 13.05.2020
3110 Clouds 7 1012 75 10000 1.5 80 09:40 13.05.2020
3111 Clouds 7 1012 75 10000 1.5 80 09:22 13.05.2020
3112 Clouds 7 1012 75 10000 1 0 08:43 13.05.2020
3113 Clouds 7 1012 75 10000 1 0 08:22 13.05.2020
3114 Clouds 6 1012 81 10000 0.5 0 07:59 13.05.2020
3115 Clouds 6 1012 81 10000 0.5 0 07:37 13.05.2020
3116 Clouds 6 1012 81 10000 1 0 06:59 13.05.2020
3117 Clouds 5 1012 81 10000 0.5 0 06:41 13.05.2020
3118 Rain 5 1012 75 10000 0.5 0 05:51 13.05.2020
3119 Rain 5 1012 75 10000 0.5 80 04:41 13.05.2020
3120 Clouds 5 1012 80 10000 1 0 02:59 13.05.2020
3121 Clouds 5 1013 80 10000 1 0 02:22 13.05.2020
3122 Clouds 5 1013 70 10000 1 0 01:26 13.05.2020
3123 Clouds 6 1013 65 10000 1.5 30 00:41 13.05.2020
3124 Clouds 6 1013 65 10000 1.5 30 00:19 13.05.2020
3125 Clouds 7 1013 70 10000 1 0 23:40 12.05.2020
3126 Clouds 7 1013 70 10000 1 0 23:21 12.05.2020
3127 Clouds 8 1013 65 10000 1.5 10 22:57 12.05.2020
3128 Clouds 8 1013 61 10000 2.1 10 22:39 12.05.2020
3129 Clouds 8 1013 61 10000 2.1 10 22:20 12.05.2020
3130 Clouds 8 1014 57 10000 1.5 20 21:55 12.05.2020
3131 Clouds 8 1013 53 10000 2.1 10 21:37 12.05.2020
3132 Clouds 9 1013 53 10000 2.1 10 21:18 12.05.2020
3133 Clouds 9 1014 51 10000 2.6 20 20:56 12.05.2020
3134 Clouds 10 1014 49 10000 3.1 10 20:38 12.05.2020
3135 Clouds 9 1014 43 10000 3.1 10 20:20 12.05.2020
3136 Clouds 10 1014 43 10000 3.1 10 19:56 12.05.2020
3137 Clouds 10 1014 40 10000 1.5 0 19:37 12.05.2020
3138 Clouds 10 1014 40 10000 3.1 60 19:18 12.05.2020
3139 Clouds 10 1014 40 10000 2.6 30 18:42 12.05.2020
3140 Clouds 12 1014 40 10000 2.6 30 18:23 12.05.2020
3141 Clouds 12 1015 40 10000 2.1 0 17:58 12.05.2020
3142 Clouds 12 1015 37 10000 2.1 60 17:39 12.05.2020
3143 Clouds 12 1015 35 10000 2.1 60 17:21 12.05.2020
3144 Clouds 12 1015 37 10000 1 0 16:43 12.05.2020
3145 Clouds 12 1016 37 10000 2.6 0 16:23 12.05.2020
3146 Clouds 12 1016 37 10000 2.6 0 15:56 12.05.2020
3147 Clouds 12 1016 35 10000 2.6 0 15:37 12.05.2020
3148 Clouds 11 1016 43 10000 3.1 70 15:18 12.05.2020
3149 Clouds 11 1016 43 10000 3.1 70 14:55 12.05.2020
3150 Clouds 11 1017 39 10000 2.1 40 14:36 12.05.2020
3151 Clouds 11 1017 43 10000 3.1 60 14:18 12.05.2020
3152 Clouds 10 1017 43 10000 3.1 60 13:55 12.05.2020
3153 Clouds 11 1017 57 0 0.45 77 13:37 12.05.2020
3154 Clear 11 1017 55 0 2.63 80 13:18 12.05.2020
3155 Clear 11 1017 57 0 2.63 80 12:57 12.05.2020
3156 Clear 10 1017 57 0 2.63 80 12:38 12.05.2020
3157 Clear 8 1026 90 0 0.45 114 12:20 12.05.2020
3158 Clouds 7 1018 56 10000 4.1 100 11:57 12.05.2020
3159 Clouds 7 1018 56 10000 4.1 100 11:57 12.05.2020
3160 Clouds 7 1018 56 10000 4.1 100 11:37 12.05.2020
3161 Clouds 6 1018 56 10000 4.1 100 11:19 12.05.2020
3162 Clouds 6 1018 56 10000 4.1 100 10:55 12.05.2020
3163 Clouds 6 1018 56 10000 4.1 90 10:37 12.05.2020
3164 Clouds 6 1018 56 10000 4.1 90 10:18 12.05.2020
3165 Clouds 5 1018 55 10000 3.1 70 09:57 12.05.2020
3166 Clouds 4 1018 75 10000 2.1 80 09:38 12.05.2020
3167 Clouds 4 1018 75 10000 2.1 80 09:19 12.05.2020
3168 Fog 4 1018 80 10000 1 0 08:41 12.05.2020
3169 Fog 4 1018 80 10000 1 0 08:21 12.05.2020
3170 Fog 3 1018 93 10000 1 320 07:55 12.05.2020
3171 Fog 3 1017 93 10000 1.5 320 07:37 12.05.2020
3172 Clouds 2 1017 79 10000 1.5 330 07:18 12.05.2020
3173 Clouds 2 1017 100 10000 0.5 0 06:37 12.05.2020
3174 Clouds 2 1017 100 10000 0.5 0 06:19 12.05.2020
3175 Clouds 2 1017 100 10000 0.5 0 05:45 12.05.2020
3176 Clear 2 1016 93 10000 1 330 03:57 12.05.2020
3177 Clear 2 1016 93 10000 1 0 03:19 12.05.2020
3178 Clouds 3 1015 86 10000 2.1 350 02:27 12.05.2020
3179 Clouds 3 1015 93 10000 2.1 350 01:46 12.05.2020
3180 Clouds 4 1015 86 10000 3.6 340 00:59 12.05.2020
3181 Clouds 4 1014 86 10000 4.1 350 00:24 12.05.2020
3182 Clouds 4 1014 93 10000 3.6 340 23:57 11.05.2020
3183 Clouds 4 1013 93 10000 3.6 340 23:38 11.05.2020
3184 Clouds 4 1013 93 10000 3.6 340 23:20 11.05.2020
3185 Rain 4 1013 93 10000 4.1 350 22:58 11.05.2020
3186 Rain 4 1012 93 10000 5.7 360 22:40 11.05.2020
3187 Rain 4 1012 93 10000 5.7 360 22:19 11.05.2020
3188 Rain 4 1011 93 10000 4.6 360 21:55 11.05.2020
3189 Rain 4 1010 93 10000 5.1 360 21:37 11.05.2020
3190 Rain 4 1010 93 10000 5.1 360 21:18 11.05.2020
3191 Rain 4 1010 93 10000 6.7 350 20:57 11.05.2020
3192 Rain 4 1009 93 8000 5.7 350 20:38 11.05.2020
3193 Rain 4 1009 93 8000 5.7 350 20:18 11.05.2020
3194 Rain 5 1008 86 8000 8.2 350 19:54 11.05.2020
3195 Rain 5 1008 86 8000 8.2 350 19:36 11.05.2020
3196 Rain 5 1007 93 8000 6.7 340 19:18 11.05.2020
3197 Rain 5 1007 93 8000 6.7 340 18:54 11.05.2020
3198 Rain 5 1006 93 8000 6.2 320 18:36 11.05.2020
3199 Rain 5 1006 93 8000 6.2 320 18:18 11.05.2020
3200 Rain 6 1005 93 8000 6.2 310 17:40 11.05.2020
3201 Rain 6 1005 93 8000 6.2 310 17:22 11.05.2020
3202 Rain 6 1004 93 8000 8.2 340 16:58 11.05.2020
3203 Rain 6 1004 93 8000 7.7 340 16:38 11.05.2020
3204 Rain 6 1004 93 8000 7.7 340 16:20 11.05.2020
3205 Rain 6 1004 93 8000 5.7 330 15:57 11.05.2020
3206 Rain 6 1004 93 8000 6.7 330 15:38 11.05.2020
3207 Rain 6 1002 87 10000 6.7 350 15:18 11.05.2020
3208 Rain 7 1001 93 10000 5.7 350 14:41 11.05.2020
3209 Rain 7 1001 93 10000 5.7 350 14:22 11.05.2020
3210 Rain 7 1001 93 8000 6.2 340 13:59 11.05.2020
3211 Rain 7 1000 93 10000 8.2 340 13:40 11.05.2020
3212 Rain 7 1000 93 10000 8.2 340 13:18 11.05.2020
3213 Rain 7 999 93 10000 8.7 320 13:18 11.05.2020
3214 Rain 8 999 93 10000 8.7 320 12:56 11.05.2020
3215 Rain 8 999 93 10000 8.7 320 12:56 11.05.2020
3216 Rain 9 999 93 10000 7.7 330 12:38 11.05.2020
3217 Rain 10 999 93 10000 9.8 340 12:19 11.05.2020
3218 Rain 10 999 93 10000 9.8 340 11:55 11.05.2020
3219 Rain 11 999 100 10000 8.2 340 11:37 11.05.2020
3220 Rain 11 999 100 10000 8.2 340 11:18 11.05.2020
3221 Rain 12 999 93 10000 7.2 340 10:54 11.05.2020
3222 Rain 13 998 93 8000 5.7 350 10:36 11.05.2020
3223 Rain 13 998 93 8000 5.7 350 10:18 11.05.2020
3224 Rain 14 999 93 8000 4.1 340 09:42 11.05.2020
3225 Rain 14 999 93 8000 4.1 340 09:22 11.05.2020
3226 Rain 14 998 93 7000 4.6 350 08:58 11.05.2020
3227 Rain 14 998 93 7000 4.6 350 08:58 11.05.2020
3228 Rain 14 998 93 7000 4.1 360 08:38 11.05.2020
3229 Rain 14 998 93 7000 4.1 360 08:18 11.05.2020
3230 Rain 14 999 93 10000 3.6 340 07:50 11.05.2020
3231 Rain 14 999 93 10000 3.6 340 07:31 11.05.2020
3232 Rain 14 999 93 10000 3.1 330 06:53 11.05.2020
3233 Clouds 14 999 93 10000 1.5 310 06:19 11.05.2020
3234 Clouds 14 1000 93 10000 1 0 05:30 11.05.2020
3235 Clouds 14 1000 87 10000 1.5 300 04:43 11.05.2020
3236 Clouds 14 1000 87 10000 0.5 260 03:46 11.05.2020
3237 Rain 15 1002 87 10000 2.1 330 02:35 11.05.2020
3238 Clouds 16 1003 77 10000 1 0 01:46 11.05.2020
3239 Rain 17 1003 77 10000 2.1 300 00:54 11.05.2020
3240 Rain 16 1003 77 10000 1 290 00:24 11.05.2020
3241 Clouds 17 1003 77 10000 1 0 23:46 10.05.2020
3242 Clouds 17 1003 77 10000 1 0 23:27 10.05.2020
3243 Clouds 17 1003 77 10000 1.5 340 22:59 10.05.2020
3244 Clouds 18 1004 72 10000 0.5 0 22:41 10.05.2020
3245 Clouds 18 1004 72 10000 0.5 0 22:23 10.05.2020
3246 Clouds 19 1003 64 10000 0.5 0 21:46 10.05.2020
3247 Clouds 20 1003 64 10000 0.5 0 21:21 10.05.2020
3248 Clouds 21 1003 60 10000 1.5 150 20:59 10.05.2020
3249 Clouds 22 1003 56 10000 2.1 140 20:41 10.05.2020
3250 Clouds 22 1003 56 10000 2.1 140 20:23 10.05.2020
3251 Clouds 22 1003 49 10000 2.6 140 19:56 10.05.2020
3252 Rain 23 1004 47 10000 2.6 150 19:38 10.05.2020
3253 Rain 23 1004 47 10000 2.6 150 19:20 10.05.2020
3254 Rain 22 1004 49 10000 3.1 160 18:54 10.05.2020
3255 Rain 23 1004 49 10000 3.6 140 18:36 10.05.2020
3256 Rain 23 1004 49 10000 3.6 140 18:36 10.05.2020
3257 Rain 23 1004 49 10000 3.6 140 18:18 10.05.2020
3258 Rain 23 1004 49 10000 3.6 140 17:56 10.05.2020
3259 Rain 23 1005 47 10000 3.1 150 17:36 10.05.2020
3260 Clouds 23 1005 47 10000 3.1 150 17:18 10.05.2020
3261 Clouds 22 1005 47 10000 2.6 160 16:43 10.05.2020
3262 Clouds 22 1005 47 10000 2.6 160 16:43 10.05.2020
3263 Clouds 22 1005 47 10000 2.6 160 16:21 10.05.2020
3264 Clouds 22 1006 49 10000 2.6 0 15:58 10.05.2020
3265 Clouds 22 1006 44 10000 2.1 0 15:39 10.05.2020
3266 Clouds 23 1006 44 10000 2.1 0 15:20 10.05.2020
3267 Clouds 22 1006 49 10000 2.6 0 14:55 10.05.2020
3268 Clouds 22 1007 49 10000 2.1 210 14:37 10.05.2020
3269 Clouds 23 1007 49 10000 2.1 210 14:18 10.05.2020
3270 Clouds 22 1007 56 10000 2.6 190 13:57 10.05.2020
3271 Clouds 21 1007 64 10000 3.6 0 13:36 10.05.2020
3272 Clouds 22 1007 64 10000 3.6 0 13:18 10.05.2020
3273 Clouds 20 1008 68 10000 2.6 0 12:42 10.05.2020
3274 Clouds 20 1008 68 10000 2.6 0 12:23 10.05.2020
3275 Clouds 20 1008 77 10000 2.6 0 11:59 10.05.2020
3276 Clouds 18 1008 77 10000 2.1 0 11:40 10.05.2020
3277 Clouds 17 1008 77 10000 2.1 0 11:21 10.05.2020
3278 Clouds 17 1008 77 10000 2.6 200 10:58 10.05.2020
3279 Rain 16 1008 82 10000 0.5 0 10:40 10.05.2020
3280 Clouds 16 1008 82 10000 1.5 0 10:22 10.05.2020
3281 Clouds 15 1008 82 10000 1 0 09:42 10.05.2020
3282 Clouds 15 1008 82 10000 1 0 09:23 10.05.2020
3283 Rain 14 1008 87 10000 1.5 130 08:59 10.05.2020
3284 Rain 14 1008 87 10000 1.5 170 08:40 10.05.2020
3285 Rain 14 1008 87 10000 1.5 170 08:22 10.05.2020
3286 Rain 13 1008 82 10000 2.1 240 07:42 10.05.2020
3287 Rain 13 1008 82 10000 2.1 240 07:19 10.05.2020
3288 Rain 13 1008 82 10000 0.5 0 06:50 10.05.2020
3289 Rain 13 1008 82 10000 0.5 0 06:26 10.05.2020
3290 Clouds 13 1007 87 10000 0.5 0 05:46 10.05.2020
3291 Clouds 13 1007 82 10000 0.5 0 04:48 10.05.2020
3292 Clouds 13 1007 82 10000 0.5 0 04:29 10.05.2020
3293 Clouds 13 1007 82 10000 0.5 0 03:51 10.05.2020
3294 Clouds 13 1008 87 10000 1 0 03:30 10.05.2020
3295 Clouds 14 1009 76 10000 1 0 02:25 10.05.2020
3296 Clouds 14 1009 77 10000 1 0 01:59 10.05.2020
3297 Clouds 14 1009 76 10000 1.5 280 01:40 10.05.2020
3298 Clouds 15 1009 72 10000 1 270 01:19 10.05.2020
3299 Clouds 15 1009 72 10000 1 240 00:53 10.05.2020
3300 Clouds 15 1009 72 10000 1 240 00:22 10.05.2020
3301 Clouds 15 1009 72 10000 2.1 310 23:57 09.05.2020
3302 Clouds 15 1010 67 10000 0.5 0 23:38 09.05.2020
3303 Clouds 16 1010 63 10000 2.1 350 23:19 09.05.2020
3304 Clouds 17 1010 67 10000 2.6 330 22:41 09.05.2020
3305 Clouds 17 1010 67 10000 2.6 330 22:23 09.05.2020
3306 Clouds 17 1010 67 10000 2.6 330 21:58 09.05.2020
3307 Clouds 18 1010 63 10000 2.6 340 21:40 09.05.2020
3308 Clouds 18 1010 63 10000 2.6 340 21:21 09.05.2020
3309 Clouds 19 1010 59 10000 2.6 330 20:58 09.05.2020
3310 Clouds 19 1010 59 10000 3.1 330 20:38 09.05.2020
3311 Clouds 19 1010 59 10000 3.1 330 20:20 09.05.2020
3312 Clouds 20 1010 49 10000 4.6 350 19:56 09.05.2020
3313 Clouds 21 1010 49 10000 4.6 350 19:38 09.05.2020
3314 Rain 21 1010 49 10000 4.1 350 19:18 09.05.2020
3315 Rain 21 1010 46 10000 5.1 350 18:44 09.05.2020
3316 Rain 22 1010 46 10000 5.1 350 18:26 09.05.2020
3317 Rain 21 1011 49 10000 4.6 350 17:46 09.05.2020
3318 Rain 21 1011 49 10000 4.6 350 17:23 09.05.2020
3319 Rain 21 1011 49 10000 4.6 350 17:23 09.05.2020
3320 Rain 21 1011 52 10000 5.1 350 16:58 09.05.2020
3321 Rain 21 1011 52 10000 5.1 10 16:40 09.05.2020
3322 Clouds 21 1011 52 10000 5.1 10 16:19 09.05.2020
3323 Clouds 21 1012 49 10000 4.6 350 15:45 09.05.2020
3324 Clouds 22 1012 49 10000 4.6 350 15:26 09.05.2020
3325 Clouds 23 1012 46 10000 4.1 10 14:59 09.05.2020
3326 Clouds 22 1012 46 10000 4.1 360 14:40 09.05.2020
3327 Clouds 22 1012 46 10000 4.1 340 14:19 09.05.2020
3328 Clouds 21 1012 46 10000 4.1 340 13:56 09.05.2020
3329 Clouds 21 1013 46 10000 3.6 340 13:38 09.05.2020
3330 Clouds 21 1013 49 10000 3.6 360 13:19 09.05.2020
3331 Clouds 22 1013 49 10000 3.1 360 12:42 09.05.2020
3332 Clouds 22 1013 49 10000 3.1 360 12:22 09.05.2020
3333 Clouds 23 1013 43 10000 1.5 350 11:56 09.05.2020
3334 Clouds 23 1013 43 10000 1 0 11:37 09.05.2020
3335 Clouds 21 1013 43 10000 1 0 11:18 09.05.2020
3336 Clouds 20 1013 49 10000 1.5 130 10:43 09.05.2020
3337 Clouds 20 1013 49 10000 1.5 130 10:23 09.05.2020
3338 Clouds 19 1013 52 10000 1.5 0 09:57 09.05.2020
3339 Clouds 17 1013 63 10000 1 0 09:38 09.05.2020
3340 Clouds 17 1013 63 10000 1 0 09:19 09.05.2020
3341 Clouds 16 1014 63 10000 1 0 08:51 09.05.2020
3342 Clouds 15 1014 67 10000 0.5 0 08:31 09.05.2020
3343 Clouds 13 1013 76 10000 0.68 164 07:50 09.05.2020
3344 Clouds 13 1013 76 10000 1.57 184 07:31 09.05.2020
3345 Clouds 12 1013 81 10000 0.5 0 06:49 09.05.2020
3346 Clouds 12 1013 76 10000 1 0 06:24 09.05.2020
3347 Clouds 12 1014 76 10000 1 170 05:45 09.05.2020
3348 Clouds 13 1014 71 10000 1 0 03:59 09.05.2020
3349 Clouds 13 1014 71 10000 1 0 03:38 09.05.2020
3350 Clouds 14 1014 62 10000 1 310 02:42 09.05.2020
3351 Clouds 14 1014 62 10000 0.5 350 01:54 09.05.2020
3352 Clouds 14 1015 58 10000 1 280 01:24 09.05.2020
3353 Clouds 15 1015 62 10000 1.5 280 00:54 09.05.2020
3354 Clouds 15 1015 51 10000 1 0 00:36 09.05.2020
3355 Clouds 15 1015 54 10000 2.6 320 23:54 08.05.2020
3356 Clouds 16 1015 54 10000 1 300 23:36 08.05.2020
3357 Clouds 16 1015 54 10000 1 300 23:18 08.05.2020
3358 Clouds 18 1015 48 10000 1.5 90 22:42 08.05.2020
3359 Clouds 18 1015 48 10000 1.5 90 22:20 08.05.2020
3360 Clouds 19 1015 34 10000 1.5 340 21:59 08.05.2020
3361 Clouds 19 1015 37 10000 3.1 340 21:41 08.05.2020
3362 Clouds 20 1015 37 10000 3.1 340 21:19 08.05.2020
3363 Clouds 21 1015 37 10000 2.6 20 20:59 08.05.2020
3364 Clouds 21 1015 37 10000 2.6 10 20:40 08.05.2020
3365 Clouds 22 1015 37 10000 3.1 360 20:22 08.05.2020
3366 Clouds 22 1015 37 10000 3.1 360 19:46 08.05.2020
3367 Clouds 23 1015 33 10000 2.1 360 19:24 08.05.2020
3368 Clouds 23 1015 33 10000 2.1 360 19:24 08.05.2020
3369 Clouds 23 1015 33 10000 2.6 360 18:58 08.05.2020
3370 Clouds 24 1015 33 10000 3.6 350 18:40 08.05.2020
3371 Clouds 24 1015 33 10000 3.6 350 18:22 08.05.2020
3372 Clouds 24 1015 33 10000 3.6 360 17:42 08.05.2020
3373 Clouds 24 1016 33 10000 3.1 360 17:19 08.05.2020
3374 Clouds 24 1016 33 10000 3.6 0 16:48 08.05.2020
3375 Clouds 24 1016 33 10000 3.6 0 16:27 08.05.2020
3376 Clouds 24 1016 33 10000 2.1 0 15:59 08.05.2020
3377 Clouds 23 1016 33 10000 2.6 40 15:41 08.05.2020
3378 Clouds 23 1017 31 10000 2.1 360 15:19 08.05.2020
3379 Clouds 22 1017 31 10000 2.1 360 14:55 08.05.2020
3380 Clouds 23 1017 33 10000 2.6 40 14:37 08.05.2020
3381 Clouds 24 1017 33 10000 2.6 40 14:18 08.05.2020
3382 Clouds 22 1017 35 10000 1.5 90 13:41 08.05.2020
3383 Clouds 22 1017 35 10000 1.5 90 13:20 08.05.2020
3384 Clouds 22 1018 35 10000 2.1 0 12:55 08.05.2020
3385 Clouds 21 1018 37 10000 1.5 0 12:37 08.05.2020
3386 Clouds 21 1018 40 10000 1.5 0 12:18 08.05.2020
3387 Clouds 20 1018 40 10000 2.1 80 11:44 08.05.2020
3388 Clouds 20 1018 40 10000 2.1 80 11:23 08.05.2020
3389 Clouds 19 1018 42 10000 1.5 70 10:58 08.05.2020
3390 Clouds 19 1018 45 10000 2.1 80 10:40 08.05.2020
3391 Clouds 18 1018 45 10000 2.1 80 10:19 08.05.2020
3392 Clouds 17 1019 42 10000 1.5 80 09:56 08.05.2020
3393 Clouds 17 1019 51 10000 1 0 09:38 08.05.2020
3394 Clouds 16 1019 51 10000 1 0 09:18 08.05.2020
3395 Clouds 12 1019 71 10000 1 70 08:42 08.05.2020
3396 Clouds 12 1019 71 10000 1 70 08:21 08.05.2020
3397 Clouds 9 1019 76 10000 0.5 360 07:43 08.05.2020
3398 Clouds 11 1019 76 10000 0.5 360 07:43 08.05.2020
3399 Clouds 9 1019 76 10000 0.5 360 07:24 08.05.2020
3400 Clouds 8 1018 81 10000 1 0 06:51 08.05.2020
3401 Clouds 8 1018 70 10000 0.5 0 06:23 08.05.2020
3402 Clouds 8 1019 75 10000 0.5 220 05:51 08.05.2020
3403 Clouds 9 1019 76 10000 2.1 320 04:38 08.05.2020
3404 Clouds 11 1020 66 10000 1.5 290 02:34 08.05.2020
3405 Clouds 11 1020 66 10000 2.1 300 01:53 08.05.2020
3406 Clouds 11 1020 71 10000 1.5 290 01:28 08.05.2020
3407 Clouds 11 1020 71 10000 0.5 0 00:53 08.05.2020
3408 Clouds 11 1020 62 10000 1 0 00:30 08.05.2020
3409 Clouds 12 1020 62 10000 1.5 300 23:59 07.05.2020
3410 Clouds 12 1020 58 10000 1 0 23:40 07.05.2020
3411 Clouds 13 1020 58 10000 1 0 23:22 07.05.2020
3412 Clouds 13 1021 58 10000 2.1 260 22:56 07.05.2020
3413 Clouds 15 1021 44 10000 1 0 22:38 07.05.2020
3414 Clouds 15 1021 44 10000 1 0 22:38 07.05.2020
3415 Clear 15 1021 44 10000 1 0 22:19 07.05.2020
3416 Clear 16 1020 42 10000 1.5 350 21:55 07.05.2020
3417 Clear 16 1020 48 10000 0.5 70 21:36 07.05.2020
3418 Clouds 18 1020 32 10000 1 0 21:18 07.05.2020
3419 Clouds 20 1020 28 10000 1.5 70 20:42 07.05.2020
3420 Clear 19 1020 28 10000 1.5 70 20:23 07.05.2020
3421 Clear 21 1020 24 10000 1 0 19:58 07.05.2020
3422 Clear 20 1020 26 10000 1.5 80 19:38 07.05.2020
3423 Clear 20 1020 26 10000 2.1 80 19:20 07.05.2020
3424 Clear 20 1021 26 10000 2.1 90 18:45 07.05.2020
3425 Clear 21 1021 26 10000 2.1 90 18:26 07.05.2020
3426 Clear 21 1021 26 10000 2.1 0 17:57 07.05.2020
3427 Clear 20 1021 28 10000 1 0 17:36 07.05.2020
3428 Clear 21 1021 28 10000 1 0 17:18 07.05.2020
3429 Clear 21 1022 28 10000 1.5 0 16:40 07.05.2020
3430 Clear 21 1022 28 10000 1.5 0 16:18 07.05.2020
3431 Clear 20 1022 32 10000 1 0 15:56 07.05.2020
3432 Clear 20 1022 32 10000 1 0 15:37 07.05.2020
3433 Clear 20 1022 32 10000 1 0 15:18 07.05.2020
3434 Clear 20 1023 30 10000 2.1 320 14:45 07.05.2020
3435 Clear 20 1023 30 10000 2.1 320 14:22 07.05.2020
3436 Clear 20 1023 30 10000 2.1 320 14:22 07.05.2020
3437 Clear 19 1023 34 10000 2.1 0 13:54 07.05.2020
3438 Clear 19 1023 36 10000 1.5 0 13:36 07.05.2020
3439 Clear 19 1023 36 10000 1.5 0 13:18 07.05.2020
3440 Clear 17 1023 33 10000 3.1 60 12:39 07.05.2020
3441 Clear 17 1023 38 10000 2.1 70 12:19 07.05.2020
3442 Clear 16 1024 41 10000 2.1 80 11:39 07.05.2020
3443 Clear 16 1024 41 10000 2.1 80 11:21 07.05.2020
3444 Clear 15 1024 54 10000 1 0 10:55 07.05.2020
3445 Clear 14 1024 54 10000 1.5 70 10:37 07.05.2020
3446 Clear 13 1024 57 10000 2.1 80 10:18 07.05.2020
3447 Clear 9 1025 66 10000 1.5 70 09:39 07.05.2020
3448 Clear 8 1025 66 10000 1.5 70 09:19 07.05.2020
3449 Clear 7 1025 70 10000 0.5 90 08:45 07.05.2020
3450 Clear 7 1025 70 10000 0.5 90 08:23 07.05.2020
3451 Clear 6 1025 75 10000 0.5 0 07:58 07.05.2020
3452 Clear 4 1025 80 10000 0.5 0 07:40 07.05.2020
3453 Clear 4 1025 80 10000 0.5 0 07:20 07.05.2020
3454 Clear 3 1025 93 10000 1 90 06:37 07.05.2020
3455 Clear 3 1025 86 10000 0.5 0 06:19 07.05.2020
3456 Clear 4 1025 73 10000 1 40 04:41 07.05.2020
3457 Clear 4 1024 80 10000 0.5 0 03:40 07.05.2020
3458 Clear 4 1024 80 10000 0.5 0 03:18 07.05.2020
3459 Clear 5 1024 75 10000 1 0 02:36 07.05.2020
3460 Clear 6 1024 70 10000 2.1 290 01:38 07.05.2020
3461 Clear 6 1024 70 10000 2.1 290 01:20 07.05.2020
3462 Clear 6 1024 61 10000 1.5 300 00:43 07.05.2020
3463 Clear 7 1024 67 10000 1 0 00:23 07.05.2020
3464 Clear 7 1024 67 10000 1 0 23:45 06.05.2020
3465 Clear 8 1024 65 10000 2.1 330 23:23 06.05.2020
3466 Clear 9 1024 65 10000 1.5 340 22:56 06.05.2020
3467 Clear 9 1024 65 10000 2.6 320 22:38 06.05.2020
3468 Clear 9 1024 65 10000 2.6 320 22:38 06.05.2020
3469 Clear 10 1023 61 10000 2.6 360 22:19 06.05.2020
3470 Clear 10 1023 61 10000 2.6 360 21:56 06.05.2020
3471 Clear 10 1023 61 10000 3.1 360 21:37 06.05.2020
3472 Clear 13 1023 56 10000 4.1 360 21:18 06.05.2020
3473 Clear 14 1023 35 10000 3.6 350 20:42 06.05.2020
3474 Clear 14 1023 35 10000 3.6 350 20:22 06.05.2020
3475 Clear 14 1023 35 10000 3.6 350 20:22 06.05.2020
3476 Clear 15 1022 33 10000 4.1 350 19:57 06.05.2020
3477 Clear 15 1022 30 10000 2.6 360 19:38 06.05.2020
3478 Clear 15 1022 30 10000 2.6 360 19:19 06.05.2020
3479 Clear 16 1022 31 10000 3.1 20 18:58 06.05.2020
3480 Clear 16 1022 29 10000 2.1 0 18:38 06.05.2020
3481 Clear 16 1022 29 10000 2.1 0 18:20 06.05.2020
3482 Clear 16 1022 29 10000 2.1 0 18:20 06.05.2020
3483 Clear 15 1022 26 10000 2.1 0 17:58 06.05.2020
3484 Clear 16 1022 25 10000 2.6 40 17:39 06.05.2020
3485 Clear 16 1022 25 10000 2.6 40 17:20 06.05.2020
3486 Clear 16 1022 23 10000 3.1 30 16:58 06.05.2020
3487 Clear 16 1022 25 10000 2.6 30 16:40 06.05.2020
3488 Clear 15 1022 25 10000 2.6 30 16:20 06.05.2020
3489 Clear 16 1022 28 10000 3.1 60 15:58 06.05.2020
3490 Clear 15 1022 26 10000 1.5 0 15:40 06.05.2020
3491 Clear 15 1022 26 10000 1.5 0 15:20 06.05.2020
3492 Clear 15 1023 26 10000 4.1 110 14:42 06.05.2020
3493 Clear 15 1023 26 10000 4.1 110 14:42 06.05.2020
3494 Clouds 15 1022 33 10000 3.1 0 14:20 06.05.2020
3495 Clouds 15 1022 33 10000 3.1 0 13:59 06.05.2020
3496 Clouds 14 1023 35 10000 4.1 0 13:41 06.05.2020
3497 Clouds 14 1023 37 10000 3.1 0 13:22 06.05.2020
3498 Clouds 14 1023 37 10000 3.1 0 12:56 06.05.2020
3499 Clouds 13 1023 34 10000 2.6 100 12:37 06.05.2020
3500 Clouds 13 1023 40 10000 3.1 100 12:19 06.05.2020
3501 Clouds 12 1023 40 10000 3.1 80 11:40 06.05.2020
3502 Clouds 12 1023 40 10000 3.1 80 11:21 06.05.2020
3503 Clouds 11 1023 43 10000 4.6 90 10:57 06.05.2020
3504 Clouds 11 1023 41 10000 4.6 90 10:38 06.05.2020
3505 Clouds 12 1023 46 10000 4.6 90 10:19 06.05.2020
3506 Clouds 10 1023 46 10000 2.6 70 09:44 06.05.2020
3507 Clouds 8 1023 51 10000 2.6 70 09:23 06.05.2020
3508 Clouds 7 1023 56 10000 0.5 0 08:49 06.05.2020
3509 Clouds 4 1022 65 10000 1 0 08:24 06.05.2020
3510 Clouds 4 1022 65 10000 1 0 07:59 06.05.2020
3511 Clouds 4 1022 69 10000 1 0 07:40 06.05.2020
3512 Clouds 4 1022 69 10000 1 0 07:21 06.05.2020
3513 Clouds 4 1021 69 10000 0.5 0 06:53 06.05.2020
3514 Clear 3 1021 69 10000 0.5 0 06:22 06.05.2020
3515 Clear 4 1021 69 10000 1 40 05:55 06.05.2020
3516 Clear 4 1021 69 10000 1 40 05:37 06.05.2020
3517 Clear 4 1021 65 10000 0.5 0 04:38 06.05.2020
3518 Clear 5 1021 63 10000 2.1 60 03:44 06.05.2020
3519 Clear 5 1021 61 10000 2.1 60 03:22 06.05.2020
3520 Clear 6 1021 59 10000 4.1 40 02:30 06.05.2020
3521 Clear 6 1020 65 10000 2.6 30 01:55 06.05.2020
3522 Clear 6 1020 65 10000 2.6 30 01:33 06.05.2020
3523 Clear 7 1020 75 10000 1 0 00:54 06.05.2020
3524 Clear 7 1020 75 10000 4.1 340 00:27 06.05.2020
3525 Clear 8 1019 61 10000 0.5 0 23:57 05.05.2020
3526 Clear 8 1019 66 10000 0.5 0 23:39 05.05.2020
3527 Clear 8 1019 57 10000 0.5 90 23:19 05.05.2020
3528 Clear 8 1019 57 10000 0.5 90 23:19 05.05.2020
3529 Clear 9 1019 57 10000 1.5 40 22:42 05.05.2020
3530 Clear 9 1019 57 10000 1.5 40 22:20 05.05.2020
3531 Clear 9 1018 53 10000 3.1 30 22:20 05.05.2020
3532 Clear 9 1018 53 10000 3.1 30 21:58 05.05.2020
3533 Clouds 10 1018 54 10000 3.1 360 21:40 05.05.2020
3534 Clouds 11 1018 54 10000 3.1 360 21:21 05.05.2020
3535 Clouds 13 1017 50 10000 3.1 350 20:58 05.05.2020
3536 Clouds 14 1017 50 10000 3.6 10 20:39 05.05.2020
3537 Clouds 14 1017 44 10000 3.1 20 20:19 05.05.2020
3538 Clouds 14 1017 44 10000 3.1 20 19:57 05.05.2020
3539 Clouds 15 1017 38 10000 2.1 40 19:37 05.05.2020
3540 Clouds 15 1017 41 10000 2.1 40 19:18 05.05.2020
3541 Clouds 15 1017 41 10000 2.1 40 18:55 05.05.2020
3542 Clouds 15 1017 44 10000 2.6 40 18:37 05.05.2020
3543 Clouds 15 1017 41 10000 2.6 10 18:18 05.05.2020
3544 Clouds 16 1017 36 10000 2.1 360 17:42 05.05.2020
3545 Clouds 16 1017 36 10000 2.1 360 17:24 05.05.2020
3546 Clouds 15 1017 36 10000 2.6 340 16:58 05.05.2020
3547 Clouds 16 1017 41 10000 1 0 16:37 05.05.2020
3548 Clouds 15 1017 41 10000 1 0 16:18 05.05.2020
3549 Clouds 15 1017 41 10000 1.5 40 15:56 05.05.2020
3550 Clouds 15 1017 44 10000 2.1 360 15:38 05.05.2020
3551 Clouds 15 1017 44 10000 2.1 360 15:19 05.05.2020
3552 Clouds 14 1017 50 10000 2.1 0 14:43 05.05.2020
3553 Clouds 14 1017 50 10000 2.1 0 14:25 05.05.2020
3554 Clouds 14 1017 50 10000 2.1 0 13:59 05.05.2020
3555 Clouds 14 1017 54 10000 2.1 0 13:41 05.05.2020
3556 Clouds 13 1017 58 10000 2.1 80 13:21 05.05.2020
3557 Clouds 13 1017 58 10000 2.1 80 12:59 05.05.2020
3558 Clouds 13 1017 58 10000 3.1 60 12:40 05.05.2020
3559 Clouds 12 1017 58 10000 3.1 60 12:20 05.05.2020
3560 Clouds 12 1017 66 10000 3.1 50 11:59 05.05.2020
3561 Clouds 12 1017 62 10000 3.1 70 11:40 05.05.2020
3562 Clouds 11 1017 62 10000 3.1 70 11:19 05.05.2020
3563 Clouds 11 1017 61 10000 4.6 40 10:55 05.05.2020
3564 Clouds 10 1017 61 10000 4.6 40 10:36 05.05.2020
3565 Clouds 10 1017 61 10000 4.6 40 10:18 05.05.2020
3566 Clouds 10 1017 76 10000 3.6 50 09:44 05.05.2020
3567 Clouds 8 1017 76 10000 3.6 50 09:26 05.05.2020
3568 Clouds 8 1017 76 10000 4.1 30 08:58 05.05.2020
3569 Clouds 8 1017 76 10000 3.1 30 08:38 05.05.2020
3570 Clouds 8 1017 76 10000 3.1 30 08:18 05.05.2020
3571 Clouds 7 1017 81 10000 2.6 30 07:43 05.05.2020
3572 Clouds 8 1016 81 10000 2.6 40 07:21 05.05.2020
3573 Clouds 7 1016 81 10000 2.6 40 06:54 05.05.2020
3574 Clouds 7 1016 81 10000 2.6 40 06:31 05.05.2020
3575 Clouds 8 1017 81 10000 2.1 30 05:53 05.05.2020
3576 Clouds 8 1017 81 10000 3.1 20 04:58 05.05.2020
3577 Clouds 9 1017 87 10000 3.1 350 02:39 05.05.2020
3578 Clouds 9 1017 81 10000 4.1 350 00:56 05.05.2020
3579 Clouds 10 1017 81 10000 4.1 340 00:33 05.05.2020
3580 Clouds 11 1017 81 10000 3.1 340 23:55 04.05.2020
3581 Clouds 11 1017 81 10000 2.6 350 23:36 04.05.2020
3582 Clouds 11 1017 87 10000 3.1 350 23:18 04.05.2020
3583 Clouds 12 1017 87 10000 2.1 360 22:42 04.05.2020
3584 Clouds 12 1016 82 10000 3.6 10 22:22 04.05.2020
3585 Clouds 12 1016 82 10000 3.6 10 21:59 04.05.2020
3586 Rain 12 1016 87 10000 2.1 350 21:40 04.05.2020
3587 Rain 12 1016 87 10000 2.1 350 21:40 04.05.2020
3588 Rain 12 1016 87 10000 2.1 350 21:19 04.05.2020
3589 Rain 12 1016 87 10000 2.1 350 21:19 04.05.2020
3590 Rain 13 1016 76 10000 4.1 350 20:41 04.05.2020
3591 Rain 14 1016 76 10000 4.1 350 20:21 04.05.2020
3592 Clouds 14 1015 76 10000 6.7 360 19:58 04.05.2020
3593 Clouds 15 1015 72 10000 7.2 350 19:40 04.05.2020
3594 Clouds 15 1015 72 10000 7.2 350 19:40 04.05.2020
3595 Clouds 16 1015 63 10000 5.7 320 19:18 04.05.2020
3596 Clouds 17 1015 59 10000 6.7 310 18:39 04.05.2020
3597 Clouds 17 1015 59 10000 6.7 310 18:20 04.05.2020
3598 Clouds 17 1015 63 10000 5.7 310 17:57 04.05.2020
3599 Clouds 18 1015 68 10000 6.7 310 17:39 04.05.2020
3600 Clouds 18 1015 68 10000 6.7 310 17:21 04.05.2020
3601 Clouds 17 1015 77 10000 5.1 320 16:59 04.05.2020
3602 Rain 16 1015 63 10000 3.6 310 16:40 04.05.2020
3603 Rain 16 1015 63 10000 3.6 310 16:19 04.05.2020
3604 Clouds 18 1015 63 10000 4.1 0 15:42 04.05.2020
3605 Clouds 18 1015 63 10000 4.1 0 15:22 04.05.2020
3606 Clouds 19 1016 63 10000 2.1 280 14:54 04.05.2020
3607 Clouds 18 1016 67 10000 3.1 0 14:54 04.05.2020
3608 Clouds 18 1016 67 10000 3.1 0 14:54 04.05.2020
3609 Clouds 18 1016 67 10000 3.1 0 14:54 04.05.2020
3610 Clouds 18 1016 67 10000 3.1 0 14:54 04.05.2020
3611 Clouds 18 1016 63 10000 2.1 280 14:27 04.05.2020
3612 Clouds 16 1017 77 10000 2.1 200 13:32 04.05.2020
3613 Clouds 16 1017 77 10000 2.1 200 13:31 04.05.2020
3614 Clouds 16 1017 77 10000 2.1 200 13:31 04.05.2020
3615 Clouds 16 1017 77 10000 2.1 200 13:31 04.05.2020
3616 Clouds 16 1017 77 10000 2.1 200 13:31 04.05.2020
3617 Clouds 14 1017 93 10000 2.1 190 12:44 04.05.2020
3618 Clouds 14 1017 93 10000 2.1 190 12:44 04.05.2020
3619 Clouds 14 1017 93 10000 2.1 190 12:44 04.05.2020
3620 Clouds 14 1017 93 10000 2.1 190 12:44 04.05.2020
3621 Clouds 14 1017 93 10000 2.1 190 12:44 04.05.2020
3622 Drizzle 13 1017 87 4800 1.5 170 11:29 04.05.2020
3623 Drizzle 13 1017 87 4800 1.5 170 11:29 04.05.2020
3624 Drizzle 13 1017 87 4800 1.5 170 11:29 04.05.2020
3625 Drizzle 13 1017 87 4800 1.5 170 11:29 04.05.2020
3626 Drizzle 13 1017 87 4800 1.5 170 11:29 04.05.2020
3627 Rain 10 1017 87 10000 1 0 09:31 04.05.2020
3628 Clouds 8 1017 87 10000 1.5 90 07:58 04.05.2020
3629 Clouds 8 1017 87 10000 0.5 0 07:38 04.05.2020
3630 Clouds 6 1017 81 10000 0.5 0 06:26 04.05.2020
3631 Clouds 6 1017 81 10000 0.5 0 06:25 04.05.2020
3632 Clouds 6 1017 81 10000 0.5 0 06:25 04.05.2020
3633 Clouds 7 1017 75 10000 1 0 04:53 04.05.2020
3634 Clouds 8 1017 76 10000 2.1 280 03:18 04.05.2020
3635 Clouds 8 1017 70 10000 1 240 02:30 04.05.2020
3636 Clouds 9 1017 58 10000 0.5 0 00:36 04.05.2020
3637 Clouds 9 1017 58 10000 0.5 0 00:36 04.05.2020
3638 Clouds 9 1018 58 10000 2.1 300 23:45 03.05.2020
3639 Clouds 9 1018 58 10000 2.1 300 23:24 03.05.2020
3640 Clouds 10 1018 54 10000 2.1 330 22:56 03.05.2020
3641 Clouds 10 1018 50 10000 2.1 330 22:38 03.05.2020
3642 Clouds 11 1017 47 10000 2.1 10 22:18 03.05.2020
3643 Clouds 13 1017 47 10000 2.1 350 21:41 03.05.2020
3644 Clouds 14 1017 44 10000 3.6 360 21:20 03.05.2020
3645 Clouds 15 1017 41 10000 2.1 350 20:47 03.05.2020
3646 Clouds 15 1017 41 10000 2.1 350 20:23 03.05.2020
3647 Clouds 16 1017 38 10000 3.1 290 19:55 03.05.2020
3648 Clouds 16 1017 38 10000 3.1 290 19:55 03.05.2020
3649 Clouds 16 1017 38 10000 3.1 290 19:55 03.05.2020
3650 Clouds 17 1017 39 10000 2.6 260 19:36 03.05.2020
3651 Clouds 17 1017 39 10000 2.6 260 19:36 03.05.2020
3652 Clouds 17 1017 36 10000 1.5 200 19:18 03.05.2020
3653 Clouds 17 1017 33 10000 2.1 260 18:39 03.05.2020
3654 Clouds 17 1017 33 10000 2.1 260 18:39 03.05.2020
3655 Clouds 17 1017 33 10000 1 0 18:20 03.05.2020
3656 Clouds 17 1017 36 10000 1.5 0 17:42 03.05.2020
3657 Clouds 17 1017 36 10000 1.5 0 17:22 03.05.2020
3658 Clouds 17 1017 33 10000 2.1 350 16:57 03.05.2020
3659 Clouds 17 1018 33 10000 2.1 340 16:39 03.05.2020
3660 Clouds 17 1018 33 10000 2.1 340 16:18 03.05.2020
3661 Clouds 16 1018 36 10000 1.5 0 15:55 03.05.2020
3662 Clouds 17 1018 36 10000 2.1 0 15:37 03.05.2020
3663 Clouds 17 1018 36 10000 2.1 0 15:37 03.05.2020
3664 Clouds 17 1018 36 10000 2.1 0 15:37 03.05.2020
3665 Clouds 17 1018 36 10000 2.1 0 15:19 03.05.2020
3666 Clouds 15 1019 38 10000 2.6 90 14:43 03.05.2020
3667 Clouds 16 1019 38 10000 2.6 90 14:22 03.05.2020
3668 Clouds 15 1019 41 10000 1.5 0 14:22 03.05.2020
3669 Clouds 16 1019 41 10000 1.5 0 14:02 03.05.2020
3670 Clouds 15 1019 41 10000 2.1 0 13:36 03.05.2020
3671 Clouds 15 1019 41 10000 2.1 0 13:36 03.05.2020
3672 Clouds 15 1019 41 10000 2.1 0 13:36 03.05.2020
3673 Clouds 14 1019 35 10000 1 0 12:48 03.05.2020
3674 Clouds 14 1019 41 10000 2.1 200 12:26 03.05.2020
3675 Clouds 14 1019 47 10000 1 0 11:57 03.05.2020
3676 Clouds 13 1019 50 10000 1.5 0 11:39 03.05.2020
3677 Clouds 13 1019 54 10000 2.1 0 11:20 03.05.2020
3678 Clouds 13 1019 54 10000 2.1 0 10:54 03.05.2020
3679 Clouds 12 1019 58 10000 1.5 0 10:25 03.05.2020
3680 Clouds 9 1019 62 10000 1 0 09:41 03.05.2020
3681 Clear 7 1019 75 10000 1 0 08:59 03.05.2020
3682 Clear 7 1019 75 10000 1 0 08:59 03.05.2020
3683 Clear 7 1019 75 10000 1 0 08:35 03.05.2020
3684 Clear 4 1018 93 10000 1 140 07:44 03.05.2020
3685 Clear 5 1018 93 10000 1 140 07:44 03.05.2020
3686 Clear 4 1018 93 10000 1 140 07:44 03.05.2020
3687 Clear 5 1018 93 10000 1 140 07:44 03.05.2020
3688 Clear 5 1018 93 10000 1 140 07:44 03.05.2020
3689 Clear 4 1018 93 10000 0.5 330 06:44 03.05.2020
3690 Clear 5 1017 93 10000 1 0 05:56 03.05.2020
3691 Clear 5 1017 93 10000 0.5 0 05:37 03.05.2020
3692 Clear 6 1017 86 10000 1 0 04:28 03.05.2020
3693 Clear 6 1017 86 10000 1 0 03:41 03.05.2020
3694 Clouds 6 1016 86 10000 2.6 260 02:32 03.05.2020
3695 Clear 6 1016 86 10000 1.5 250 01:59 03.05.2020
3696 Clouds 6 1016 80 10000 1 210 01:39 03.05.2020
3697 Clear 6 1016 80 10000 0.5 0 01:21 03.05.2020
3698 Clear 6 1016 80 10000 2.1 260 00:38 03.05.2020
3699 Clear 6 1016 80 10000 2.1 260 00:20 03.05.2020
3700 Clear 6 1016 80 10000 2.1 260 00:20 03.05.2020
3701 Clear 6 1015 80 10000 1 0 23:46 02.05.2020
3702 Clear 6 1015 80 10000 1 0 23:28 02.05.2020
3703 Clear 7 1015 70 10000 1.5 250 22:57 02.05.2020
3704 Clouds 7 1014 75 10000 2.1 250 22:39 02.05.2020
3705 Clouds 8 1014 75 10000 2.1 250 22:20 02.05.2020
3706 Clouds 9 1013 65 10000 4.1 270 21:43 02.05.2020
3707 Clouds 9 1013 65 10000 4.1 270 21:20 02.05.2020
3708 Clouds 9 1013 53 10000 5.1 280 20:58 02.05.2020
3709 Clouds 10 1012 57 10000 4.6 290 20:39 02.05.2020
3710 Clouds 9 1012 57 10000 4.6 290 20:20 02.05.2020
3711 Clouds 9 1012 53 10000 6.7 290 19:59 02.05.2020
3712 Clouds 10 1012 57 10000 5.7 280 19:39 02.05.2020
3713 Clouds 10 1012 57 10000 5.7 290 19:20 02.05.2020
3714 Clouds 10 1012 57 10000 5.7 290 18:57 02.05.2020
3715 Rain 10 1011 62 10000 9.8 320 18:38 02.05.2020
3716 Clouds 10 1010 43 10000 8.7 300 18:20 02.05.2020
3717 Clouds 10 1010 43 10000 8.7 300 17:57 02.05.2020
3718 Clouds 11 1010 47 10000 4.1 260 17:38 02.05.2020
3719 Clouds 12 1010 58 10000 5.1 240 17:19 02.05.2020
3720 Clouds 12 1010 58 10000 5.1 240 16:56 02.05.2020
3721 Rain 12 1010 58 10000 7.7 250 16:38 02.05.2020
3722 Rain 12 1010 58 10000 7.7 250 16:20 02.05.2020
3723 Rain 13 1010 62 10000 10.8 270 15:41 02.05.2020
3724 Rain 13 1010 62 10000 10.8 270 15:20 02.05.2020
3725 Rain 12 1010 71 10000 8.2 290 14:44 02.05.2020
3726 Rain 12 1010 71 10000 8.2 290 14:26 02.05.2020
3727 Rain 12 1010 66 10000 7.2 280 13:59 02.05.2020
3728 Clouds 13 1010 58 10000 6.2 250 13:39 02.05.2020
3729 Clouds 13 1010 58 10000 6.2 250 13:19 02.05.2020
3730 Clouds 12 1010 66 10000 5.1 210 12:42 02.05.2020
3731 Clouds 12 1010 66 10000 5.1 210 12:23 02.05.2020
3732 Clouds 12 1011 71 10000 3.6 240 11:58 02.05.2020
3733 Clouds 12 1011 62 10000 5.7 240 11:39 02.05.2020
3734 Clouds 12 1011 62 10000 5.7 240 11:21 02.05.2020
3735 Clouds 12 1010 58 10000 5.7 250 10:56 02.05.2020
3736 Clouds 12 1010 66 10000 5.1 250 10:38 02.05.2020
3737 Clouds 12 1010 66 10000 5.1 250 10:20 02.05.2020
3738 Clouds 12 1010 66 10000 5.1 250 10:20 02.05.2020
3739 Clouds 11 1011 66 10000 4.6 240 09:55 02.05.2020
3740 Clouds 11 1011 71 10000 3.6 220 09:36 02.05.2020
3741 Clouds 8 1010 76 10000 3.6 220 09:18 02.05.2020
3742 Clouds 8 1010 81 10000 3.1 220 08:45 02.05.2020
3743 Clouds 8 1010 81 10000 3.1 220 08:25 02.05.2020
3744 Clouds 7 1010 87 10000 2.1 240 07:47 02.05.2020
3745 Clouds 6 1010 87 10000 2.1 240 07:28 02.05.2020
3746 Clouds 6 1010 87 10000 1.5 220 06:50 02.05.2020
3747 Clouds 7 1009 81 10000 3.1 240 05:29 02.05.2020
3748 Clouds 7 1009 87 10000 3.1 240 04:47 02.05.2020
3749 Clear 8 1008 81 10000 2.6 230 04:23 02.05.2020
3750 Rain 8 1007 87 10000 3.1 240 02:44 02.05.2020
3751 Rain 8 1007 87 10000 3.1 240 02:23 02.05.2020
3752 Rain 8 1007 87 10000 3.6 250 01:48 02.05.2020
3753 Clouds 8 1006 81 10000 1.5 230 00:46 02.05.2020
3754 Clouds 8 1006 81 10000 1.5 230 00:28 02.05.2020
3755 Clouds 8 1006 81 10000 1 0 23:58 01.05.2020
3756 Clouds 8 1006 81 10000 1 0 23:39 01.05.2020
3757 Clouds 8 1006 81 10000 1 0 23:20 01.05.2020
3758 Clouds 8 1006 81 10000 2.1 190 22:55 01.05.2020
3759 Rain 9 1006 76 10000 2.6 190 22:37 01.05.2020
3760 Rain 9 1006 76 10000 2.6 190 22:18 01.05.2020
3761 Rain 9 1006 76 10000 2.1 180 22:18 01.05.2020
3762 Clouds 8 1006 87 10000 1.5 150 21:55 01.05.2020
3763 Clouds 8 1006 87 10000 1.5 150 21:37 01.05.2020
3764 Clouds 8 1006 87 10000 1.5 150 21:18 01.05.2020
3765 Clouds 9 1005 81 10000 2.1 140 20:55 01.05.2020
3766 Clouds 9 1005 71 10000 1.5 190 20:37 01.05.2020
3767 Clouds 9 1005 71 10000 1.5 190 20:37 01.05.2020
3768 Clouds 9 1005 71 10000 1.5 190 20:18 01.05.2020
3769 Rain 9 1005 81 10000 3.6 280 19:41 01.05.2020
3770 Rain 9 1005 76 10000 2.6 310 19:22 01.05.2020
3771 Rain 9 1005 76 10000 2.6 310 18:57 01.05.2020
3772 Clouds 10 1005 81 10000 3.1 330 18:39 01.05.2020
3773 Clouds 10 1005 81 10000 3.1 330 18:20 01.05.2020
3774 Clouds 10 1005 87 10000 5.1 320 17:57 01.05.2020
3775 Rain 10 1005 71 10000 9.3 300 17:38 01.05.2020
3776 Rain 10 1005 71 10000 9.3 300 17:20 01.05.2020
3777 Rain 12 1004 54 10000 5.7 230 16:55 01.05.2020
3778 Clouds 14 1004 51 10000 5.7 220 16:37 01.05.2020
3779 Clouds 15 1004 48 10000 6.7 220 16:18 01.05.2020
3780 Clouds 14 1004 50 10000 5.1 220 15:42 01.05.2020
3781 Clouds 14 1004 50 10000 5.1 220 15:24 01.05.2020
3782 Rain 15 1004 50 0 7.2 210 14:59 01.05.2020
3783 Clouds 15 1004 50 10000 5.1 230 14:40 01.05.2020
3784 Clouds 15 1004 50 10000 5.1 230 14:22 01.05.2020
3785 Clouds 15 1005 54 10000 6.7 210 13:41 01.05.2020
3786 Clouds 15 1005 54 10000 6.7 210 13:23 01.05.2020
3787 Clouds 15 1005 54 10000 6.7 210 13:22 01.05.2020
3788 Rain 15 1005 54 10000 5.7 210 12:58 01.05.2020
3789 Rain 14 1005 58 10000 5.7 220 12:40 01.05.2020
3790 Clouds 13 1005 54 10000 5.7 240 12:20 01.05.2020
3791 Clouds 13 1005 54 10000 5.7 240 11:59 01.05.2020
3792 Clouds 14 1005 54 10000 5.7 240 11:40 01.05.2020
3793 Clouds 13 1005 58 10000 5.7 230 11:19 01.05.2020
3794 Clouds 13 1006 62 10000 4.1 220 10:41 01.05.2020
3795 Clouds 13 1006 62 10000 4.1 220 10:20 01.05.2020
3796 Clouds 13 1006 66 10000 3.1 220 09:59 01.05.2020
3797 Clouds 12 1006 71 10000 2.1 0 09:41 01.05.2020
3798 Clouds 10 1006 71 10000 2.1 140 09:19 01.05.2020
3799 Clouds 9 1006 76 10000 1 0 08:46 01.05.2020
3800 Clouds 9 1006 76 10000 1 0 08:28 01.05.2020
3801 Clouds 9 1006 81 10000 0.5 0 07:58 01.05.2020
3802 Clouds 8 1006 93 10000 1 0 07:39 01.05.2020
3803 Clouds 7 1006 100 10000 1 0 07:18 01.05.2020
3804 Clouds 8 1006 87 10000 1 0 06:27 01.05.2020
3805 Rain 8 1006 87 10000 2.6 0 05:21 01.05.2020
3806 Rain 9 1006 71 10000 1.5 190 03:44 01.05.2020
3807 Clouds 9 1006 71 10000 2.6 190 02:53 01.05.2020
3808 Clouds 9 1007 71 10000 2.1 210 02:35 01.05.2020
3809 Clouds 9 1007 66 10000 2.6 190 01:53 01.05.2020
3810 Rain 9 1007 66 10000 3.1 210 01:27 01.05.2020
3811 Rain 9 1007 71 10000 2.1 200 00:40 01.05.2020
3812 Rain 9 1007 71 10000 2.1 200 00:21 01.05.2020
3813 Rain 10 1006 66 10000 3.6 200 23:57 30.04.2020
3814 Clouds 9 1007 71 10000 2.1 190 23:39 30.04.2020
3815 Clouds 10 1007 71 10000 2.1 190 23:21 30.04.2020
3816 Clouds 10 1007 71 10000 2.6 200 22:59 30.04.2020
3817 Clouds 10 1007 71 10000 3.1 210 22:39 30.04.2020
3818 Clouds 10 1006 66 10000 4.6 220 22:19 30.04.2020
3819 Clouds 10 1006 66 10000 4.6 220 21:55 30.04.2020
3820 Clouds 12 1006 66 10000 4.1 210 21:36 30.04.2020
3821 Clouds 12 1006 66 10000 4.1 210 21:18 30.04.2020
3822 Clouds 13 1005 66 10000 4.6 210 20:41 30.04.2020
3823 Clouds 13 1005 66 10000 4.6 210 20:19 30.04.2020
3824 Clouds 13 1005 66 10000 4.6 210 20:19 30.04.2020
3825 Clouds 13 1005 66 10000 4.6 210 19:47 30.04.2020
3826 Rain 13 1005 66 10000 4.6 190 19:27 30.04.2020
3827 Clouds 14 1005 58 10000 4.6 200 18:59 30.04.2020
3828 Clouds 14 1005 58 10000 4.1 190 18:39 30.04.2020
3829 Clouds 14 1005 58 10000 4.1 190 18:21 30.04.2020
3830 Clouds 14 1005 62 10000 3.1 200 17:59 30.04.2020
3831 Clouds 14 1005 66 10000 5.1 200 17:40 30.04.2020
3832 Clouds 14 1005 66 10000 5.1 200 17:21 30.04.2020
3833 Rain 15 1006 62 10000 5.7 190 16:57 30.04.2020
3834 Clouds 15 1006 58 10000 5.1 200 16:39 30.04.2020
3835 Clouds 15 1006 58 10000 5.1 200 16:19 30.04.2020
3836 Clouds 15 1006 58 10000 5.1 200 16:19 30.04.2020
3837 Clouds 15 1006 58 10000 5.7 200 15:48 30.04.2020
3838 Clouds 15 1006 58 10000 5.7 200 15:25 30.04.2020
3839 Clouds 16 1006 58 10000 5.7 190 14:59 30.04.2020
3840 Clouds 16 1006 51 10000 6.2 230 14:39 30.04.2020
3841 Clouds 16 1006 51 10000 6.2 230 14:19 30.04.2020
3842 Rain 15 1007 54 10000 5.7 220 13:56 30.04.2020
3843 Rain 14 1007 58 10000 4.1 230 13:38 30.04.2020
3844 Rain 14 1007 58 10000 3.6 220 13:20 30.04.2020
3845 Clouds 15 1007 58 10000 4.1 220 12:41 30.04.2020
3846 Clouds 15 1007 58 10000 4.1 220 12:21 30.04.2020
3847 Clouds 14 1007 67 10000 3.6 230 11:59 30.04.2020
3848 Rain 14 1007 67 10000 4.1 210 11:37 30.04.2020
3849 Rain 14 1007 67 10000 3.6 230 11:18 30.04.2020
3850 Rain 14 1007 67 10000 3.6 230 10:54 30.04.2020
3851 Rain 13 1007 66 10000 3.6 210 10:36 30.04.2020
3852 Rain 13 1007 71 10000 3.6 220 10:18 30.04.2020
3853 Rain 13 1007 66 10000 3.6 220 09:41 30.04.2020
3854 Rain 13 1007 66 10000 3.6 220 09:22 30.04.2020
3855 Rain 11 1006 76 10000 2.1 180 08:49 30.04.2020
3856 Rain 11 1006 76 10000 2.1 180 08:27 30.04.2020
3857 Rain 10 1006 81 10000 1 0 07:59 30.04.2020
3858 Clouds 10 1006 87 10000 0.5 0 07:40 30.04.2020
3859 Clouds 10 1006 87 10000 0.5 0 07:22 30.04.2020
3860 Rain 10 1007 87 10000 1 80 06:40 30.04.2020
3861 Rain 10 1007 87 10000 1 0 05:49 30.04.2020
3862 Rain 10 1007 87 10000 1 0 05:27 30.04.2020
3863 Clouds 10 1008 81 10000 0.5 0 04:30 30.04.2020
3864 Clouds 9 1009 81 10000 0.5 0 02:59 30.04.2020
3865 Clouds 9 1009 87 10000 1 0 02:29 30.04.2020
3866 Clouds 9 1009 81 10000 1 0 01:58 30.04.2020
3867 Clouds 9 1009 87 10000 1 0 01:20 30.04.2020
3868 Clouds 9 1009 81 10000 1 0 00:40 30.04.2020
3869 Clouds 9 1009 81 10000 1 0 00:18 30.04.2020
3870 Clouds 9 1009 81 10000 1.5 220 00:18 30.04.2020
3871 Clouds 9 1009 81 10000 1.5 220 23:56 29.04.2020
3872 Clouds 10 1010 76 10000 2.1 210 23:36 29.04.2020
3873 Clouds 10 1010 76 10000 2.1 210 23:18 29.04.2020
3874 Clouds 10 1010 76 10000 2.1 210 23:18 29.04.2020
3875 Clouds 10 1010 71 10000 2.1 220 22:40 29.04.2020
3876 Clouds 11 1010 62 10000 3.1 220 22:21 29.04.2020
3877 Clouds 11 1010 62 10000 3.1 220 21:57 29.04.2020
3878 Clouds 12 1009 62 10000 3.1 230 21:36 29.04.2020
3879 Clouds 14 1009 58 10000 3.1 230 21:18 29.04.2020
3880 Clouds 15 1009 54 10000 3.1 230 20:40 29.04.2020
3881 Clouds 16 1009 54 10000 4.1 240 20:20 29.04.2020
3882 Clouds 16 1009 54 10000 4.1 240 19:59 29.04.2020
3883 Clouds 16 1009 51 10000 4.1 250 19:41 29.04.2020
3884 Clouds 16 1009 51 10000 4.1 250 19:20 29.04.2020
3885 Clouds 16 1009 44 10000 4.6 250 18:43 29.04.2020
3886 Clouds 16 1009 44 10000 4.6 250 18:25 29.04.2020
3887 Clouds 17 1009 45 10000 5.1 240 17:58 29.04.2020
3888 Clouds 16 1009 51 10000 5.1 250 17:40 29.04.2020
3889 Clouds 16 1009 58 10000 6.7 270 17:21 29.04.2020
3890 Clouds 16 1009 55 10000 6.2 250 16:39 29.04.2020
3891 Clouds 16 1009 59 10000 5.1 260 16:20 29.04.2020
3892 Clouds 16 1009 59 10000 5.1 260 15:58 29.04.2020
3893 Clouds 15 1009 63 10000 5.1 250 15:40 29.04.2020
3894 Clouds 15 1009 63 10000 5.1 250 15:21 29.04.2020
3895 Clouds 15 1009 72 10000 4.6 240 14:59 29.04.2020
3896 Rain 14 1009 71 10000 1.5 0 14:41 29.04.2020
3897 Rain 14 1010 82 8000 2.6 260 14:22 29.04.2020
3898 Rain 14 1010 82 8000 2.6 260 13:55 29.04.2020
3899 Rain 14 1009 82 10000 2.6 250 13:37 29.04.2020
3900 Rain 14 1009 82 10000 2.6 250 13:18 29.04.2020
3901 Rain 13 1010 87 10000 5.1 250 12:40 29.04.2020
3902 Rain 12 1010 87 10000 5.1 250 12:19 29.04.2020
3903 Rain 13 1009 82 10000 3.6 240 11:58 29.04.2020
3904 Rain 13 1009 87 10000 2.6 0 11:36 29.04.2020
3905 Rain 12 1009 81 10000 2.6 210 11:18 29.04.2020
3906 Rain 12 1009 93 10000 2.6 210 10:38 29.04.2020
3907 Rain 12 1009 93 10000 2.6 210 10:20 29.04.2020
3908 Rain 12 1009 87 10000 2.1 220 09:58 29.04.2020
3909 Rain 11 1009 87 10000 1.5 0 09:40 29.04.2020
3910 Rain 11 1009 87 10000 2.1 230 09:18 29.04.2020
3911 Rain 11 1008 87 10000 1 0 08:43 29.04.2020
3912 Rain 11 1008 87 10000 1 0 08:24 29.04.2020
3913 Rain 11 1008 93 10000 1.5 230 07:51 29.04.2020
3914 Rain 11 1008 87 10000 3.1 0 07:27 29.04.2020
3915 Rain 11 1008 87 10000 1.5 220 06:52 29.04.2020
3916 Clouds 10 1008 87 10000 2.6 210 06:32 29.04.2020
3917 Clouds 9 1008 87 10000 2.6 210 05:42 29.04.2020
3918 Clouds 9 1007 87 10000 2.1 220 05:18 29.04.2020
3919 Clouds 10 1007 87 10000 2.6 220 04:19 29.04.2020
3920 Rain 11 1007 93 10000 2.6 220 02:58 29.04.2020
3921 Rain 12 1008 93 10000 2.6 220 01:54 29.04.2020
3922 Rain 12 1007 87 10000 2.6 220 01:28 29.04.2020
3923 Rain 12 1007 81 10000 5.1 250 00:56 29.04.2020
3924 Rain 12 1007 71 10000 2.6 240 00:37 29.04.2020
3925 Clouds 12 1007 71 10000 2.6 260 00:18 29.04.2020
3926 Clouds 12 1007 71 10000 2.1 260 23:43 28.04.2020
3927 Clouds 12 1007 71 10000 2.1 260 23:43 28.04.2020
3928 Clouds 12 1007 71 10000 2.1 260 23:21 28.04.2020
3929 Clouds 13 1007 62 10000 3.6 280 22:39 28.04.2020
3930 Clouds 13 1007 67 10000 1.5 240 22:20 28.04.2020
3931 Clouds 13 1007 67 10000 1.5 240 21:59 28.04.2020
3932 Clouds 13 1007 67 10000 1.5 300 21:40 28.04.2020
3933 Clouds 14 1007 67 10000 1.5 300 21:22 28.04.2020
3934 Clouds 14 1007 67 10000 3.1 290 20:59 28.04.2020
3935 Clouds 15 1006 62 10000 3.6 280 20:40 28.04.2020
3936 Clouds 15 1006 62 10000 3.6 280 20:20 28.04.2020
3937 Clouds 15 1006 62 10000 4.1 290 19:56 28.04.2020
3938 Clouds 16 1006 63 10000 5.7 280 19:38 28.04.2020
3939 Clouds 16 1006 63 10000 5.7 280 19:19 28.04.2020
3940 Clouds 16 1006 67 10000 4.1 290 18:57 28.04.2020
3941 Clouds 16 1006 67 10000 4.6 270 18:37 28.04.2020
3942 Clouds 16 1006 67 10000 4.6 270 18:37 28.04.2020
3943 Clouds 16 1006 67 10000 5.1 280 18:18 28.04.2020
3944 Rain 15 1006 72 10000 5.7 260 17:37 28.04.2020
3945 Rain 15 1006 72 10000 6.2 260 17:19 28.04.2020
3946 Rain 15 1006 72 10000 6.2 260 16:58 28.04.2020
3947 Clouds 16 1006 59 10000 3.6 250 16:39 28.04.2020
3948 Clouds 16 1006 59 10000 3.6 250 16:21 28.04.2020
3949 Clouds 16 1006 63 10000 2.6 0 15:56 28.04.2020
3950 Rain 16 1006 63 10000 3.1 220 15:38 28.04.2020
3951 Rain 16 1006 59 10000 3.6 210 15:20 28.04.2020
3952 Rain 15 1006 59 10000 3.6 210 14:55 28.04.2020
3953 Clouds 17 1006 59 10000 4.6 190 14:37 28.04.2020
3954 Clouds 17 1006 63 10000 5.1 190 14:18 28.04.2020
3955 Clouds 17 1006 63 10000 5.1 190 13:56 28.04.2020
3956 Clouds 17 1006 67 10000 4.1 190 13:37 28.04.2020
3957 Clouds 17 1006 67 10000 4.1 190 13:19 28.04.2020
3958 Clouds 15 1007 77 10000 3.1 180 12:43 28.04.2020
3959 Rain 15 1007 82 10000 2.6 180 12:23 28.04.2020
3960 Rain 14 1007 82 10000 2.6 180 11:43 28.04.2020
3961 Rain 14 1007 82 10000 2.6 180 11:23 28.04.2020
3962 Rain 14 1007 82 10000 2.1 190 10:58 28.04.2020
3963 Rain 14 1007 76 10000 1 0 10:38 28.04.2020
3964 Rain 14 1007 76 10000 1 0 10:19 28.04.2020
3965 Rain 13 1007 82 10000 0.5 0 09:55 28.04.2020
3966 Rain 13 1007 82 10000 1 0 09:37 28.04.2020
3967 Rain 13 1007 76 10000 1 0 09:19 28.04.2020
3968 Rain 13 1007 76 10000 1 0 08:45 28.04.2020
3969 Rain 12 1007 87 10000 0.5 0 08:26 28.04.2020
3970 Rain 11 1007 81 10000 2.1 70 07:44 28.04.2020
3971 Rain 11 1007 81 10000 2.1 70 07:19 28.04.2020
3972 Clouds 10 1007 81 10000 0.5 0 06:44 28.04.2020
3973 Clouds 10 1007 81 10000 0.5 70 06:20 28.04.2020
3974 Clouds 10 1007 81 10000 0.5 0 05:40 28.04.2020
3975 Clouds 10 1007 76 10000 1 0 04:39 28.04.2020
3976 Clouds 10 1007 71 10000 1.5 290 02:59 28.04.2020
3977 Clouds 10 1007 71 10000 0.5 0 02:28 28.04.2020
3978 Clouds 10 1007 71 10000 0.5 0 01:23 28.04.2020
3979 Clouds 11 1007 66 10000 2.1 280 00:51 28.04.2020
3980 Clouds 11 1008 62 10000 1.5 270 00:20 28.04.2020
3981 Clouds 12 1008 71 10000 1.5 280 23:45 27.04.2020
3982 Clouds 13 1008 54 10000 2.1 270 23:23 27.04.2020
3983 Clouds 14 1008 54 10000 2.1 270 22:55 27.04.2020
3984 Clouds 14 1008 54 10000 1 0 22:37 27.04.2020
3985 Clouds 16 1008 45 10000 1 320 22:18 27.04.2020
3986 Clouds 16 1008 45 10000 1 320 21:56 27.04.2020
3987 Clouds 17 1007 45 10000 1.5 350 21:37 27.04.2020
3988 Clouds 18 1007 45 10000 1.5 350 21:18 27.04.2020
3989 Clouds 19 1007 42 10000 4.1 340 20:43 27.04.2020
3990 Clear 19 1007 42 10000 4.1 340 20:22 27.04.2020
3991 Clear 20 1007 40 10000 3.1 350 19:58 27.04.2020
3992 Clear 20 1007 37 10000 3.6 360 19:39 27.04.2020
3993 Clear 20 1007 37 10000 3.6 360 19:20 27.04.2020
3994 Clear 21 1007 37 10000 5.7 330 18:57 27.04.2020
3995 Clear 21 1007 37 10000 4.1 330 18:39 27.04.2020
3996 Clear 21 1007 40 10000 4.6 330 18:19 27.04.2020
3997 Clear 22 1007 30 10000 2.1 340 17:43 27.04.2020
3998 Clear 22 1007 30 10000 2.1 340 17:21 27.04.2020
3999 Clear 22 1008 28 10000 3.1 320 16:58 27.04.2020
4000 Clouds 22 1008 28 10000 4.1 240 16:39 27.04.2020
4001 Clouds 22 1008 28 10000 4.6 260 16:21 27.04.2020
4002 Clouds 22 1008 28 10000 4.6 260 15:56 27.04.2020
4003 Clouds 22 1008 26 10000 3.1 0 15:38 27.04.2020
4004 Clear 21 1008 28 10000 4.1 0 15:18 27.04.2020
4005 Clear 21 1009 37 10000 2.6 0 14:42 27.04.2020
4006 Clear 21 1009 37 10000 2.6 0 14:23 27.04.2020
4007 Clear 19 1009 39 10000 2.1 180 13:59 27.04.2020
4008 Clear 20 1009 40 10000 2.1 0 13:41 27.04.2020
4009 Clouds 20 1010 42 10000 2.6 0 13:20 27.04.2020
4010 Clouds 19 1010 42 10000 2.6 0 12:56 27.04.2020
4011 Clouds 19 1010 42 10000 1.5 0 12:38 27.04.2020
4012 Clouds 19 1010 45 10000 2.1 0 12:19 27.04.2020
4013 Clouds 18 1010 52 10000 2.6 130 11:41 27.04.2020
4014 Clouds 17 1011 63 10000 2.1 170 11:19 27.04.2020
4015 Clear 16 1011 67 10000 1 0 10:57 27.04.2020
4016 Clear 15 1011 67 10000 1 0 10:38 27.04.2020
4017 Clear 15 1011 66 10000 1 0 10:20 27.04.2020
4018 Rain 13 1011 66 10000 1 0 09:44 27.04.2020
4019 Rain 12 1011 71 10000 0.5 0 09:19 27.04.2020
4020 Rain 12 1011 71 10000 0.5 0 08:58 27.04.2020
4021 Rain 11 1010 62 10000 1 0 08:40 27.04.2020
4022 Clouds 11 1010 66 10000 0.5 300 08:22 27.04.2020
4023 Rain 11 1010 71 10000 1 0 07:44 27.04.2020
4024 Rain 11 1010 62 10000 0.5 240 07:20 27.04.2020
4025 Rain 11 1010 62 10000 0.5 240 06:56 27.04.2020
4026 Rain 11 1010 62 10000 0.5 240 06:56 27.04.2020
4027 Rain 11 1010 62 10000 2.6 310 06:27 27.04.2020
4028 Rain 11 1010 62 10000 2.6 310 06:27 27.04.2020
4029 Rain 11 1010 71 10000 1.5 230 05:50 27.04.2020
4030 Rain 12 1010 58 10000 0.5 0 04:50 27.04.2020
4031 Rain 12 1010 58 10000 2.1 280 03:59 27.04.2020
4032 Clouds 12 1010 58 10000 0.5 0 03:36 27.04.2020
4033 Clouds 14 1010 50 10000 2.1 280 01:43 27.04.2020
4034 Clouds 14 1010 50 10000 2.1 280 01:18 27.04.2020
4035 Clouds 15 1010 38 10000 1.5 260 00:20 27.04.2020
4036 Clouds 15 1010 38 10000 1.5 260 23:58 26.04.2020
4037 Clouds 15 1010 41 10000 0.72 147 23:40 26.04.2020
4038 Clouds 15 1010 41 10000 0.72 147 23:21 26.04.2020
4039 Clouds 15 1010 38 10000 1 340 22:58 26.04.2020
4040 Clouds 16 1009 36 10000 1.5 320 22:39 26.04.2020
4041 Clouds 16 1009 33 10000 1.5 350 22:21 26.04.2020
4042 Clouds 16 1009 33 10000 1.5 350 21:58 26.04.2020
4043 Clouds 16 1009 33 10000 2.6 360 21:38 26.04.2020
4044 Clear 17 1009 33 10000 2.6 360 21:18 26.04.2020
4045 Clear 17 1008 36 10000 2.1 360 20:55 26.04.2020
4046 Clear 18 1008 34 10000 2.6 360 20:37 26.04.2020
4047 Clear 18 1008 34 10000 2.6 360 20:37 26.04.2020
4048 Clear 18 1008 34 10000 3.1 350 20:18 26.04.2020
4049 Clear 18 1008 34 10000 3.1 350 19:57 26.04.2020
4050 Clear 18 1008 31 10000 3.1 360 19:36 26.04.2020
4051 Clear 19 1008 28 10000 3.6 350 19:18 26.04.2020
4052 Clear 20 1008 55 10000 3.6 20 18:43 26.04.2020
4053 Clear 20 1008 38 10000 3.6 20 18:24 26.04.2020
4054 Clear 19 1008 28 10000 2.6 0 17:43 26.04.2020
4055 Clear 20 1008 28 10000 2.6 0 17:23 26.04.2020
4056 Clear 20 1008 28 10000 3.1 10 16:58 26.04.2020
4057 Clear 21 1009 26 10000 2.1 90 16:39 26.04.2020
4058 Clear 20 1009 26 10000 2.1 90 16:20 26.04.2020
4059 Clear 20 1009 28 10000 2.1 270 15:57 26.04.2020
4060 Clear 20 1009 24 10000 1 0 15:37 26.04.2020
4061 Clear 20 1009 36 10000 1.5 0 15:18 26.04.2020
4062 Clear 19 1010 25 10000 1 0 14:41 26.04.2020
4063 Clear 19 1010 25 10000 1.5 40 14:20 26.04.2020
4064 Clear 19 1010 25 10000 1.5 40 13:59 26.04.2020
4065 Clear 18 1010 35 10000 1 0 13:40 26.04.2020
4066 Clear 18 1010 35 10000 1 0 13:22 26.04.2020
4067 Clear 18 1010 34 10000 2.6 0 12:57 26.04.2020
4068 Clear 17 1010 33 10000 1.5 0 12:39 26.04.2020
4069 Clear 17 1010 33 10000 1.5 0 12:20 26.04.2020
4070 Clouds 17 1011 41 10000 1.5 0 11:57 26.04.2020
4071 Clear 16 1011 44 10000 1.5 0 11:38 26.04.2020
4072 Clear 16 1011 44 10000 1.5 0 11:38 26.04.2020
4073 Clear 16 1010 44 10000 1 0 11:20 26.04.2020
4074 Clear 15 1010 44 10000 1 0 10:55 26.04.2020
4075 Clear 15 1010 50 10000 1 0 10:37 26.04.2020
4076 Clear 14 1010 50 10000 1 0 10:18 26.04.2020
4077 Clear 10 1010 61 10000 1.5 80 09:39 26.04.2020
4078 Clouds 8 1010 61 10000 1.5 80 09:21 26.04.2020
4079 Clouds 7 1010 65 10000 1 0 08:46 26.04.2020
4080 Clouds 7 1010 65 10000 1 0 08:23 26.04.2020
4081 Clouds 6 1010 65 10000 0.5 300 07:59 26.04.2020
4082 Clouds 5 1010 63 10000 1 50 07:40 26.04.2020
4083 Clouds 4 1010 63 10000 1 0 07:20 26.04.2020
4084 Clouds 4 1010 63 10000 0.5 150 06:40 26.04.2020
4085 Clouds 4 1010 70 10000 0.5 150 05:55 26.04.2020
4086 Clouds 4 1010 69 10000 1 0 05:37 26.04.2020
4087 Clouds 5 1010 75 10000 0.5 0 04:56 26.04.2020
4088 Clouds 5 1010 70 10000 1.5 320 03:56 26.04.2020
4089 Clear 6 1010 66 10000 1 270 02:47 26.04.2020
4090 Clear 6 1010 66 10000 1.5 320 02:28 26.04.2020
4091 Clear 7 1010 65 10000 3.1 310 01:46 26.04.2020
4092 Clear 7 1010 65 10000 3.1 310 01:25 26.04.2020
4093 Clear 8 1010 66 10000 2.1 320 00:39 26.04.2020
4094 Clear 8 1010 53 10000 1.5 320 00:19 26.04.2020
4095 Clear 9 1010 53 10000 1 0 23:39 25.04.2020
4096 Clear 9 1010 63 10000 2.1 330 23:20 25.04.2020
4097 Clear 9 1010 63 10000 2.1 330 23:20 25.04.2020
4098 Clear 9 1010 63 10000 2.1 330 22:58 25.04.2020
4099 Clear 10 1010 46 10000 3.6 310 22:39 25.04.2020
4100 Clear 10 1010 46 10000 3.6 310 22:19 25.04.2020
4101 Clear 13 1009 41 10000 3.1 320 21:40 25.04.2020
4102 Clear 14 1009 58 10000 2.6 340 21:21 25.04.2020
4103 Clear 15 1009 58 10000 2.6 340 20:58 25.04.2020
4104 Clear 15 1009 58 10000 3.6 350 20:40 25.04.2020
4105 Clear 16 1008 33 10000 2.6 360 20:22 25.04.2020
4106 Clear 17 1008 33 10000 2.6 360 19:55 25.04.2020
4107 Clear 17 1009 31 10000 3.6 360 19:37 25.04.2020
4108 Clear 18 1009 31 10000 3.6 360 19:19 25.04.2020
4109 Clear 18 1009 31 10000 4.1 10 18:41 25.04.2020
4110 Clear 18 1009 31 10000 4.1 10 18:21 25.04.2020
4111 Clear 17 1009 29 10000 3.1 360 17:58 25.04.2020
4112 Clear 17 1009 39 10000 4.6 40 17:38 25.04.2020
4113 Clear 19 1009 39 10000 4.6 40 17:20 25.04.2020
4114 Clear 19 1009 25 10000 3.6 30 16:58 25.04.2020
4115 Clear 19 1010 27 10000 3.6 360 16:40 25.04.2020
4116 Clear 18 1010 27 10000 3.6 360 16:21 25.04.2020
4117 Clear 18 1010 25 10000 2.6 40 15:42 25.04.2020
4118 Clear 18 1010 25 10000 2.6 40 15:21 25.04.2020
4119 Clear 18 1010 39 10000 2.1 0 14:58 25.04.2020
4120 Clear 18 1011 31 10000 3.1 0 14:39 25.04.2020
4121 -273 0 0 0 0 0 14:20 25.04.2020
4122 Clear 17 1011 31 10000 3.1 0 13:59 25.04.2020
4123 Clear 17 1011 33 10000 2.6 350 13:40 25.04.2020
4124 Clear 16 1011 33 10000 2.6 350 13:18 25.04.2020
4125 Clear 16 1011 33 0 2.6 0 12:55 25.04.2020
4126 Clouds 16 1012 38 10000 2.6 30 12:36 25.04.2020
4127 Clouds 15 1012 38 10000 2.6 30 12:18 25.04.2020
4128 Clear 15 1012 44 10000 1 0 11:41 25.04.2020
4129 Clear 15 1012 47 10000 2.6 350 11:23 25.04.2020
4130 Clear 14 1012 47 10000 2.6 350 10:57 25.04.2020
4131 Clear 14 1012 50 10000 3.1 360 10:38 25.04.2020
4132 Clear 14 1012 50 10000 3.1 360 10:19 25.04.2020
4133 Clear 13 1012 50 10000 3.6 330 09:43 25.04.2020
4134 Clouds 12 1012 50 10000 3.6 330 09:22 25.04.2020
4135 Clouds 11 1012 54 10000 3.1 320 08:55 25.04.2020
4136 Clouds 11 1011 57 10000 2.1 290 08:37 25.04.2020
4137 Clouds 10 1011 61 10000 1.5 310 08:19 25.04.2020
4138 Clouds 9 1011 66 10000 1 0 07:43 25.04.2020
4139 Clouds 8 1011 66 10000 1 0 07:22 25.04.2020
4140 Clouds 9 1011 66 10000 4.1 280 06:42 25.04.2020
4141 Clouds 9 1011 66 10000 4.1 280 06:42 25.04.2020
4142 Clouds 8 1011 66 10000 3.1 260 05:46 25.04.2020
4143 Clouds 9 1011 66 10000 3.1 260 05:27 25.04.2020
4144 Clouds 9 1010 66 10000 3.6 290 04:24 25.04.2020
4145 Clouds 11 1011 54 10000 4.6 290 02:44 25.04.2020
4146 Clouds 12 1011 47 10000 5.7 280 02:19 25.04.2020
4147 Clouds 12 1011 47 10000 5.7 280 01:50 25.04.2020
4148 Clouds 12 1010 58 10000 3.1 270 01:26 25.04.2020
4149 Clouds 12 1010 58 10000 3.1 270 00:49 25.04.2020
4150 Clouds 13 1010 58 10000 4.1 260 00:28 25.04.2020
4151 Clouds 12 1010 62 10000 2.6 250 23:42 24.04.2020
4152 Clouds 13 1010 62 10000 2.6 250 23:21 24.04.2020
4153 Clouds 14 1011 54 10000 2.1 250 22:54 24.04.2020
4154 Clouds 13 1011 54 10000 2.1 250 22:54 24.04.2020
4155 Clouds 14 1011 54 10000 2.1 260 22:36 24.04.2020
4156 Clouds 15 1011 44 10000 1.5 230 22:18 24.04.2020
4157 Clouds 15 1011 44 10000 1.5 230 21:54 24.04.2020
4158 Clouds 16 1011 41 10000 1.5 240 21:36 24.04.2020
4159 Clouds 16 1010 39 10000 3.1 280 21:18 24.04.2020
4160 Clouds 19 1011 32 10000 4.1 280 20:42 24.04.2020
4161 Clouds 19 1011 28 10000 6.2 280 20:19 24.04.2020
4162 Clouds 19 1011 28 10000 6.2 280 19:58 24.04.2020
4163 Clouds 20 1011 28 10000 7.7 280 19:39 24.04.2020
4164 Clouds 20 1011 28 10000 7.7 280 19:20 24.04.2020
4165 Clouds 21 1011 26 10000 8.2 280 18:43 24.04.2020
4166 Clouds 22 1011 26 10000 8.2 280 18:25 24.04.2020
4167 Clouds 22 1011 42 10000 8.2 280 17:54 24.04.2020
4168 Clouds 22 1011 24 10000 7.7 280 17:36 24.04.2020
4169 Clouds 22 1011 42 10000 8.7 280 17:18 24.04.2020
4170 Clouds 22 1011 42 10000 8.7 280 16:55 24.04.2020
4171 Clouds 22 1011 26 10000 4.6 280 16:37 24.04.2020
4172 Clouds 22 1011 26 10000 4.6 280 16:19 24.04.2020
4173 Clouds 22 1012 24 10000 7.2 280 15:40 24.04.2020
4174 Clouds 22 1012 24 10000 5.1 270 15:20 24.04.2020
4175 Clouds 22 1012 26 10000 4.6 280 14:41 24.04.2020
4176 Clouds 21 1012 26 10000 4.6 280 14:22 24.04.2020
4177 Clouds 21 1013 26 10000 6.2 290 13:59 24.04.2020
4178 Clouds 21 1013 42 10000 5.7 310 13:41 24.04.2020
4179 Clouds 21 1013 26 10000 5.7 280 13:20 24.04.2020
4180 Clouds 21 1013 26 10000 5.7 280 12:57 24.04.2020
4181 Clouds 21 1014 26 10000 6.7 280 12:39 24.04.2020
4182 Clouds 18 1014 30 10000 3.6 0 12:19 24.04.2020
4183 Clouds 19 1014 34 10000 1.5 70 11:40 24.04.2020
4184 Clouds 19 1014 34 10000 1.5 70 11:21 24.04.2020
4185 Clouds 18 1014 48 10000 2.1 60 10:57 24.04.2020
4186 Clouds 17 1014 55 10000 2.1 70 10:38 24.04.2020
4187 Clouds 16 1014 58 10000 1.5 110 10:19 24.04.2020
4188 Clouds 17 1014 55 10000 2.1 70 10:19 24.04.2020
4189 Clouds 16 1014 58 10000 1.5 110 09:54 24.04.2020
4190 Clouds 13 1014 62 10000 1 0 09:36 24.04.2020
4191 Clouds 13 1014 62 10000 1 0 09:18 24.04.2020
4192 Clouds 11 1015 70 10000 0.5 0 08:41 24.04.2020
4193 Clouds 9 1014 81 10000 0.5 0 08:19 24.04.2020
4194 Clouds 7 1014 86 10000 0.5 0 07:47 24.04.2020
4195 Clouds 7 1014 86 10000 0.5 0 07:27 24.04.2020
4196 Clouds 6 1014 86 10000 1 0 06:59 24.04.2020
4197 Clouds 6 1014 86 10000 1.5 80 06:41 24.04.2020
4198 Clouds 6 1014 81 10000 0.5 0 05:50 24.04.2020
4199 Clouds 7 1015 81 10000 0.5 0 05:18 24.04.2020
4200 Clear 8 1015 70 10000 0.5 0 03:28 24.04.2020
4201 Clear 9 1015 70 10000 1 280 02:49 24.04.2020
4202 Clear 9 1016 66 10000 1.5 300 02:24 24.04.2020
4203 Clear 10 1016 57 10000 1 0 01:46 24.04.2020
4204 Clear 10 1016 61 10000 0.5 0 00:50 24.04.2020
4205 Clear 10 1016 61 10000 0.5 0 00:19 24.04.2020
4206 Clear 10 1016 57 10000 1 280 23:46 23.04.2020
4207 Clear 10 1016 57 10000 1 280 23:27 23.04.2020
4208 Clear 11 1017 50 10000 1 0 22:57 23.04.2020
4209 Clear 11 1017 54 10000 2.6 290 22:39 23.04.2020
4210 Clear 11 1017 54 10000 2.6 290 22:20 23.04.2020
4211 Clear 12 1016 44 10000 0.5 290 21:57 23.04.2020
4212 Clear 16 1016 39 10000 0.5 0 21:39 23.04.2020
4213 Clear 16 1016 39 10000 0.5 0 21:20 23.04.2020
4214 Clear 18 1016 32 10000 1.5 40 20:56 23.04.2020
4215 Clear 19 1016 30 10000 0.5 0 20:38 23.04.2020
4216 Clear 19 1016 30 10000 0.5 0 20:19 23.04.2020
4217 Clear 18 1016 30 10000 2.1 70 19:55 23.04.2020
4218 Clear 21 1016 28 10000 1.5 90 19:37 23.04.2020
4219 -273 0 0 0 0 0 19:19 23.04.2020
4220 Clear 19 1017 28 10000 1 0 18:40 23.04.2020
4221 Clear 21 1017 24 10000 1.5 0 18:22 23.04.2020
4222 Clear 21 1017 24 10000 1.5 0 17:58 23.04.2020
4223 Clear 21 1017 26 10000 1.5 0 17:39 23.04.2020
4224 Clear 21 1017 26 10000 1.5 0 17:21 23.04.2020
4225 Clear 21 1017 28 10000 1.5 0 16:55 23.04.2020
4226 Clear 20 1017 28 10000 1.5 0 16:37 23.04.2020
4227 Clear 20 1018 28 10000 2.6 120 16:18 23.04.2020
4228 Clear 20 1018 30 10000 1.5 0 15:41 23.04.2020
4229 Clear 20 1018 30 10000 1.5 0 15:41 23.04.2020
4230 Clear 18 1018 30 10000 1.5 0 15:22 23.04.2020
4231 Clear 20 1019 30 10000 2.6 90 14:56 23.04.2020
4232 Clear 19 1019 32 10000 2.1 0 14:37 23.04.2020
4233 Clear 19 1019 29 10000 3.1 90 14:18 23.04.2020
4234 Clear 18 1019 31 10000 4.1 100 13:40 23.04.2020
4235 Clear 18 1019 33 10000 3.1 90 13:22 23.04.2020
4236 Clear 18 1019 33 10000 3.1 90 12:58 23.04.2020
4237 Clear 18 1020 36 10000 2.1 110 12:40 23.04.2020
4238 Clear 17 1020 47 10000 2.1 0 12:21 23.04.2020
4239 Clear 16 1020 47 10000 2.1 0 11:47 23.04.2020
4240 Clear 15 1020 47 10000 1 0 11:28 23.04.2020
4241 Clear 15 1020 47 10000 1.5 0 10:59 23.04.2020
4242 Clear 15 1020 47 10000 1.5 0 10:59 23.04.2020
4243 Clear 15 1020 47 10000 2.1 90 10:40 23.04.2020
4244 Clear 15 1020 47 10000 2.1 90 10:20 23.04.2020
4245 Clear 13 1020 46 10000 1 0 09:41 23.04.2020
4246 Clear 9 1020 46 10000 1 0 09:19 23.04.2020
4247 Clear 9 1020 50 10000 1.5 80 08:54 23.04.2020
4248 Clear 8 1020 57 10000 0.5 0 08:36 23.04.2020
4249 Clear 7 1019 65 10000 1 260 08:18 23.04.2020
4250 Clear 7 1019 65 10000 1.5 300 07:41 23.04.2020
4251 Clear 6 1019 65 10000 1.5 300 07:22 23.04.2020
4252 Clear 7 1019 65 10000 0.5 0 06:46 23.04.2020
4253 Clear 6 1019 72 10000 2.1 340 05:56 23.04.2020
4254 Clear 7 1018 72 10000 1 0 05:22 23.04.2020
4255 Clear 7 1018 72 10000 1 0 04:50 23.04.2020
4256 Clear 10 1018 50 10000 1.5 70 02:24 23.04.2020
4257 Clear 10 1018 53 10000 0.5 0 01:41 23.04.2020
4258 Clear 10 1018 53 10000 0.5 0 01:18 23.04.2020
4259 Clear 10 1017 46 10000 2.1 80 00:45 23.04.2020
4260 Clear 10 1017 46 10000 2.1 80 00:45 23.04.2020
4261 Clear 11 1017 46 10000 3.1 70 00:18 23.04.2020
4262 Clear 11 1017 41 10000 3.6 80 23:47 22.04.2020
4263 Clear 11 1017 41 10000 3.6 80 23:23 22.04.2020
4264 Clear 11 1017 43 10000 3.6 50 22:55 22.04.2020
4265 Clear 12 1017 43 10000 3.6 50 22:36 22.04.2020
4266 Clear 12 1017 43 10000 3.6 50 22:18 22.04.2020
4267 Clear 13 1017 41 10000 2.1 60 21:55 22.04.2020
4268 Clear 13 1017 41 10000 2.1 60 21:55 22.04.2020
4269 Clear 16 1016 38 10000 2.1 70 21:36 22.04.2020
4270 Clear 16 1016 57 10000 3.1 80 21:18 22.04.2020
4271 Clear 17 1015 29 10000 4.1 80 20:43 22.04.2020
4272 Clear 19 1015 32 10000 5.1 60 20:19 22.04.2020
4273 Clear 18 1015 32 10000 5.1 60 19:57 22.04.2020
4274 Clear 18 1015 28 10000 5.1 60 19:38 22.04.2020
4275 Clear 19 1015 57 10000 6.7 60 19:19 22.04.2020
4276 Clear 19 1015 57 10000 6.7 60 18:58 22.04.2020
4277 Clear 19 1015 22 10000 6.2 80 18:40 22.04.2020
4278 Clear 19 1015 22 10000 6.2 80 18:22 22.04.2020
4279 Clear 19 1015 43 10000 5.7 80 17:56 22.04.2020
4280 Clear 19 1015 24 10000 6.2 60 17:37 22.04.2020
4281 Clear 19 1015 43 10000 4.6 0 17:19 22.04.2020
4282 Clear 19 1015 43 10000 6.2 70 16:42 22.04.2020
4283 Clear 19 1015 43 10000 6.2 70 16:23 22.04.2020
4284 Clear 21 1015 43 10000 4.6 90 15:43 22.04.2020
4285 Clear 18 1015 42 10000 5.1 100 15:25 22.04.2020
4286 Clear 18 1015 42 10000 5.1 100 14:59 22.04.2020
4287 Clear 18 1015 24 10000 6.2 90 14:40 22.04.2020
4288 Clear 20 1015 24 10000 6.2 90 14:20 22.04.2020
4289 Clear 19 1016 25 10000 6.7 80 13:57 22.04.2020
4290 Clear 19 1016 24 10000 7.7 80 13:39 22.04.2020
4291 Clear 18 1016 27 10000 6.2 80 13:19 22.04.2020
4292 Clear 18 1016 42 10000 5.7 80 12:42 22.04.2020
4293 Clear 16 1016 46 10000 5.7 80 12:23 22.04.2020
4294 Clear 16 1016 46 10000 5.7 70 11:57 22.04.2020
4295 Clear 15 1016 33 10000 5.7 90 11:36 22.04.2020
4296 Clear 15 1016 33 10000 5.7 90 11:18 22.04.2020
4297 Clear 15 1016 37 10000 6.7 70 10:41 22.04.2020
4298 Clear 14 1016 37 10000 6.7 70 10:21 22.04.2020
4299 Clear 13 1016 40 10000 5.1 80 09:41 22.04.2020
4300 Clear 8 1016 40 10000 5.1 80 09:23 22.04.2020
4301 Clear 9 1016 43 10000 5.7 70 08:59 22.04.2020
4302 Clear 8 1016 46 10000 5.1 80 08:41 22.04.2020
4303 Clear 8 1015 49 10000 4.6 80 08:22 22.04.2020
4304 Clear 7 1015 49 10000 4.6 80 07:53 22.04.2020
4305 Clear 8 1015 49 10000 4.6 80 07:33 22.04.2020
4306 Clear 9 1015 49 10000 4.6 80 06:53 22.04.2020
4307 Clear 9 1015 49 10000 4.6 80 06:34 22.04.2020
4308 Clear 9 1015 45 10000 5.1 70 05:39 22.04.2020
4309 Clear 10 1015 49 10000 4.6 70 04:34 22.04.2020
4310 Clear 11 1014 40 10000 8.2 80 02:59 22.04.2020
4311 Clear 10 1015 37 10000 7.7 80 01:55 22.04.2020
4312 Clear 11 1014 35 10000 7.2 80 01:28 22.04.2020
4313 Clear 11 1014 35 10000 8.2 80 00:59 22.04.2020
4314 Clear 10 1014 35 10000 7.7 80 00:41 22.04.2020
4315 Clear 11 1014 35 10000 7.7 80 00:20 22.04.2020
4316 Clear 12 1014 33 10000 6.7 80 23:44 21.04.2020
4317 Clear 12 1014 33 10000 6.7 80 23:21 21.04.2020
4318 Clear 12 1014 28 10000 7.2 80 22:55 21.04.2020
4319 Clear 12 1014 28 10000 6.2 80 22:37 21.04.2020
4320 Clear 13 1014 26 10000 8.2 70 22:19 21.04.2020
4321 Clear 12 1013 26 10000 6.2 80 21:43 21.04.2020
4322 Clouds 16 1013 26 10000 6.2 80 21:24 21.04.2020
4323 Clouds 17 1013 25 10000 7.2 80 20:59 21.04.2020
4324 Clouds 16 1013 25 10000 6.7 80 20:40 21.04.2020
4325 Clouds 18 1012 23 10000 7.7 80 20:22 21.04.2020
4326 Clouds 19 1012 23 10000 7.7 80 19:57 21.04.2020
4327 Clouds 19 1012 25 10000 7.2 80 19:37 21.04.2020
4328 Clouds 19 1012 25 10000 8.7 90 19:18 21.04.2020
4329 Clouds 18 1012 25 10000 8.7 90 18:55 21.04.2020
4330 Clouds 19 1012 24 10000 8.2 90 18:36 21.04.2020
4331 Clouds 20 1012 24 10000 8.2 80 18:18 21.04.2020
4332 Clouds 20 1011 21 10000 6.7 90 17:39 21.04.2020
4333 Clouds 20 1011 21 10000 6.7 90 17:20 21.04.2020
4334 Clouds 20 1011 22 10000 7.7 90 16:56 21.04.2020
4335 Clouds 20 1011 24 10000 8.2 80 16:37 21.04.2020
4336 Clouds 19 1012 42 10000 7.2 80 16:18 21.04.2020
4337 Clouds 20 1011 24 10000 8.2 80 16:18 21.04.2020
4338 Clouds 20 1012 42 10000 7.2 80 15:55 21.04.2020
4339 Clouds 19 1012 29 10000 7.2 80 15:37 21.04.2020
4340 Clouds 19 1012 29 10000 7.2 80 15:18 21.04.2020
4341 Clouds 19 1012 34 10000 7.7 80 14:45 21.04.2020
4342 Clouds 19 1012 34 10000 7.7 80 14:23 21.04.2020
4343 Clouds 18 1012 36 10000 6.2 100 13:56 21.04.2020
4344 Clouds 18 1012 36 10000 5.1 90 13:37 21.04.2020
4345 Clouds 18 1012 36 10000 6.7 90 13:18 21.04.2020
4346 Clouds 15 1012 38 10000 6.7 70 12:38 21.04.2020
4347 Clouds 15 1012 38 10000 6.7 70 12:19 21.04.2020
4348 Clouds 15 1012 38 10000 5.7 90 11:57 21.04.2020
4349 Clouds 14 1012 41 10000 6.2 80 11:39 21.04.2020
4350 Clouds 15 1012 41 10000 6.2 80 11:19 21.04.2020
4351 Clouds 14 1012 43 10000 5.7 90 10:59 21.04.2020
4352 Clouds 13 1012 51 10000 7.2 80 10:40 21.04.2020
4353 Clouds 13 1012 51 10000 7.2 80 10:22 21.04.2020
4354 Clouds 12 1012 51 10000 6.7 70 09:58 21.04.2020
4355 Clouds 10 1012 50 10000 5.1 60 09:36 21.04.2020
4356 Clouds 9 1012 58 10000 4.6 40 09:18 21.04.2020
4357 Clouds 8 1012 58 10000 4.1 40 08:44 21.04.2020
4358 Clouds 9 1012 58 10000 4.1 40 08:26 21.04.2020
4359 Clouds 9 1012 58 10000 3.6 30 07:53 21.04.2020
4360 Clouds 8 1012 58 10000 2.6 30 07:28 21.04.2020
4361 Clouds 8 1012 52 10000 4.1 60 06:54 21.04.2020
4362 Clouds 8 1012 52 10000 4.1 60 06:36 21.04.2020
4363 Clouds 9 1012 49 10000 4.1 80 05:51 21.04.2020
4364 Clouds 9 1012 49 10000 4.6 80 05:32 21.04.2020
4365 Clouds 10 1012 43 10000 5.7 80 03:48 21.04.2020
4366 Clouds 11 1013 57 10000 5.7 70 02:47 21.04.2020
4367 Clouds 10 1013 57 10000 5.1 70 01:33 21.04.2020
4368 Clouds 10 1013 50 10000 5.7 60 00:51 21.04.2020
4369 Clouds 12 1013 52 10000 6.2 50 00:25 21.04.2020
4370 Clouds 11 1013 43 10000 6.2 50 23:44 20.04.2020
4371 Clouds 13 1013 43 10000 6.2 50 23:23 20.04.2020
4372 Clouds 11 1013 43 10000 6.7 50 22:57 20.04.2020
4373 Clouds 12 1013 52 10000 6.7 50 22:37 20.04.2020
4374 Clouds 12 1013 52 10000 6.7 50 22:19 20.04.2020
4375 Clouds 12 1013 52 10000 6.7 50 21:55 20.04.2020
4376 Clouds 15 1013 52 10000 5.7 60 21:37 20.04.2020
4377 Clear 15 1012 38 10000 6.2 70 21:18 20.04.2020
4378 Clear 15 1012 38 10000 6.2 70 20:56 20.04.2020
4379 Clear 16 1012 53 10000 7.2 80 20:37 20.04.2020
4380 Clear 17 1012 33 10000 6.7 80 20:18 20.04.2020
4381 Clear 17 1012 31 10000 7.2 90 19:41 20.04.2020
4382 Clear 17 1012 31 10000 7.2 90 19:23 20.04.2020
4383 Clear 18 1012 34 10000 8.2 70 18:59 20.04.2020
4384 Clear 17 1011 34 10000 9.8 70 18:41 20.04.2020
4385 Clear 18 1011 34 10000 9.8 70 18:21 20.04.2020
4386 Clear 18 1011 34 10000 8.2 90 17:55 20.04.2020
4387 Clear 18 1012 36 10000 7.2 90 17:37 20.04.2020
4388 Clear 18 1012 36 10000 6.2 100 17:19 20.04.2020
4389 Clear 19 1012 36 10000 6.2 90 16:43 20.04.2020
4390 Clear 18 1012 39 10000 8.2 70 16:21 20.04.2020
4391 Clear 17 1012 39 10000 8.2 70 15:58 20.04.2020
4392 Clear 17 1012 36 10000 6.2 80 15:39 20.04.2020
4393 Clear 17 1013 39 10000 6.7 80 15:21 20.04.2020
4394 Clear 17 1013 39 10000 6.7 80 14:55 20.04.2020
4395 Clear 17 1013 39 10000 5.7 90 14:36 20.04.2020
4396 Clear 16 1013 41 10000 6.7 90 14:18 20.04.2020
4397 Clear 16 1013 41 10000 6.7 90 13:41 20.04.2020
4398 Clear 16 1013 41 10000 6.7 90 13:22 20.04.2020
4399 Clear 16 1014 44 10000 6.2 90 12:45 20.04.2020
4400 Clear 15 1014 44 10000 6.2 90 12:26 20.04.2020
4401 Clear 14 1014 44 10000 5.7 90 11:59 20.04.2020
4402 Clear 14 1014 41 10000 6.7 90 11:40 20.04.2020
4403 Clear 14 1014 41 10000 6.7 90 11:21 20.04.2020
4404 Clear 13 1013 43 10000 6.7 80 10:57 20.04.2020
4405 Clear 13 1013 43 10000 6.7 80 10:57 20.04.2020
4406 Clear 13 1014 48 10000 8.2 70 10:38 20.04.2020
4407 Clear 12 1014 48 10000 8.2 70 10:19 20.04.2020
4408 Clear 12 1014 48 10000 8.2 70 09:55 20.04.2020
4409 Clouds 9 1014 43 10000 7.7 70 09:36 20.04.2020
4410 Clouds 9 1014 43 10000 7.7 70 09:18 20.04.2020
4411 Clouds 9 1014 60 10000 6.2 70 08:41 20.04.2020
4412 Clouds 8 1015 57 10000 5.1 70 08:22 20.04.2020
4413 Clouds 8 1015 57 10000 5.1 70 07:52 20.04.2020
4414 Clouds 8 1015 57 10000 5.1 70 07:52 20.04.2020
4415 Clouds 8 1014 61 10000 4.6 70 07:29 20.04.2020
4416 Clouds 8 1014 65 10000 5.7 60 06:58 20.04.2020
4417 Clouds 8 1014 66 10000 5.7 70 06:36 20.04.2020
4418 Clouds 8 1014 75 10000 3.6 80 05:43 20.04.2020
4419 Clouds 8 1014 81 10000 2.1 60 04:21 20.04.2020
4420 Clouds 9 1015 66 10000 4.1 30 02:47 20.04.2020
4421 Clouds 10 1015 62 10000 4.1 40 01:54 20.04.2020
4422 Clouds 10 1015 62 10000 4.1 40 01:28 20.04.2020
4423 Clouds 11 1015 62 10000 5.1 50 00:39 20.04.2020
4424 Clouds 13 1015 58 10000 5.1 60 23:59 19.04.2020
4425 Clouds 13 1015 58 10000 5.7 50 23:39 19.04.2020
4426 Clouds 13 1015 58 10000 5.7 50 23:21 19.04.2020
4427 Clouds 14 1015 58 10000 6.7 60 22:55 19.04.2020
4428 Clouds 14 1015 62 10000 6.7 60 22:36 19.04.2020
4429 Clouds 15 1014 58 10000 7.7 60 22:18 19.04.2020
4430 Clouds 16 1014 59 10000 7.7 50 21:42 19.04.2020
4431 Clouds 16 1014 59 10000 7.7 50 21:23 19.04.2020
4432 Clouds 16 1014 55 10000 7.7 50 20:56 19.04.2020
4433 Clouds 17 1013 55 10000 7.2 50 20:38 19.04.2020
4434 Clouds 17 1013 55 10000 7.2 50 20:20 19.04.2020
4435 Clouds 17 1013 52 10000 6.2 40 19:56 19.04.2020
4436 Clouds 18 1013 52 10000 4.6 60 19:38 19.04.2020
4437 Clouds 18 1013 52 10000 4.6 60 19:19 19.04.2020
4438 Clouds 19 1013 49 10000 6.7 50 18:55 19.04.2020
4439 Clouds 19 1013 49 10000 6.7 50 18:36 19.04.2020
4440 Clouds 19 1013 49 10000 6.7 50 18:18 19.04.2020
4441 Clouds 19 1013 52 10000 6.7 30 17:54 19.04.2020
4442 Clouds 20 1013 49 10000 4.6 10 17:36 19.04.2020
4443 Clouds 20 1013 49 10000 4.6 10 17:36 19.04.2020
4444 Clouds 19 1013 52 10000 4.6 10 17:18 19.04.2020
4445 Clouds 20 1013 49 10000 4.6 40 16:39 19.04.2020
4446 Clouds 20 1014 49 10000 4.1 360 16:21 19.04.2020
4447 Clouds 20 1014 49 10000 4.1 360 15:58 19.04.2020
4448 Clouds 19 1014 52 10000 4.6 20 15:39 19.04.2020
4449 Clouds 19 1014 49 10000 3.1 50 15:18 19.04.2020
4450 Clouds 19 1014 49 10000 2.6 50 14:39 19.04.2020
4451 Clouds 19 1014 49 10000 2.6 50 14:21 19.04.2020
4452 Clouds 19 1014 49 10000 2.6 50 14:21 19.04.2020
4453 Clouds 18 1015 55 10000 3.6 30 13:57 19.04.2020
4454 Clouds 18 1015 52 10000 2.6 0 13:37 19.04.2020
4455 Clouds 18 1015 52 10000 2.6 0 13:18 19.04.2020
4456 Clouds 18 1016 59 10000 2.6 10 12:44 19.04.2020
4457 Clouds 17 1016 59 10000 2.6 10 12:24 19.04.2020
4458 Clouds 17 1016 63 10000 2.1 20 11:55 19.04.2020
4459 Clouds 17 1016 67 10000 1.5 0 11:37 19.04.2020
4460 Clouds 16 1016 67 10000 1.5 0 11:18 19.04.2020
4461 Clouds 16 1016 72 10000 1 0 10:41 19.04.2020
4462 Clouds 15 1016 72 10000 1 0 10:21 19.04.2020
4463 Clouds 15 1016 77 10000 1 0 09:59 19.04.2020
4464 Clouds 15 1016 77 10000 1 0 09:59 19.04.2020
4465 Clouds 14 1016 76 10000 0.5 0 09:41 19.04.2020
4466 Clouds 13 1016 76 10000 0.5 0 09:20 19.04.2020
4467 Clouds 12 1015 76 10000 0.5 0 08:40 19.04.2020
4468 Clouds 10 1015 87 10000 0.5 210 08:21 19.04.2020
4469 Clouds 9 1015 87 10000 0.5 210 07:58 19.04.2020
4470 Clouds 9 1015 93 10000 1 0 07:39 19.04.2020
4471 Clouds 9 1015 93 10000 1 0 07:20 19.04.2020
4472 Clouds 9 1015 87 10000 0.5 0 06:27 19.04.2020
4473 Clouds 10 1016 93 10000 1.5 230 05:43 19.04.2020
4474 Clear 10 1015 87 10000 0.5 0 04:22 19.04.2020
4475 Clouds 12 1015 81 10000 3.1 280 02:55 19.04.2020
4476 Clouds 12 1016 81 10000 1 0 02:20 19.04.2020
4477 Clouds 13 1016 81 10000 1 0 01:37 19.04.2020
4478 Clouds 14 1016 81 10000 1.5 250 00:42 19.04.2020
4479 Rain 14 1016 81 10000 3.1 250 00:22 19.04.2020
4480 Rain 14 1016 76 10000 3.1 250 23:46 18.04.2020
4481 Rain 14 1016 76 10000 3.1 250 23:21 18.04.2020
4482 Rain 15 1016 71 10000 2.6 250 22:58 18.04.2020
4483 Rain 16 1016 67 10000 2.6 260 22:38 18.04.2020
4484 Rain 16 1016 67 10000 2.6 260 22:20 18.04.2020
4485 Rain 17 1016 59 10000 2.6 310 21:56 18.04.2020
4486 Clouds 18 1015 59 10000 2.1 290 21:37 18.04.2020
4487 Clouds 18 1015 59 10000 2.1 290 21:19 18.04.2020
4488 Clouds 19 1015 52 10000 3.6 300 20:42 18.04.2020
4489 Clouds 19 1015 52 10000 3.6 300 20:22 18.04.2020
4490 Clouds 21 1014 46 10000 6.7 300 19:56 18.04.2020
4491 Clouds 21 1014 46 10000 6.7 300 19:56 18.04.2020
4492 Clouds 21 1014 46 10000 6.7 300 19:37 18.04.2020
4493 Clouds 21 1014 46 10000 7.2 310 19:19 18.04.2020
4494 Clouds 22 1014 40 10000 6.2 320 18:38 18.04.2020
4495 Clouds 22 1014 40 10000 6.2 320 18:19 18.04.2020
4496 Clouds 22 1014 40 10000 3.1 360 17:45 18.04.2020
4497 Clouds 22 1014 40 10000 3.1 360 17:22 18.04.2020
4498 Clouds 23 1014 38 10000 2.6 70 16:58 18.04.2020
4499 Clouds 23 1014 40 10000 1.5 0 16:39 18.04.2020
4500 Clouds 23 1014 40 10000 1.5 0 16:21 18.04.2020
4501 Rain 23 1015 40 10000 1.5 0 15:40 18.04.2020
4502 Rain 23 1015 40 10000 1.5 0 15:22 18.04.2020
4503 Clouds 22 1015 40 10000 1.5 150 14:54 18.04.2020
4504 Clouds 22 1015 40 10000 1.5 0 14:36 18.04.2020
4505 Rain 22 1015 43 10000 1 0 14:18 18.04.2020
4506 Rain 21 1016 46 10000 1.5 0 13:42 18.04.2020
4507 Rain 21 1016 46 10000 1.5 0 13:20 18.04.2020
4508 Rain 21 1016 52 10000 2.1 0 12:43 18.04.2020
4509 Rain 20 1016 52 10000 2.1 0 12:24 18.04.2020
4510 Rain 19 1016 55 10000 2.1 60 11:58 18.04.2020
4511 Rain 19 1016 56 10000 1 0 11:40 18.04.2020
4512 Rain 19 1016 56 10000 1 0 11:21 18.04.2020
4513 Rain 16 1016 71 10000 1 0 10:42 18.04.2020
4514 Rain 15 1016 71 10000 1 0 10:22 18.04.2020
4515 -273 0 0 0 0 0 09:59 18.04.2020
4516 Rain 13 1016 81 10000 1 0 09:40 18.04.2020
4517 Rain 12 1016 81 10000 0.5 0 09:20 18.04.2020
4518 Rain 11 1016 87 10000 0.5 0 08:43 18.04.2020
4519 Rain 10 1016 87 10000 0.5 0 08:22 18.04.2020
4520 Rain 10 1015 87 10000 1 70 07:49 18.04.2020
4521 Rain 10 1015 87 10000 1 330 07:29 18.04.2020
4522 Rain 10 1015 81 10000 0.5 80 06:49 18.04.2020
4523 Clouds 9 1014 87 10000 0.5 40 05:50 18.04.2020
4524 Clouds 9 1014 81 10000 0.5 0 04:57 18.04.2020
4525 Clouds 10 1014 76 10000 1 250 04:32 18.04.2020
4526 Clouds 10 1014 76 10000 1 250 04:32 18.04.2020
4527 Clouds 10 1014 76 10000 1 270 03:43 18.04.2020
4528 Clouds 11 1014 76 10000 1 290 02:42 18.04.2020
4529 Clouds 11 1014 76 10000 1 290 02:21 18.04.2020
4530 Clouds 11 1014 76 10000 1 290 02:21 18.04.2020
4531 Clouds 12 1015 71 10000 1.5 290 02:21 18.04.2020
4532 Clouds 12 1015 71 10000 1.5 290 01:48 18.04.2020
4533 Clouds 12 1015 71 10000 1 0 01:28 18.04.2020
4534 Clouds 13 1014 67 10000 1 0 00:38 18.04.2020
4535 Clouds 13 1014 67 10000 1 0 00:20 18.04.2020
4536 Clouds 14 1015 59 10000 1 270 23:54 17.04.2020
4537 Clouds 15 1015 59 10000 1 270 23:36 17.04.2020
4538 Clouds 16 1015 59 10000 1 0 23:18 17.04.2020
4539 Clouds 17 1015 52 10000 1 0 22:41 17.04.2020
4540 Clouds 17 1015 52 10000 1 0 22:21 17.04.2020
4541 Clouds 17 1014 52 10000 1.5 0 21:59 17.04.2020
4542 Clouds 18 1014 45 10000 2.6 320 21:40 17.04.2020
4543 Rain 18 1014 45 10000 2.6 320 21:20 17.04.2020
4544 Rain 19 1014 45 10000 1.5 330 20:56 17.04.2020
4545 Rain 20 1014 45 10000 1.5 30 20:37 17.04.2020
4546 Rain 21 1014 46 10000 2.6 20 20:18 17.04.2020
4547 Rain 21 1014 46 10000 2.6 20 19:56 17.04.2020
4548 Rain 22 1014 46 10000 2.6 30 19:38 17.04.2020
4549 Rain 22 1014 46 10000 2.6 30 19:19 17.04.2020
4550 Rain 22 1014 43 10000 3.6 30 18:42 17.04.2020
4551 Rain 22 1014 43 10000 3.6 30 18:22 17.04.2020
4552 Rain 23 1014 35 10000 3.6 360 17:54 17.04.2020
4553 Rain 23 1014 35 10000 3.6 360 17:36 17.04.2020
4554 Rain 23 1014 35 10000 3.6 360 17:18 17.04.2020
4555 Rain 23 1014 38 10000 3.1 10 16:41 17.04.2020
4556 Rain 23 1014 38 10000 3.1 10 16:22 17.04.2020
4557 Rain 22 1015 38 10000 2.6 20 15:41 17.04.2020
4558 Rain 23 1015 38 10000 2.6 20 15:22 17.04.2020
4559 Rain 22 1015 37 10000 2.6 0 14:55 17.04.2020
4560 Rain 22 1015 35 10000 2.6 30 14:37 17.04.2020
4561 Clouds 22 1015 35 10000 1 0 14:19 17.04.2020
4562 Clouds 22 1016 35 10000 2.1 70 13:40 17.04.2020
4563 Clouds 22 1016 35 10000 2.1 70 13:21 17.04.2020
4564 Clouds 21 1016 37 10000 2.1 90 12:58 17.04.2020
4565 Clouds 21 1016 43 10000 1.5 0 12:40 17.04.2020
4566 Clouds 21 1016 43 10000 1.5 0 12:21 17.04.2020
4567 Clouds 20 1016 52 10000 2.1 80 11:40 17.04.2020
4568 Clouds 19 1016 52 10000 1 0 11:19 17.04.2020
4569 Clouds 18 1016 59 10000 1 0 10:44 17.04.2020
4570 Clouds 17 1016 59 10000 1 0 10:24 17.04.2020
4571 Clouds 16 1017 62 10000 1 0 09:59 17.04.2020
4572 Clouds 15 1017 71 10000 0.5 0 09:40 17.04.2020
4573 Clouds 12 1017 71 10000 0.5 0 09:20 17.04.2020
4574 Clouds 12 1017 76 10000 1 0 08:55 17.04.2020
4575 Clouds 11 1017 76 10000 1 0 08:37 17.04.2020
4576 Clouds 10 1017 81 10000 0.5 0 08:18 17.04.2020
4577 Clouds 9 1016 81 10000 1 0 07:43 17.04.2020
4578 Clouds 9 1016 81 10000 1 80 07:20 17.04.2020
4579 Clouds 8 1016 81 10000 1 0 06:45 17.04.2020
4580 Clouds 8 1016 75 10000 1 0 06:22 17.04.2020
4581 Clouds 9 1016 70 10000 1 0 04:27 17.04.2020
4582 Clouds 9 1016 66 10000 0.5 0 03:19 17.04.2020
4583 Clouds 10 1016 66 10000 1.5 270 01:58 17.04.2020
4584 Clouds 10 1016 70 10000 1 280 01:27 17.04.2020
4585 Clouds 10 1016 66 10000 0.5 0 00:45 17.04.2020
4586 Clear 11 1016 66 10000 1 320 00:18 17.04.2020
4587 Clear 11 1016 62 10000 1 0 23:40 16.04.2020
4588 Clear 12 1016 58 10000 1.5 300 23:22 16.04.2020
4589 Clear 12 1016 66 10000 2.1 260 22:56 16.04.2020
4590 Clear 13 1016 66 10000 2.1 260 22:37 16.04.2020
4591 Clear 13 1016 58 10000 2.1 290 22:19 16.04.2020
4592 Clear 15 1016 47 10000 1 340 21:42 16.04.2020
4593 Clouds 15 1016 44 10000 1.5 360 21:20 16.04.2020
4594 Clouds 16 1016 37 10000 1.5 10 20:59 16.04.2020
4595 Clouds 17 1016 37 10000 1.5 10 20:39 16.04.2020
4596 Clouds 18 1015 39 10000 1.5 40 20:19 16.04.2020
4597 Clouds 20 1015 34 10000 2.1 10 19:55 16.04.2020
4598 Clouds 20 1016 34 10000 3.1 20 19:37 16.04.2020
4599 Clouds 20 1016 34 10000 3.1 20 19:18 16.04.2020
4600 Clouds 21 1016 33 10000 3.1 30 18:42 16.04.2020
4601 Clouds 21 1016 33 10000 3.1 30 18:24 16.04.2020
4602 Clouds 21 1016 30 10000 2.6 50 17:57 16.04.2020
4603 Clouds 21 1016 30 10000 2.6 50 17:39 16.04.2020
4604 Clouds 21 1016 33 10000 3.1 40 17:18 16.04.2020
4605 Clouds 22 1017 30 10000 2.6 40 16:43 16.04.2020
4606 Clouds 22 1017 30 10000 2.1 70 16:25 16.04.2020
4607 Clouds 22 1017 33 10000 2.6 90 15:46 16.04.2020
4608 Clouds 22 1017 33 10000 2.6 90 15:46 16.04.2020
4609 Clouds 21 1018 33 10000 2.6 90 15:20 16.04.2020
4610 Clouds 21 1018 28 10000 2.6 70 14:59 16.04.2020
4611 Clouds 21 1018 28 10000 2.6 70 14:41 16.04.2020
4612 Clouds 21 1018 30 10000 1.5 0 14:23 16.04.2020
4613 Clouds 20 1018 28 10000 2.1 340 13:58 16.04.2020
4614 Clouds 20 1018 28 10000 2.1 340 13:40 16.04.2020
4615 Clouds 20 1018 30 10000 1.5 0 13:21 16.04.2020
4616 Clouds 19 1019 34 10000 1.5 0 12:58 16.04.2020
4617 Clouds 18 1019 36 10000 1.5 0 12:39 16.04.2020
4618 Clouds 18 1019 36 10000 1.5 0 12:19 16.04.2020
4619 Clouds 17 1019 39 10000 1.5 70 11:57 16.04.2020
4620 Clouds 17 1019 39 10000 1.5 70 11:39 16.04.2020
4621 Clouds 16 1019 38 10000 1.5 110 11:20 16.04.2020
4622 Clouds 16 1019 47 10000 2.1 120 10:55 16.04.2020
4623 Clouds 15 1019 47 10000 2.1 120 10:37 16.04.2020
4624 Clouds 14 1019 50 10000 1.5 100 10:18 16.04.2020
4625 Clouds 8 1020 58 10000 0.5 0 09:39 16.04.2020
4626 Clouds 8 1020 58 10000 0.5 0 09:20 16.04.2020
4627 Clouds 8 1020 58 10000 0.5 0 09:20 16.04.2020
4628 Clouds 7 1020 58 10000 0.5 340 08:56 16.04.2020
4629 Clouds 7 1020 58 10000 0.5 340 08:37 16.04.2020
4630 Clouds 6 1019 58 10000 0.5 0 08:19 16.04.2020
4631 Clouds 4 1019 69 10000 0.5 0 07:43 16.04.2020
4632 Clouds 4 1019 74 10000 1.5 60 07:23 16.04.2020
4633 Clouds 3 1019 74 10000 1.5 70 06:42 16.04.2020
4634 Clouds 4 1019 69 10000 0.5 0 06:23 16.04.2020
4635 Clouds 4 1019 60 10000 0.5 0 04:54 16.04.2020
4636 Clouds 5 1020 60 10000 1.5 280 03:39 16.04.2020
4637 Clouds 5 1020 60 10000 1.5 270 03:21 16.04.2020
4638 Clouds 6 1020 60 10000 2.1 280 02:43 16.04.2020
4639 Clouds 6 1020 60 10000 1 280 01:58 16.04.2020
4640 Clouds 6 1021 52 10000 1 330 00:59 16.04.2020
4641 Clouds 7 1021 49 10000 1.5 280 00:26 16.04.2020
4642 Clouds 8 1021 52 10000 1.5 280 23:57 15.04.2020
4643 Clouds 8 1021 52 10000 1.5 280 23:39 15.04.2020
4644 Clouds 9 1021 42 10000 0.5 70 23:20 15.04.2020
4645 Clouds 10 1021 45 10000 1.5 60 22:40 15.04.2020
4646 Clouds 10 1021 39 10000 1 110 22:21 15.04.2020
4647 Clouds 11 1020 34 10000 2.1 90 21:58 15.04.2020
4648 Clouds 12 1020 34 10000 2.1 90 21:40 15.04.2020
4649 Clear 12 1020 32 10000 2.6 80 21:22 15.04.2020
4650 Clear 13 1020 26 10000 2.6 60 20:57 15.04.2020
4651 Clear 13 1020 26 10000 2.6 60 20:39 15.04.2020
4652 Clear 14 1020 28 10000 4.1 70 20:21 15.04.2020
4653 Clear 15 1020 26 10000 4.1 70 19:42 15.04.2020
4654 Clear 16 1020 18 10000 3.6 70 19:21 15.04.2020
4655 Clear 16 1021 18 10000 1.5 50 18:56 15.04.2020
4656 Clear 16 1021 18 10000 1.5 50 18:37 15.04.2020
4657 Clear 17 1021 19 10000 2.1 40 18:19 15.04.2020
4658 Clear 17 1021 17 10000 3.6 40 17:40 15.04.2020
4659 Clear 17 1021 20 10000 2.1 60 17:21 15.04.2020
4660 Clear 17 1022 22 10000 2.1 0 16:58 15.04.2020
4661 Clear 16 1022 23 10000 1 0 16:39 15.04.2020
4662 Clear 17 1022 23 10000 1 0 16:20 15.04.2020
4663 Clear 17 1022 25 10000 2.1 0 15:59 15.04.2020
4664 Clear 17 1022 25 10000 2.1 0 15:40 15.04.2020
4665 Clouds 16 1023 26 10000 1 20 15:20 15.04.2020
4666 Clouds 16 1023 30 10000 1.5 0 14:59 15.04.2020
4667 Clouds 16 1023 30 10000 1.5 0 14:41 15.04.2020
4668 Clouds 15 1023 33 10000 1.5 0 14:23 15.04.2020
4669 Clouds 15 1024 33 10000 1.5 0 13:59 15.04.2020
4670 Clouds 15 1024 33 10000 1.5 0 13:40 15.04.2020
4671 Clouds 14 1024 32 10000 2.1 0 13:21 15.04.2020
4672 Clouds 13 1024 34 10000 1.5 0 12:58 15.04.2020
4673 Clouds 12 1024 34 10000 1.5 0 12:39 15.04.2020
4674 Clouds 11 1025 37 10000 2.6 80 12:21 15.04.2020
4675 Clouds 11 1025 37 10000 3.1 60 11:57 15.04.2020
4676 Clouds 11 1025 37 10000 3.1 60 11:38 15.04.2020
4677 Clouds 10 1025 36 10000 2.1 100 11:20 15.04.2020
4678 Clouds 8 1025 48 10000 1.5 90 10:38 15.04.2020
4679 Clouds 7 1025 48 10000 1.5 90 10:19 15.04.2020
4680 Clouds 6 1025 52 10000 1.5 80 09:56 15.04.2020
4681 Clouds 5 1025 52 10000 1.5 80 09:38 15.04.2020
4682 Clear 3 1025 59 10000 1 0 09:19 15.04.2020
4683 Clear 3 1024 55 10000 0.5 0 08:54 15.04.2020
4684 Clear 1 1024 69 10000 1.5 350 08:36 15.04.2020
4685 Clear 1 1024 69 10000 1.5 350 08:18 15.04.2020
4686 Clear 0 1024 65 10000 1 320 07:44 15.04.2020
4687 Clear -1 1024 74 10000 0.5 0 07:26 15.04.2020
4688 Clouds -1 1024 78 10000 0.5 0 06:25 15.04.2020
4689 Clouds -1 1024 74 10000 0.5 0 05:48 15.04.2020
4690 Clouds 0 1024 78 10000 0.5 0 04:47 15.04.2020
4691 Clouds 0 1024 78 10000 1.5 10 04:22 15.04.2020
4692 Clouds 0 1025 64 10000 0.5 0 03:22 15.04.2020
4693 Clouds 1 1024 69 10000 1 0 02:49 15.04.2020
4694 Clouds 0 1025 64 10000 1 0 01:52 15.04.2020
4695 Clouds 1 1025 69 10000 1 0 01:25 15.04.2020
4696 Clouds 1 1025 59 10000 1 30 00:49 15.04.2020
4697 Clear 2 1025 55 10000 1.5 40 00:27 15.04.2020
4698 Clear 2 1025 55 10000 1 0 23:56 14.04.2020
4699 Clear 2 1025 55 10000 1 0 23:56 14.04.2020
4700 Clear 2 1025 55 10000 1 0 23:38 14.04.2020
4701 Clear 3 1025 55 10000 1 0 23:20 14.04.2020
4702 Clear 3 1025 51 10000 1 0 22:57 14.04.2020
4703 Clear 3 1025 48 10000 2.6 40 22:39 14.04.2020
4704 Clear 3 1025 48 10000 2.6 40 22:20 14.04.2020
4705 Clear 4 1025 48 10000 2.1 70 21:57 14.04.2020
4706 Clear 5 1025 48 10000 2.1 70 21:39 14.04.2020
4707 Clouds 5 1024 48 10000 1.5 90 21:20 14.04.2020
4708 Clouds 5 1024 45 10000 2.6 20 20:58 14.04.2020
4709 Clouds 6 1024 42 10000 2.6 20 20:39 14.04.2020
4710 Clouds 6 1024 42 10000 2.6 20 20:21 14.04.2020
4711 Clouds 6 1024 42 10000 2.6 20 20:21 14.04.2020
4712 Clouds 8 1023 39 10000 2.6 20 19:41 14.04.2020
4713 Clouds 8 1024 39 10000 2.6 20 19:23 14.04.2020
4714 Clouds 9 1023 36 10000 3.1 10 18:59 14.04.2020
4715 Clouds 9 1023 36 10000 3.1 10 18:41 14.04.2020
4716 Clouds 8 1023 34 10000 2.6 40 18:22 14.04.2020
4717 Clouds 9 1023 39 10000 4.1 40 17:58 14.04.2020
4718 Clouds 9 1023 39 10000 4.1 40 17:39 14.04.2020
4719 Clouds 9 1023 36 10000 2.6 330 17:20 14.04.2020
4720 Clouds 9 1023 39 10000 2.1 0 16:58 14.04.2020
4721 Clouds 8 1023 39 10000 2.1 0 16:39 14.04.2020
4722 Clouds 9 1023 34 10000 2.6 0 16:20 14.04.2020
4723 Clouds 8 1024 39 10000 4.1 360 15:57 14.04.2020
4724 Clouds 8 1024 39 10000 4.1 360 15:38 14.04.2020
4725 Clouds 8 1024 39 10000 1 0 15:19 14.04.2020
4726 Clouds 8 1024 39 10000 3.6 350 14:57 14.04.2020
4727 Clouds 8 1024 39 10000 3.6 350 14:38 14.04.2020
4728 Clouds 8 1024 39 10000 2.6 50 14:20 14.04.2020
4729 Clouds 8 1024 39 10000 2.6 40 13:43 14.04.2020
4730 Clouds 7 1024 45 10000 4.1 340 13:24 14.04.2020
4731 Clouds 7 1024 39 10000 3.1 10 12:57 14.04.2020
4732 Clouds 6 1024 45 10000 3.6 360 12:38 14.04.2020
4733 Clouds 6 1024 45 10000 3.6 360 12:19 14.04.2020
4734 Clouds 6 1024 45 10000 4.1 30 11:54 14.04.2020
4735 Clouds 6 1024 45 10000 4.1 30 11:36 14.04.2020
4736 Clouds 6 1024 44 10000 3.6 30 11:18 14.04.2020
4737 Clouds 5 1024 48 10000 4.6 10 10:40 14.04.2020
4738 Clouds 5 1023 51 10000 4.1 360 10:21 14.04.2020
4739 Clear 4 1023 51 10000 2.1 60 09:42 14.04.2020
4740 Clear 4 1023 51 10000 2.1 60 09:24 14.04.2020
4741 Clear 2 1023 55 10000 1.5 50 08:57 14.04.2020
4742 Clear 1 1023 55 10000 1.5 50 08:39 14.04.2020
4743 Clear 1 1023 59 10000 1 0 08:21 14.04.2020
4744 Clear 0 1022 64 10000 2.6 360 07:51 14.04.2020
4745 Clear -1 1022 64 10000 3.6 10 07:27 14.04.2020
4746 Clear -1 1022 64 10000 4.1 350 06:46 14.04.2020
4747 Clear 0 1022 64 10000 1 300 05:54 14.04.2020
4748 Clear 1 1021 59 10000 1.5 320 03:50 14.04.2020
4749 Clouds 2 1021 59 10000 2.6 340 02:44 14.04.2020
4750 Clouds 3 1021 60 10000 2.6 20 01:38 14.04.2020
4751 Clouds 3 1020 60 10000 2.6 20 01:18 14.04.2020
4752 Clouds 4 1020 60 10000 2.6 10 00:32 14.04.2020
4753 Clouds 5 1020 56 10000 4.1 10 23:59 13.04.2020
4754 Clouds 5 1020 56 10000 4.1 10 23:39 13.04.2020
4755 Clouds 6 1019 60 10000 3.6 360 23:21 13.04.2020
4756 Clouds 6 1019 64 10000 5.7 350 22:56 13.04.2020
4757 Clouds 6 1019 64 10000 5.7 350 22:38 13.04.2020
4758 Clouds 7 1019 65 10000 4.6 10 22:20 13.04.2020
4759 Clouds 7 1018 65 10000 5.7 360 21:54 13.04.2020
4760 Clouds 7 1018 65 10000 5.7 360 21:36 13.04.2020
4761 Clouds 8 1018 65 10000 6.2 350 21:18 13.04.2020
4762 Clouds 9 1017 70 10000 6.2 360 20:41 13.04.2020
4763 Clouds 9 1017 70 10000 6.2 350 20:20 13.04.2020
4764 Rain 9 1017 76 10000 4.6 360 19:59 13.04.2020
4765 Rain 10 1016 76 10000 6.2 360 19:38 13.04.2020
4766 Rain 10 1016 76 10000 6.2 360 19:19 13.04.2020
4767 Rain 10 1016 76 10000 6.2 360 19:19 13.04.2020
4768 Rain 11 1016 71 10000 6.7 10 18:58 13.04.2020
4769 Rain 12 1016 71 10000 8.7 350 18:39 13.04.2020
4770 Rain 12 1016 71 10000 8.7 350 18:20 13.04.2020
4771 Clouds 13 1015 66 10000 9.3 350 17:58 13.04.2020
4772 Clouds 14 1015 62 10000 8.2 350 17:38 13.04.2020
4773 Clouds 15 1015 62 10000 8.2 350 17:19 13.04.2020
4774 Clouds 15 1015 59 10000 8.2 10 16:58 13.04.2020
4775 Clouds 16 1015 59 10000 8.2 10 16:40 13.04.2020
4776 Clouds 16 1014 59 10000 8.7 350 16:20 13.04.2020
4777 Rain 17 1014 45 10000 7.7 350 15:58 13.04.2020
4778 Rain 17 1014 45 10000 7.7 350 15:39 13.04.2020
4779 Rain 18 1014 42 10000 6.2 340 15:21 13.04.2020
4780 Rain 18 1014 42 10000 6.2 330 14:54 13.04.2020
4781 Rain 18 1014 42 10000 6.2 310 14:36 13.04.2020
4782 Rain 18 1014 42 10000 6.2 310 14:18 13.04.2020
4783 Clouds 18 1014 42 10000 5.1 350 13:55 13.04.2020
4784 Clouds 18 1014 39 10000 4.1 10 13:37 13.04.2020
4785 Clouds 18 1014 39 10000 4.1 10 13:18 13.04.2020
4786 Clouds 18 1014 42 10000 4.1 340 12:56 13.04.2020
4787 Clouds 17 1014 42 10000 4.1 340 12:38 13.04.2020
4788 Rain 17 1015 37 10000 3.6 10 12:19 13.04.2020
4789 Clouds 17 1015 42 10000 4.1 290 11:42 13.04.2020
4790 Clouds 16 1015 45 10000 1 0 11:19 13.04.2020
4791 Clouds 16 1015 71 10000 1 0 10:56 13.04.2020
4792 Clouds 16 1015 71 10000 1 0 10:38 13.04.2020
4793 Clouds 15 1015 81 10000 1 0 10:19 13.04.2020
4794 Clouds 13 1015 81 10000 1 0 09:55 13.04.2020
4795 Clouds 12 1015 81 10000 1 0 09:36 13.04.2020
4796 Rain 11 1014 76 10000 0.5 360 09:18 13.04.2020
4797 Rain 10 1014 81 10000 1.96 255 08:42 13.04.2020
4798 Rain 9 1014 87 10000 0.5 0 08:24 13.04.2020
4799 Rain 8 1014 93 10000 1.5 60 07:42 13.04.2020
4800 Rain 7 1013 93 10000 1 70 07:24 13.04.2020
4801 Rain 8 1013 93 10000 1 0 06:47 13.04.2020
4802 Rain 7 1013 93 10000 0.5 0 06:25 13.04.2020
4803 Rain 7 1013 93 10000 1 0 05:32 13.04.2020
4804 Rain 8 1013 93 10000 1.5 60 04:53 13.04.2020
4805 Rain 8 1013 93 10000 0.5 0 04:24 13.04.2020
4806 Rain 8 1013 93 10000 0.5 0 03:48 13.04.2020
4807 -273 0 0 0 0 0 02:59 13.04.2020
4808 Clouds 9 1014 87 10000 0.5 290 02:38 13.04.2020
4809 Rain 9 1014 81 10000 0.5 0 01:44 13.04.2020
4810 Rain 9 1014 81 10000 0.5 20 01:25 13.04.2020
4811 Rain 10 1014 81 10000 2.6 260 00:43 13.04.2020
4812 Rain 10 1014 81 10000 2.6 260 00:22 13.04.2020
4813 Rain 10 1014 87 10000 1 0 23:49 12.04.2020
4814 Rain 11 1014 81 10000 2.1 290 23:26 12.04.2020
4815 Rain 11 1014 87 10000 2.1 290 22:59 12.04.2020
4816 Rain 12 1014 81 10000 2.1 300 22:38 12.04.2020
4817 Rain 12 1014 81 10000 2.1 300 22:19 12.04.2020
4818 Rain 13 1014 76 10000 1.5 300 21:55 12.04.2020
4819 Rain 13 1014 76 10000 1.5 300 21:36 12.04.2020
4820 Rain 15 1014 71 10000 1.5 160 21:18 12.04.2020
4821 Rain 16 1014 67 10000 1.5 160 20:41 12.04.2020
4822 Clouds 16 1014 71 10000 2.6 90 20:23 12.04.2020
4823 Rain 17 1014 72 10000 4.1 40 19:57 12.04.2020
4824 Rain 18 1014 72 10000 4.1 40 19:38 12.04.2020
4825 Rain 19 1015 55 10000 7.7 220 19:19 12.04.2020
4826 Rain 20 1014 39 10000 2.6 190 18:41 12.04.2020
4827 Rain 20 1014 34 10000 3.6 190 18:23 12.04.2020
4828 Rain 21 1014 48 10000 2.6 340 17:59 12.04.2020
4829 Rain 22 1014 48 10000 2.6 340 17:41 12.04.2020
4830 Rain 22 1014 40 10000 5.1 360 17:23 12.04.2020
4831 Clouds 22 1014 35 10000 4.1 330 16:58 12.04.2020
4832 Clouds 22 1014 35 10000 4.1 330 16:39 12.04.2020
4833 Clouds 22 1015 37 10000 4.1 330 16:20 12.04.2020
4834 Clouds 22 1015 30 10000 4.6 330 15:49 12.04.2020
4835 Clouds 22 1015 28 10000 2.1 0 15:30 12.04.2020
4836 Clouds 22 1016 27 10000 3.1 110 14:56 12.04.2020
4837 Clouds 22 1016 27 10000 3.1 110 14:37 12.04.2020
4838 Clouds 22 1016 30 10000 2.6 150 14:18 12.04.2020
4839 Rain 22 1016 37 10000 2.6 120 13:42 12.04.2020
4840 Clouds 22 1017 40 10000 2.1 150 13:24 12.04.2020
4841 Clouds 21 1017 45 10000 2.1 160 12:55 12.04.2020
4842 Clouds 19 1018 48 10000 2.1 170 12:37 12.04.2020
4843 Clouds 19 1018 48 10000 2.1 170 12:18 12.04.2020
4844 Clouds 18 1018 52 10000 2.1 110 11:56 12.04.2020
4845 Clouds 19 1018 52 10000 2.1 110 11:36 12.04.2020
4846 Clouds 18 1018 55 10000 1.5 90 11:18 12.04.2020
4847 Clouds 17 1018 45 10000 1 0 10:55 12.04.2020
4848 Clouds 17 1018 45 10000 1 0 10:55 12.04.2020
4849 Clouds 15 1019 58 10000 0.5 0 10:37 12.04.2020
4850 Clouds 14 1019 71 10000 0.5 0 10:18 12.04.2020
4851 Clouds 13 1019 76 10000 0.5 0 09:54 12.04.2020
4852 Clouds 13 1019 76 10000 0.5 0 09:36 12.04.2020
4853 Clouds 11 1019 76 10000 0.5 0 09:18 12.04.2020
4854 Clouds 11 1019 76 10000 0.5 0 08:45 12.04.2020
4855 Clouds 10 1019 76 10000 0.5 0 08:27 12.04.2020
4856 Clouds 8 1019 81 10000 0.5 0 07:45 12.04.2020
4857 Clouds 8 1019 87 10000 0.5 0 07:19 12.04.2020
4858 Clouds 8 1019 81 10000 1 0 06:36 12.04.2020
4859 Clouds 8 1020 75 10000 1 50 05:58 12.04.2020
4860 Clouds 8 1020 75 10000 1 50 05:37 12.04.2020
4861 Clouds 9 1020 70 10000 0.5 240 03:45 12.04.2020
4862 Clear 9 1021 66 10000 1 0 03:25 12.04.2020
4863 Clear 10 1021 66 10000 0.5 0 02:35 12.04.2020
4864 Clear 10 1021 66 10000 1.5 290 01:53 12.04.2020
4865 Clear 10 1021 57 10000 0.5 270 01:19 12.04.2020
4866 Clear 11 1021 61 10000 0.5 300 00:42 12.04.2020
4867 Clear 11 1021 66 10000 1.5 340 00:20 12.04.2020
4868 Clear 11 1021 57 10000 1 340 23:47 11.04.2020
4869 Clear 11 1021 61 10000 1 0 23:26 11.04.2020
4870 Clear 12 1022 47 10000 0.5 0 22:57 11.04.2020
4871 Clear 12 1022 44 10000 0.5 0 22:37 11.04.2020
4872 Clear 13 1022 44 10000 0.5 0 22:18 11.04.2020
4873 Clear 14 1022 47 10000 1.5 20 21:54 11.04.2020
4874 Clear 15 1021 39 10000 2.1 360 21:36 11.04.2020
4875 Clear 15 1021 39 10000 2.1 360 21:18 11.04.2020
4876 Clear 16 1021 39 10000 3.1 360 20:55 11.04.2020
4877 Clear 17 1021 39 10000 3.1 360 20:37 11.04.2020
4878 Clear 17 1021 39 10000 3.1 360 20:37 11.04.2020
4879 Clear 17 1021 39 10000 3.1 10 20:19 11.04.2020
4880 Clear 18 1021 39 10000 3.6 10 19:56 11.04.2020
4881 Clear 18 1021 39 10000 3.6 10 19:56 11.04.2020
4882 Clear 19 1021 39 10000 3.6 10 19:37 11.04.2020
4883 Clear 19 1021 39 10000 3.6 10 19:37 11.04.2020
4884 Clear 19 1021 34 10000 3.6 20 19:18 11.04.2020
4885 Clear 20 1021 32 10000 3.6 360 18:55 11.04.2020
4886 Clear 20 1021 32 10000 3.6 360 18:37 11.04.2020
4887 Clear 20 1021 30 10000 3.6 10 18:18 11.04.2020
4888 Clear 20 1021 32 10000 2.6 360 17:57 11.04.2020
4889 Clear 20 1021 32 10000 2.6 360 17:57 11.04.2020
4890 Clear 21 1021 30 10000 2.6 60 17:37 11.04.2020
4891 Clear 21 1021 30 10000 2.6 60 17:37 11.04.2020
4892 Clear 21 1021 30 10000 2.6 60 17:19 11.04.2020
4893 Clear 21 1022 32 10000 3.6 0 16:42 11.04.2020
4894 Clear 21 1022 32 10000 2.1 40 16:21 11.04.2020
4895 Clear 21 1022 26 10000 1.5 0 15:42 11.04.2020
4896 Clear 21 1022 26 10000 2.6 10 15:21 11.04.2020
4897 Clear 21 1023 30 10000 3.1 10 14:59 11.04.2020
4898 Clear 21 1023 30 10000 3.1 10 14:40 11.04.2020
4899 Clear 20 1023 32 10000 1.5 0 14:22 11.04.2020
4900 Clear 20 1023 35 10000 2.1 350 13:43 11.04.2020
4901 Clear 20 1024 34 10000 1.5 0 13:25 11.04.2020
4902 Clear 19 1024 37 10000 2.1 0 12:59 11.04.2020
4903 Clear 18 1024 42 10000 1.5 0 12:38 11.04.2020
4904 Clear 18 1024 42 10000 1.5 0 12:18 11.04.2020
4905 Clear 18 1024 48 10000 1.5 50 11:54 11.04.2020
4906 Clear 17 1024 48 10000 2.1 60 11:36 11.04.2020
4907 Clear 17 1024 48 10000 2.1 60 11:18 11.04.2020
4908 Clear 15 1024 58 10000 1.5 90 10:41 11.04.2020
4909 Clear 14 1024 58 10000 1.5 90 10:21 11.04.2020
4910 Clear 13 1024 58 10000 1 0 09:57 11.04.2020
4911 Clear 13 1024 58 10000 1 0 09:39 11.04.2020
4912 Clear 11 1024 71 10000 0.5 0 09:20 11.04.2020
4913 Clear 10 1024 71 10000 1 0 08:45 11.04.2020
4914 Clear 9 1024 75 10000 1 0 08:27 11.04.2020
4915 Clear 8 1024 70 10000 0.5 0 07:49 11.04.2020
4916 Clear 7 1023 81 10000 1 190 07:28 11.04.2020
4917 Clear 7 1023 81 10000 0.5 0 06:48 11.04.2020
4918 Clear 7 1023 81 10000 1.5 330 06:18 11.04.2020
4919 Clear 7 1023 75 10000 1 0 05:24 11.04.2020
4920 Clear 8 1023 70 10000 0.5 0 03:40 11.04.2020
4921 Clear 10 1023 66 10000 1.5 270 01:59 11.04.2020
4922 Clear 11 1023 62 10000 1.5 300 01:24 11.04.2020
4923 Clear 11 1023 62 10000 1.5 320 00:44 11.04.2020
4924 Clouds 11 1023 62 10000 2.1 300 00:19 11.04.2020
4925 Clouds 11 1023 66 10000 2.1 340 23:57 10.04.2020
4926 Clouds 12 1023 66 10000 2.1 340 23:38 10.04.2020
4927 Clouds 12 1023 66 10000 1.5 290 23:19 10.04.2020
4928 Clouds 13 1023 51 10000 0.5 0 22:44 10.04.2020
4929 Clouds 14 1022 51 10000 0.5 0 22:22 10.04.2020
4930 Clouds 15 1022 48 10000 2.6 10 21:58 10.04.2020
4931 Clouds 15 1022 48 10000 2.6 10 21:40 10.04.2020
4932 Clear 15 1022 48 10000 2.6 10 21:40 10.04.2020
4933 Clear 15 1022 45 10000 3.1 360 21:20 10.04.2020
4934 Clear 16 1022 39 10000 2.6 360 20:55 10.04.2020
4935 Clear 18 1022 39 10000 3.1 360 20:37 10.04.2020
4936 Clear 19 1022 39 10000 3.1 360 20:18 10.04.2020
4937 Clear 20 1022 40 10000 3.1 360 19:41 10.04.2020
4938 Clear 20 1022 40 10000 3.1 360 19:21 10.04.2020
4939 Clear 20 1021 35 10000 3.6 360 18:58 10.04.2020
4940 Clear 20 1021 35 10000 3.6 360 18:40 10.04.2020
4941 Clear 21 1021 32 10000 3.6 20 18:40 10.04.2020
4942 Clouds 21 1021 32 10000 3.6 20 18:22 10.04.2020
4943 Clouds 21 1021 30 10000 2.6 10 17:59 10.04.2020
4944 Clouds 21 1021 30 10000 2.6 10 17:40 10.04.2020
4945 Clouds 21 1021 30 10000 2.6 10 17:40 10.04.2020
4946 Clouds 21 1022 30 10000 2.1 0 17:21 10.04.2020
4947 Clouds 22 1022 30 10000 2.6 340 16:59 10.04.2020
4948 Clouds 21 1022 30 10000 2.6 340 16:41 10.04.2020
4949 Clouds 22 1022 30 10000 1 0 16:21 10.04.2020
4950 Clouds 21 1022 28 10000 2.6 0 15:58 10.04.2020
4951 Clouds 21 1022 28 10000 2.6 0 15:38 10.04.2020
4952 Clear 21 1023 28 10000 3.1 30 15:19 10.04.2020
4953 Clear 21 1023 30 10000 3.1 60 14:58 10.04.2020
4954 Clear 21 1023 30 10000 3.1 60 14:39 10.04.2020
4955 Clear 21 1023 32 10000 2.1 0 14:19 10.04.2020
4956 Clear 21 1024 32 10000 3.1 50 13:44 10.04.2020
4957 Clear 20 1024 37 10000 1.5 20 13:22 10.04.2020
4958 Clear 20 1024 37 10000 1.5 0 12:55 10.04.2020
4959 Clear 19 1024 42 10000 1 0 12:36 10.04.2020
4960 Clear 19 1024 42 10000 1 0 12:18 10.04.2020
4961 Clear 18 1024 48 10000 1.5 60 11:42 10.04.2020
4962 Clear 17 1025 51 10000 1.5 80 11:23 10.04.2020
4963 Clear 16 1025 54 10000 1 0 10:56 10.04.2020
4964 Clear 15 1024 58 10000 1 0 10:37 10.04.2020
4965 Clear 14 1024 58 10000 1 0 10:19 10.04.2020
4966 Clear 12 1024 62 10000 0.5 0 09:43 10.04.2020
4967 Clear 11 1024 66 10000 0.5 0 09:21 10.04.2020
4968 Clear 10 1024 70 10000 0.5 0 08:48 10.04.2020
4969 Clear 8 1024 70 10000 0.53 72 08:27 10.04.2020
4970 Clear 8 1024 70 10000 0.53 72 08:27 10.04.2020
4971 Clear 7 1024 80 10000 0.53 72 07:55 10.04.2020
4972 Clear 8 1024 70 0 0.45 135 07:37 10.04.2020
4973 Clear 8 1024 70 0 0.89 135 07:19 10.04.2020
4974 Clear 8 1024 81 10000 1 180 06:31 10.04.2020
4975 Clear 8 1024 81 10000 1 180 06:31 10.04.2020
4976 Clear 8 1023 75 10000 1 290 05:59 10.04.2020
4977 Clear 8 1023 81 10000 1 240 05:29 10.04.2020
4978 Clear 8 1023 81 10000 1 0 04:54 10.04.2020
4979 Clear 8 1023 70 10000 0.5 0 03:35 10.04.2020
4980 Clear 9 1023 70 10000 0.5 0 02:51 10.04.2020
4981 Clear 9 1023 61 10000 1.5 260 02:32 10.04.2020
4982 Clear 9 1024 70 10000 1 10 01:47 10.04.2020
4983 Clear 10 1024 66 10000 1.5 270 01:27 10.04.2020
4984 Clear 11 1024 61 10000 0.5 0 00:46 10.04.2020
4985 Clouds 11 1024 61 10000 1 0 00:20 10.04.2020
4986 Clouds 12 1024 54 10000 2.1 260 23:42 09.04.2020
4987 Clouds 12 1024 54 10000 1.5 260 23:24 09.04.2020
4988 Clouds 13 1023 47 10000 1.5 260 22:57 09.04.2020
4989 Clouds 13 1023 47 10000 1.5 260 22:39 09.04.2020
4990 Clouds 13 1023 50 10000 0.5 0 22:21 09.04.2020
4991 Clouds 15 1023 41 10000 2.1 310 21:40 09.04.2020
4992 Clouds 15 1023 34 10000 2.1 340 21:21 09.04.2020
4993 Clouds 16 1023 34 10000 2.1 350 20:54 09.04.2020
4994 Clouds 17 1023 34 10000 2.1 350 20:36 09.04.2020
4995 Clouds 18 1022 32 10000 2.1 350 20:18 09.04.2020
4996 Clouds 19 1022 30 10000 2.1 340 19:39 09.04.2020
4997 Clouds 20 1022 34 10000 2.6 350 19:21 09.04.2020
4998 Clouds 20 1022 28 10000 2.1 10 18:42 09.04.2020
4999 Clouds 20 1022 28 10000 2.1 10 18:42 09.04.2020
5000 Clear 21 1022 28 10000 3.6 10 18:21 09.04.2020
5001 Clear 21 1022 24 10000 1 0 17:58 09.04.2020
5002 Clear 21 1022 24 10000 1 0 17:39 09.04.2020
5003 Clear 22 1022 28 10000 3.6 10 17:19 09.04.2020
5004 Clear 22 1023 24 10000 2.1 350 16:40 09.04.2020
5005 Clear 21 1023 24 10000 2.1 350 16:20 09.04.2020
5006 Clear 22 1023 28 10000 4.1 10 15:57 09.04.2020
5007 Clear 22 1023 28 10000 4.1 10 15:38 09.04.2020
5008 Clear 22 1023 27 10000 1.5 0 15:19 09.04.2020
5009 Clear 22 1023 24 10000 3.6 20 14:56 09.04.2020
5010 Clear 22 1023 24 10000 3.6 20 14:56 09.04.2020
5011 Clear 21 1023 24 10000 3.6 20 14:38 09.04.2020
5012 Clouds 21 1024 26 10000 2.1 0 14:20 09.04.2020
5013 Clouds 21 1024 26 10000 2.1 0 14:20 09.04.2020
5014 Clouds 21 1024 34 10000 1 0 13:42 09.04.2020
5015 Clouds 21 1024 30 10000 1 0 13:24 09.04.2020
5016 Clouds 21 1024 37 10000 1.5 60 12:59 09.04.2020
5017 Clouds 20 1024 37 10000 1.5 60 12:39 09.04.2020
5018 Clear 19 1024 34 10000 1 0 12:20 09.04.2020
5019 Clear 19 1024 34 10000 1 0 12:20 09.04.2020
5020 Clear 19 1024 39 10000 1 0 11:55 09.04.2020
5021 Clear 18 1024 39 10000 1 0 11:36 09.04.2020
5022 Clear 17 1024 51 10000 1.5 0 11:18 09.04.2020
5023 Clear 16 1024 58 10000 1.5 80 10:41 09.04.2020
5024 Clear 14 1024 58 10000 1 0 10:22 09.04.2020
5025 Clear 13 1024 62 10000 1 0 09:58 09.04.2020
5026 Clear 12 1024 62 10000 1 0 09:40 09.04.2020
5027 Clear 10 1024 70 10000 1 0 09:21 09.04.2020
5028 Clear 10 1024 70 10000 1 0 09:21 09.04.2020
5029 Clear 10 1024 75 10000 1 0 08:57 09.04.2020
5030 Clear 9 1024 75 10000 1 0 08:39 09.04.2020
5031 Clear 8 1024 81 10000 0.74 191 08:21 09.04.2020
5032 Clear 7 1023 86 10000 1 70 07:40 09.04.2020
5033 Clear 7 1023 86 10000 1 70 07:21 09.04.2020
5034 Clear 7 1023 80 10000 1 0 06:42 09.04.2020
5035 Clear 7 1023 80 10000 1 60 05:49 09.04.2020
5036 Clear 7 1023 75 10000 0.5 70 05:24 09.04.2020
5037 Clear 9 1023 61 10000 1 260 02:36 09.04.2020
5038 Clear 9 1023 61 10000 1.5 280 01:46 09.04.2020
5039 Clear 9 1023 61 10000 1.5 280 01:46 09.04.2020
5040 Clear 10 1023 57 10000 2.1 270 01:27 09.04.2020
5041 Clear 10 1023 70 10000 1.5 270 00:55 09.04.2020
5042 Clear 10 1023 57 10000 1 0 00:37 09.04.2020
5043 Clear 11 1023 57 10000 1 0 00:18 09.04.2020
5044 Clear 11 1023 57 10000 1 0 23:42 08.04.2020
5045 Clear 11 1023 44 10000 1.5 260 23:23 08.04.2020
5046 Clear 12 1023 44 10000 1 0 22:54 08.04.2020
5047 Clear 13 1023 50 10000 2.1 290 22:36 08.04.2020
5048 Clear 13 1023 50 10000 2.1 290 22:18 08.04.2020
5049 Clear 13 1023 41 10000 2.1 300 21:55 08.04.2020
5050 Clear 15 1023 38 10000 2.1 330 21:37 08.04.2020
5051 Clear 15 1022 34 10000 2.6 360 21:18 08.04.2020
5052 Clear 17 1022 32 10000 2.6 350 20:40 08.04.2020
5053 Clear 17 1022 32 10000 2.6 350 20:21 08.04.2020
5054 Clear 19 1022 34 10000 2.6 350 19:59 08.04.2020
5055 Clear 20 1022 32 10000 1.5 30 19:40 08.04.2020
5056 Clear 20 1022 26 10000 0.5 0 19:21 08.04.2020
5057 Clear 20 1022 26 10000 0.5 0 18:54 08.04.2020
5058 Clear 21 1022 24 10000 1 0 18:36 08.04.2020
5059 Clear 21 1022 24 10000 1.5 0 18:18 08.04.2020
5060 Clear 21 1022 24 10000 1.5 0 17:42 08.04.2020
5061 Clear 21 1023 26 10000 1.5 0 17:20 08.04.2020
5062 Clear 21 1023 24 10000 1 0 16:56 08.04.2020
5063 Clear 21 1023 24 10000 1 0 16:37 08.04.2020
5064 Clear 21 1023 24 10000 1 0 16:19 08.04.2020
5065 Clear 21 1024 28 10000 2.1 120 15:38 08.04.2020
5066 Clear 21 1024 28 10000 1.5 0 15:20 08.04.2020
5067 Clear 20 1024 28 10000 1.5 0 14:57 08.04.2020
5068 Clear 20 1024 30 10000 1 0 14:39 08.04.2020
5069 Clear 20 1024 30 10000 1 0 14:21 08.04.2020
5070 Clear 20 1025 34 10000 1.5 0 13:44 08.04.2020
5071 Clear 20 1025 34 10000 1 0 13:21 08.04.2020
5072 Clear 19 1025 34 10000 1.5 0 12:57 08.04.2020
5073 Clear 19 1025 34 10000 1.5 0 12:39 08.04.2020
5074 Clear 17 1026 34 10000 1 0 12:18 08.04.2020
5075 Clear 17 1026 34 10000 1 0 12:18 08.04.2020
5076 Clear 17 1026 34 10000 1 0 12:18 08.04.2020
5077 Clear 17 1026 39 10000 1 0 11:42 08.04.2020
5078 Clear 17 1026 38 10000 1.5 0 11:23 08.04.2020
5079 Clear 16 1026 41 10000 1 0 10:58 08.04.2020
5080 Clear 15 1026 44 10000 0.5 0 10:39 08.04.2020
5081 Clear 14 1026 44 10000 0.5 0 10:21 08.04.2020
5082 Clear 13 1026 54 10000 0.5 0 09:57 08.04.2020
5083 Clear 13 1026 54 10000 0.5 0 09:39 08.04.2020
5084 Clear 9 1026 62 10000 0.5 0 09:19 08.04.2020
5085 Clear 8 1026 61 10000 0.5 0 08:57 08.04.2020
5086 Clear 9 1026 61 10000 0.5 0 08:38 08.04.2020
5087 Clear 7 1026 70 10000 1 0 08:20 08.04.2020
5088 Clear 7 1026 70 10000 1 0 07:42 08.04.2020
5089 Clear 7 1026 70 10000 1 140 07:21 08.04.2020
5090 Clear 7 1026 75 10000 0.5 0 06:28 08.04.2020
5091 Clear 7 1026 70 10000 1.5 280 04:58 08.04.2020
5092 Clear 9 1026 70 10000 1.5 290 02:50 08.04.2020
5093 Clear 9 1027 65 10000 2.1 310 02:22 08.04.2020
5094 Clear 9 1027 53 10000 1.5 300 01:56 08.04.2020
5095 Clear 9 1027 61 10000 2.6 290 01:28 08.04.2020
5096 Clear 9 1027 65 10000 2.6 290 00:47 08.04.2020
5097 Clear 10 1027 61 10000 1.5 290 00:26 08.04.2020
5098 Clear 11 1027 57 10000 1 10 23:57 07.04.2020
5099 Clear 11 1027 57 10000 1 10 23:37 07.04.2020
5100 Clear 12 1027 53 10000 0.5 310 23:18 07.04.2020
5101 Clear 12 1027 44 10000 0.5 0 22:55 07.04.2020
5102 Clear 13 1027 47 10000 2.1 40 22:37 07.04.2020
5103 Clear 13 1027 47 10000 2.1 40 22:18 07.04.2020
5104 Clear 15 1027 47 10000 1.5 60 21:42 07.04.2020
5105 Clear 15 1027 41 10000 2.1 90 21:21 07.04.2020
5106 Clear 17 1026 36 10000 1.5 90 20:59 07.04.2020
5107 Clear 18 1026 36 10000 4.6 60 20:40 07.04.2020
5108 Clear 18 1026 36 10000 4.6 60 20:21 07.04.2020
5109 Clear 19 1026 37 10000 3.1 80 19:57 07.04.2020
5110 Clear 20 1026 28 10000 3.6 70 19:38 07.04.2020
5111 Clear 20 1026 28 10000 3.6 70 19:20 07.04.2020
5112 Clear 21 1026 24 10000 4.1 90 18:58 07.04.2020
5113 Clear 21 1026 24 10000 3.1 80 18:40 07.04.2020
5114 Clear 21 1027 24 10000 4.1 100 18:20 07.04.2020
5115 Clear 21 1027 24 10000 4.1 100 17:47 07.04.2020
5116 Clear 22 1027 28 10000 3.6 80 17:24 07.04.2020
5117 Clear 22 1027 28 10000 4.1 90 16:58 07.04.2020
5118 Clear 22 1027 28 10000 4.1 90 16:40 07.04.2020
5119 Clear 22 1027 26 10000 3.6 90 16:22 07.04.2020
5120 Clear 22 1027 26 10000 3.6 90 15:44 07.04.2020
5121 Clear 22 1028 26 10000 4.1 80 15:26 07.04.2020
5122 Clear 21 1028 26 10000 4.1 100 14:55 07.04.2020
5123 Clear 21 1028 26 10000 4.1 100 14:37 07.04.2020
5124 Clear 20 1028 26 10000 3.6 90 14:18 07.04.2020
5125 Clear 20 1029 26 10000 3.1 110 13:42 07.04.2020
5126 Clear 20 1029 26 10000 3.6 100 13:19 07.04.2020
5127 Clear 20 1029 32 10000 3.1 100 12:57 07.04.2020
5128 Clear 19 1029 32 10000 3.1 100 12:38 07.04.2020
5129 Clear 18 1029 34 10000 2.6 80 12:20 07.04.2020
5130 Clear 17 1030 39 10000 1.5 80 11:57 07.04.2020
5131 Clear 18 1030 39 10000 1.5 80 11:39 07.04.2020
5132 Clear 17 1030 51 10000 1 0 11:19 07.04.2020
5133 Clear 15 1029 58 10000 1 0 10:39 07.04.2020
5134 Clear 14 1029 58 10000 1 0 10:20 07.04.2020
5135 Clear 13 1029 66 10000 0.5 0 09:56 07.04.2020
5136 Clear 11 1029 66 10000 0.5 0 09:38 07.04.2020
5137 Clear 10 1029 61 10000 0.5 0 09:18 07.04.2020
5138 Clear 8 1029 75 10000 0.35 80 08:40 07.04.2020
5139 Clear 7 1029 80 10000 0.5 0 08:21 07.04.2020
5140 Clear 6 1029 80 10000 0.5 0 07:55 07.04.2020
5141 Clear 6 1029 80 10000 0.5 0 07:37 07.04.2020
5142 Clear 6 1029 80 10000 0.5 0 07:18 07.04.2020
5143 Clear 5 1028 80 10000 1 0 06:39 07.04.2020
5144 Clear 5 1028 80 10000 1 0 06:18 07.04.2020
5145 Clear 6 1028 70 10000 0.5 0 05:26 07.04.2020
5146 Clear 6 1027 70 10000 1.5 290 04:35 07.04.2020
5147 Clear 8 1027 65 10000 0.5 0 03:24 07.04.2020
5148 Clear 8 1027 70 10000 2.1 270 02:47 07.04.2020
5149 Clear 8 1026 65 10000 1.5 320 01:43 07.04.2020
5150 Clear 8 1026 65 10000 1.5 320 01:23 07.04.2020
5151 Clear 10 1026 57 10000 0.5 0 00:26 07.04.2020
5152 Clear 10 1026 50 10000 1 0 23:44 06.04.2020
5153 Clear 11 1026 47 10000 3.1 320 23:23 06.04.2020
5154 Clear 11 1025 57 10000 1.5 260 22:57 06.04.2020
5155 Clear 12 1025 57 10000 1.5 260 22:37 06.04.2020
5156 Clear 12 1025 47 10000 1 0 22:19 06.04.2020
5157 Clear 13 1025 47 10000 2.6 350 21:57 06.04.2020
5158 Clear 13 1025 47 10000 2.6 350 21:38 06.04.2020
5159 Clear 14 1024 38 10000 3.1 330 21:18 06.04.2020
5160 Clear 15 1024 33 10000 1.5 360 20:54 06.04.2020
5161 Clear 15 1024 33 10000 1.5 360 20:36 06.04.2020
5162 Clear 17 1023 36 10000 1.5 80 20:18 06.04.2020
5163 Clear 18 1023 32 10000 2.1 90 19:40 06.04.2020
5164 Clear 19 1023 30 10000 2.6 90 19:22 06.04.2020
5165 Clear 19 1023 26 10000 2.6 70 18:57 06.04.2020
5166 Clear 19 1023 26 10000 2.6 70 18:57 06.04.2020
5167 Clear 20 1023 26 10000 2.6 70 18:39 06.04.2020
5168 Clear 20 1023 22 10000 1 0 18:20 06.04.2020
5169 Clear 20 1023 42 10000 1.5 0 17:42 06.04.2020
5170 Clear 20 1023 30 10000 1 0 17:20 06.04.2020
5171 Clear 20 1023 42 10000 1 0 16:50 06.04.2020
5172 Clear 20 1023 28 10000 2.6 20 16:31 06.04.2020
5173 Clear 20 1023 26 10000 2.1 20 15:41 06.04.2020
5174 Clear 19 1023 30 10000 1.5 0 14:00 06.04.2020
5175 Clear 19 1023 30 10000 1.5 0 14:00 06.04.2020
5176 Clear 19 1023 34 10000 2.1 60 13:40 06.04.2020
5177 Clear 19 1023 34 10000 2.1 60 13:40 06.04.2020
5178 Clear 19 1023 34 10000 1.5 0 13:20 06.04.2020
5179 Clear 19 1023 34 10000 1.5 0 13:20 06.04.2020
5180 Clear 19 1023 34 10000 1.5 0 13:20 06.04.2020
5181 Clear 19 1023 34 10000 1.5 0 13:19 06.04.2020
5182 Clear 17 1023 39 10000 2.1 90 12:22 06.04.2020
5183 Clear 16 1023 44 10000 1.5 0 11:55 06.04.2020
5184 Clear 16 1023 44 10000 1.5 0 11:33 06.04.2020
5185 Clear 16 1023 44 10000 1.5 0 11:33 06.04.2020
5186 Clear 16 1023 44 10000 1.5 0 11:33 06.04.2020
5187 Clear 16 1023 44 10000 1.5 0 11:33 06.04.2020
5188 Clear 16 1023 44 10000 1.5 0 11:33 06.04.2020
5189 Clear 15 1023 54 10000 1.5 70 10:52 06.04.2020
5190 Clear 15 1023 54 10000 1.5 70 10:52 06.04.2020
5191 Clear 14 1023 58 10000 1.5 90 10:52 06.04.2020
5192 Clear 14 1023 58 10000 1.5 90 10:52 06.04.2020
5193 Clear 14 1023 58 10000 1.5 90 10:52 06.04.2020
5194 Clear 13 1023 57 10000 1.5 80 10:22 06.04.2020
5195 Clear 11 1023 61 10000 1 0 09:47 06.04.2020
5196 Clear 7 1022 65 10000 0.5 0 09:22 06.04.2020
5197 Clear 7 1022 65 10000 0.5 0 08:55 06.04.2020
5198 Clear 6 1022 69 10000 1 80 08:31 06.04.2020
5199 Clear 4 1021 74 10000 0.5 0 07:51 06.04.2020
5200 Clear 4 1021 74 10000 0.5 0 07:51 06.04.2020
5201 Clear 4 1021 74 10000 0.5 0 07:51 06.04.2020
5202 Clear 4 1021 74 10000 0.5 0 07:51 06.04.2020
5203 Clear 4 1021 80 10000 1 0 06:52 06.04.2020
5204 Clear 4 1021 80 10000 1 0 06:52 06.04.2020
5205 Clear 4 1020 80 10000 1 350 06:25 06.04.2020
5206 Clear 4 1020 74 10000 0.5 0 04:32 06.04.2020
5207 Clear 5 1020 69 10000 1 250 03:18 06.04.2020
5208 Clear 6 1019 65 10000 2.1 290 02:44 06.04.2020
5209 Clear 6 1020 60 10000 3.1 290 01:47 06.04.2020
5210 Clear 6 1019 56 10000 2.1 310 00:46 06.04.2020
5211 Clear 7 1020 60 10000 2.6 280 00:25 06.04.2020
5212 Clear 7 1020 60 10000 1 280 23:46 05.04.2020
5213 Clear 7 1020 60 10000 1 280 23:28 05.04.2020
5214 Clear 8 1020 60 10000 0.5 10 23:28 05.04.2020
5215 Clear 7 1020 60 10000 1 280 23:28 05.04.2020
5216 Clear 8 1020 60 10000 0.5 10 23:28 05.04.2020
5217 Clear 8 1020 60 10000 0.5 10 23:28 05.04.2020
5218 Clear 8 1020 60 10000 0.5 10 22:56 05.04.2020
5219 Clear 8 1020 49 10000 0.5 0 22:38 05.04.2020
5220 Clear 9 1020 49 10000 1 80 22:18 05.04.2020
5221 Clear 9 1020 49 10000 1 80 21:55 05.04.2020
5222 Clear 10 1020 69 10000 2.1 70 21:37 05.04.2020
5223 Clear 11 1020 64 10000 2.1 80 21:18 05.04.2020
5224 Clear 14 1020 64 10000 4.1 80 20:20 05.04.2020
5225 Clear 14 1020 64 10000 4.1 80 20:20 05.04.2020
5226 Clear 14 1020 64 10000 4.1 80 20:20 05.04.2020
5227 Clear 15 1020 64 10000 5.1 80 19:40 05.04.2020
5228 Clear 15 1020 64 10000 5.1 80 19:22 05.04.2020
5229 Clear 16 1020 64 10000 5.1 80 19:22 05.04.2020
5230 Clear 16 1020 64 10000 5.1 80 18:45 05.04.2020
5231 Clear 17 1020 31 10000 5.7 70 17:58 05.04.2020
5232 Clear 17 1020 31 10000 6.2 70 17:58 05.04.2020
5233 Clear 17 1020 31 10000 5.7 70 17:58 05.04.2020
5234 Clear 17 1020 31 10000 5.7 70 17:39 05.04.2020
5235 Clear 17 1020 31 10000 5.7 70 17:39 05.04.2020
5236 Clear 17 1020 31 10000 5.7 70 17:39 05.04.2020
5237 Clear 18 1020 31 10000 5.7 80 17:20 05.04.2020
5238 Clear 18 1020 31 10000 5.7 80 17:20 05.04.2020
5239 Clear 18 1021 31 10000 5.1 80 16:36 05.04.2020
5240 Clear 18 1021 31 10000 5.1 80 16:36 05.04.2020
5241 Clear 17 1021 34 10000 5.1 70 16:18 05.04.2020
5242 Clear 17 1021 36 10000 4.6 80 15:43 05.04.2020
5243 Clear 17 1021 36 10000 4.6 60 15:24 05.04.2020
5244 Clear 16 1022 36 10000 4.1 70 14:47 05.04.2020
5245 Clear 16 1022 36 10000 4.1 70 14:47 05.04.2020
5246 Clear 16 1022 36 10000 4.1 70 14:47 05.04.2020
5247 Clear 16 1022 36 10000 4.1 70 14:47 05.04.2020
5248 Clear 16 1022 38 10000 4.6 60 13:44 05.04.2020
5249 Clear 15 1023 38 10000 4.1 70 12:55 05.04.2020
5250 Clear 15 1023 38 10000 4.1 70 12:55 05.04.2020
5251 Clear 15 1023 38 10000 4.1 70 12:55 05.04.2020
5252 Clear 16 1023 38 10000 4.1 70 12:55 05.04.2020
5253 Clear 15 1023 38 10000 4.1 70 12:55 05.04.2020
5254 Clear 13 1023 43 10000 4.6 70 11:56 05.04.2020
5255 Clear 13 1023 43 10000 4.6 70 11:55 05.04.2020
5256 Clear 13 1023 43 10000 4.6 70 11:37 05.04.2020
5257 Clear 12 1023 46 10000 3.6 70 11:18 05.04.2020
5258 Clear 12 1023 50 10000 3.6 70 10:42 05.04.2020
5259 Clear 11 1024 53 10000 4.1 70 10:19 05.04.2020
5260 Clear 9 1024 57 10000 3.6 70 09:44 05.04.2020
5261 Clear 7 1024 72 10000 1.5 90 09:24 05.04.2020
5262 Clear 7 1024 72 10000 1.5 90 09:24 05.04.2020
5263 Clear 7 1024 72 10000 1.5 90 09:24 05.04.2020
5264 Clear 9 1024 57 10000 3.6 70 09:24 05.04.2020
5265 Clear 8 1024 57 10000 3.6 70 09:24 05.04.2020
5266 Clear 3 1023 74 10000 1 0 07:44 05.04.2020
5267 Clear 3 1023 74 10000 1 0 07:44 05.04.2020
5268 Clear 4 1023 69 10000 1 240 04:51 05.04.2020
5269 Clear 4 1023 69 10000 1 240 04:51 05.04.2020
5270 Clear 4 1023 69 10000 1 0 03:34 05.04.2020
5271 Clear 4 1023 65 10000 0.5 0 02:52 05.04.2020
5272 Clear 5 1024 65 10000 0.5 0 01:48 05.04.2020
5273 Clear 5 1024 65 10000 0.5 0 01:48 05.04.2020
5274 Clear 6 1024 69 10000 1 0 01:30 05.04.2020
5275 Clear 5 1024 65 10000 0.5 0 01:30 05.04.2020
5276 Clear 6 1023 60 10000 0.5 0 00:47 05.04.2020
5277 Clear 6 1023 67 10000 1 70 00:22 05.04.2020
5278 Clear 6 1023 67 10000 1 70 23:56 04.04.2020
5279 Clear 6 1023 60 10000 0.5 0 23:38 04.04.2020
5280 Clear 7 1023 56 10000 1 0 23:19 04.04.2020
5281 Clear 7 1023 67 10000 1 80 22:55 04.04.2020
5282 Clear 7 1023 67 10000 1 80 22:37 04.04.2020
5283 Clear 7 1023 52 10000 1 70 22:19 04.04.2020
5284 Clear 8 1023 67 10000 2.1 70 21:54 04.04.2020
5285 Clear 8 1023 67 10000 2.1 70 21:36 04.04.2020
5286 Clouds 9 1023 64 10000 2.6 70 21:18 04.04.2020
5287 Clouds 10 1022 64 10000 2.1 90 20:42 04.04.2020
5288 Clouds 11 1022 50 10000 3.6 70 20:23 04.04.2020
5289 Clouds 12 1022 43 10000 3.6 80 19:58 04.04.2020
5290 Clouds 13 1022 43 10000 3.6 80 19:37 04.04.2020
5291 Clouds 13 1022 41 10000 3.1 90 19:19 04.04.2020
5292 Clouds 13 1022 41 10000 3.1 90 18:57 04.04.2020
5293 Clouds 14 1022 38 10000 3.1 80 18:38 04.04.2020
5294 Clouds 14 1022 47 10000 2.1 80 18:19 04.04.2020
5295 Clouds 14 1022 47 10000 2.1 80 18:19 04.04.2020
5296 Clouds 14 1022 38 10000 3.1 60 17:56 04.04.2020
5297 Clouds 14 1022 38 10000 3.1 60 17:38 04.04.2020
5298 Clouds 14 1022 33 10000 3.1 70 17:18 04.04.2020
5299 Clouds 14 1022 33 10000 3.1 50 16:42 04.04.2020
5300 Clouds 15 1022 41 10000 3.1 20 16:23 04.04.2020
5301 Clouds 14 1022 41 10000 3.1 60 15:58 04.04.2020
5302 Clouds 14 1022 41 10000 3.1 60 15:38 04.04.2020
5303 Clear 14 1023 41 10000 2.6 0 15:19 04.04.2020
5304 Clear 14 1023 41 10000 2.6 0 15:19 04.04.2020
5305 Clear 14 1023 41 10000 2.6 0 14:46 04.04.2020
5306 Clear 13 1023 46 10000 1.5 0 14:25 04.04.2020
5307 Clear 14 1023 46 10000 1.5 0 13:58 04.04.2020
5308 Clouds 13 1023 46 10000 2.6 30 13:40 04.04.2020
5309 Clouds 12 1023 46 10000 2.1 20 13:20 04.04.2020
5310 Clouds 12 1023 46 10000 2.1 20 12:57 04.04.2020
5311 Clear 12 1023 50 10000 1.5 60 12:39 04.04.2020
5312 Clear 11 1024 57 10000 1.5 0 12:19 04.04.2020
5313 Clear 10 1024 61 10000 1.5 0 11:41 04.04.2020
5314 Clear 10 1024 61 10000 1 0 11:23 04.04.2020
5315 Clear 9 1024 61 10000 1 0 10:58 04.04.2020
5316 Clear 8 1024 65 10000 1 0 10:40 04.04.2020
5317 Clear 7 1023 65 10000 0.5 0 10:22 04.04.2020
5318 Clear 6 1023 70 10000 0.5 0 09:56 04.04.2020
5319 Clear 6 1023 70 10000 0.5 0 09:38 04.04.2020
5320 Clear 4 1023 77 10000 0.5 0 09:20 04.04.2020
5321 Clear 3 1023 80 10000 0.5 0 08:43 04.04.2020
5322 Clear 2 1023 80 10000 0.5 0 08:23 04.04.2020
5323 Clear 1 1022 77 10000 1 120 07:59 04.04.2020
5324 Clear 0 1022 77 10000 0.5 0 07:39 04.04.2020
5325 Clear 0 1022 86 10000 0.6 101 07:21 04.04.2020
5326 Clear 0 1021 92 10000 0.5 0 06:38 04.04.2020
5327 Clear 1 1021 78 10000 0.5 0 05:52 04.04.2020
5328 Clear 1 1021 78 10000 0.5 0 05:52 04.04.2020
5329 Clear 1 1021 78 10000 0.5 0 05:32 04.04.2020
5330 Clear 1 1021 80 10000 0.5 0 04:34 04.04.2020
5331 Clear 2 1021 80 10000 0.07 315 03:57 04.04.2020
5332 Clear 2 1021 80 10000 0.5 0 03:36 04.04.2020
5333 Clouds 3 1021 74 10000 1 0 02:46 04.04.2020
5334 Clouds 3 1021 74 10000 1 0 02:25 04.04.2020
5335 Clouds 4 1020 74 10000 1 0 01:46 04.04.2020
5336 Clouds 4 1020 80 10000 0.5 80 01:20 04.04.2020
5337 Clouds 4 1020 74 10000 1.5 240 00:43 04.04.2020
5338 Clouds 5 1020 75 10000 1 0 00:23 04.04.2020
5339 Clouds 5 1020 75 10000 1 0 23:38 03.04.2020
5340 Clouds 6 1020 75 10000 1.5 0 23:19 03.04.2020
5341 Clouds 6 1019 75 10000 2.1 270 22:55 03.04.2020
5342 Clouds 6 1019 75 10000 2.1 270 22:36 03.04.2020
5343 Clouds 7 1019 75 10000 2.1 270 22:18 03.04.2020
5344 Clouds 7 1019 75 10000 1.5 320 21:42 03.04.2020
5345 Rain 8 1019 70 10000 2.6 310 21:22 03.04.2020
5346 Rain 8 1018 70 10000 3.6 300 20:56 03.04.2020
5347 Rain 9 1018 70 10000 3.6 300 20:36 03.04.2020
5348 Clouds 9 1018 70 10000 4.1 290 20:18 03.04.2020
5349 Clouds 9 1018 70 10000 4.1 290 20:18 03.04.2020
5350 Clouds 10 1018 70 10000 4.1 290 19:56 03.04.2020
5351 Clouds 10 1018 46 10000 4.6 300 19:37 03.04.2020
5352 Clouds 10 1017 70 10000 5.7 310 19:19 03.04.2020
5353 Clouds 10 1017 53 10000 5.7 310 18:58 03.04.2020
5354 Clouds 10 1017 53 10000 5.7 310 18:40 03.04.2020
5355 Clouds 11 1017 70 10000 3.1 290 18:21 03.04.2020
5356 Clouds 11 1017 43 10000 5.1 300 17:43 03.04.2020
5357 Clouds 11 1017 53 10000 3.6 310 17:21 03.04.2020
5358 Clouds 11 1017 53 10000 3.6 310 17:21 03.04.2020
5359 Clouds 11 1017 53 10000 4.1 330 16:58 03.04.2020
5360 Clouds 12 1017 53 10000 4.1 330 16:40 03.04.2020
5361 Clouds 12 1016 50 10000 4.1 320 16:21 03.04.2020
5362 Clouds 12 1016 50 10000 4.1 320 15:57 03.04.2020
5363 Clouds 12 1016 50 10000 3.1 330 15:38 03.04.2020
5364 Clouds 12 1016 49 10000 1.5 220 15:19 03.04.2020
5365 Clouds 12 1016 49 10000 1.5 220 15:19 03.04.2020
5366 Clouds 12 1016 49 10000 2.1 0 14:41 03.04.2020
5367 Clouds 12 1016 49 10000 2.1 0 14:41 03.04.2020
5368 Clouds 12 1016 50 10000 2.1 0 14:22 03.04.2020
5369 Clouds 12 1016 50 10000 2.1 0 13:59 03.04.2020
5370 Clouds 11 1016 50 10000 2.1 0 13:40 03.04.2020
5371 Clouds 11 1016 50 10000 2.1 0 13:22 03.04.2020
5372 Clouds 10 1016 43 10000 2.6 250 12:43 03.04.2020
5373 Clouds 9 1016 57 10000 3.1 280 12:20 03.04.2020
5374 Clouds 9 1016 57 10000 3.1 280 11:57 03.04.2020
5375 Clear 9 1016 57 10000 1.5 0 11:38 03.04.2020
5376 Clear 9 1016 57 10000 1.5 0 11:38 03.04.2020
5377 Clear 9 1016 57 10000 3.1 260 11:20 03.04.2020
5378 Clear 9 1016 57 10000 3.1 260 10:59 03.04.2020
5379 Clear 8 1016 57 10000 3.1 260 10:38 03.04.2020
5380 Clear 7 1016 56 10000 2.6 230 10:20 03.04.2020
5381 Clear 6 1016 56 10000 2.6 230 09:59 03.04.2020
5382 Clear 5 1016 60 10000 2.6 250 09:40 03.04.2020
5383 Clear 5 1016 60 10000 2.6 250 09:21 03.04.2020
5384 Clear 4 1015 60 10000 0.5 0 09:21 03.04.2020
5385 Clouds 3 1015 60 10000 0.5 0 08:56 03.04.2020
5386 Clouds 3 1015 69 10000 0.5 110 08:37 03.04.2020
5387 Clouds 2 1015 69 10000 1 0 08:19 03.04.2020
5388 Clouds 1 1015 74 10000 2.1 240 07:46 03.04.2020
5389 Clouds 1 1015 74 10000 2.1 240 07:46 03.04.2020
5390 Clouds 1 1014 74 10000 3.6 310 07:28 03.04.2020
5391 Clouds 0 1014 77 10000 0.5 0 06:41 03.04.2020
5392 Clouds 0 1014 77 10000 5.1 270 06:22 03.04.2020
5393 Clear 0 1013 74 10000 1 0 05:39 03.04.2020
5394 Clear 1 1013 74 10000 3.1 280 03:42 03.04.2020
5395 Clear 2 1013 69 10000 2.6 250 02:56 03.04.2020
5396 Clear 2 1013 56 10000 4.6 280 02:18 03.04.2020
5397 Clear 3 1012 64 10000 4.1 260 01:22 03.04.2020
5398 Clear 4 1012 52 10000 3.1 260 00:36 03.04.2020
5399 Clear 4 1012 52 10000 3.1 270 00:18 03.04.2020
5400 Clear 4 1011 55 10000 2.1 260 23:42 02.04.2020
5401 Clear 4 1011 52 10000 2.1 240 23:23 02.04.2020
5402 Clear 5 1011 52 10000 2.1 240 22:58 02.04.2020
5403 Clear 5 1011 48 10000 1.5 240 22:38 02.04.2020
5404 Clear 5 1011 42 10000 1.5 250 22:20 02.04.2020
5405 Clear 6 1011 42 10000 1.5 250 21:39 02.04.2020
5406 Clear 6 1011 42 10000 1.5 250 21:39 02.04.2020
5407 Clear 6 1011 42 10000 2.1 280 21:20 02.04.2020
5408 Clear 7 1011 42 10000 2.1 280 20:58 02.04.2020
5409 Clear 8 1010 31 10000 3.1 310 20:40 02.04.2020
5410 Clear 9 1010 29 10000 2.6 330 20:21 02.04.2020
5411 Clear 10 1010 32 10000 4.1 330 19:44 02.04.2020
5412 Clear 11 1010 32 10000 3.6 340 19:21 02.04.2020
5413 Clear 11 1010 32 10000 3.6 340 19:21 02.04.2020
5414 Clear 12 1010 34 10000 3.6 360 18:59 02.04.2020
5415 Clear 12 1010 34 10000 3.6 360 18:41 02.04.2020
5416 Clear 13 1010 34 10000 3.1 360 18:20 02.04.2020
5417 Clear 13 1010 35 10000 3.6 340 17:57 02.04.2020
5418 Clear 13 1010 35 10000 3.6 340 17:39 02.04.2020
5419 Clear 13 1010 32 10000 3.1 360 17:20 02.04.2020
5420 Clear 13 1010 32 10000 3.1 360 16:56 02.04.2020
5421 Clear 13 1010 32 10000 3.6 0 16:38 02.04.2020
5422 Clear 13 1010 32 10000 4.6 30 16:20 02.04.2020
5423 Clear 13 1010 32 10000 4.6 30 15:55 02.04.2020
5424 Clear 13 1011 32 10000 4.6 360 15:37 02.04.2020
5425 Clear 13 1011 34 10000 4.1 340 15:18 02.04.2020
5426 Clear 12 1011 35 10000 4.1 340 14:40 02.04.2020
5427 Clear 12 1011 30 10000 2.1 0 14:21 02.04.2020
5428 Clear 12 1012 34 10000 2.1 0 13:59 02.04.2020
5429 Clear 12 1012 34 10000 2.1 0 13:39 02.04.2020
5430 Clear 12 1012 34 10000 2.1 320 13:21 02.04.2020
5431 Clear 11 1012 40 10000 1.5 0 12:57 02.04.2020
5432 Clear 11 1012 40 10000 1.5 0 12:39 02.04.2020
5433 Clear 10 1013 39 10000 1.5 0 12:19 02.04.2020
5434 Clear 9 1013 39 10000 1.5 0 11:57 02.04.2020
5435 Clear 9 1013 45 10000 1.5 110 11:38 02.04.2020
5436 Clear 8 1013 49 10000 1.5 150 11:19 02.04.2020
5437 Clear 8 1013 49 10000 1.5 150 11:19 02.04.2020
5438 Clear 7 1013 49 10000 1.5 150 10:55 02.04.2020
5439 Clear 7 1013 56 10000 1 0 10:37 02.04.2020
5440 Clear 6 1013 60 10000 1 0 10:19 02.04.2020
5441 Clear 4 1013 64 10000 1 0 09:56 02.04.2020
5442 Clear 3 1013 64 10000 1 0 09:38 02.04.2020
5443 Clear 1 1013 69 10000 1 0 09:19 02.04.2020
5444 Clear 0 1014 72 10000 1 0 08:46 02.04.2020
5445 Clear -1 1013 79 10000 0.5 0 08:26 02.04.2020
5446 Clear -2 1013 86 10000 1 0 07:45 02.04.2020
5447 Clear -3 1013 86 10000 0.5 110 07:21 02.04.2020
5448 Clear -3 1013 79 10000 0.5 0 06:58 02.04.2020
5449 Clear -2 1013 79 10000 1 70 06:22 02.04.2020
5450 Clear -2 1013 79 10000 1 120 05:45 02.04.2020
5451 Clear -2 1014 79 10000 0.5 260 04:35 02.04.2020
5452 Clear 0 1015 64 10000 0.96 155 01:52 02.04.2020
5453 Clear 0 1015 64 10000 2.6 280 00:50 02.04.2020
5454 Clear 0 1015 64 10000 2.6 280 00:50 02.04.2020
5455 Clear 0 1015 77 10000 1.5 240 00:28 02.04.2020
5456 Clear 1 1015 55 10000 1.5 240 23:57 01.04.2020
5457 Clear 1 1015 55 10000 1.5 240 23:37 01.04.2020
5458 Clear 1 1015 55 10000 1.5 240 23:37 01.04.2020
5459 Clear 2 1015 55 10000 1 230 23:18 01.04.2020
5460 Clear 3 1015 41 10000 0.5 0 22:41 01.04.2020
5461 Clear 3 1015 41 10000 0.5 0 22:22 01.04.2020
5462 Clear 4 1015 44 10000 2.1 360 21:57 01.04.2020
5463 Clear 4 1015 45 10000 3.1 360 21:39 01.04.2020
5464 Clear 4 1015 45 10000 3.1 10 21:19 01.04.2020
5465 Clear 5 1015 45 10000 3.1 10 20:55 01.04.2020
5466 Clear 6 1015 39 10000 2.6 10 20:37 01.04.2020
5467 Clear 7 1015 39 10000 2.1 360 20:18 01.04.2020
5468 Clear 8 1015 29 10000 1.5 350 19:43 01.04.2020
5469 Clear 8 1015 29 10000 1.5 350 19:43 01.04.2020
5470 Clear 9 1016 25 10000 0.5 0 19:23 01.04.2020
5471 Clear 10 1016 25 10000 0.5 0 18:59 01.04.2020
5472 Clear 10 1016 27 10000 1 0 18:41 01.04.2020
5473 Clear 10 1016 27 10000 1 0 18:21 01.04.2020
5474 Clear 11 1016 27 10000 1 0 17:56 01.04.2020
5475 Clear 11 1016 27 10000 1 0 17:37 01.04.2020
5476 Clear 11 1016 29 10000 2.1 0 17:18 01.04.2020
5477 Clear 11 1016 29 10000 2.1 0 16:56 01.04.2020
5478 Clear 10 1017 29 10000 1.5 0 16:38 01.04.2020
5479 Clear 10 1017 29 10000 1.5 0 16:20 01.04.2020
5480 Clear 10 1017 31 10000 1.5 0 15:42 01.04.2020
5481 Clear 10 1018 31 10000 2.6 110 15:22 01.04.2020
5482 Clear 10 1018 29 10000 1.5 0 14:59 01.04.2020
5483 Clear 10 1018 29 10000 1.5 0 14:40 01.04.2020
5484 Clear 10 1018 29 10000 1.5 0 14:40 01.04.2020
5485 Clouds 9 1019 36 10000 1.5 0 14:21 01.04.2020
5486 Clouds 8 1019 33 10000 2.6 0 13:59 01.04.2020
5487 Clouds 8 1019 33 10000 2.6 0 13:39 01.04.2020
5488 Clouds 8 1020 39 10000 2.6 120 13:20 01.04.2020
5489 Clouds 8 1020 39 10000 2.6 120 13:20 01.04.2020
5490 Clouds 8 1020 39 10000 3.1 80 12:58 01.04.2020
5491 Clouds 8 1020 39 10000 3.1 80 12:40 01.04.2020
5492 Clouds 6 1020 41 10000 3.1 90 12:21 01.04.2020
5493 Clouds 6 1020 41 10000 3.1 90 11:56 01.04.2020
5494 Clouds 5 1021 48 10000 2.1 60 11:37 01.04.2020
5495 Clouds 5 1021 48 10000 2.1 0 11:18 01.04.2020
5496 Clouds 4 1021 51 10000 1 0 10:39 01.04.2020
5497 Clouds 3 1021 55 10000 2.1 80 10:21 01.04.2020
5498 Clouds 2 1021 59 10000 1.5 80 09:59 01.04.2020
5499 Clouds 2 1021 59 10000 1.5 80 09:40 01.04.2020
5500 Clear 0 1021 59 10000 0.5 0 09:20 01.04.2020
5501 Clear 0 1021 59 10000 0.5 0 08:56 01.04.2020
5502 Clear -2 1021 64 10000 0.5 0 08:37 01.04.2020
5503 Clear -2 1021 74 10000 1.5 340 08:18 01.04.2020
5504 Clear -3 1021 73 10000 1 330 07:41 01.04.2020
5505 Clear -4 1021 73 10000 1 320 07:19 01.04.2020
5506 Clear -3 1022 73 10000 0.5 0 06:43 01.04.2020
5507 Clear -3 1022 73 10000 0.5 0 06:21 01.04.2020
5508 Clear -3 1022 74 10000 0.5 0 05:41 01.04.2020
5509 Clear -3 1022 74 10000 1 0 04:29 01.04.2020
5510 Clear -2 1023 74 10000 0.5 0 03:20 01.04.2020
5511 Clear -2 1023 74 10000 1 70 02:37 01.04.2020
5512 Clear -1 1024 63 10000 0.5 0 01:53 01.04.2020
5513 Clear -1 1024 63 10000 0.5 0 01:27 01.04.2020
5514 Clear -1 1024 87 10000 0.5 0 00:47 01.04.2020
5515 Clear 0 1024 81 10000 0.5 0 00:24 01.04.2020
5516 Clear 0 1024 81 10000 0.5 0 23:59 31.03.2020
5517 Clear 0 1025 81 10000 1 80 23:41 31.03.2020
5518 Clear 0 1025 55 10000 1.5 60 23:22 31.03.2020
5519 Clear 1 1025 59 10000 0.5 0 22:41 31.03.2020
5520 Clear 2 1025 51 10000 1.5 30 22:22 31.03.2020
5521 Clear 2 1025 55 10000 2.1 30 21:59 31.03.2020
5522 Clear 2 1025 55 10000 2.1 30 21:40 31.03.2020
5523 Clear 2 1025 55 10000 2.1 30 21:40 31.03.2020
5524 Clouds 2 1025 51 10000 2.6 40 21:21 31.03.2020
5525 Clouds 3 1025 51 10000 2.6 40 20:58 31.03.2020
5526 Clouds 3 1025 47 10000 3.6 50 20:38 31.03.2020
5527 Clouds 4 1025 47 10000 3.6 50 20:20 31.03.2020
5528 Clouds 4 1025 47 10000 3.6 50 19:59 31.03.2020
5529 Clouds 5 1025 41 10000 4.1 50 19:40 31.03.2020
5530 Clouds 5 1025 44 10000 6.2 60 19:21 31.03.2020
5531 Clouds 6 1025 38 10000 3.6 30 18:54 31.03.2020
5532 Clouds 6 1025 38 10000 3.6 30 18:36 31.03.2020
5533 Clouds 6 1024 39 10000 5.7 40 18:18 31.03.2020
5534 Clouds 6 1024 38 10000 3.6 30 17:54 31.03.2020
5535 Clouds 7 1024 38 10000 3.6 30 17:36 31.03.2020
5536 Clouds 7 1025 38 10000 5.7 70 17:18 31.03.2020
5537 Clouds 7 1025 38 10000 4.1 20 16:37 31.03.2020
5538 Clouds 7 1025 35 10000 5.1 50 16:18 31.03.2020
5539 Clouds 7 1025 35 10000 5.1 50 15:57 31.03.2020
5540 Clouds 7 1025 41 10000 4.1 40 15:38 31.03.2020
5541 Clouds 7 1025 39 10000 5.1 40 15:19 31.03.2020
5542 Clouds 7 1025 39 10000 5.1 40 14:56 31.03.2020
5543 Clouds 7 1025 39 10000 5.1 40 14:56 31.03.2020
5544 Clouds 6 1025 38 10000 5.1 20 14:38 31.03.2020
5545 Clouds 6 1025 41 10000 4.6 20 14:18 31.03.2020
5546 Clouds 6 1025 48 10000 4.1 10 13:42 31.03.2020
5547 Clouds 6 1025 48 10000 4.1 40 13:19 31.03.2020
5548 Clouds 6 1025 52 10000 3.6 50 12:55 31.03.2020
5549 Clouds 6 1025 52 10000 3.6 50 12:37 31.03.2020
5550 Clouds 5 1026 52 10000 4.1 80 12:18 31.03.2020
5551 Clouds 5 1026 52 10000 2.6 80 11:38 31.03.2020
5552 Clouds 4 1026 55 10000 1.5 70 11:20 31.03.2020
5553 Clouds 4 1026 51 10000 1 0 10:58 31.03.2020
5554 Clouds 4 1026 51 10000 1 0 10:39 31.03.2020
5555 Clouds 3 1026 61 10000 1 0 10:21 31.03.2020
5556 Clouds 3 1026 61 10000 1 0 09:56 31.03.2020
5557 Clouds 2 1025 68 10000 1 0 09:37 31.03.2020
5558 Clouds 2 1025 68 10000 1 0 09:37 31.03.2020
5559 Clouds 2 1025 68 10000 1 0 09:37 31.03.2020
5560 Clouds 0 1025 68 10000 1 0 09:19 31.03.2020
5561 Clouds 0 1025 68 10000 1 0 08:56 31.03.2020
5562 Clouds -1 1025 79 10000 1 0 08:37 31.03.2020
5563 Clouds -2 1025 79 10000 1 0 08:18 31.03.2020
5564 Clouds -2 1024 73 10000 1.5 320 07:54 31.03.2020
5565 Clouds -2 1024 73 10000 1.5 320 07:36 31.03.2020
5566 Clouds -2 1024 79 10000 0.5 0 07:18 31.03.2020
5567 Clear -2 1024 73 10000 0.5 0 06:42 31.03.2020
5568 Clear -2 1024 73 10000 1 200 05:57 31.03.2020
5569 Clear -2 1024 73 10000 1 200 05:38 31.03.2020
5570 Clear -2 1024 74 10000 1 210 03:27 31.03.2020
5571 Clear -2 1024 63 10000 2.6 300 01:52 31.03.2020
5572 Clear -2 1024 63 10000 2.6 300 01:33 31.03.2020
5573 Clear -1 1024 58 10000 1 300 00:46 31.03.2020
5574 Clear -1 1024 58 10000 0.5 230 00:24 31.03.2020
5575 Clear -1 1024 47 10000 1 0 23:41 30.03.2020
5576 Clear -1 1024 78 10000 2.1 70 23:20 30.03.2020
5577 Clear -1 1024 78 10000 2.1 70 22:58 30.03.2020
5578 Clear 0 1024 47 10000 2.1 50 22:58 30.03.2020
5579 Clear 0 1024 47 10000 2.1 50 22:39 30.03.2020
5580 Clear 0 1024 43 10000 3.1 20 22:20 30.03.2020
5581 Clear 1 1024 43 10000 3.1 20 21:58 30.03.2020
5582 Clear 1 1024 43 10000 2.6 20 21:39 30.03.2020
5583 Clear 1 1024 40 10000 3.1 20 21:20 30.03.2020
5584 -273 0 0 0 0 0 20:59 30.03.2020
5585 Clear 3 1024 37 10000 3.6 20 20:39 30.03.2020
5586 Clear 3 1023 37 10000 3.6 20 20:20 30.03.2020
5587 Clear 3 1023 37 10000 3.6 20 20:20 30.03.2020
5588 Clear 3 1023 37 10000 3.6 20 20:20 30.03.2020
5589 Clear 4 1023 35 10000 4.1 10 19:57 30.03.2020
5590 Clear 5 1023 35 10000 4.1 10 19:39 30.03.2020
5591 Clear 5 1023 30 10000 3.6 30 19:20 30.03.2020
5592 Clouds 5 1023 30 10000 4.6 20 18:43 30.03.2020
5593 Clouds 6 1023 33 10000 4.6 80 18:25 30.03.2020
5594 Clouds 6 1023 30 10000 4.1 40 17:58 30.03.2020
5595 Clouds 6 1023 30 10000 4.1 40 17:39 30.03.2020
5596 Clouds 6 1023 30 10000 4.1 40 17:39 30.03.2020
5597 Clouds 6 1023 30 10000 5.7 20 17:21 30.03.2020
5598 Clouds 6 1023 30 10000 5.7 20 16:59 30.03.2020
5599 Clouds 6 1023 30 10000 6.2 30 16:40 30.03.2020
5600 -273 0 0 0 0 0 16:21 30.03.2020
5601 Clouds 6 1024 38 10000 5.1 20 15:56 30.03.2020
5602 Clouds 6 1024 33 10000 6.2 20 15:56 30.03.2020
5603 Clouds 6 1024 38 10000 5.1 20 15:38 30.03.2020
5604 Clouds 5 1024 44 10000 4.6 30 15:20 30.03.2020
5605 Clouds 5 1024 48 10000 4.1 20 14:58 30.03.2020
5606 Clouds 5 1024 48 10000 4.1 20 14:37 30.03.2020
5607 Clouds 5 1024 48 10000 4.6 360 14:18 30.03.2020
5608 Clouds 5 1024 48 10000 4.6 360 13:57 30.03.2020
5609 Clouds 5 1024 48 10000 3.1 360 13:38 30.03.2020
5610 Clouds 4 1025 51 10000 3.6 60 13:19 30.03.2020
5611 Clouds 3 1025 51 10000 4.1 20 12:45 30.03.2020
5612 Clouds 2 1025 51 10000 4.1 50 12:21 30.03.2020
5613 Clouds 2 1025 51 10000 4.1 50 12:21 30.03.2020
5614 Clouds 2 1025 51 10000 4.1 50 11:58 30.03.2020
5615 Clouds 2 1026 59 10000 5.1 60 11:40 30.03.2020
5616 Clouds 2 1026 59 10000 5.7 70 11:21 30.03.2020
5617 Clouds 1 1026 64 10000 5.7 40 10:55 30.03.2020
5618 Clouds 1 1026 64 10000 5.7 40 10:37 30.03.2020
5619 Clouds 0 1026 69 10000 5.7 30 10:18 30.03.2020
5620 Clouds -1 1026 68 10000 5.7 20 09:40 30.03.2020
5621 Clouds -1 1026 68 10000 5.7 20 09:19 30.03.2020
5622 Clouds -1 1026 68 10000 5.7 20 09:19 30.03.2020
5623 Clouds -1 1026 68 10000 5.7 20 08:57 30.03.2020
5624 Clouds -1 1026 68 10000 6.2 30 08:38 30.03.2020
5625 Clouds -1 1025 74 10000 5.7 20 08:19 30.03.2020
5626 Clouds -1 1025 91 10000 4.6 10 07:43 30.03.2020
5627 Clouds -1 1025 91 10000 5.7 20 07:21 30.03.2020
5628 Clouds -1 1025 91 10000 5.1 30 06:47 30.03.2020
5629 Clouds -1 1025 92 10000 6.2 30 06:25 30.03.2020
5630 Clouds 0 1025 92 10000 5.7 20 05:44 30.03.2020
5631 Clouds 0 1025 74 10000 5.1 30 04:31 30.03.2020
5632 Clouds 0 1025 74 10000 6.7 20 03:57 30.03.2020
5633 Clouds 1 1025 80 10000 6.7 30 02:45 30.03.2020
5634 Clouds 1 1025 80 10000 7.7 30 01:58 30.03.2020
5635 Snow 1 1025 86 10000 6.2 20 01:18 30.03.2020
5636 Snow 1 1024 77 9000 5.7 20 00:29 30.03.2020
5637 Clouds 2 1024 77 10000 6.2 20 23:56 29.03.2020
5638 Clouds 2 1024 77 10000 6.2 20 23:37 29.03.2020
5639 Clouds 2 1024 77 10000 6.2 20 23:37 29.03.2020
5640 Rain 2 1023 93 10000 5.7 20 23:19 29.03.2020
5641 Rain 3 1023 93 10000 7.2 10 22:55 29.03.2020
5642 Rain 3 1023 93 10000 7.2 10 22:37 29.03.2020
5643 Rain 3 1023 93 10000 7.2 10 22:37 29.03.2020
5644 Rain 3 1023 86 8000 4.6 10 22:18 29.03.2020
5645 Rain 3 1023 93 9000 4.1 350 21:38 29.03.2020
5646 Rain 3 1022 93 7000 3.1 40 21:20 29.03.2020
5647 Rain 3 1022 93 7000 3.1 40 20:56 29.03.2020
5648 Rain 3 1022 93 7000 3.6 50 20:37 29.03.2020
5649 Rain 3 1022 86 7000 4.6 20 20:19 29.03.2020
5650 Rain 3 1022 86 7000 4.6 20 19:58 29.03.2020
5651 Rain 3 1021 93 9000 6.2 10 19:40 29.03.2020
5652 Rain 3 1021 93 9000 5.1 10 19:22 29.03.2020
5653 Rain 4 1021 93 10000 3.6 350 18:57 29.03.2020
5654 Rain 3 1021 93 10000 3.6 350 18:38 29.03.2020
5655 Rain 4 1020 93 10000 4.1 350 18:20 29.03.2020
5656 Rain 3 1020 86 6000 3.1 330 17:56 29.03.2020
5657 Rain 3 1020 86 6000 3.1 330 17:38 29.03.2020
5658 Snow 4 1020 86 6000 3.1 330 17:19 29.03.2020
5659 Snow 4 1020 86 6000 3.1 330 16:56 29.03.2020
5660 Snow 3 1020 93 7000 3.1 330 16:38 29.03.2020
5661 Snow 3 1020 93 8000 2.6 340 16:19 29.03.2020
5662 Snow 3 1020 93 5000 4.6 350 15:43 29.03.2020
5663 Snow 3 1020 93 5000 4.6 350 15:25 29.03.2020
5664 Snow 4 1020 93 5000 5.1 320 14:59 29.03.2020
5665 Snow 4 1020 93 5000 5.1 320 14:40 29.03.2020
5666 Snow 4 1020 93 4700 3.6 340 14:20 29.03.2020
5667 Snow 4 1020 93 2500 5.1 340 13:58 29.03.2020
5668 Snow 4 1020 93 2500 5.1 340 13:40 29.03.2020
5669 Rain 3 1020 69 10000 4.6 350 13:21 29.03.2020
5670 Rain 4 1020 69 10000 5.1 350 12:57 29.03.2020
5671 Rain 4 1020 69 10000 5.1 350 12:38 29.03.2020
5672 Clouds 4 1020 77 10000 5.7 340 12:19 29.03.2020
5673 Clouds 4 1020 77 10000 4.1 340 11:57 29.03.2020
5674 Clouds 4 1020 77 10000 4.1 340 11:57 29.03.2020
5675 Clouds 4 1020 77 10000 4.1 340 11:37 29.03.2020
5676 Snow 4 1020 77 7000 4.1 350 11:19 29.03.2020
5677 Rain 5 1020 69 10000 5.1 350 10:39 29.03.2020
5678 Rain 5 1019 77 10000 5.7 350 10:20 29.03.2020
5679 Rain 4 1019 77 10000 5.7 350 09:55 29.03.2020
5680 Clouds 4 1019 77 10000 5.7 340 09:37 29.03.2020
5681 Clouds 4 1019 76 10000 5.7 340 09:18 29.03.2020
5682 Clouds 4 1019 76 10000 6.2 340 08:43 29.03.2020
5683 Clouds 4 1019 69 10000 4.6 340 08:24 29.03.2020
5684 Clouds 4 1018 69 10000 3.6 340 07:47 29.03.2020
5685 Clouds 4 1018 69 10000 4.1 340 07:23 29.03.2020
5686 Clouds 5 1018 60 10000 5.1 340 05:59 29.03.2020
5687 Clouds 5 1018 56 10000 5.1 350 04:56 29.03.2020
5688 Clouds 6 1018 52 10000 4.6 350 03:41 29.03.2020
5689 Clouds 6 1018 52 10000 4.6 350 03:20 29.03.2020
5690 Clouds 7 1018 70 10000 3.6 340 01:40 29.03.2020
5691 Clouds 7 1018 69 10000 3.6 340 01:21 29.03.2020
5692 Clouds 7 1018 69 10000 3.1 350 00:40 29.03.2020
5693 Clouds 7 1017 69 10000 2.6 350 00:19 29.03.2020
5694 Clouds 7 1017 69 10000 2.6 350 23:41 28.03.2020
5695 Clouds 7 1017 57 10000 2.1 20 23:22 28.03.2020
5696 Clear 8 1017 53 10000 3.6 360 22:46 28.03.2020
5697 Clear 8 1017 57 10000 2.6 340 22:23 28.03.2020
5698 Clear 8 1017 57 10000 2.6 340 21:59 28.03.2020
5699 Clear 8 1016 57 10000 3.6 310 21:40 28.03.2020
5700 Clear 9 1016 53 10000 2.6 310 21:21 28.03.2020
5701 Clear 9 1016 53 10000 2.6 310 20:57 28.03.2020
5702 Clear 10 1016 46 10000 2.1 340 20:38 28.03.2020
5703 Clear 10 1016 43 10000 3.1 350 20:20 28.03.2020
5704 Clear 11 1016 43 10000 3.1 350 19:55 28.03.2020
5705 Clear 12 1016 43 10000 3.1 350 19:36 28.03.2020
5706 Clear 11 1016 43 10000 3.1 350 19:36 28.03.2020
5707 Clear 12 1016 43 10000 3.6 350 19:18 28.03.2020
5708 Clear 14 1015 41 10000 4.6 350 18:42 28.03.2020
5709 Clear 15 1015 38 10000 4.6 350 18:22 28.03.2020
5710 Clear 15 1015 41 10000 5.1 340 17:58 28.03.2020
5711 Clear 15 1015 41 10000 5.1 340 17:38 28.03.2020
5712 Clear 16 1015 38 10000 3.6 330 17:18 28.03.2020
5713 Clear 16 1015 38 10000 3.1 10 16:42 28.03.2020
5714 Clear 16 1015 38 10000 3.1 350 16:20 28.03.2020
5715 Clear 16 1015 38 10000 3.1 350 15:56 28.03.2020
5716 Clear 16 1016 41 10000 3.1 360 15:37 28.03.2020
5717 Clear 16 1016 38 10000 3.6 340 15:18 28.03.2020
5718 Clear 16 1016 38 10000 2.6 360 14:42 28.03.2020
5719 Clear 15 1016 41 10000 3.1 10 14:22 28.03.2020
5720 Clear 15 1016 38 10000 3.1 360 13:56 28.03.2020
5721 Clear 15 1016 38 10000 3.1 360 13:37 28.03.2020
5722 Clear 15 1017 38 10000 2.1 0 13:18 28.03.2020
5723 Clear 14 1017 41 10000 2.6 350 12:38 28.03.2020
5724 Clear 14 1017 44 10000 2.1 40 12:19 28.03.2020
5725 Clear 13 1017 50 10000 1 0 11:42 28.03.2020
5726 Clear 13 1017 47 10000 1 0 11:21 28.03.2020
5727 Clear 12 1017 57 10000 1 0 10:56 28.03.2020
5728 Clear 12 1017 57 10000 1 0 10:37 28.03.2020
5729 Clear 11 1017 57 10000 1.5 100 10:18 28.03.2020
5730 Clear 10 1017 66 10000 1 0 09:41 28.03.2020
5731 Clear 9 1017 75 10000 1 0 09:22 28.03.2020
5732 Clear 7 1017 70 10000 0.5 220 08:45 28.03.2020
5733 Clear 5 1017 70 10000 0.5 220 08:26 28.03.2020
5734 Clouds 5 1017 75 10000 1 0 07:59 28.03.2020
5735 Clouds 4 1017 80 10000 0.5 0 07:41 28.03.2020
5736 Clouds 2 1016 79 10000 0.5 0 06:54 28.03.2020
5737 Clouds 2 1016 79 10000 0.5 0 06:29 28.03.2020
5738 Clouds 2 1016 79 10000 0.5 0 05:39 28.03.2020
5739 Clouds 3 1016 79 10000 0.5 0 05:19 28.03.2020
5740 Clouds 2 1016 80 10000 0.5 280 04:39 28.03.2020
5741 Clouds 4 1016 80 10000 1 270 02:55 28.03.2020
5742 Clouds 4 1016 80 10000 1 0 01:48 28.03.2020
5743 Clouds 4 1016 80 10000 1 0 01:24 28.03.2020
5744 Clouds 5 1015 75 10000 1 0 00:55 28.03.2020
5745 Clouds 5 1015 75 10000 1.5 310 00:33 28.03.2020
5746 Clouds 6 1015 80 10000 0.5 0 23:54 27.03.2020
5747 Clouds 6 1015 80 10000 0.5 0 23:36 27.03.2020
5748 Clouds 6 1015 70 10000 0.5 0 23:18 27.03.2020
5749 Clouds 7 1016 61 10000 2.1 90 22:54 27.03.2020
5750 Clouds 7 1016 61 10000 2.1 90 22:36 27.03.2020
5751 Clouds 7 1015 61 10000 1 270 22:18 27.03.2020
5752 Clouds 7 1015 57 10000 1.5 260 21:42 27.03.2020
5753 Clouds 8 1015 57 10000 2.1 330 21:23 27.03.2020
5754 Clouds 9 1015 57 10000 2.1 330 20:58 27.03.2020
5755 Clouds 9 1015 57 10000 2.1 330 20:58 27.03.2020
5756 Clouds 9 1015 57 10000 2.1 330 20:58 27.03.2020
5757 Clouds 9 1015 61 10000 2.6 340 20:39 27.03.2020
5758 Clouds 10 1015 57 10000 3.1 350 20:20 27.03.2020
5759 Clouds 11 1014 54 10000 3.1 350 19:56 27.03.2020
5760 Clouds 11 1014 54 10000 3.1 350 19:38 27.03.2020
5761 Clouds 12 1014 50 10000 3.1 350 19:20 27.03.2020
5762 Clouds 13 1014 47 10000 2.6 20 18:44 27.03.2020
5763 Clouds 13 1014 47 10000 2.6 20 18:44 27.03.2020
5764 Clouds 14 1014 44 10000 3.1 20 18:23 27.03.2020
5765 Clouds 14 1014 44 10000 3.6 20 17:57 27.03.2020
5766 Clouds 14 1014 44 10000 3.6 20 17:38 27.03.2020
5767 Clear 15 1014 38 10000 4.1 30 17:19 27.03.2020
5768 Clear 15 1013 38 10000 1 0 16:44 27.03.2020
5769 Clear 15 1014 41 10000 2.6 0 16:25 27.03.2020
5770 Clear 15 1014 41 10000 1 0 15:55 27.03.2020
5771 Clear 15 1014 41 10000 1 0 15:37 27.03.2020
5772 Clear 14 1014 44 10000 1.5 0 15:19 27.03.2020
5773 Clear 14 1014 41 10000 1.5 0 14:43 27.03.2020
5774 Clear 13 1014 43 10000 2.6 350 14:24 27.03.2020
5775 Clear 13 1015 46 10000 2.6 360 13:55 27.03.2020
5776 Clear 13 1015 46 10000 2.6 360 13:36 27.03.2020
5777 Clear 12 1015 49 10000 3.6 10 13:18 27.03.2020
5778 Clear 12 1015 49 10000 3.6 10 13:18 27.03.2020
5779 Clear 11 1015 50 10000 2.6 0 12:43 27.03.2020
5780 Clear 9 1015 49 10000 3.1 40 12:19 27.03.2020
5781 Clear 9 1015 49 10000 1.5 0 11:55 27.03.2020
5782 Clear 9 1015 49 10000 1.5 0 11:36 27.03.2020
5783 Clear 8 1015 52 10000 2.1 0 11:18 27.03.2020
5784 Clear 7 1015 56 10000 1 0 10:42 27.03.2020
5785 Clear 7 1015 56 10000 1 0 10:42 27.03.2020
5786 Clear 7 1015 56 10000 1 0 10:22 27.03.2020
5787 Clear 7 1015 56 10000 1 0 10:22 27.03.2020
5788 Clear 7 1015 56 10000 1 0 09:59 27.03.2020
5789 Clear 6 1015 56 10000 1 0 09:41 27.03.2020
5790 Clear 5 1015 60 10000 1.5 90 09:23 27.03.2020
5791 Clear 5 1015 60 10000 1.5 90 08:59 27.03.2020
5792 Clear 4 1014 60 10000 1 0 08:40 27.03.2020
5793 Clouds 2 1014 64 10000 0.5 0 08:22 27.03.2020
5794 Clouds 1 1014 74 10000 0.5 0 07:59 27.03.2020
5795 Clouds 0 1014 74 10000 0.5 0 07:41 27.03.2020
5796 Clouds 0 1014 74 10000 2.6 300 07:21 27.03.2020
5797 Clouds 0 1014 69 10000 2.6 310 06:40 27.03.2020
5798 Clouds -1 1014 84 10000 1 0 05:57 27.03.2020
5799 Clouds 1 1014 74 10000 1.5 40 03:34 27.03.2020
5800 Clouds 3 1015 69 10000 3.1 360 01:56 27.03.2020
5801 Clouds 3 1015 64 10000 4.1 360 01:19 27.03.2020
5802 Clouds 3 1015 69 10000 4.1 10 00:43 27.03.2020
5803 Clouds 3 1015 64 10000 3.1 350 00:19 27.03.2020
5804 Clouds 3 1015 64 10000 3.1 10 23:42 26.03.2020
5805 Clouds 3 1015 64 10000 4.6 20 23:19 26.03.2020
5806 Clouds 3 1016 60 10000 4.1 20 22:57 26.03.2020
5807 Clouds 4 1016 60 10000 4.1 20 22:36 26.03.2020
5808 Clouds 4 1016 60 10000 2.6 30 22:18 26.03.2020
5809 Clouds 5 1016 56 10000 4.1 20 21:40 26.03.2020
5810 Clouds 4 1016 56 10000 4.6 10 21:22 26.03.2020
5811 Clouds 5 1016 56 10000 4.6 10 20:59 26.03.2020
5812 Clouds 5 1016 56 10000 5.1 10 20:39 26.03.2020
5813 Clouds 5 1016 52 10000 3.6 10 20:21 26.03.2020
5814 Clouds 5 1016 52 10000 3.6 10 19:58 26.03.2020
5815 Clouds 6 1016 52 10000 4.1 10 19:40 26.03.2020
5816 Clouds 6 1016 52 10000 4.1 20 19:21 26.03.2020
5817 Clouds 6 1016 48 10000 5.1 40 18:58 26.03.2020
5818 Clouds 7 1016 48 10000 5.1 40 18:40 26.03.2020
5819 Clouds 7 1016 48 10000 5.1 60 18:22 26.03.2020
5820 Clouds 8 1016 45 10000 6.7 60 17:45 26.03.2020
5821 Clouds 7 1016 49 10000 6.2 70 17:20 26.03.2020
5822 Clouds 7 1016 45 10000 6.2 70 16:59 26.03.2020
5823 Clouds 7 1016 45 10000 6.2 70 16:38 26.03.2020
5824 Clouds 7 1017 48 10000 7.2 60 16:20 26.03.2020
5825 Clouds 7 1017 48 10000 7.2 60 15:56 26.03.2020
5826 Clouds 7 1017 48 10000 5.1 40 15:38 26.03.2020
5827 Clouds 7 1017 45 10000 4.6 90 15:19 26.03.2020
5828 Clouds 7 1017 48 10000 4.6 90 14:43 26.03.2020
5829 Clear 7 1017 45 10000 4.6 90 14:25 26.03.2020
5830 Clear 7 1017 45 10000 5.7 90 13:56 26.03.2020
5831 Clear 7 1017 45 10000 5.7 90 13:38 26.03.2020
5832 Clouds 7 1017 45 10000 5.7 80 13:20 26.03.2020
5833 Clouds 7 1017 45 10000 5.7 80 12:39 26.03.2020
5834 Clouds 7 1017 45 10000 6.2 90 12:21 26.03.2020
5835 Clouds 6 1017 48 10000 5.1 90 11:56 26.03.2020
5836 Clouds 6 1017 48 10000 5.1 90 11:56 26.03.2020
5837 Clouds 6 1017 48 10000 5.1 70 11:37 26.03.2020
5838 Clear 5 1017 48 10000 5.1 70 11:19 26.03.2020
5839 Clear 5 1017 51 10000 5.1 90 10:42 26.03.2020
5840 Clear 4 1017 55 10000 5.7 70 10:20 26.03.2020
5841 Clear 3 1017 59 10000 6.7 70 09:55 26.03.2020
5842 Clear 3 1017 59 10000 6.7 70 09:55 26.03.2020
5843 Clear 3 1017 59 10000 6.7 70 09:37 26.03.2020
5844 Clear 2 1017 59 10000 5.1 80 09:19 26.03.2020
5845 Clouds 2 1017 59 10000 4.6 70 08:42 26.03.2020
5846 Clouds 0 1017 87 10000 4.1 60 08:24 26.03.2020
5847 Clear 0 1017 63 10000 4.6 50 07:57 26.03.2020
5848 Clear -1 1017 63 10000 4.6 50 07:38 26.03.2020
5849 Clear -1 1016 68 10000 3.1 30 07:19 26.03.2020
5850 Clear -2 1016 68 10000 3.6 40 06:33 26.03.2020
5851 Clear -2 1016 73 10000 3.6 40 05:51 26.03.2020
5852 Clear -1 1016 68 10000 4.6 40 03:47 26.03.2020
5853 Clear -1 1016 63 10000 4.1 40 03:18 26.03.2020
5854 Clear 0 1016 63 10000 4.1 30 02:50 26.03.2020
5855 Clear 0 1017 86 10000 4.1 50 01:19 26.03.2020
5856 Clear 1 1018 50 10000 4.6 80 00:33 26.03.2020
5857 Clear 2 1018 50 10000 5.7 70 23:44 25.03.2020
5858 Clear 2 1019 50 10000 5.1 80 23:26 25.03.2020
5859 Clear 2 1019 47 10000 6.7 80 22:56 25.03.2020
5860 Clear 3 1019 47 10000 6.7 80 22:37 25.03.2020
5861 Clear 3 1019 44 10000 7.2 70 22:19 25.03.2020
5862 Clear 3 1019 44 10000 6.2 80 21:54 25.03.2020
5863 Clear 3 1019 44 10000 6.2 80 21:36 25.03.2020
5864 Clear 4 1019 41 10000 7.2 80 21:18 25.03.2020
5865 Clear 4 1019 41 10000 7.7 80 20:39 25.03.2020
5866 Clear 4 1019 41 10000 6.2 80 20:19 25.03.2020
5867 Clear 4 1019 41 10000 6.2 80 19:57 25.03.2020
5868 Clear 5 1019 35 10000 7.7 80 19:38 25.03.2020
5869 Clear 5 1026 90 0 0.45 114 19:20 25.03.2020
5870 Clear 5 1019 35 10000 7.7 90 18:54 25.03.2020
5871 Clear 6 1019 35 10000 7.7 90 18:36 25.03.2020
5872 Clear 6 1019 33 10000 6.2 90 18:18 25.03.2020
5873 Clear 7 1019 30 10000 9.8 80 17:41 25.03.2020
5874 Clear 7 1019 33 10000 7.7 80 17:22 25.03.2020
5875 Clear 7 1019 33 0 8.7 90 16:58 25.03.2020
5876 Clear 7 1019 33 0 8.7 90 16:39 25.03.2020
5877 -273 0 0 0 0 0 16:21 25.03.2020
5878 Clear 7 1019 31 10000 9.3 70 15:43 25.03.2020
5879 Clear 7 1020 31 10000 9.8 70 15:21 25.03.2020
5880 Clear 7 1020 31 10000 8.2 60 14:59 25.03.2020
5881 Clear 7 1020 31 10000 8.2 60 14:40 25.03.2020
5882 Clear 7 1020 33 10000 7.7 60 14:20 25.03.2020
5883 Clear 7 1021 36 10000 6.7 60 13:46 25.03.2020
5884 Clear 7 1021 35 10000 8.2 60 13:25 25.03.2020
5885 Clear 7 1021 35 10000 7.2 60 12:54 25.03.2020
5886 Clear 6 1021 35 10000 7.2 60 12:36 25.03.2020
5887 Clear 6 1022 35 10000 6.2 70 12:18 25.03.2020
5888 Clear 6 1022 38 10000 5.7 70 11:41 25.03.2020
5889 Clear 5 1023 38 10000 5.7 70 11:21 25.03.2020
5890 Clear 4 1023 40 10000 5.7 50 10:59 25.03.2020
5891 Clear 4 1023 40 10000 5.7 50 10:40 25.03.2020
5892 Clear 4 1023 40 10000 4.1 60 10:19 25.03.2020
5893 Clear 3 1024 43 10000 6.2 70 09:59 25.03.2020
5894 Clear 3 1024 43 10000 6.2 70 09:40 25.03.2020
5895 Clear 2 1024 47 10000 6.2 70 09:21 25.03.2020
5896 Clear 1 1024 47 10000 5.1 70 08:43 25.03.2020
5897 Clear 1 1024 47 10000 5.1 70 08:25 25.03.2020
5898 Clear -1 1024 54 10000 2.1 30 07:59 25.03.2020
5899 Clear -1 1024 54 10000 2.1 30 07:39 25.03.2020
5900 Clear -2 1024 58 10000 1.5 10 07:19 25.03.2020
5901 Clear -2 1024 58 10000 3.1 10 06:45 25.03.2020
5902 Clear -2 1025 63 10000 3.6 20 06:25 25.03.2020
5903 Clear -2 1025 58 10000 1.5 10 05:48 25.03.2020
5904 Clear -2 1025 54 10000 1.5 40 04:59 25.03.2020
5905 Clear -2 1025 54 10000 1.5 40 04:36 25.03.2020
5906 Clear -1 1025 58 10000 3.6 60 03:34 25.03.2020
5907 Clear 0 1026 54 10000 3.1 80 01:55 25.03.2020
5908 Clear 0 1026 54 10000 2.6 60 01:20 25.03.2020
5909 Clear 0 1027 54 10000 3.1 50 00:43 25.03.2020
5910 Clear 0 1027 54 10000 2.6 80 00:19 25.03.2020
5911 Clear 1 1027 78 10000 1.5 90 23:44 24.03.2020
5912 Clear 1 1027 47 10000 2.6 50 23:25 24.03.2020
5913 Clear 2 1027 43 10000 1.5 50 22:55 24.03.2020
5914 Clear 1 1027 43 10000 1.5 50 22:37 24.03.2020
5915 Clear 2 1027 43 10000 1.5 40 22:19 24.03.2020
5916 Clear 2 1027 43 10000 1 0 21:55 24.03.2020
5917 Clear 3 1027 43 10000 1 0 21:36 24.03.2020
5918 Clear 3 1027 43 10000 2.1 40 21:18 24.03.2020
5919 Clear 3 1027 47 10000 1 0 20:42 24.03.2020
5920 Clear 3 1027 44 10000 0.5 0 20:23 24.03.2020
5921 Clear 3 1027 44 10000 2.1 80 19:57 24.03.2020
5922 Clear 4 1027 44 10000 2.1 80 19:39 24.03.2020
5923 Clear 4 1027 38 10000 5.7 80 19:18 24.03.2020
5924 Clear 5 1027 38 10000 6.2 90 18:55 24.03.2020
5925 Clear 5 1027 38 10000 6.2 90 18:36 24.03.2020
5926 Clear 6 1026 35 10000 5.7 90 18:18 24.03.2020
5927 Clear 6 1026 35 10000 7.7 90 17:42 24.03.2020
5928 Clear 6 1026 33 10000 6.2 90 17:22 24.03.2020
5929 Clear 6 1027 30 10000 7.2 90 16:58 24.03.2020
5930 Clear 7 1027 30 10000 7.2 90 16:39 24.03.2020
5931 Clear 7 1027 33 10000 6.2 90 16:21 24.03.2020
5932 Clear 7 1027 30 10000 8.2 90 15:58 24.03.2020
5933 Clear 7 1027 30 10000 8.2 90 15:37 24.03.2020
5934 Clear 7 1028 28 10000 8.2 90 15:19 24.03.2020
5935 Clear 7 1028 30 10000 6.7 90 14:43 24.03.2020
5936 Clear 6 1028 33 10000 6.7 100 14:19 24.03.2020
5937 Clear 6 1029 33 10000 6.2 90 13:44 24.03.2020
5938 Clear 6 1029 33 10000 6.7 90 13:24 24.03.2020
5939 Clear 6 1029 35 10000 6.7 90 12:58 24.03.2020
5940 Clear 6 1029 35 10000 6.7 90 12:38 24.03.2020
5941 Clear 6 1030 35 10000 6.7 80 12:20 24.03.2020
5942 Clear 5 1030 38 10000 6.7 100 11:40 24.03.2020
5943 Clear 4 1030 40 10000 7.7 90 11:20 24.03.2020
5944 Clear 4 1030 40 10000 7.7 90 10:54 24.03.2020
5945 Clear 3 1030 40 10000 7.7 90 10:36 24.03.2020
5946 Clear 3 1030 43 10000 9.3 80 10:18 24.03.2020
5947 Clear 2 1030 43 10000 7.2 80 09:42 24.03.2020
5948 Clear 1 1030 47 10000 7.2 70 09:24 24.03.2020
5949 Clear 1 1030 34 10000 6.2 70 08:40 24.03.2020
5950 Clear -1 1030 58 10000 5.7 70 08:21 24.03.2020
5951 Clear -2 1030 63 10000 4.6 70 07:51 24.03.2020
5952 Clear -2 1030 63 10000 3.6 80 07:25 24.03.2020
5953 Clear -3 1030 63 10000 3.6 80 06:59 24.03.2020
5954 Clear -3 1030 58 10000 1 0 06:34 24.03.2020
5955 Clear -3 1029 54 10000 1 0 05:30 24.03.2020
5956 Clear -2 1030 58 10000 1.5 0 04:49 24.03.2020
5957 Clear -2 1030 63 10000 4.1 70 03:19 24.03.2020
5958 Clear -2 1030 63 10000 2.6 80 02:25 24.03.2020
5959 Clear -2 1031 63 10000 2.6 90 00:53 24.03.2020
5960 Clear -1 1031 58 10000 2.6 80 00:26 24.03.2020
5961 Clear -1 1031 54 10000 1.5 90 23:55 23.03.2020
5962 Clear -1 1031 54 10000 1.5 90 23:36 23.03.2020
5963 Clear -1 1031 58 10000 1.5 100 23:18 23.03.2020
5964 Clear -1 1031 58 10000 3.6 70 22:42 23.03.2020
5965 Clear -1 1031 46 10000 2.6 70 22:22 23.03.2020
5966 Clear 0 1031 54 10000 2.6 70 21:55 23.03.2020
5967 Clear 0 1031 54 10000 2.6 70 21:37 23.03.2020
5968 Clear 0 1031 46 10000 3.1 80 21:18 23.03.2020
5969 Clear 1 1031 47 10000 3.6 80 20:42 23.03.2020
5970 Clear 1 1031 47 10000 4.1 80 20:24 23.03.2020
5971 Clear 1 1031 47 10000 4.1 80 19:56 23.03.2020
5972 Clear 2 1031 47 10000 3.6 90 19:37 23.03.2020
5973 Clear 2 1030 43 10000 4.6 90 19:19 23.03.2020
5974 Clear 3 1030 44 10000 5.1 90 18:44 23.03.2020
5975 Clear 3 1030 38 10000 5.7 80 18:25 23.03.2020
5976 Clear 4 1030 35 10000 6.7 90 17:59 23.03.2020
5977 Clear 5 1030 35 10000 6.7 90 17:41 23.03.2020
5978 Clear 5 1030 35 10000 5.7 90 17:19 23.03.2020
5979 Clear 5 1030 32 10000 6.7 80 16:44 23.03.2020
5980 Clear 5 1030 33 10000 6.7 80 16:25 23.03.2020
5981 Clear 6 1030 33 10000 6.7 80 15:59 23.03.2020
5982 Clear 6 1030 33 10000 8.2 80 15:39 23.03.2020
5983 Clear 6 1030 33 10000 7.2 90 15:19 23.03.2020
5984 Clear 5 1030 32 10000 8.7 80 14:37 23.03.2020
5985 Clear 6 1031 32 10000 8.7 80 14:19 23.03.2020
5986 Clear 6 1031 32 10000 8.7 80 13:57 23.03.2020
5987 Clear 6 1031 32 10000 8.7 80 13:38 23.03.2020
5988 Clear 6 1031 32 10000 8.7 80 13:38 23.03.2020
5989 Clear 6 1031 32 10000 8.7 80 13:38 23.03.2020
5990 Clear 5 1031 35 10000 7.7 80 13:20 23.03.2020
5991 Clear 5 1031 35 10000 7.2 80 12:44 23.03.2020
5992 Clear 5 1031 35 10000 7.2 90 12:25 23.03.2020
5993 Clear 4 1031 37 10000 8.7 80 11:57 23.03.2020
5994 Clear 4 1031 37 10000 8.7 80 11:38 23.03.2020
5995 Clear 3 1031 37 10000 9.3 80 11:19 23.03.2020
5996 Clear 3 1031 40 10000 9.8 80 10:56 23.03.2020
5997 Clear 3 1031 40 10000 9.8 80 10:37 23.03.2020
5998 Clear 2 1031 43 10000 6.2 90 10:19 23.03.2020
5999 Clear 1 1031 28 10000 7.2 80 09:44 23.03.2020
6000 Clear 1 1031 28 10000 7.2 80 09:21 23.03.2020
6001 Clear 0 1031 50 10000 7.7 80 08:56 23.03.2020
6002 Clear -1 1031 50 10000 7.7 80 08:36 23.03.2020
6003 Clear -2 1031 58 10000 6.7 80 08:18 23.03.2020
6004 Clear -2 1031 54 10000 5.7 80 07:42 23.03.2020
6005 Clear -2 1031 58 10000 4.6 80 07:21 23.03.2020
6006 Clear -3 1031 58 10000 5.1 80 06:49 23.03.2020
6007 Clear -3 1030 63 10000 4.6 80 05:51 23.03.2020
6008 Clear -2 1030 68 10000 4.6 90 04:58 23.03.2020
6009 Clear -2 1030 63 10000 5.1 80 03:26 23.03.2020
6010 Clear -1 1031 63 10000 4.6 90 01:51 23.03.2020
6011 Clear -1 1031 63 10000 4.6 90 01:32 23.03.2020
6012 Clear -1 1030 52 10000 5.1 90 00:36 23.03.2020
6013 Clear 0 1030 52 10000 6.2 90 23:47 22.03.2020
6014 Clear 0 1030 53 10000 5.1 90 23:26 22.03.2020
6015 Clear 0 1030 55 10000 6.7 90 22:45 22.03.2020
6016 Clear 0 1030 59 10000 5.7 80 22:24 22.03.2020
6017 Clear 1 1030 59 10000 5.7 80 21:56 22.03.2020
6018 Clear 1 1030 55 10000 6.2 80 21:37 22.03.2020
6019 Clear 1 1029 51 10000 6.2 80 21:19 22.03.2020
6020 Clear 2 1029 55 10000 6.2 80 20:46 22.03.2020
6021 Clear 2 1029 47 10000 6.2 80 20:25 22.03.2020
6022 Clear 3 1028 51 10000 6.7 70 19:58 22.03.2020
6023 Clear 3 1028 51 10000 6.7 70 19:40 22.03.2020
6024 Clear 3 1028 48 10000 6.7 70 19:20 22.03.2020
6025 Clear 3 1028 48 10000 6.7 70 19:20 22.03.2020
6026 Clear 4 1027 48 10000 7.2 60 18:59 22.03.2020
6027 Clear 4 1027 48 10000 7.2 60 18:41 22.03.2020
6028 Clear 4 1027 48 10000 7.2 60 18:41 22.03.2020
6029 Clear 5 1027 48 10000 7.2 60 18:22 22.03.2020
6030 Clear 5 1027 48 10000 7.2 60 17:59 22.03.2020
6031 Clear 5 1027 45 10000 7.7 60 17:39 22.03.2020
6032 Clear 5 1027 45 10000 7.7 60 17:39 22.03.2020
6033 Clear 6 1026 48 10000 7.2 70 17:21 22.03.2020
6034 Clouds 6 1026 45 10000 8.7 70 16:59 22.03.2020
6035 Clouds 6 1026 45 10000 8.7 70 16:41 22.03.2020
6036 Clear 7 1026 48 10000 7.2 80 16:21 22.03.2020
6037 Clear 7 1026 52 10000 6.7 90 15:58 22.03.2020
6038 Clear 7 1026 52 10000 6.7 90 15:39 22.03.2020
6039 Clouds 7 1026 56 10000 7.7 80 14:47 22.03.2020
6040 Clouds 7 1026 56 10000 8.2 90 14:19 22.03.2020
6041 Clouds 6 1026 56 10000 8.2 90 13:58 22.03.2020
6042 Clouds 6 1026 52 10000 8.2 70 13:40 22.03.2020
6043 Clouds 6 1026 60 10000 6.2 90 13:19 22.03.2020
6044 Clouds 5 1026 60 10000 7.2 90 12:44 22.03.2020
6045 Clouds 5 1026 60 10000 6.7 90 12:21 22.03.2020
6046 Clouds 5 1026 60 10000 9.3 80 11:58 22.03.2020
6047 Clouds 4 1026 60 10000 9.3 80 11:39 22.03.2020
6048 Clouds 3 1026 64 10000 6.2 90 11:20 22.03.2020
6049 Clouds 4 1026 64 10000 7.2 80 10:43 22.03.2020
6050 Clouds 3 1026 69 10000 8.7 90 10:24 22.03.2020
6051 Clouds 2 1026 69 10000 8.7 90 09:55 22.03.2020
6052 Clouds 2 1026 69 10000 7.7 90 09:36 22.03.2020
6053 Clouds 1 1025 69 10000 8.7 80 09:18 22.03.2020
6054 Clouds 1 1025 69 10000 10.3 80 08:41 22.03.2020
6055 Clouds 0 1025 76 10000 8.2 70 08:21 22.03.2020
6056 Clouds 0 1025 76 10000 7.2 70 07:50 22.03.2020
6057 Clouds -1 1024 76 10000 6.2 70 07:22 22.03.2020
6058 Clouds 0 1023 76 10000 6.7 80 05:57 22.03.2020
6059 Clouds 0 1023 74 10000 7.2 80 05:21 22.03.2020
6060 Clouds 1 1023 80 10000 6.2 70 03:25 22.03.2020
6061 Clouds 1 1023 78 10000 6.7 60 01:26 22.03.2020
6062 Snow 2 1023 93 10000 6.7 60 00:41 22.03.2020
6063 Snow 2 1023 93 10000 6.2 60 00:23 22.03.2020
6064 Snow 2 1023 93 10000 6.7 60 23:42 21.03.2020
6065 Snow 2 1023 93 10000 6.2 60 23:19 21.03.2020
6066 Snow 2 1023 93 10000 6.7 60 22:55 21.03.2020
6067 Snow 2 1023 93 10000 6.7 60 22:36 21.03.2020
6068 Snow 2 1023 93 10000 6.7 60 22:18 21.03.2020
6069 Snow 2 1022 93 10000 6.7 60 21:41 21.03.2020
6070 Snow 2 1022 93 10000 6.2 50 21:23 21.03.2020
6071 Snow 2 1022 93 10000 6.2 50 20:56 21.03.2020
6072 Rain 2 1022 100 10000 6.2 50 20:38 21.03.2020
6073 Rain 2 1022 93 10000 5.7 60 20:19 21.03.2020
6074 Snow 2 1022 93 10000 4.6 50 19:43 21.03.2020
6075 Snow 2 1022 93 10000 4.6 50 19:25 21.03.2020
6076 Snow 2 1021 93 10000 5.1 60 19:25 21.03.2020
6077 Snow 2 1021 93 8000 4.6 60 18:57 21.03.2020
6078 Snow 3 1021 93 8000 4.6 60 18:38 21.03.2020
6079 Rain 3 1021 93 9000 5.1 50 18:20 21.03.2020
6080 Rain 3 1021 93 9000 5.1 50 18:20 21.03.2020
6081 Rain 3 1021 93 10000 5.1 50 17:55 21.03.2020
6082 Rain 3 1021 93 10000 5.1 50 17:37 21.03.2020
6083 Rain 3 1021 93 7000 6.2 50 17:37 21.03.2020
6084 Rain 3 1021 93 7000 6.2 50 17:18 21.03.2020
6085 Rain 3 1021 93 7000 6.2 50 17:18 21.03.2020
6086 Rain 3 1021 100 7000 5.1 40 16:41 21.03.2020
6087 Rain 3 1020 93 8000 6.2 40 16:20 21.03.2020
6088 Rain 3 1020 93 8000 6.2 40 16:20 21.03.2020
6089 Rain 3 1020 93 10000 6.2 40 15:56 21.03.2020
6090 Rain 3 1020 93 10000 6.2 40 15:37 21.03.2020
6091 Rain 3 1020 93 10000 5.1 20 15:19 21.03.2020
6092 Rain 3 1021 93 10000 3.6 360 14:54 21.03.2020
6093 Rain 3 1021 93 10000 3.6 360 14:36 21.03.2020
6094 Rain 3 1020 93 10000 3.1 30 14:18 21.03.2020
6095 Drizzle 3 1021 93 10000 3.1 10 13:57 21.03.2020
6096 Drizzle 3 1021 93 10000 3.1 10 13:38 21.03.2020
6097 Drizzle 3 1021 93 10000 3.6 40 13:19 21.03.2020
6098 Drizzle 3 1021 93 10000 4.6 30 12:40 21.03.2020
6099 Drizzle 4 1021 93 10000 4.6 20 12:20 21.03.2020
6100 Drizzle 4 1021 93 10000 4.6 20 12:20 21.03.2020
6101 Drizzle 4 1021 93 9000 7.2 60 11:59 21.03.2020
6102 Drizzle 4 1021 93 9000 7.2 60 11:39 21.03.2020
6103 Drizzle 4 1021 93 9000 7.2 60 11:39 21.03.2020
6104 Drizzle 4 1021 86 7000 5.7 70 11:20 21.03.2020
6105 Drizzle 4 1021 86 4900 6.2 50 10:58 21.03.2020
6106 Drizzle 4 1021 86 4900 6.2 50 10:39 21.03.2020
6107 Drizzle 4 1021 86 6000 5.7 50 10:21 21.03.2020
6108 Drizzle 4 1021 86 6000 5.7 50 09:58 21.03.2020
6109 Drizzle 4 1021 86 7000 6.2 50 09:39 21.03.2020
6110 Drizzle 4 1020 86 10000 5.7 50 09:20 21.03.2020
6111 Rain 4 1020 80 10000 5.1 40 08:55 21.03.2020
6112 Rain 4 1020 80 10000 5.1 40 08:37 21.03.2020
6113 Rain 4 1020 86 10000 4.1 40 08:18 21.03.2020
6114 Rain 5 1020 86 10000 6.2 50 07:37 21.03.2020
6115 Rain 5 1020 86 10000 4.1 50 07:19 21.03.2020
6116 Clouds 5 1020 86 10000 4.1 50 06:44 21.03.2020
6117 Clouds 5 1020 80 10000 4.1 50 06:24 21.03.2020
6118 Clouds 5 1020 86 10000 4.1 50 05:40 21.03.2020
6119 Clouds 6 1020 81 10000 4.1 50 04:26 21.03.2020
6120 Clouds 7 1020 87 10000 4.6 20 02:37 21.03.2020
6121 Clouds 7 1020 87 10000 4.6 30 01:49 21.03.2020
6122 Clouds 8 1020 81 10000 4.6 20 01:26 21.03.2020
6123 Clouds 8 1020 81 10000 4.1 30 00:43 21.03.2020
6124 Clouds 9 1020 81 10000 4.1 30 00:23 21.03.2020
6125 Clouds 9 1020 81 10000 3.6 10 23:44 20.03.2020
6126 Clouds 9 1020 81 10000 3.6 350 23:22 20.03.2020
6127 Clouds 10 1020 81 10000 4.1 360 22:44 20.03.2020
6128 Clouds 10 1020 81 10000 3.1 10 22:25 20.03.2020
6129 Clouds 10 1019 71 10000 3.1 20 21:59 20.03.2020
6130 Clouds 11 1019 71 10000 3.1 20 21:41 20.03.2020
6131 Clouds 11 1019 76 10000 2.6 30 21:20 20.03.2020
6132 Clouds 11 1019 76 10000 2.6 30 20:59 20.03.2020
6133 Clouds 11 1019 71 10000 2.1 30 20:41 20.03.2020
6134 Rain 12 1019 66 10000 3.1 20 20:20 20.03.2020
6135 Rain 12 1019 66 10000 3.6 10 19:58 20.03.2020
6136 Rain 12 1019 66 10000 3.6 10 19:39 20.03.2020
6137 Clouds 13 1019 67 10000 3.6 360 19:18 20.03.2020
6138 Clouds 14 1018 62 10000 4.1 360 18:39 20.03.2020
6139 Clouds 14 1018 62 10000 4.1 360 18:39 20.03.2020
6140 Clouds 15 1018 59 10000 4.1 360 18:20 20.03.2020
6141 Clouds 15 1018 55 10000 4.6 350 17:57 20.03.2020
6142 Clouds 16 1018 51 10000 3.6 350 17:39 20.03.2020
6143 Clouds 16 1018 51 10000 3.6 350 17:20 20.03.2020
6144 Clouds 16 1018 55 10000 5.1 360 16:43 20.03.2020
6145 Clouds 17 1018 55 10000 5.1 360 16:22 20.03.2020
6146 Clouds 16 1018 55 10000 5.1 360 15:59 20.03.2020
6147 Clouds 17 1018 55 10000 5.1 330 15:41 20.03.2020
6148 Clouds 17 1019 55 0 5.1 350 15:21 20.03.2020
6149 Clouds 17 1019 55 10000 4.1 330 14:43 20.03.2020
6150 Clouds 17 1019 55 10000 4.6 330 14:23 20.03.2020
6151 Clouds 17 1019 55 10000 3.1 10 13:55 20.03.2020
6152 Clouds 17 1019 55 10000 3.1 10 13:55 20.03.2020
6153 Clouds 17 1019 55 10000 3.1 10 13:37 20.03.2020
6154 Clouds 17 1020 55 10000 2.1 10 13:19 20.03.2020
6155 Clouds 17 1020 55 10000 2.6 10 12:39 20.03.2020
6156 Clouds 16 1020 63 10000 1 0 12:20 20.03.2020
6157 Clouds 16 1020 63 10000 1 0 12:20 20.03.2020
6158 Clouds 16 1020 62 10000 1 0 11:56 20.03.2020
6159 Clouds 16 1021 67 10000 1 0 11:38 20.03.2020
6160 Clouds 14 1021 67 10000 1 0 11:18 20.03.2020
6161 Clouds 13 1021 71 10000 1.5 140 10:41 20.03.2020
6162 Clouds 13 1021 71 10000 1 0 10:21 20.03.2020
6163 Clouds 13 1021 71 10000 1 0 09:56 20.03.2020
6164 Clouds 12 1021 71 10000 1 0 09:37 20.03.2020
6165 Clouds 11 1021 76 10000 1.5 250 09:18 20.03.2020
6166 Clouds 9 1021 81 10000 0.5 0 08:42 20.03.2020
6167 Clouds 8 1020 87 10000 1 0 08:22 20.03.2020
6168 Clouds 8 1020 87 10000 0.5 0 07:54 20.03.2020
6169 Clouds 7 1020 87 10000 0.5 0 07:36 20.03.2020
6170 Clouds 7 1020 93 10000 0.81 324 07:18 20.03.2020
6171 Clouds 6 1020 86 10000 0.5 300 06:41 20.03.2020
6172 Clouds 7 1020 87 10000 1 260 04:51 20.03.2020
6173 Clouds 8 1020 87 10000 1.5 260 03:22 20.03.2020
6174 Clouds 9 1021 87 10000 1.5 270 01:58 20.03.2020
6175 Clouds 9 1021 76 10000 2.1 290 00:59 20.03.2020
6176 Clouds 9 1021 76 10000 1 290 00:31 20.03.2020
6177 Clouds 10 1021 76 10000 0.5 0 23:49 19.03.2020
6178 Clouds 10 1022 71 10000 2.1 340 23:30 19.03.2020
6179 Clouds 10 1022 66 10000 2.6 320 22:57 19.03.2020
6180 Clouds 10 1022 66 10000 2.6 320 22:38 19.03.2020
6181 Clouds 10 1022 71 10000 1.5 330 22:20 19.03.2020
6182 Clouds 10 1022 66 10000 1.5 340 21:55 19.03.2020
6183 Clouds 11 1022 66 10000 1.5 340 21:37 19.03.2020
6184 Clouds 11 1022 71 10000 1 360 21:18 19.03.2020
6185 Clouds 11 1022 62 10000 1.5 30 20:42 19.03.2020
6186 Clear 12 1022 62 10000 1.5 350 20:23 19.03.2020
6187 Clear 13 1022 62 10000 1.5 350 19:56 19.03.2020
6188 Clear 13 1022 58 10000 3.1 350 19:38 19.03.2020
6189 Clear 14 1022 62 10000 2.6 350 19:19 19.03.2020
6190 Clear 15 1021 55 10000 3.6 20 18:56 19.03.2020
6191 Clear 15 1021 55 10000 3.6 20 18:38 19.03.2020
6192 Clear 15 1021 55 10000 3.6 20 18:38 19.03.2020
6193 Clear 16 1021 51 10000 3.1 10 18:19 19.03.2020
6194 Clouds 17 1021 55 10000 3.1 360 17:42 19.03.2020
6195 Clouds 17 1022 48 10000 2.6 10 17:19 19.03.2020
6196 Clouds 17 1022 48 10000 2.6 10 17:19 19.03.2020
6197 Clouds 18 1022 48 10000 3.1 350 16:55 19.03.2020
6198 Clouds 18 1022 48 10000 3.1 350 16:37 19.03.2020
6199 Clouds 18 1022 45 10000 3.1 330 16:19 19.03.2020
6200 Clouds 18 1022 45 10000 2.1 0 15:40 19.03.2020
6201 Clouds 18 1022 45 10000 2.1 80 15:18 19.03.2020
6202 Clouds 18 1023 45 10000 2.1 70 14:43 19.03.2020
6203 Clouds 18 1023 52 10000 1.5 70 14:21 19.03.2020
6204 Clouds 18 1023 48 10000 1.5 340 13:42 19.03.2020
6205 Clouds 17 1024 55 10000 1 0 13:21 19.03.2020
6206 Clouds 17 1024 51 10000 1.5 0 12:58 19.03.2020
6207 Clouds 17 1024 51 10000 1.5 0 12:40 19.03.2020
6208 Clouds 16 1024 59 10000 1 0 12:21 19.03.2020
6209 Clouds 16 1025 62 10000 1.5 80 11:43 19.03.2020
6210 Clouds 15 1025 67 10000 0.5 0 11:24 19.03.2020
6211 Clouds 14 1025 71 10000 1 0 10:58 19.03.2020
6212 Clouds 13 1025 71 10000 1 0 10:38 19.03.2020
6213 Clouds 13 1025 76 10000 1 0 10:19 19.03.2020
6214 Clouds 12 1025 76 10000 1 0 09:57 19.03.2020
6215 Clouds 11 1025 76 10000 1 0 09:37 19.03.2020
6216 Clouds 10 1025 81 10000 0.5 0 09:18 19.03.2020
6217 Clouds 9 1025 87 9000 1 90 08:42 19.03.2020
6218 Clouds 8 1025 87 8000 0.5 0 08:21 19.03.2020
6219 Clouds 7 1025 93 8000 0.5 0 07:46 19.03.2020
6220 Clouds 6 1025 93 8000 0.5 0 07:28 19.03.2020
6221 Clouds 6 1025 93 10000 0.5 0 06:43 19.03.2020
6222 Clouds 6 1025 93 10000 1 330 05:48 19.03.2020
6223 Clouds 7 1025 87 10000 0.5 0 04:58 19.03.2020
6224 Clouds 6 1025 87 10000 0.5 0 04:40 19.03.2020
6225 Clouds 7 1025 86 10000 0.5 0 02:50 19.03.2020
6226 Clouds 7 1025 87 10000 2.6 290 01:25 19.03.2020
6227 Clouds 8 1025 87 10000 2.1 290 00:32 19.03.2020
6228 Clouds 9 1025 76 10000 1 0 23:57 18.03.2020
6229 Clouds 9 1026 81 10000 0.5 250 23:31 18.03.2020
6230 Clouds 9 1026 76 10000 1 0 22:58 18.03.2020
6231 Clouds 10 1026 76 10000 1 0 22:40 18.03.2020
6232 Clouds 10 1026 71 10000 1 0 22:21 18.03.2020
6233 Clouds 10 1026 71 10000 2.1 310 21:43 18.03.2020
6234 Clouds 10 1026 71 10000 2.6 330 21:22 18.03.2020
6235 Clouds 10 1026 71 10000 2.6 330 20:59 18.03.2020
6236 Clouds 11 1026 66 10000 2.1 330 20:41 18.03.2020
6237 Clouds 11 1026 66 10000 1 0 20:21 18.03.2020
6238 Clouds 12 1025 62 10000 2.1 340 19:58 18.03.2020
6239 Clouds 13 1025 62 10000 2.1 340 19:40 18.03.2020
6240 Clouds 13 1025 67 10000 2.6 340 19:21 18.03.2020
6241 Clouds 13 1025 67 10000 2.6 340 19:21 18.03.2020
6242 Clouds 13 1025 67 10000 2.6 340 19:21 18.03.2020
6243 Clouds 14 1025 58 10000 3.1 350 18:54 18.03.2020
6244 Clouds 15 1025 58 10000 3.1 350 18:36 18.03.2020
6245 Clouds 16 1025 59 10000 3.1 360 18:18 18.03.2020
6246 Clouds 17 1025 55 10000 3.1 360 17:41 18.03.2020
6247 Clear 17 1025 51 10000 3.6 350 17:22 18.03.2020
6248 Clear 17 1025 55 10000 2.6 360 16:59 18.03.2020
6249 Clear 17 1025 55 10000 2.6 360 16:59 18.03.2020
6250 Clear 17 1025 55 10000 2.6 360 16:40 18.03.2020
6251 Clear 17 1026 55 10000 3.6 360 16:20 18.03.2020
6252 Clear 17 1026 45 10000 1.5 300 15:56 18.03.2020
6253 Clear 17 1026 45 10000 1.5 300 15:37 18.03.2020
6254 Clear 17 1026 45 10000 2.6 330 15:18 18.03.2020
6255 Clouds 17 1026 45 10000 2.1 340 14:42 18.03.2020
6256 Clouds 17 1027 45 10000 1.5 360 14:21 18.03.2020
6257 Clouds 17 1027 48 10000 2.1 140 13:40 18.03.2020
6258 Clouds 17 1028 51 10000 1.5 0 13:19 18.03.2020
6259 Clouds 17 1028 51 10000 1.5 40 12:43 18.03.2020
6260 Clouds 17 1028 59 10000 1.5 50 12:21 18.03.2020
6261 Clouds 16 1029 58 10000 1.5 120 11:59 18.03.2020
6262 Clouds 16 1029 58 10000 1.5 120 11:37 18.03.2020
6263 Clouds 15 1029 67 10000 1.5 60 11:18 18.03.2020
6264 Clouds 14 1029 71 10000 1 0 10:56 18.03.2020
6265 Clouds 14 1029 71 10000 1 0 10:36 18.03.2020
6266 Clear 12 1029 76 10000 1 0 10:18 18.03.2020
6267 Clear 11 1029 76 10000 1.5 100 09:42 18.03.2020
6268 Clear 10 1029 81 10000 1 0 09:23 18.03.2020
6269 Clear 8 1029 81 10000 0.5 0 08:54 18.03.2020
6270 Clear 8 1029 81 10000 0.5 0 08:36 18.03.2020
6271 Clouds 7 1029 87 10000 0.5 0 08:18 18.03.2020
6272 Fog 5 1029 93 10000 0.5 90 07:39 18.03.2020
6273 Fog 4 1029 93 10000 0.5 100 07:21 18.03.2020
6274 Fog 4 1029 100 7000 0.5 0 06:42 18.03.2020
6275 Clouds 4 1029 100 10000 0.5 0 05:47 18.03.2020
6276 Clouds 5 1029 100 10000 1 30 05:18 18.03.2020
6277 Clouds 5 1030 93 10000 0.63 162 03:21 18.03.2020
6278 Clouds 5 1030 86 10000 0.5 0 02:37 18.03.2020
6279 Clouds 5 1030 86 10000 0.5 0 02:37 18.03.2020
6280 Clouds 6 1030 87 10000 1 0 01:46 18.03.2020
6281 Clouds 6 1030 87 10000 1.5 290 01:20 18.03.2020
6282 Clouds 7 1030 87 10000 1 0 00:23 18.03.2020
6283 Clouds 7 1030 81 10000 2.6 290 23:43 17.03.2020
6284 Clouds 7 1030 81 10000 1.5 270 23:23 17.03.2020
6285 Clouds 8 1030 81 10000 1.5 250 22:47 17.03.2020
6286 Clear 8 1030 81 10000 1.5 270 22:28 17.03.2020
6287 Clear 9 1030 81 10000 1.5 270 21:59 17.03.2020
6288 Clouds 9 1030 81 10000 1.5 270 21:37 17.03.2020
6289 Clear 9 1030 81 10000 1 250 21:19 17.03.2020
6290 Clear 10 1030 71 10000 1.5 320 20:38 17.03.2020
6291 Clouds 10 1030 71 10000 1.5 320 20:20 17.03.2020
6292 Clouds 10 1030 71 10000 1.5 320 19:54 17.03.2020
6293 Clouds 11 1030 62 10000 0.5 0 19:36 17.03.2020
6294 Clouds 13 1029 58 10000 2.1 340 19:18 17.03.2020
6295 Clouds 13 1029 58 10000 2.1 360 18:54 17.03.2020
6296 Clouds 13 1029 58 10000 2.1 360 18:36 17.03.2020
6297 Clouds 15 1029 58 10000 3.1 330 18:18 17.03.2020
6298 Clouds 15 1029 58 10000 3.1 330 18:18 17.03.2020
6299 Clouds 15 1029 54 10000 2.1 340 17:40 17.03.2020
6300 Clouds 15 1029 58 10000 3.6 310 17:20 17.03.2020
6301 Clouds 15 1029 54 10000 3.1 340 16:44 17.03.2020
6302 Clouds 15 1029 54 10000 3.6 320 16:20 17.03.2020
6303 Clouds 16 1029 54 10000 3.6 320 15:56 17.03.2020
6304 Clouds 16 1029 55 10000 3.6 310 15:56 17.03.2020
6305 Clouds 16 1029 55 10000 3.6 310 15:38 17.03.2020
6306 Clouds 15 1029 51 0 2.6 270 15:18 17.03.2020
6307 Clouds 15 1029 55 10000 2.6 260 14:41 17.03.2020
6308 Clouds 15 1029 58 10000 4.6 280 14:21 17.03.2020
6309 Clouds 15 1030 54 10000 1.5 0 13:43 17.03.2020
6310 Clouds 15 1030 55 10000 1 0 13:25 17.03.2020
6311 Clouds 14 1030 54 10000 2.1 0 12:58 17.03.2020
6312 Clouds 14 1030 54 10000 2.1 0 12:39 17.03.2020
6313 Clouds 13 1030 58 10000 2.1 210 12:21 17.03.2020
6314 Clouds 13 1030 62 10000 2.1 190 11:45 17.03.2020
6315 Clouds 12 1030 71 10000 1.5 220 11:27 17.03.2020
6316 Rain 11 1030 71 10000 1.5 230 10:57 17.03.2020
6317 Rain 11 1030 71 10000 1.5 230 10:57 17.03.2020
6318 Rain 11 1030 71 10000 1.5 230 10:37 17.03.2020
6319 Rain 11 1030 71 10000 2.1 240 10:19 17.03.2020
6320 Rain 10 1030 71 10000 1.5 260 09:55 17.03.2020
6321 Rain 10 1030 71 10000 1.5 260 09:36 17.03.2020
6322 Rain 10 1030 66 10000 1 0 09:18 17.03.2020
6323 Rain 9 1029 76 10000 0.5 360 08:42 17.03.2020
6324 Rain 9 1029 81 10000 0.5 0 08:21 17.03.2020
6325 Rain 9 1029 81 10000 0.5 0 07:50 17.03.2020
6326 Rain 8 1028 76 10000 0.5 0 07:25 17.03.2020
6327 Rain 8 1028 81 10000 1 0 06:56 17.03.2020
6328 Rain 9 1028 81 10000 1 0 06:33 17.03.2020
6329 Rain 9 1028 76 10000 1.5 250 05:41 17.03.2020
6330 Clouds 8 1026 81 10000 0.5 70 03:36 17.03.2020
6331 Clouds 8 1026 70 10000 0.5 210 02:45 17.03.2020
6332 Clouds 8 1026 76 10000 0.5 0 01:41 17.03.2020
6333 Clouds 8 1026 71 10000 1 80 01:19 17.03.2020
6334 Clouds 8 1025 58 10000 3.1 290 00:25 17.03.2020
6335 Clouds 8 1025 62 10000 3.1 290 23:45 16.03.2020
6336 Clouds 8 1025 61 10000 2.1 290 23:23 16.03.2020
6337 Clouds 9 1025 61 10000 2.1 270 22:40 16.03.2020
6338 Clouds 9 1024 70 10000 2.6 270 22:22 16.03.2020
6339 Clouds 10 1024 57 10000 2.1 280 21:57 16.03.2020
6340 Clouds 10 1024 57 10000 2.1 280 21:57 16.03.2020
6341 Clouds 10 1024 57 10000 2.1 280 21:38 16.03.2020
6342 Clouds 10 1024 61 10000 1.5 220 21:20 16.03.2020
6343 Clouds 10 1023 57 10000 1.5 280 20:55 16.03.2020
6344 Clouds 11 1023 57 10000 1.5 280 20:37 16.03.2020
6345 Clouds 11 1023 50 10000 0.5 0 20:18 16.03.2020
6346 Clouds 12 1023 47 10000 1.5 360 19:41 16.03.2020
6347 Clouds 13 1022 38 10000 2.6 330 19:20 16.03.2020
6348 Clouds 13 1022 44 10000 3.1 340 18:43 16.03.2020
6349 Clouds 14 1022 41 10000 4.6 340 18:21 16.03.2020
6350 Clouds 15 1021 42 10000 3.6 280 17:56 16.03.2020
6351 Clouds 15 1021 42 10000 3.6 280 17:56 16.03.2020
6352 Clouds 16 1021 42 10000 3.6 280 17:37 16.03.2020
6353 Clouds 17 1021 37 10000 2.6 270 17:18 16.03.2020
6354 Clouds 17 1020 34 10000 3.1 270 16:45 16.03.2020
6355 Clouds 17 1020 34 10000 3.1 270 16:27 16.03.2020
6356 Clouds 17 1020 39 10000 2.1 170 15:56 16.03.2020
6357 Clouds 17 1020 39 10000 2.1 170 15:37 16.03.2020
6358 Clouds 17 1020 37 10000 3.6 160 15:18 16.03.2020
6359 Clouds 17 1020 37 10000 2.1 180 14:39 16.03.2020
6360 Clouds 16 1020 36 10000 2.6 220 14:19 16.03.2020
6361 Clouds 16 1020 36 10000 3.1 270 13:41 16.03.2020
6362 Clouds 16 1020 39 10000 3.6 250 13:22 16.03.2020
6363 Clouds 16 1020 42 10000 2.6 0 12:45 16.03.2020
6364 Clouds 16 1020 42 10000 2.6 0 12:26 16.03.2020
6365 Clouds 15 1020 48 10000 2.1 90 11:58 16.03.2020
6366 Clouds 15 1021 51 10000 1.5 100 11:39 16.03.2020
6367 Clouds 14 1020 54 10000 2.1 100 11:18 16.03.2020
6368 Clouds 12 1020 66 10000 1.5 90 10:41 16.03.2020
6369 Clouds 12 1020 66 10000 1.5 120 10:19 16.03.2020
6370 Clouds 10 1020 70 10000 0.5 0 09:44 16.03.2020
6371 Clouds 9 1020 70 10000 1 0 09:24 16.03.2020
6372 Clouds 7 1020 70 10000 1 0 08:56 16.03.2020
6373 Clouds 6 1019 75 10000 0.5 0 08:25 16.03.2020
6374 Clouds 4 1018 76 10000 1 0 07:50 16.03.2020
6375 Clouds 3 1018 76 10000 1 60 07:27 16.03.2020
6376 Clouds 3 1018 86 10000 1 70 06:54 16.03.2020
6377 Clouds 2 1017 86 10000 1 0 06:26 16.03.2020
6378 Clouds 3 1017 80 10000 1 0 05:50 16.03.2020
6379 Clouds 4 1016 80 10000 1 290 02:46 16.03.2020
6380 Clouds 4 1015 74 10000 1 300 01:20 16.03.2020
6381 Clouds 5 1015 69 10000 0.5 0 00:42 16.03.2020
6382 Clouds 5 1015 69 10000 1 0 23:49 15.03.2020
6383 Clouds 6 1015 72 10000 0.5 0 23:21 15.03.2020
6384 Clouds 6 1015 72 10000 0.5 0 22:56 15.03.2020
6385 Clouds 6 1015 72 10000 0.5 0 22:37 15.03.2020
6386 Clouds 6 1015 72 10000 0.5 0 22:19 15.03.2020
6387 Clouds 7 1015 72 10000 1 0 21:39 15.03.2020
6388 Clouds 7 1015 72 10000 1.5 210 21:19 15.03.2020
6389 Clouds 7 1015 61 10000 2.6 110 20:43 15.03.2020
6390 Clouds 8 1015 63 10000 1.5 190 20:22 15.03.2020
6391 Clouds 8 1015 63 10000 1.5 190 19:59 15.03.2020
6392 Clouds 9 1015 57 10000 1.5 170 19:40 15.03.2020
6393 Clouds 10 1015 50 10000 1.5 120 19:22 15.03.2020
6394 Clouds 11 1014 63 10000 1 60 18:58 15.03.2020
6395 Clouds 12 1014 63 10000 1 60 18:39 15.03.2020
6396 Clouds 13 1014 35 10000 1 0 18:21 15.03.2020
6397 Clouds 13 1014 63 10000 1 0 17:54 15.03.2020
6398 Clouds 13 1014 63 10000 1 0 17:36 15.03.2020
6399 Clouds 14 1015 33 10000 2.1 90 17:18 15.03.2020
6400 Clouds 14 1015 33 10000 2.1 110 16:42 15.03.2020
6401 Clouds 14 1015 46 10000 2.6 120 16:23 15.03.2020
6402 Clouds 14 1015 46 10000 2.6 120 15:57 15.03.2020
6403 Clouds 14 1015 46 10000 2.6 120 15:38 15.03.2020
6404 Clouds 14 1016 33 10000 2.6 130 15:19 15.03.2020
6405 Clouds 14 1016 33 10000 1.5 0 14:46 15.03.2020
6406 Clouds 13 1016 35 10000 2.6 0 14:24 15.03.2020
6407 Clouds 13 1016 35 10000 2.6 0 13:57 15.03.2020
6408 Clouds 13 1017 35 10000 2.6 0 13:38 15.03.2020
6409 Clouds 12 1017 37 10000 2.6 120 13:19 15.03.2020
6410 Clouds 12 1017 40 10000 3.6 150 12:44 15.03.2020
6411 Clouds 12 1018 40 10000 3.1 140 12:25 15.03.2020
6412 Clouds 11 1018 50 10000 1 0 11:56 15.03.2020
6413 Clouds 11 1018 50 10000 1 0 11:38 15.03.2020
6414 Clear 9 1019 53 10000 1.5 280 11:20 15.03.2020
6415 Clear 9 1019 61 10000 0.5 0 10:55 15.03.2020
6416 Clear 8 1019 61 10000 0.5 0 10:36 15.03.2020
6417 Clear 8 1019 65 10000 1.5 70 10:18 15.03.2020
6418 Clear 7 1019 70 10000 1.5 70 09:39 15.03.2020
6419 -273 0 0 0 0 0 09:20 15.03.2020
6420 Clear 4 1020 61 10000 0.5 0 08:42 15.03.2020
6421 Clouds 2 1020 81 10000 0.5 0 08:20 15.03.2020
6422 Clouds 1 1020 86 10000 1 300 07:51 15.03.2020
6423 Clouds 1 1020 86 10000 1 300 07:31 15.03.2020
6424 Clouds 0 1020 92 10000 0.5 0 06:53 15.03.2020
6425 Clouds 1 1020 100 10000 0.5 0 05:50 15.03.2020
6426 Clear 1 1021 92 10000 0.5 0 05:19 15.03.2020
6427 Clear 1 1021 81 10000 1 0 04:43 15.03.2020
6428 Clear 1 1021 81 10000 1 0 04:24 15.03.2020
6429 Clear 1 1021 92 10000 1 300 03:48 15.03.2020
6430 Clear 2 1022 81 10000 1 0 02:38 15.03.2020
6431 Clear 2 1022 86 10000 1 330 01:35 15.03.2020
6432 Clear 2 1022 86 10000 1.5 310 00:46 15.03.2020
6433 Clear 3 1022 80 10000 1 340 00:27 15.03.2020
6434 Clear 3 1022 80 10000 0.5 0 23:55 14.03.2020
6435 Clear 3 1022 80 10000 0.5 0 23:37 14.03.2020
6436 Clear 3 1022 80 10000 0.5 0 23:37 14.03.2020
6437 Clouds 3 1022 83 10000 1 0 23:18 14.03.2020
6438 Clouds 3 1022 83 10000 0.5 0 22:44 14.03.2020
6439 Clouds 3 1022 86 10000 0.5 0 22:26 14.03.2020
6440 Clouds 4 1022 86 10000 2.02 184 21:57 14.03.2020
6441 Clouds 4 1022 83 10000 0.5 260 21:36 14.03.2020
6442 Clouds 4 1022 86 10000 1 0 21:18 14.03.2020
6443 Clouds 4 1022 86 10000 1 0 20:59 14.03.2020
6444 Clouds 4 1022 80 10000 2.1 90 20:40 14.03.2020
6445 Clouds 5 1022 75 10000 2.1 80 20:19 14.03.2020
6446 Clouds 5 1022 75 10000 2.1 80 20:19 14.03.2020
6447 Clouds 5 1022 75 10000 2.6 70 19:56 14.03.2020
6448 Clouds 5 1022 75 10000 2.6 70 19:38 14.03.2020
6449 Clouds 6 1022 70 10000 1 0 19:19 14.03.2020
6450 Clouds 6 1021 70 10000 0.5 0 18:37 14.03.2020
6451 Clouds 7 1021 65 10000 0.5 80 18:19 14.03.2020
6452 Clouds 7 1021 70 10000 0.5 0 17:39 14.03.2020
6453 Clouds 7 1021 70 10000 1.5 280 17:21 14.03.2020
6454 Clouds 8 1021 70 10000 2.1 280 16:41 14.03.2020
6455 Rain 8 1021 65 10000 4.6 270 16:23 14.03.2020
6456 Rain 9 1021 48 10000 3.6 220 15:59 14.03.2020
6457 Rain 9 1021 48 10000 3.6 220 15:27 14.03.2020
6458 Rain 9 1021 49 10000 3.1 200 14:59 14.03.2020
6459 Rain 10 1020 39 10000 0.5 0 14:37 14.03.2020
6460 Rain 10 1021 42 10000 1 0 14:19 14.03.2020
6461 Rain 9 1021 42 10000 1 0 13:56 14.03.2020
6462 Rain 9 1021 43 10000 1 0 13:38 14.03.2020
6463 Rain 9 1021 46 10000 1 0 13:18 14.03.2020
6464 Rain 9 1021 57 10000 1.5 0 12:43 14.03.2020
6465 Clouds 9 1021 57 10000 1 0 12:24 14.03.2020
6466 Clouds 9 1021 61 10000 1.5 0 11:43 14.03.2020
6467 Clouds 9 1021 61 10000 1.5 0 11:43 14.03.2020
6468 Clouds 8 1021 70 10000 1 0 11:25 14.03.2020
6469 Clouds 7 1021 70 10000 0.5 0 10:47 14.03.2020
6470 Clouds 6 1021 71 10000 0.5 0 10:28 14.03.2020
6471 Clouds 5 1021 71 10000 0.5 0 09:59 14.03.2020
6472 Clouds 4 1021 71 10000 1.5 80 09:40 14.03.2020
6473 Clouds 3 1021 71 10000 0.5 0 09:21 14.03.2020
6474 Clouds 3 1021 86 10000 0.5 0 08:46 14.03.2020
6475 Clouds 2 1021 86 10000 0.5 0 08:27 14.03.2020
6476 Clouds 1 1021 88 10000 1 70 07:45 14.03.2020
6477 Clouds 1 1021 92 10000 1 70 07:22 14.03.2020
6478 Clouds 0 1021 92 10000 1 70 06:59 14.03.2020
6479 Clouds 0 1021 88 10000 1 0 06:39 14.03.2020
6480 Clouds 1 1020 87 10000 1 320 04:57 14.03.2020
6481 Clouds 1 1021 87 10000 1 0 03:41 14.03.2020
6482 Clouds 1 1021 87 10000 0.5 0 03:20 14.03.2020
6483 Clouds 1 1021 86 10000 1 0 02:19 14.03.2020
6484 Clouds 2 1021 80 10000 1 0 00:42 14.03.2020
6485 Clouds 3 1021 74 10000 2.6 300 23:45 13.03.2020
6486 Clouds 3 1021 74 10000 3.1 260 23:26 13.03.2020
6487 Clouds 3 1021 69 10000 2.6 250 22:47 13.03.2020
6488 Clouds 3 1021 74 10000 2.1 220 22:25 13.03.2020
6489 Clouds 4 1021 69 10000 3.1 250 21:43 13.03.2020
6490 Clouds 5 1022 69 10000 1.5 200 21:21 13.03.2020
6491 Clouds 5 1022 69 10000 1.5 200 20:57 13.03.2020
6492 Clouds 5 1021 65 10000 1 0 20:38 13.03.2020
6493 Clear 5 1021 65 10000 2.1 260 20:19 13.03.2020
6494 Clear 6 1021 60 10000 2.1 260 19:45 13.03.2020
6495 Clear 7 1021 52 10000 5.1 270 19:27 13.03.2020
6496 Clear 7 1021 49 10000 5.7 270 18:47 13.03.2020
6497 Clear 8 1021 45 10000 7.2 280 18:28 13.03.2020
6498 Clear 9 1020 45 10000 5.7 260 17:57 13.03.2020
6499 Clear 9 1020 45 10000 5.7 260 17:38 13.03.2020
6500 Clear 9 1020 49 10000 6.7 280 17:19 13.03.2020
6501 Clear 10 1020 46 10000 7.7 300 16:42 13.03.2020
6502 Clear 10 1020 43 10000 7.7 280 16:24 13.03.2020
6503 Clear 10 1020 43 10000 7.7 280 15:56 13.03.2020
6504 Clear 10 1020 43 10000 6.7 270 15:37 13.03.2020
6505 Clear 10 1020 46 10000 8.7 280 15:19 13.03.2020
6506 Clear 10 1020 45 10000 6.7 270 14:41 13.03.2020
6507 Clear 10 1020 45 10000 6.7 270 14:41 13.03.2020
6508 Clouds 10 1021 43 10000 7.7 260 14:22 13.03.2020
6509 Clouds 9 1021 43 10000 7.7 260 13:57 13.03.2020
6510 Clouds 9 1021 43 10000 8.2 260 13:38 13.03.2020
6511 Clouds 9 1021 45 10000 7.7 260 13:19 13.03.2020
6512 Clouds 9 1021 52 10000 8.7 270 12:54 13.03.2020
6513 Clouds 8 1021 52 10000 8.7 270 12:36 13.03.2020
6514 Clouds 8 1021 49 10000 8.2 270 12:18 13.03.2020
6515 Clouds 8 1021 52 10000 6.7 230 11:42 13.03.2020
6516 Clouds 7 1021 52 10000 6.7 240 11:24 13.03.2020
6517 Clouds 7 1021 52 10000 5.7 240 10:48 13.03.2020
6518 Clouds 7 1021 71 10000 7.2 250 10:28 13.03.2020
6519 Clouds 6 1020 70 10000 4.1 240 09:59 13.03.2020
6520 Clouds 6 1020 70 10000 4.1 240 09:41 13.03.2020
6521 Clouds 6 1020 70 10000 3.6 230 09:22 13.03.2020
6522 Clouds 5 1020 75 10000 4.1 240 08:46 13.03.2020
6523 Clouds 5 1019 75 10000 4.1 230 08:23 13.03.2020
6524 Clouds 4 1019 80 10000 5.7 250 07:52 13.03.2020
6525 Clouds 4 1019 80 10000 5.7 250 07:28 13.03.2020
6526 Rain 4 1019 86 10000 6.2 260 06:57 13.03.2020
6527 Rain 4 1018 93 10000 5.1 260 06:32 13.03.2020
6528 Rain 5 1018 86 10000 6.2 290 05:55 13.03.2020
6529 Rain 5 1018 86 10000 6.2 290 05:37 13.03.2020
6530 Rain 5 1017 86 10000 6.7 280 04:38 13.03.2020
6531 Clouds 6 1016 75 10000 3.6 200 03:43 13.03.2020
6532 Clouds 6 1016 75 10000 2.1 230 01:48 13.03.2020
6533 Clouds 6 1016 75 10000 2.1 220 01:19 13.03.2020
6534 Rain 7 1016 65 10000 3.1 230 00:56 13.03.2020
6535 Rain 7 1017 70 10000 3.1 250 00:29 13.03.2020
6536 Clouds 7 1017 70 10000 4.1 250 23:59 12.03.2020
6537 Rain 7 1016 75 10000 4.6 260 23:29 12.03.2020
6538 Clouds 7 1016 75 10000 7.2 280 22:58 12.03.2020
6539 Clouds 7 1016 75 10000 7.2 280 22:40 12.03.2020
6540 Clouds 8 1016 70 10000 5.7 280 22:22 12.03.2020
6541 Rain 8 1016 81 10000 6.7 280 21:54 12.03.2020
6542 Rain 8 1016 81 10000 6.7 280 21:36 12.03.2020
6543 Rain 9 1015 87 10000 7.7 290 21:18 12.03.2020
6544 Clouds 9 1015 87 10000 4.1 260 20:41 12.03.2020
6545 Clouds 9 1015 87 10000 4.1 260 20:41 12.03.2020
6546 Clouds 9 1015 93 10000 2.1 190 20:19 12.03.2020
6547 Clouds 9 1014 93 10000 1.5 150 19:42 12.03.2020
6548 Rain 9 1014 93 10000 1.5 190 19:21 12.03.2020
6549 Rain 9 1014 93 10000 1.5 190 19:21 12.03.2020
6550 Clouds 9 1014 93 10000 2.1 290 18:45 12.03.2020
6551 Rain 9 1014 81 10000 5.1 290 18:25 12.03.2020
6552 Rain 10 1014 81 8000 7.7 290 17:58 12.03.2020
6553 Rain 10 1014 81 8000 7.7 290 17:40 12.03.2020
6554 Drizzle 10 1014 87 10000 6.7 300 17:22 12.03.2020
6555 Drizzle 10 1014 93 10000 7.2 310 16:58 12.03.2020
6556 Drizzle 11 1014 93 10000 7.2 310 16:40 12.03.2020
6557 Rain 11 1014 87 10000 6.2 310 16:21 12.03.2020
6558 Rain 12 1014 87 10000 6.7 300 15:48 12.03.2020
6559 Rain 12 1014 81 10000 6.2 300 15:28 12.03.2020
6560 Rain 12 1014 81 10000 6.2 300 15:28 12.03.2020
6561 Rain 13 1014 58 10000 7.7 250 14:55 12.03.2020
6562 Rain 13 1014 58 10000 7.7 250 14:37 12.03.2020
6563 Rain 13 1014 58 10000 8.7 260 14:18 12.03.2020
6564 Rain 14 1014 51 10000 7.7 240 13:38 12.03.2020
6565 Clouds 15 1014 51 10000 7.2 240 13:20 12.03.2020
6566 Clouds 15 1014 51 10000 5.7 230 12:43 12.03.2020
6567 Clouds 15 1014 51 10000 7.7 250 12:24 12.03.2020
6568 Clouds 15 1014 51 10000 6.7 240 11:59 12.03.2020
6569 Clouds 15 1014 51 10000 6.7 240 11:59 12.03.2020
6570 Clouds 15 1014 51 10000 6.7 240 11:39 12.03.2020
6571 Clouds 14 1014 54 10000 6.2 240 11:21 12.03.2020
6572 Clouds 14 1014 54 10000 6.2 250 10:59 12.03.2020
6573 Clouds 14 1014 54 10000 6.2 250 10:41 12.03.2020
6574 Clouds 14 1014 58 10000 7.7 240 10:23 12.03.2020
6575 Clouds 13 1014 62 10000 6.2 240 09:55 12.03.2020
6576 Clouds 13 1014 62 10000 6.2 240 09:37 12.03.2020
6577 Clouds 13 1014 66 10000 6.7 240 09:19 12.03.2020
6578 Clouds 12 1014 66 10000 3.1 230 08:38 12.03.2020
6579 Clouds 11 1014 76 10000 2.1 220 08:18 12.03.2020
6580 Clouds 11 1014 76 10000 2.1 230 07:47 12.03.2020
6581 Clouds 11 1014 81 10000 2.1 240 07:22 12.03.2020
6582 Clouds 10 1014 76 10000 1 0 06:20 12.03.2020
6583 Rain 11 1014 71 10000 3.1 200 05:35 12.03.2020
6584 Clouds 10 1014 76 10000 1 0 03:44 12.03.2020
6585 Clouds 10 1016 81 10000 2.6 190 01:58 12.03.2020
6586 Clouds 10 1016 81 10000 2.1 200 01:23 12.03.2020
6587 Clouds 10 1016 76 10000 2.6 200 00:42 12.03.2020
6588 Clouds 11 1017 76 10000 3.1 200 23:58 11.03.2020
6589 Clouds 11 1017 76 10000 3.1 200 23:37 11.03.2020
6590 Clouds 11 1017 76 10000 2.6 210 23:18 11.03.2020
6591 Clouds 11 1017 76 10000 2.6 220 22:41 11.03.2020
6592 Clouds 11 1017 76 10000 2.6 210 22:23 11.03.2020
6593 Clouds 11 1017 76 10000 2.6 210 21:58 11.03.2020
6594 Clouds 11 1018 76 10000 4.1 210 21:40 11.03.2020
6595 Clouds 12 1018 76 10000 5.1 200 21:22 11.03.2020
6596 Clouds 12 1018 76 10000 4.6 190 20:57 11.03.2020
6597 Clouds 12 1018 76 10000 4.6 190 20:57 11.03.2020
6598 Clouds 12 1018 76 10000 4.6 190 20:37 11.03.2020
6599 Clouds 12 1018 71 10000 4.1 210 20:19 11.03.2020
6600 Clouds 12 1018 71 10000 4.1 190 19:42 11.03.2020
6601 Clouds 13 1018 66 10000 4.1 230 19:24 11.03.2020
6602 Clouds 13 1018 66 10000 4.1 230 18:57 11.03.2020
6603 Clouds 13 1018 62 10000 8.2 250 18:38 11.03.2020
6604 Clouds 14 1018 62 10000 8.2 250 18:19 11.03.2020
6605 Clouds 14 1018 58 10000 7.7 250 17:55 11.03.2020
6606 Clouds 14 1018 58 10000 7.7 250 17:37 11.03.2020
6607 Clouds 14 1018 58 10000 7.2 240 17:19 11.03.2020
6608 Clouds 14 1018 58 10000 6.7 240 16:44 11.03.2020
6609 Clouds 15 1018 55 10000 8.7 250 16:20 11.03.2020
6610 Clouds 15 1018 55 10000 7.7 240 15:44 11.03.2020
6611 Clouds 15 1018 58 10000 8.2 230 15:23 11.03.2020
6612 Clouds 15 1018 62 10000 6.7 230 14:56 11.03.2020
6613 Clouds 15 1018 62 10000 6.7 230 14:38 11.03.2020
6614 Clouds 15 1018 67 10000 7.7 230 14:19 11.03.2020
6615 Clouds 15 1018 58 10000 8.7 250 13:44 11.03.2020
6616 Clouds 15 1018 62 10000 7.2 240 13:25 11.03.2020
6617 Clouds 15 1018 62 10000 8.7 240 12:57 11.03.2020
6618 Clouds 15 1018 62 10000 8.7 240 12:39 11.03.2020
6619 Clouds 14 1018 71 10000 5.7 220 12:19 11.03.2020
6620 Clouds 14 1018 71 10000 6.2 240 11:41 11.03.2020
6621 Clouds 14 1018 76 10000 5.1 220 11:22 11.03.2020
6622 Rain 13 1018 76 10000 5.7 230 10:56 11.03.2020
6623 Rain 13 1018 76 10000 5.7 230 10:37 11.03.2020
6624 Clouds 13 1017 76 10000 4.6 230 10:18 11.03.2020
6625 Clouds 12 1017 81 10000 4.1 220 09:41 11.03.2020
6626 Clouds 11 1017 87 10000 4.1 200 09:23 11.03.2020
6627 Clouds 11 1017 87 10000 4.6 220 08:45 11.03.2020
6628 Clouds 11 1017 87 10000 4.6 220 08:26 11.03.2020
6629 Drizzle 11 1017 87 10000 3.6 220 07:56 11.03.2020
6630 Drizzle 11 1017 87 10000 4.1 220 07:37 11.03.2020
6631 Clouds 11 1016 81 10000 4.1 220 07:18 11.03.2020
6632 Clouds 11 1016 81 10000 4.1 230 06:37 11.03.2020
6633 Clouds 11 1015 81 10000 4.1 220 05:33 11.03.2020
6634 Clouds 11 1015 81 10000 5.7 220 03:39 11.03.2020
6635 Clouds 10 1015 81 10000 5.7 210 01:57 11.03.2020
6636 Clouds 10 1014 81 10000 6.2 220 01:25 11.03.2020
6637 Clouds 10 1015 87 10000 5.1 220 00:45 11.03.2020
6638 Clouds 10 1015 87 10000 5.7 220 23:56 10.03.2020
6639 Clouds 10 1015 87 10000 5.7 220 23:55 10.03.2020
6640 Clouds 10 1015 87 10000 5.7 220 23:55 10.03.2020
6641 Clouds 10 1015 87 10000 5.7 220 23:55 10.03.2020
6642 Clouds 10 1015 87 10000 5.7 220 23:37 10.03.2020
6643 Clouds 10 1014 87 10000 6.2 220 23:18 10.03.2020
6644 Clouds 10 1014 81 10000 6.7 230 22:38 10.03.2020
6645 Clouds 10 1014 87 10000 6.7 230 22:19 10.03.2020
6646 Clouds 9 1014 87 10000 6.7 220 21:56 10.03.2020
6647 Clouds 9 1014 87 10000 6.7 220 21:38 10.03.2020
6648 Clouds 9 1014 87 10000 5.7 220 21:20 10.03.2020
6649 Clouds 9 1014 87 10000 6.2 220 20:58 10.03.2020
6650 Clouds 9 1014 87 10000 6.2 220 20:40 10.03.2020
6651 Clouds 9 1014 87 10000 5.7 220 20:18 10.03.2020
6652 Clouds 9 1014 87 10000 5.7 220 19:56 10.03.2020
6653 Clouds 8 1013 87 10000 5.7 230 19:37 10.03.2020
6654 Clouds 8 1013 81 10000 5.1 230 19:18 10.03.2020
6655 Clouds 8 1013 81 10000 6.2 220 18:44 10.03.2020
6656 Clouds 8 1012 87 10000 6.7 230 18:25 10.03.2020
6657 Clouds 8 1012 87 10000 6.7 230 17:57 10.03.2020
6658 Clouds 8 1012 87 10000 5.7 230 17:39 10.03.2020
6659 -273 0 0 0 0 0 17:21 10.03.2020
6660 Rain 7 1012 87 8000 5.7 220 16:39 10.03.2020
6661 Rain 7 1012 87 10000 5.1 0 16:19 10.03.2020
6662 Rain 7 1012 87 10000 5.1 210 15:56 10.03.2020
6663 Rain 7 1012 87 10000 5.1 210 15:56 10.03.2020
6664 Rain 7 1012 87 10000 5.1 210 15:37 10.03.2020
6665 Rain 7 1012 93 10000 5.1 210 15:19 10.03.2020
6666 Rain 7 1012 93 8000 4.1 210 14:41 10.03.2020
6667 Rain 7 1012 93 10000 5.1 210 14:20 10.03.2020
6668 Rain 7 1012 93 10000 5.1 210 13:59 10.03.2020
6669 Rain 7 1012 87 10000 5.7 210 13:41 10.03.2020
6670 Rain 6 1013 87 10000 5.1 200 13:22 10.03.2020
6671 Rain 6 1013 87 10000 4.6 210 12:42 10.03.2020
6672 Rain 5 1013 87 10000 4.6 210 12:19 10.03.2020
6673 Rain 5 1013 86 10000 5.7 200 11:58 10.03.2020
6674 Rain 5 1013 86 10000 5.7 200 11:40 10.03.2020
6675 Rain 5 1013 86 10000 5.1 210 11:22 10.03.2020
6676 Rain 5 1013 86 10000 6.2 210 10:43 10.03.2020
6677 Rain 5 1013 86 10000 6.2 210 10:43 10.03.2020
6678 Rain 4 1013 80 10000 4.6 210 10:23 10.03.2020
6679 Rain 4 1013 80 10000 4.6 210 09:59 10.03.2020
6680 Rain 4 1013 86 10000 7.7 200 09:41 10.03.2020
6681 Rain 4 1014 86 10000 6.2 200 09:19 10.03.2020
6682 Rain 4 1014 86 10000 6.2 190 08:51 10.03.2020
6683 Rain 4 1014 86 10000 6.2 190 08:33 10.03.2020
6684 Rain 4 1014 80 10000 5.7 200 07:52 10.03.2020
6685 Rain 5 1014 75 10000 3.6 200 07:32 10.03.2020
6686 Rain 4 1015 75 10000 4.1 200 06:50 10.03.2020
6687 Clouds 4 1015 75 10000 3.6 200 06:31 10.03.2020
6688 Clouds 4 1016 80 10000 3.6 210 05:42 10.03.2020
6689 Clouds 4 1016 80 10000 2.1 210 04:56 10.03.2020
6690 Clouds 4 1016 80 10000 3.1 200 04:25 10.03.2020
6691 Clouds 3 1018 80 10000 3.1 230 02:46 10.03.2020
6692 Clouds 4 1018 80 10000 2.6 210 01:31 10.03.2020
6693 Clouds 3 1019 75 10000 3.6 230 00:50 10.03.2020
6694 Clouds 3 1019 80 10000 2.6 230 00:27 10.03.2020
6695 Clouds 3 1019 86 10000 2.6 210 23:41 09.03.2020
6696 Clear 3 1019 86 10000 2.6 220 23:22 09.03.2020
6697 Clouds 4 1019 86 10000 3.1 220 22:57 09.03.2020
6698 Clouds 4 1019 86 10000 3.1 220 22:37 09.03.2020
6699 Clouds 4 1019 86 10000 2.6 220 22:18 09.03.2020
6700 Clouds 4 1019 80 10000 3.1 230 21:43 09.03.2020
6701 Clouds 4 1018 80 10000 3.1 230 21:22 09.03.2020
6702 Clouds 4 1018 80 10000 2.1 220 20:58 09.03.2020
6703 Clouds 5 1018 80 10000 2.1 220 20:40 09.03.2020
6704 Clouds 5 1018 80 10000 2.1 200 20:20 09.03.2020
6705 Clouds 5 1018 80 10000 1.5 210 19:45 09.03.2020
6706 Clouds 5 1017 81 10000 2.6 210 19:26 09.03.2020
6707 Clouds 6 1017 75 10000 2.6 210 18:59 09.03.2020
6708 Clouds 6 1017 75 10000 2.6 210 18:40 09.03.2020
6709 Clouds 7 1017 65 10000 4.6 250 18:21 09.03.2020
6710 Clouds 7 1016 61 10000 5.1 280 17:58 09.03.2020
6711 Clouds 7 1016 61 10000 5.1 280 17:39 09.03.2020
6712 Clouds 8 1016 70 10000 4.6 240 17:20 09.03.2020
6713 Rain 8 1016 70 10000 3.6 230 16:59 09.03.2020
6714 Rain 8 1016 70 10000 3.6 230 16:41 09.03.2020
6715 Rain 8 1015 61 10000 5.1 290 16:22 09.03.2020
6716 Rain 9 1015 61 10000 5.1 290 15:58 09.03.2020
6717 Rain 9 1015 61 10000 5.1 290 15:39 09.03.2020
6718 Rain 9 1015 61 10000 3.1 230 15:21 09.03.2020
6